<?xml version="1.0" encoding="UTF-8" standalone="no" ?>
<gpx xmlns="http://www.topografix.com/GPX/1/1" xmlns:xsi="http://www.w3.org/2001/XMLSchema-instance" xsi:schemaLocation="http://www.topografix.com/GPX/1/1 http://www.topografix.com/GPX/1/1/gpx.xsd" version="1.1" creator="VisuGPX - https://www.visugpx.com">
  <metadata>
    <name>16/10/2021</name>
    <desc><![CDATA[boucle au départ du camping l'airial puis Azur, Messanges, Vieux boucau et retour]]></desc>
  </metadata>
  <trk>
    <name><![CDATA[16/10/2021_1]]></name>
    <trkseg>
      <trkpt lat="43.75244" lon="-1.35281">
        <ele>12.8</ele>
        <time>2021-10-16T06:23:44Z</time>
      </trkpt>
      <trkpt lat="43.75259" lon="-1.35267">
        <ele>21</ele>
        <time>2021-10-16T06:23:50Z</time>
      </trkpt>
      <trkpt lat="43.75272" lon="-1.35259">
        <ele>20.8</ele>
        <time>2021-10-16T06:23:55Z</time>
      </trkpt>
      <trkpt lat="43.75276" lon="-1.35258">
        <ele>20.8</ele>
        <time>2021-10-16T06:23:56Z</time>
      </trkpt>
      <trkpt lat="43.7528" lon="-1.35259">
        <ele>20.8</ele>
        <time>2021-10-16T06:23:57Z</time>
      </trkpt>
      <trkpt lat="43.75285" lon="-1.35261">
        <ele>20.8</ele>
        <time>2021-10-16T06:23:58Z</time>
      </trkpt>
      <trkpt lat="43.7529" lon="-1.35263">
        <ele>20.8</ele>
        <time>2021-10-16T06:23:59Z</time>
      </trkpt>
      <trkpt lat="43.75298" lon="-1.35265">
        <ele>20.6</ele>
        <time>2021-10-16T06:24:01Z</time>
      </trkpt>
      <trkpt lat="43.75306" lon="-1.35266">
        <ele>20.4</ele>
        <time>2021-10-16T06:24:03Z</time>
      </trkpt>
      <trkpt lat="43.75322" lon="-1.35269">
        <ele>19.8</ele>
        <time>2021-10-16T06:24:07Z</time>
      </trkpt>
      <trkpt lat="43.75327" lon="-1.35271">
        <ele>19.6</ele>
        <time>2021-10-16T06:24:08Z</time>
      </trkpt>
      <trkpt lat="43.7533" lon="-1.35273">
        <ele>19.6</ele>
        <time>2021-10-16T06:24:09Z</time>
      </trkpt>
      <trkpt lat="43.75334" lon="-1.35276">
        <ele>19.4</ele>
        <time>2021-10-16T06:24:10Z</time>
      </trkpt>
      <trkpt lat="43.75337" lon="-1.35279">
        <ele>19.4</ele>
        <time>2021-10-16T06:24:11Z</time>
      </trkpt>
      <trkpt lat="43.75342" lon="-1.35282">
        <ele>19.2</ele>
        <time>2021-10-16T06:24:12Z</time>
      </trkpt>
      <trkpt lat="43.75345" lon="-1.35284">
        <ele>19.2</ele>
        <time>2021-10-16T06:24:13Z</time>
      </trkpt>
      <trkpt lat="43.75348" lon="-1.35287">
        <ele>19.2</ele>
        <time>2021-10-16T06:24:14Z</time>
      </trkpt>
      <trkpt lat="43.75352" lon="-1.3529">
        <ele>19.2</ele>
        <time>2021-10-16T06:24:15Z</time>
      </trkpt>
      <trkpt lat="43.75354" lon="-1.35292">
        <ele>19</ele>
        <time>2021-10-16T06:24:16Z</time>
      </trkpt>
      <trkpt lat="43.75357" lon="-1.35296">
        <ele>19</ele>
        <time>2021-10-16T06:24:17Z</time>
      </trkpt>
      <trkpt lat="43.7536" lon="-1.35299">
        <ele>19</ele>
        <time>2021-10-16T06:24:18Z</time>
      </trkpt>
      <trkpt lat="43.7537" lon="-1.35309">
        <ele>18.8</ele>
        <time>2021-10-16T06:24:21Z</time>
      </trkpt>
      <trkpt lat="43.75373" lon="-1.35309">
        <ele>18.8</ele>
        <time>2021-10-16T06:24:22Z</time>
      </trkpt>
      <trkpt lat="43.75377" lon="-1.35307">
        <ele>18.8</ele>
        <time>2021-10-16T06:24:23Z</time>
      </trkpt>
      <trkpt lat="43.75381" lon="-1.35303">
        <ele>18.8</ele>
        <time>2021-10-16T06:24:24Z</time>
      </trkpt>
      <trkpt lat="43.75383" lon="-1.353">
        <ele>18.6</ele>
        <time>2021-10-16T06:24:25Z</time>
      </trkpt>
      <trkpt lat="43.75387" lon="-1.35291">
        <ele>18.4</ele>
        <time>2021-10-16T06:24:27Z</time>
      </trkpt>
      <trkpt lat="43.75388" lon="-1.35287">
        <ele>18.4</ele>
        <time>2021-10-16T06:24:28Z</time>
      </trkpt>
      <trkpt lat="43.75389" lon="-1.35281">
        <ele>18.4</ele>
        <time>2021-10-16T06:24:29Z</time>
      </trkpt>
      <trkpt lat="43.75391" lon="-1.35276">
        <ele>18.4</ele>
        <time>2021-10-16T06:24:30Z</time>
      </trkpt>
      <trkpt lat="43.75392" lon="-1.35267">
        <ele>18.4</ele>
        <time>2021-10-16T06:24:32Z</time>
      </trkpt>
      <trkpt lat="43.75393" lon="-1.35258">
        <ele>18.4</ele>
        <time>2021-10-16T06:24:34Z</time>
      </trkpt>
      <trkpt lat="43.75393" lon="-1.35252">
        <ele>18.4</ele>
        <time>2021-10-16T06:24:35Z</time>
      </trkpt>
      <trkpt lat="43.75393" lon="-1.35235">
        <ele>18.2</ele>
        <time>2021-10-16T06:24:38Z</time>
      </trkpt>
      <trkpt lat="43.75393" lon="-1.3523">
        <ele>18.2</ele>
        <time>2021-10-16T06:24:39Z</time>
      </trkpt>
      <trkpt lat="43.75395" lon="-1.35225">
        <ele>18.2</ele>
        <time>2021-10-16T06:24:40Z</time>
      </trkpt>
      <trkpt lat="43.75397" lon="-1.35221">
        <ele>18.2</ele>
        <time>2021-10-16T06:24:41Z</time>
      </trkpt>
      <trkpt lat="43.754" lon="-1.35217">
        <ele>18.2</ele>
        <time>2021-10-16T06:24:42Z</time>
      </trkpt>
      <trkpt lat="43.75402" lon="-1.35213">
        <ele>18.4</ele>
        <time>2021-10-16T06:24:43Z</time>
      </trkpt>
      <trkpt lat="43.75404" lon="-1.35211">
        <ele>18.4</ele>
        <time>2021-10-16T06:24:44Z</time>
      </trkpt>
      <trkpt lat="43.75405" lon="-1.35209">
        <ele>18.4</ele>
        <time>2021-10-16T06:24:45Z</time>
      </trkpt>
      <trkpt lat="43.75406" lon="-1.35208">
        <ele>18.4</ele>
        <time>2021-10-16T06:24:46Z</time>
      </trkpt>
      <trkpt lat="43.75409" lon="-1.35206">
        <ele>18.4</ele>
        <time>2021-10-16T06:24:47Z</time>
      </trkpt>
      <trkpt lat="43.75422" lon="-1.35194">
        <ele>18.2</ele>
        <time>2021-10-16T06:24:51Z</time>
      </trkpt>
      <trkpt lat="43.75449" lon="-1.35166">
        <ele>18</ele>
        <time>2021-10-16T06:24:59Z</time>
      </trkpt>
      <trkpt lat="43.75456" lon="-1.35152">
        <ele>18</ele>
        <time>2021-10-16T06:25:02Z</time>
      </trkpt>
      <trkpt lat="43.75458" lon="-1.35147">
        <ele>18</ele>
        <time>2021-10-16T06:25:03Z</time>
      </trkpt>
      <trkpt lat="43.75463" lon="-1.35137">
        <ele>18</ele>
        <time>2021-10-16T06:25:05Z</time>
      </trkpt>
      <trkpt lat="43.75467" lon="-1.35134">
        <ele>18</ele>
        <time>2021-10-16T06:25:06Z</time>
      </trkpt>
      <trkpt lat="43.7547" lon="-1.35131">
        <ele>18</ele>
        <time>2021-10-16T06:25:07Z</time>
      </trkpt>
      <trkpt lat="43.75474" lon="-1.3513">
        <ele>18</ele>
        <time>2021-10-16T06:25:08Z</time>
      </trkpt>
      <trkpt lat="43.75478" lon="-1.35129">
        <ele>18</ele>
        <time>2021-10-16T06:25:09Z</time>
      </trkpt>
      <trkpt lat="43.75483" lon="-1.35128">
        <ele>18.2</ele>
        <time>2021-10-16T06:25:10Z</time>
      </trkpt>
      <trkpt lat="43.75487" lon="-1.35126">
        <ele>18.2</ele>
        <time>2021-10-16T06:25:11Z</time>
      </trkpt>
      <trkpt lat="43.75489" lon="-1.35122">
        <ele>18.4</ele>
        <time>2021-10-16T06:25:12Z</time>
      </trkpt>
      <trkpt lat="43.75491" lon="-1.35118">
        <ele>18.4</ele>
        <time>2021-10-16T06:25:13Z</time>
      </trkpt>
      <trkpt lat="43.75493" lon="-1.35105">
        <ele>18.4</ele>
        <time>2021-10-16T06:25:15Z</time>
      </trkpt>
      <trkpt lat="43.75488" lon="-1.35097">
        <ele>18.2</ele>
        <time>2021-10-16T06:25:17Z</time>
      </trkpt>
      <trkpt lat="43.75484" lon="-1.35092">
        <ele>17.8</ele>
        <time>2021-10-16T06:25:18Z</time>
      </trkpt>
      <trkpt lat="43.75481" lon="-1.35087">
        <ele>17.8</ele>
        <time>2021-10-16T06:25:19Z</time>
      </trkpt>
      <trkpt lat="43.75477" lon="-1.35082">
        <ele>17.6</ele>
        <time>2021-10-16T06:25:20Z</time>
      </trkpt>
      <trkpt lat="43.75474" lon="-1.35076">
        <ele>17.6</ele>
        <time>2021-10-16T06:25:21Z</time>
      </trkpt>
      <trkpt lat="43.75468" lon="-1.35057">
        <ele>17.4</ele>
        <time>2021-10-16T06:25:24Z</time>
      </trkpt>
      <trkpt lat="43.75467" lon="-1.35051">
        <ele>17.4</ele>
        <time>2021-10-16T06:25:25Z</time>
      </trkpt>
      <trkpt lat="43.75464" lon="-1.35033">
        <ele>17.4</ele>
        <time>2021-10-16T06:25:28Z</time>
      </trkpt>
      <trkpt lat="43.75465" lon="-1.35026">
        <ele>17.4</ele>
        <time>2021-10-16T06:25:29Z</time>
      </trkpt>
      <trkpt lat="43.75467" lon="-1.3502">
        <ele>17.4</ele>
        <time>2021-10-16T06:25:30Z</time>
      </trkpt>
      <trkpt lat="43.75469" lon="-1.35015">
        <ele>17.6</ele>
        <time>2021-10-16T06:25:31Z</time>
      </trkpt>
      <trkpt lat="43.75472" lon="-1.35011">
        <ele>17.6</ele>
        <time>2021-10-16T06:25:32Z</time>
      </trkpt>
      <trkpt lat="43.75476" lon="-1.35007">
        <ele>17.6</ele>
        <time>2021-10-16T06:25:33Z</time>
      </trkpt>
      <trkpt lat="43.75481" lon="-1.35003">
        <ele>17.6</ele>
        <time>2021-10-16T06:25:34Z</time>
      </trkpt>
      <trkpt lat="43.75492" lon="-1.34991">
        <ele>17.6</ele>
        <time>2021-10-16T06:25:37Z</time>
      </trkpt>
      <trkpt lat="43.75516" lon="-1.34967">
        <ele>17.4</ele>
        <time>2021-10-16T06:25:43Z</time>
      </trkpt>
      <trkpt lat="43.75519" lon="-1.34963">
        <ele>17.4</ele>
        <time>2021-10-16T06:25:44Z</time>
      </trkpt>
      <trkpt lat="43.75522" lon="-1.34959">
        <ele>17.4</ele>
        <time>2021-10-16T06:25:45Z</time>
      </trkpt>
      <trkpt lat="43.75525" lon="-1.34954">
        <ele>17.4</ele>
        <time>2021-10-16T06:25:46Z</time>
      </trkpt>
      <trkpt lat="43.75527" lon="-1.3495">
        <ele>17.4</ele>
        <time>2021-10-16T06:25:47Z</time>
      </trkpt>
      <trkpt lat="43.75528" lon="-1.34945">
        <ele>17.2</ele>
        <time>2021-10-16T06:25:48Z</time>
      </trkpt>
      <trkpt lat="43.7553" lon="-1.34941">
        <ele>17.2</ele>
        <time>2021-10-16T06:25:49Z</time>
      </trkpt>
      <trkpt lat="43.75531" lon="-1.34936">
        <ele>17.2</ele>
        <time>2021-10-16T06:25:50Z</time>
      </trkpt>
      <trkpt lat="43.75531" lon="-1.34932">
        <ele>17.2</ele>
        <time>2021-10-16T06:25:51Z</time>
      </trkpt>
      <trkpt lat="43.75532" lon="-1.34928">
        <ele>17.2</ele>
        <time>2021-10-16T06:25:52Z</time>
      </trkpt>
      <trkpt lat="43.75532" lon="-1.34923">
        <ele>17.2</ele>
        <time>2021-10-16T06:25:53Z</time>
      </trkpt>
      <trkpt lat="43.75537" lon="-1.34907">
        <ele>17.2</ele>
        <time>2021-10-16T06:25:56Z</time>
      </trkpt>
      <trkpt lat="43.75539" lon="-1.34903">
        <ele>17.2</ele>
        <time>2021-10-16T06:25:57Z</time>
      </trkpt>
      <trkpt lat="43.75543" lon="-1.34899">
        <ele>17.2</ele>
        <time>2021-10-16T06:25:58Z</time>
      </trkpt>
      <trkpt lat="43.75546" lon="-1.34895">
        <ele>17.2</ele>
        <time>2021-10-16T06:25:59Z</time>
      </trkpt>
      <trkpt lat="43.75553" lon="-1.34882">
        <ele>17</ele>
        <time>2021-10-16T06:26:02Z</time>
      </trkpt>
      <trkpt lat="43.75555" lon="-1.34876">
        <ele>17</ele>
        <time>2021-10-16T06:26:03Z</time>
      </trkpt>
      <trkpt lat="43.75557" lon="-1.34871">
        <ele>17</ele>
        <time>2021-10-16T06:26:04Z</time>
      </trkpt>
      <trkpt lat="43.75557" lon="-1.34865">
        <ele>16.8</ele>
        <time>2021-10-16T06:26:05Z</time>
      </trkpt>
      <trkpt lat="43.75558" lon="-1.34859">
        <ele>16.8</ele>
        <time>2021-10-16T06:26:06Z</time>
      </trkpt>
      <trkpt lat="43.75558" lon="-1.34853">
        <ele>16.8</ele>
        <time>2021-10-16T06:26:07Z</time>
      </trkpt>
      <trkpt lat="43.75557" lon="-1.34847">
        <ele>16.8</ele>
        <time>2021-10-16T06:26:08Z</time>
      </trkpt>
      <trkpt lat="43.75551" lon="-1.34825">
        <ele>16.4</ele>
        <time>2021-10-16T06:26:12Z</time>
      </trkpt>
      <trkpt lat="43.7555" lon="-1.34819">
        <ele>16.4</ele>
        <time>2021-10-16T06:26:13Z</time>
      </trkpt>
      <trkpt lat="43.75549" lon="-1.34815">
        <ele>16.2</ele>
        <time>2021-10-16T06:26:14Z</time>
      </trkpt>
      <trkpt lat="43.75547" lon="-1.3481">
        <ele>16.2</ele>
        <time>2021-10-16T06:26:15Z</time>
      </trkpt>
      <trkpt lat="43.75542" lon="-1.34796">
        <ele>16</ele>
        <time>2021-10-16T06:26:18Z</time>
      </trkpt>
      <trkpt lat="43.75539" lon="-1.34792">
        <ele>16</ele>
        <time>2021-10-16T06:26:19Z</time>
      </trkpt>
      <trkpt lat="43.7553" lon="-1.34776">
        <ele>16</ele>
        <time>2021-10-16T06:26:22Z</time>
      </trkpt>
      <trkpt lat="43.75528" lon="-1.34769">
        <ele>16</ele>
        <time>2021-10-16T06:26:23Z</time>
      </trkpt>
      <trkpt lat="43.75527" lon="-1.34763">
        <ele>16</ele>
        <time>2021-10-16T06:26:24Z</time>
      </trkpt>
      <trkpt lat="43.75526" lon="-1.34757">
        <ele>15.8</ele>
        <time>2021-10-16T06:26:25Z</time>
      </trkpt>
      <trkpt lat="43.7552" lon="-1.34739">
        <ele>15.8</ele>
        <time>2021-10-16T06:26:28Z</time>
      </trkpt>
      <trkpt lat="43.75518" lon="-1.34733">
        <ele>15.8</ele>
        <time>2021-10-16T06:26:29Z</time>
      </trkpt>
      <trkpt lat="43.7551" lon="-1.34709">
        <ele>15.4</ele>
        <time>2021-10-16T06:26:33Z</time>
      </trkpt>
      <trkpt lat="43.75505" lon="-1.34698">
        <ele>15.4</ele>
        <time>2021-10-16T06:26:35Z</time>
      </trkpt>
      <trkpt lat="43.75497" lon="-1.34679">
        <ele>15.4</ele>
        <time>2021-10-16T06:26:38Z</time>
      </trkpt>
      <trkpt lat="43.75493" lon="-1.34659">
        <ele>15.4</ele>
        <time>2021-10-16T06:26:41Z</time>
      </trkpt>
      <trkpt lat="43.75491" lon="-1.34633">
        <ele>15.6</ele>
        <time>2021-10-16T06:26:45Z</time>
      </trkpt>
      <trkpt lat="43.75489" lon="-1.3462">
        <ele>15.6</ele>
        <time>2021-10-16T06:26:47Z</time>
      </trkpt>
      <trkpt lat="43.75489" lon="-1.34607">
        <ele>15.6</ele>
        <time>2021-10-16T06:26:49Z</time>
      </trkpt>
      <trkpt lat="43.75489" lon="-1.34595">
        <ele>15.8</ele>
        <time>2021-10-16T06:26:51Z</time>
      </trkpt>
      <trkpt lat="43.75488" lon="-1.34588">
        <ele>15.8</ele>
        <time>2021-10-16T06:26:52Z</time>
      </trkpt>
      <trkpt lat="43.75485" lon="-1.34575">
        <ele>15.8</ele>
        <time>2021-10-16T06:26:54Z</time>
      </trkpt>
      <trkpt lat="43.75482" lon="-1.34569">
        <ele>15.8</ele>
        <time>2021-10-16T06:26:55Z</time>
      </trkpt>
      <trkpt lat="43.7548" lon="-1.34564">
        <ele>15.8</ele>
        <time>2021-10-16T06:26:56Z</time>
      </trkpt>
      <trkpt lat="43.75463" lon="-1.34524">
        <ele>15.8</ele>
        <time>2021-10-16T06:27:03Z</time>
      </trkpt>
      <trkpt lat="43.75461" lon="-1.34518">
        <ele>15.8</ele>
        <time>2021-10-16T06:27:04Z</time>
      </trkpt>
      <trkpt lat="43.75459" lon="-1.34513">
        <ele>15.8</ele>
        <time>2021-10-16T06:27:05Z</time>
      </trkpt>
      <trkpt lat="43.75458" lon="-1.34508">
        <ele>15.8</ele>
        <time>2021-10-16T06:27:06Z</time>
      </trkpt>
      <trkpt lat="43.75456" lon="-1.34503">
        <ele>15.8</ele>
        <time>2021-10-16T06:27:07Z</time>
      </trkpt>
      <trkpt lat="43.75454" lon="-1.34499">
        <ele>15.8</ele>
        <time>2021-10-16T06:27:08Z</time>
      </trkpt>
      <trkpt lat="43.75452" lon="-1.34494">
        <ele>15.8</ele>
        <time>2021-10-16T06:27:09Z</time>
      </trkpt>
      <trkpt lat="43.7545" lon="-1.3449">
        <ele>15.8</ele>
        <time>2021-10-16T06:27:10Z</time>
      </trkpt>
      <trkpt lat="43.75447" lon="-1.34485">
        <ele>16</ele>
        <time>2021-10-16T06:27:11Z</time>
      </trkpt>
      <trkpt lat="43.75444" lon="-1.34481">
        <ele>16</ele>
        <time>2021-10-16T06:27:12Z</time>
      </trkpt>
      <trkpt lat="43.75442" lon="-1.34476">
        <ele>16</ele>
        <time>2021-10-16T06:27:13Z</time>
      </trkpt>
      <trkpt lat="43.75439" lon="-1.34471">
        <ele>16</ele>
        <time>2021-10-16T06:27:14Z</time>
      </trkpt>
      <trkpt lat="43.75435" lon="-1.3446">
        <ele>15.8</ele>
        <time>2021-10-16T06:27:16Z</time>
      </trkpt>
      <trkpt lat="43.75429" lon="-1.34444">
        <ele>15.8</ele>
        <time>2021-10-16T06:27:19Z</time>
      </trkpt>
      <trkpt lat="43.75424" lon="-1.34434">
        <ele>15.8</ele>
        <time>2021-10-16T06:27:21Z</time>
      </trkpt>
      <trkpt lat="43.75421" lon="-1.34425">
        <ele>15.6</ele>
        <time>2021-10-16T06:27:23Z</time>
      </trkpt>
      <trkpt lat="43.7542" lon="-1.34421">
        <ele>15.8</ele>
        <time>2021-10-16T06:27:24Z</time>
      </trkpt>
      <trkpt lat="43.75418" lon="-1.34415">
        <ele>15.8</ele>
        <time>2021-10-16T06:27:25Z</time>
      </trkpt>
      <trkpt lat="43.75417" lon="-1.34409">
        <ele>15.8</ele>
        <time>2021-10-16T06:27:26Z</time>
      </trkpt>
      <trkpt lat="43.75417" lon="-1.34397">
        <ele>15.8</ele>
        <time>2021-10-16T06:27:28Z</time>
      </trkpt>
      <trkpt lat="43.75417" lon="-1.34391">
        <ele>15.8</ele>
        <time>2021-10-16T06:27:29Z</time>
      </trkpt>
      <trkpt lat="43.75418" lon="-1.34386">
        <ele>15.8</ele>
        <time>2021-10-16T06:27:30Z</time>
      </trkpt>
      <trkpt lat="43.75419" lon="-1.3438">
        <ele>15.8</ele>
        <time>2021-10-16T06:27:31Z</time>
      </trkpt>
      <trkpt lat="43.7542" lon="-1.34375">
        <ele>15.6</ele>
        <time>2021-10-16T06:27:32Z</time>
      </trkpt>
      <trkpt lat="43.75419" lon="-1.3437">
        <ele>15.6</ele>
        <time>2021-10-16T06:27:33Z</time>
      </trkpt>
      <trkpt lat="43.75419" lon="-1.34365">
        <ele>15.6</ele>
        <time>2021-10-16T06:27:34Z</time>
      </trkpt>
      <trkpt lat="43.75417" lon="-1.34347">
        <ele>15.8</ele>
        <time>2021-10-16T06:27:37Z</time>
      </trkpt>
      <trkpt lat="43.75415" lon="-1.34329">
        <ele>15.8</ele>
        <time>2021-10-16T06:27:40Z</time>
      </trkpt>
      <trkpt lat="43.75414" lon="-1.34323">
        <ele>15.8</ele>
        <time>2021-10-16T06:27:41Z</time>
      </trkpt>
      <trkpt lat="43.75413" lon="-1.34318">
        <ele>15.8</ele>
        <time>2021-10-16T06:27:42Z</time>
      </trkpt>
      <trkpt lat="43.7541" lon="-1.34308">
        <ele>16</ele>
        <time>2021-10-16T06:27:44Z</time>
      </trkpt>
      <trkpt lat="43.75409" lon="-1.34304">
        <ele>16</ele>
        <time>2021-10-16T06:27:45Z</time>
      </trkpt>
      <trkpt lat="43.75408" lon="-1.34299">
        <ele>16</ele>
        <time>2021-10-16T06:27:46Z</time>
      </trkpt>
      <trkpt lat="43.75408" lon="-1.34295">
        <ele>16</ele>
        <time>2021-10-16T06:27:47Z</time>
      </trkpt>
      <trkpt lat="43.7541" lon="-1.3429">
        <ele>16</ele>
        <time>2021-10-16T06:27:48Z</time>
      </trkpt>
      <trkpt lat="43.7542" lon="-1.34267">
        <ele>16.4</ele>
        <time>2021-10-16T06:27:53Z</time>
      </trkpt>
      <trkpt lat="43.7542" lon="-1.3426">
        <ele>16.4</ele>
        <time>2021-10-16T06:27:54Z</time>
      </trkpt>
      <trkpt lat="43.7542" lon="-1.34253">
        <ele>16.4</ele>
        <time>2021-10-16T06:27:55Z</time>
      </trkpt>
      <trkpt lat="43.75418" lon="-1.34247">
        <ele>16.4</ele>
        <time>2021-10-16T06:27:56Z</time>
      </trkpt>
      <trkpt lat="43.75416" lon="-1.34239">
        <ele>16.2</ele>
        <time>2021-10-16T06:27:58Z</time>
      </trkpt>
      <trkpt lat="43.75414" lon="-1.34232">
        <ele>16.2</ele>
        <time>2021-10-16T06:27:59Z</time>
      </trkpt>
      <trkpt lat="43.75405" lon="-1.34206">
        <ele>16.2</ele>
        <time>2021-10-16T06:28:03Z</time>
      </trkpt>
      <trkpt lat="43.75398" lon="-1.34186">
        <ele>16.2</ele>
        <time>2021-10-16T06:28:06Z</time>
      </trkpt>
      <trkpt lat="43.75389" lon="-1.3416">
        <ele>16.2</ele>
        <time>2021-10-16T06:28:10Z</time>
      </trkpt>
      <trkpt lat="43.75387" lon="-1.34154">
        <ele>16.2</ele>
        <time>2021-10-16T06:28:11Z</time>
      </trkpt>
      <trkpt lat="43.75381" lon="-1.34135">
        <ele>16.2</ele>
        <time>2021-10-16T06:28:14Z</time>
      </trkpt>
      <trkpt lat="43.75376" lon="-1.34122">
        <ele>16.2</ele>
        <time>2021-10-16T06:28:16Z</time>
      </trkpt>
      <trkpt lat="43.75368" lon="-1.34113">
        <ele>16.2</ele>
        <time>2021-10-16T06:28:18Z</time>
      </trkpt>
      <trkpt lat="43.75364" lon="-1.34111">
        <ele>16.2</ele>
        <time>2021-10-16T06:28:19Z</time>
      </trkpt>
      <trkpt lat="43.75359" lon="-1.3411">
        <ele>16.2</ele>
        <time>2021-10-16T06:28:20Z</time>
      </trkpt>
      <trkpt lat="43.75354" lon="-1.3411">
        <ele>16.2</ele>
        <time>2021-10-16T06:28:21Z</time>
      </trkpt>
      <trkpt lat="43.75349" lon="-1.34111">
        <ele>16.2</ele>
        <time>2021-10-16T06:28:22Z</time>
      </trkpt>
      <trkpt lat="43.75344" lon="-1.34112">
        <ele>16.2</ele>
        <time>2021-10-16T06:28:23Z</time>
      </trkpt>
      <trkpt lat="43.75334" lon="-1.34114">
        <ele>16.2</ele>
        <time>2021-10-16T06:28:25Z</time>
      </trkpt>
      <trkpt lat="43.75324" lon="-1.34113">
        <ele>16.2</ele>
        <time>2021-10-16T06:28:27Z</time>
      </trkpt>
      <trkpt lat="43.75319" lon="-1.3411">
        <ele>16.2</ele>
        <time>2021-10-16T06:28:28Z</time>
      </trkpt>
      <trkpt lat="43.75314" lon="-1.34107">
        <ele>16.2</ele>
        <time>2021-10-16T06:28:29Z</time>
      </trkpt>
      <trkpt lat="43.7531" lon="-1.34102">
        <ele>16.2</ele>
        <time>2021-10-16T06:28:30Z</time>
      </trkpt>
      <trkpt lat="43.75307" lon="-1.34097">
        <ele>16.2</ele>
        <time>2021-10-16T06:28:31Z</time>
      </trkpt>
      <trkpt lat="43.75304" lon="-1.34091">
        <ele>16.2</ele>
        <time>2021-10-16T06:28:32Z</time>
      </trkpt>
      <trkpt lat="43.75301" lon="-1.34085">
        <ele>16.2</ele>
        <time>2021-10-16T06:28:33Z</time>
      </trkpt>
      <trkpt lat="43.75288" lon="-1.3406">
        <ele>16</ele>
        <time>2021-10-16T06:28:37Z</time>
      </trkpt>
      <trkpt lat="43.75286" lon="-1.34054">
        <ele>16</ele>
        <time>2021-10-16T06:28:38Z</time>
      </trkpt>
      <trkpt lat="43.75261" lon="-1.33989">
        <ele>16</ele>
        <time>2021-10-16T06:28:48Z</time>
      </trkpt>
      <trkpt lat="43.75238" lon="-1.3392">
        <ele>16</ele>
        <time>2021-10-16T06:28:58Z</time>
      </trkpt>
      <trkpt lat="43.75234" lon="-1.33906">
        <ele>16</ele>
        <time>2021-10-16T06:29:00Z</time>
      </trkpt>
      <trkpt lat="43.75232" lon="-1.33899">
        <ele>16</ele>
        <time>2021-10-16T06:29:01Z</time>
      </trkpt>
      <trkpt lat="43.7523" lon="-1.33892">
        <ele>16.2</ele>
        <time>2021-10-16T06:29:02Z</time>
      </trkpt>
      <trkpt lat="43.75229" lon="-1.33885">
        <ele>16.2</ele>
        <time>2021-10-16T06:29:03Z</time>
      </trkpt>
      <trkpt lat="43.75227" lon="-1.33879">
        <ele>16.2</ele>
        <time>2021-10-16T06:29:04Z</time>
      </trkpt>
      <trkpt lat="43.75225" lon="-1.33872">
        <ele>16.2</ele>
        <time>2021-10-16T06:29:05Z</time>
      </trkpt>
      <trkpt lat="43.75222" lon="-1.33858">
        <ele>16.2</ele>
        <time>2021-10-16T06:29:07Z</time>
      </trkpt>
      <trkpt lat="43.75205" lon="-1.33798">
        <ele>16</ele>
        <time>2021-10-16T06:29:16Z</time>
      </trkpt>
      <trkpt lat="43.75203" lon="-1.33793">
        <ele>16</ele>
        <time>2021-10-16T06:29:17Z</time>
      </trkpt>
      <trkpt lat="43.75202" lon="-1.33788">
        <ele>16</ele>
        <time>2021-10-16T06:29:18Z</time>
      </trkpt>
      <trkpt lat="43.75201" lon="-1.33783">
        <ele>16</ele>
        <time>2021-10-16T06:29:19Z</time>
      </trkpt>
      <trkpt lat="43.75201" lon="-1.3378">
        <ele>16</ele>
        <time>2021-10-16T06:29:20Z</time>
      </trkpt>
      <trkpt lat="43.752" lon="-1.33777">
        <ele>16</ele>
        <time>2021-10-16T06:29:21Z</time>
      </trkpt>
      <trkpt lat="43.75201" lon="-1.33774">
        <ele>16</ele>
        <time>2021-10-16T06:29:22Z</time>
      </trkpt>
      <trkpt lat="43.75202" lon="-1.33771">
        <ele>16</ele>
        <time>2021-10-16T06:29:23Z</time>
      </trkpt>
      <trkpt lat="43.75204" lon="-1.33768">
        <ele>16</ele>
        <time>2021-10-16T06:29:24Z</time>
      </trkpt>
      <trkpt lat="43.75211" lon="-1.33762">
        <ele>16</ele>
        <time>2021-10-16T06:29:26Z</time>
      </trkpt>
      <trkpt lat="43.75215" lon="-1.3376">
        <ele>16</ele>
        <time>2021-10-16T06:29:27Z</time>
      </trkpt>
      <trkpt lat="43.75219" lon="-1.33757">
        <ele>16</ele>
        <time>2021-10-16T06:29:28Z</time>
      </trkpt>
      <trkpt lat="43.75223" lon="-1.33754">
        <ele>16</ele>
        <time>2021-10-16T06:29:29Z</time>
      </trkpt>
      <trkpt lat="43.75236" lon="-1.33745">
        <ele>15.8</ele>
        <time>2021-10-16T06:29:32Z</time>
      </trkpt>
      <trkpt lat="43.7524" lon="-1.33744">
        <ele>15.8</ele>
        <time>2021-10-16T06:29:33Z</time>
      </trkpt>
      <trkpt lat="43.75245" lon="-1.33742">
        <ele>15.8</ele>
        <time>2021-10-16T06:29:34Z</time>
      </trkpt>
      <trkpt lat="43.75248" lon="-1.33739">
        <ele>15.8</ele>
        <time>2021-10-16T06:29:35Z</time>
      </trkpt>
      <trkpt lat="43.75256" lon="-1.33733">
        <ele>16</ele>
        <time>2021-10-16T06:29:37Z</time>
      </trkpt>
      <trkpt lat="43.7526" lon="-1.3373">
        <ele>16</ele>
        <time>2021-10-16T06:29:38Z</time>
      </trkpt>
      <trkpt lat="43.75273" lon="-1.33726">
        <ele>16</ele>
        <time>2021-10-16T06:29:41Z</time>
      </trkpt>
      <trkpt lat="43.75278" lon="-1.33724">
        <ele>16</ele>
        <time>2021-10-16T06:29:42Z</time>
      </trkpt>
      <trkpt lat="43.75282" lon="-1.33721">
        <ele>16</ele>
        <time>2021-10-16T06:29:43Z</time>
      </trkpt>
      <trkpt lat="43.75286" lon="-1.33718">
        <ele>16</ele>
        <time>2021-10-16T06:29:44Z</time>
      </trkpt>
      <trkpt lat="43.7529" lon="-1.33714">
        <ele>16</ele>
        <time>2021-10-16T06:29:45Z</time>
      </trkpt>
      <trkpt lat="43.7532" lon="-1.33691">
        <ele>15.8</ele>
        <time>2021-10-16T06:29:52Z</time>
      </trkpt>
      <trkpt lat="43.75323" lon="-1.33688">
        <ele>15.6</ele>
        <time>2021-10-16T06:29:53Z</time>
      </trkpt>
      <trkpt lat="43.75326" lon="-1.33684">
        <ele>15.6</ele>
        <time>2021-10-16T06:29:54Z</time>
      </trkpt>
      <trkpt lat="43.75329" lon="-1.3368">
        <ele>15.6</ele>
        <time>2021-10-16T06:29:55Z</time>
      </trkpt>
      <trkpt lat="43.75332" lon="-1.33675">
        <ele>15.6</ele>
        <time>2021-10-16T06:29:56Z</time>
      </trkpt>
      <trkpt lat="43.75334" lon="-1.3367">
        <ele>15.6</ele>
        <time>2021-10-16T06:29:57Z</time>
      </trkpt>
      <trkpt lat="43.75336" lon="-1.33666">
        <ele>15.6</ele>
        <time>2021-10-16T06:29:58Z</time>
      </trkpt>
      <trkpt lat="43.75338" lon="-1.33662">
        <ele>15.6</ele>
        <time>2021-10-16T06:29:59Z</time>
      </trkpt>
      <trkpt lat="43.7534" lon="-1.33658">
        <ele>15.6</ele>
        <time>2021-10-16T06:30:00Z</time>
      </trkpt>
      <trkpt lat="43.75343" lon="-1.33655">
        <ele>15.6</ele>
        <time>2021-10-16T06:30:01Z</time>
      </trkpt>
      <trkpt lat="43.75346" lon="-1.33653">
        <ele>15.6</ele>
        <time>2021-10-16T06:30:02Z</time>
      </trkpt>
      <trkpt lat="43.75348" lon="-1.3365">
        <ele>15.6</ele>
        <time>2021-10-16T06:30:03Z</time>
      </trkpt>
      <trkpt lat="43.75351" lon="-1.33646">
        <ele>15.6</ele>
        <time>2021-10-16T06:30:04Z</time>
      </trkpt>
      <trkpt lat="43.75354" lon="-1.33643">
        <ele>15.6</ele>
        <time>2021-10-16T06:30:05Z</time>
      </trkpt>
      <trkpt lat="43.75356" lon="-1.33641">
        <ele>15.6</ele>
        <time>2021-10-16T06:30:06Z</time>
      </trkpt>
      <trkpt lat="43.75358" lon="-1.33639">
        <ele>15.6</ele>
        <time>2021-10-16T06:30:07Z</time>
      </trkpt>
      <trkpt lat="43.75366" lon="-1.33634">
        <ele>15.6</ele>
        <time>2021-10-16T06:30:09Z</time>
      </trkpt>
      <trkpt lat="43.75385" lon="-1.33618">
        <ele>15.4</ele>
        <time>2021-10-16T06:30:14Z</time>
      </trkpt>
      <trkpt lat="43.75393" lon="-1.33611">
        <ele>15.2</ele>
        <time>2021-10-16T06:30:16Z</time>
      </trkpt>
      <trkpt lat="43.75421" lon="-1.33587">
        <ele>15.4</ele>
        <time>2021-10-16T06:30:23Z</time>
      </trkpt>
      <trkpt lat="43.75428" lon="-1.3358">
        <ele>15.4</ele>
        <time>2021-10-16T06:30:25Z</time>
      </trkpt>
      <trkpt lat="43.75462" lon="-1.33552">
        <ele>15.4</ele>
        <time>2021-10-16T06:30:33Z</time>
      </trkpt>
      <trkpt lat="43.75486" lon="-1.3353">
        <ele>15.4</ele>
        <time>2021-10-16T06:30:39Z</time>
      </trkpt>
      <trkpt lat="43.7549" lon="-1.33529">
        <ele>15.4</ele>
        <time>2021-10-16T06:30:40Z</time>
      </trkpt>
      <trkpt lat="43.75493" lon="-1.33531">
        <ele>15.4</ele>
        <time>2021-10-16T06:30:41Z</time>
      </trkpt>
      <trkpt lat="43.75496" lon="-1.33534">
        <ele>15.4</ele>
        <time>2021-10-16T06:30:42Z</time>
      </trkpt>
      <trkpt lat="43.75498" lon="-1.33538">
        <ele>15.4</ele>
        <time>2021-10-16T06:30:43Z</time>
      </trkpt>
      <trkpt lat="43.75502" lon="-1.33549">
        <ele>15.4</ele>
        <time>2021-10-16T06:30:45Z</time>
      </trkpt>
      <trkpt lat="43.75504" lon="-1.33555">
        <ele>15.4</ele>
        <time>2021-10-16T06:30:46Z</time>
      </trkpt>
      <trkpt lat="43.75514" lon="-1.33578">
        <ele>15.4</ele>
        <time>2021-10-16T06:30:50Z</time>
      </trkpt>
      <trkpt lat="43.75531" lon="-1.33622">
        <ele>15.2</ele>
        <time>2021-10-16T06:30:57Z</time>
      </trkpt>
      <trkpt lat="43.75552" lon="-1.33673">
        <ele>15.2</ele>
        <time>2021-10-16T06:31:05Z</time>
      </trkpt>
      <trkpt lat="43.75554" lon="-1.33678">
        <ele>15.2</ele>
        <time>2021-10-16T06:31:06Z</time>
      </trkpt>
      <trkpt lat="43.75556" lon="-1.33684">
        <ele>15.2</ele>
        <time>2021-10-16T06:31:07Z</time>
      </trkpt>
      <trkpt lat="43.75558" lon="-1.33688">
        <ele>15.2</ele>
        <time>2021-10-16T06:31:08Z</time>
      </trkpt>
      <trkpt lat="43.7556" lon="-1.33693">
        <ele>15.2</ele>
        <time>2021-10-16T06:31:09Z</time>
      </trkpt>
      <trkpt lat="43.75563" lon="-1.33697">
        <ele>15.2</ele>
        <time>2021-10-16T06:31:10Z</time>
      </trkpt>
      <trkpt lat="43.75566" lon="-1.33699">
        <ele>15.2</ele>
        <time>2021-10-16T06:31:11Z</time>
      </trkpt>
      <trkpt lat="43.7557" lon="-1.337">
        <ele>15.2</ele>
        <time>2021-10-16T06:31:12Z</time>
      </trkpt>
      <trkpt lat="43.75575" lon="-1.33699">
        <ele>15.2</ele>
        <time>2021-10-16T06:31:13Z</time>
      </trkpt>
      <trkpt lat="43.75579" lon="-1.33698">
        <ele>15.2</ele>
        <time>2021-10-16T06:31:14Z</time>
      </trkpt>
      <trkpt lat="43.75583" lon="-1.33697">
        <ele>15.2</ele>
        <time>2021-10-16T06:31:15Z</time>
      </trkpt>
      <trkpt lat="43.75588" lon="-1.33696">
        <ele>15.2</ele>
        <time>2021-10-16T06:31:16Z</time>
      </trkpt>
      <trkpt lat="43.75602" lon="-1.33692">
        <ele>15.2</ele>
        <time>2021-10-16T06:31:19Z</time>
      </trkpt>
      <trkpt lat="43.75633" lon="-1.33683">
        <ele>15.2</ele>
        <time>2021-10-16T06:31:26Z</time>
      </trkpt>
      <trkpt lat="43.75651" lon="-1.33678">
        <ele>15.4</ele>
        <time>2021-10-16T06:31:30Z</time>
      </trkpt>
      <trkpt lat="43.75655" lon="-1.33676">
        <ele>15.4</ele>
        <time>2021-10-16T06:31:31Z</time>
      </trkpt>
      <trkpt lat="43.75675" lon="-1.3367">
        <ele>15.4</ele>
        <time>2021-10-16T06:31:35Z</time>
      </trkpt>
      <trkpt lat="43.7568" lon="-1.33669">
        <ele>15.4</ele>
        <time>2021-10-16T06:31:36Z</time>
      </trkpt>
      <trkpt lat="43.75689" lon="-1.33671">
        <ele>15.4</ele>
        <time>2021-10-16T06:31:38Z</time>
      </trkpt>
      <trkpt lat="43.75693" lon="-1.33676">
        <ele>15.4</ele>
        <time>2021-10-16T06:31:39Z</time>
      </trkpt>
      <trkpt lat="43.75695" lon="-1.33682">
        <ele>15.4</ele>
        <time>2021-10-16T06:31:40Z</time>
      </trkpt>
      <trkpt lat="43.75698" lon="-1.33694">
        <ele>15.2</ele>
        <time>2021-10-16T06:31:42Z</time>
      </trkpt>
      <trkpt lat="43.757" lon="-1.33701">
        <ele>15.2</ele>
        <time>2021-10-16T06:31:43Z</time>
      </trkpt>
      <trkpt lat="43.75704" lon="-1.33721">
        <ele>15.4</ele>
        <time>2021-10-16T06:31:46Z</time>
      </trkpt>
      <trkpt lat="43.75712" lon="-1.33729">
        <ele>15.4</ele>
        <time>2021-10-16T06:31:48Z</time>
      </trkpt>
      <trkpt lat="43.75721" lon="-1.33729">
        <ele>15.4</ele>
        <time>2021-10-16T06:31:50Z</time>
      </trkpt>
      <trkpt lat="43.75726" lon="-1.33727">
        <ele>15.4</ele>
        <time>2021-10-16T06:31:51Z</time>
      </trkpt>
      <trkpt lat="43.75731" lon="-1.33727">
        <ele>15.4</ele>
        <time>2021-10-16T06:31:52Z</time>
      </trkpt>
      <trkpt lat="43.75735" lon="-1.33727">
        <ele>15.4</ele>
        <time>2021-10-16T06:31:53Z</time>
      </trkpt>
      <trkpt lat="43.7574" lon="-1.33729">
        <ele>15.4</ele>
        <time>2021-10-16T06:31:54Z</time>
      </trkpt>
      <trkpt lat="43.75744" lon="-1.33731">
        <ele>15.4</ele>
        <time>2021-10-16T06:31:55Z</time>
      </trkpt>
      <trkpt lat="43.75746" lon="-1.33735">
        <ele>15.4</ele>
        <time>2021-10-16T06:31:56Z</time>
      </trkpt>
      <trkpt lat="43.75749" lon="-1.33739">
        <ele>15.4</ele>
        <time>2021-10-16T06:31:57Z</time>
      </trkpt>
      <trkpt lat="43.75752" lon="-1.33744">
        <ele>15.4</ele>
        <time>2021-10-16T06:31:58Z</time>
      </trkpt>
      <trkpt lat="43.75755" lon="-1.33748">
        <ele>15.2</ele>
        <time>2021-10-16T06:31:59Z</time>
      </trkpt>
      <trkpt lat="43.75759" lon="-1.33752">
        <ele>15.2</ele>
        <time>2021-10-16T06:32:00Z</time>
      </trkpt>
      <trkpt lat="43.75763" lon="-1.33754">
        <ele>15.2</ele>
        <time>2021-10-16T06:32:01Z</time>
      </trkpt>
      <trkpt lat="43.75768" lon="-1.33755">
        <ele>15.2</ele>
        <time>2021-10-16T06:32:02Z</time>
      </trkpt>
      <trkpt lat="43.75772" lon="-1.33755">
        <ele>15.2</ele>
        <time>2021-10-16T06:32:03Z</time>
      </trkpt>
      <trkpt lat="43.75776" lon="-1.33755">
        <ele>15.2</ele>
        <time>2021-10-16T06:32:04Z</time>
      </trkpt>
      <trkpt lat="43.7578" lon="-1.33756">
        <ele>15.2</ele>
        <time>2021-10-16T06:32:05Z</time>
      </trkpt>
      <trkpt lat="43.75789" lon="-1.33754">
        <ele>15.2</ele>
        <time>2021-10-16T06:32:07Z</time>
      </trkpt>
      <trkpt lat="43.75809" lon="-1.33751">
        <ele>15.2</ele>
        <time>2021-10-16T06:32:11Z</time>
      </trkpt>
      <trkpt lat="43.75815" lon="-1.33751">
        <ele>15.2</ele>
        <time>2021-10-16T06:32:12Z</time>
      </trkpt>
      <trkpt lat="43.7582" lon="-1.3375">
        <ele>15.2</ele>
        <time>2021-10-16T06:32:13Z</time>
      </trkpt>
      <trkpt lat="43.7584" lon="-1.33743">
        <ele>15.2</ele>
        <time>2021-10-16T06:32:17Z</time>
      </trkpt>
      <trkpt lat="43.7585" lon="-1.33742">
        <ele>15.2</ele>
        <time>2021-10-16T06:32:19Z</time>
      </trkpt>
      <trkpt lat="43.75854" lon="-1.33741">
        <ele>15.2</ele>
        <time>2021-10-16T06:32:20Z</time>
      </trkpt>
      <trkpt lat="43.75858" lon="-1.3374">
        <ele>15.2</ele>
        <time>2021-10-16T06:32:21Z</time>
      </trkpt>
      <trkpt lat="43.75862" lon="-1.3374">
        <ele>15.2</ele>
        <time>2021-10-16T06:32:22Z</time>
      </trkpt>
      <trkpt lat="43.75865" lon="-1.33738">
        <ele>15.2</ele>
        <time>2021-10-16T06:32:23Z</time>
      </trkpt>
      <trkpt lat="43.75867" lon="-1.33736">
        <ele>15.2</ele>
        <time>2021-10-16T06:32:24Z</time>
      </trkpt>
      <trkpt lat="43.75869" lon="-1.33733">
        <ele>15.2</ele>
        <time>2021-10-16T06:32:25Z</time>
      </trkpt>
      <trkpt lat="43.75872" lon="-1.3373">
        <ele>15.2</ele>
        <time>2021-10-16T06:32:26Z</time>
      </trkpt>
      <trkpt lat="43.75883" lon="-1.33727">
        <ele>15.4</ele>
        <time>2021-10-16T06:32:29Z</time>
      </trkpt>
      <trkpt lat="43.75887" lon="-1.33726">
        <ele>15.4</ele>
        <time>2021-10-16T06:32:30Z</time>
      </trkpt>
      <trkpt lat="43.75899" lon="-1.33723">
        <ele>15.6</ele>
        <time>2021-10-16T06:32:33Z</time>
      </trkpt>
      <trkpt lat="43.7591" lon="-1.33718">
        <ele>15.6</ele>
        <time>2021-10-16T06:32:36Z</time>
      </trkpt>
      <trkpt lat="43.75941" lon="-1.33704">
        <ele>16</ele>
        <time>2021-10-16T06:32:43Z</time>
      </trkpt>
      <trkpt lat="43.75956" lon="-1.33696">
        <ele>16</ele>
        <time>2021-10-16T06:32:46Z</time>
      </trkpt>
      <trkpt lat="43.7598" lon="-1.33681">
        <ele>15.8</ele>
        <time>2021-10-16T06:32:51Z</time>
      </trkpt>
      <trkpt lat="43.75988" lon="-1.33671">
        <ele>15.8</ele>
        <time>2021-10-16T06:32:53Z</time>
      </trkpt>
      <trkpt lat="43.75998" lon="-1.33654">
        <ele>15.8</ele>
        <time>2021-10-16T06:32:56Z</time>
      </trkpt>
      <trkpt lat="43.7602" lon="-1.33603">
        <ele>15.6</ele>
        <time>2021-10-16T06:33:04Z</time>
      </trkpt>
      <trkpt lat="43.76027" lon="-1.3359">
        <ele>15.6</ele>
        <time>2021-10-16T06:33:06Z</time>
      </trkpt>
      <trkpt lat="43.7603" lon="-1.33584">
        <ele>15.6</ele>
        <time>2021-10-16T06:33:07Z</time>
      </trkpt>
      <trkpt lat="43.76042" lon="-1.33558">
        <ele>15.6</ele>
        <time>2021-10-16T06:33:11Z</time>
      </trkpt>
      <trkpt lat="43.76048" lon="-1.33545">
        <ele>15.6</ele>
        <time>2021-10-16T06:33:13Z</time>
      </trkpt>
      <trkpt lat="43.76067" lon="-1.33503">
        <ele>15.4</ele>
        <time>2021-10-16T06:33:19Z</time>
      </trkpt>
      <trkpt lat="43.76091" lon="-1.33452">
        <ele>15.2</ele>
        <time>2021-10-16T06:33:27Z</time>
      </trkpt>
      <trkpt lat="43.76094" lon="-1.33447">
        <ele>15</ele>
        <time>2021-10-16T06:33:28Z</time>
      </trkpt>
      <trkpt lat="43.761" lon="-1.33435">
        <ele>15</ele>
        <time>2021-10-16T06:33:30Z</time>
      </trkpt>
      <trkpt lat="43.76101" lon="-1.33429">
        <ele>15</ele>
        <time>2021-10-16T06:33:31Z</time>
      </trkpt>
      <trkpt lat="43.76101" lon="-1.33423">
        <ele>15</ele>
        <time>2021-10-16T06:33:32Z</time>
      </trkpt>
      <trkpt lat="43.76099" lon="-1.33417">
        <ele>15.2</ele>
        <time>2021-10-16T06:33:33Z</time>
      </trkpt>
      <trkpt lat="43.76097" lon="-1.33412">
        <ele>15.2</ele>
        <time>2021-10-16T06:33:34Z</time>
      </trkpt>
      <trkpt lat="43.76095" lon="-1.33406">
        <ele>15.2</ele>
        <time>2021-10-16T06:33:35Z</time>
      </trkpt>
      <trkpt lat="43.76094" lon="-1.33401">
        <ele>15.2</ele>
        <time>2021-10-16T06:33:36Z</time>
      </trkpt>
      <trkpt lat="43.76093" lon="-1.33395">
        <ele>15.2</ele>
        <time>2021-10-16T06:33:37Z</time>
      </trkpt>
      <trkpt lat="43.76093" lon="-1.33389">
        <ele>15.4</ele>
        <time>2021-10-16T06:33:38Z</time>
      </trkpt>
      <trkpt lat="43.76093" lon="-1.33384">
        <ele>15.4</ele>
        <time>2021-10-16T06:33:39Z</time>
      </trkpt>
      <trkpt lat="43.76093" lon="-1.33378">
        <ele>15.4</ele>
        <time>2021-10-16T06:33:40Z</time>
      </trkpt>
      <trkpt lat="43.76094" lon="-1.33373">
        <ele>15.4</ele>
        <time>2021-10-16T06:33:41Z</time>
      </trkpt>
      <trkpt lat="43.76097" lon="-1.33368">
        <ele>15.4</ele>
        <time>2021-10-16T06:33:42Z</time>
      </trkpt>
      <trkpt lat="43.761" lon="-1.33364">
        <ele>15.4</ele>
        <time>2021-10-16T06:33:43Z</time>
      </trkpt>
      <trkpt lat="43.76104" lon="-1.33361">
        <ele>15.6</ele>
        <time>2021-10-16T06:33:44Z</time>
      </trkpt>
      <trkpt lat="43.76108" lon="-1.33358">
        <ele>15.4</ele>
        <time>2021-10-16T06:33:45Z</time>
      </trkpt>
      <trkpt lat="43.76112" lon="-1.33356">
        <ele>15.4</ele>
        <time>2021-10-16T06:33:46Z</time>
      </trkpt>
      <trkpt lat="43.76116" lon="-1.33353">
        <ele>15.4</ele>
        <time>2021-10-16T06:33:47Z</time>
      </trkpt>
      <trkpt lat="43.76139" lon="-1.33343">
        <ele>15.4</ele>
        <time>2021-10-16T06:33:52Z</time>
      </trkpt>
      <trkpt lat="43.76149" lon="-1.33338">
        <ele>15.4</ele>
        <time>2021-10-16T06:33:54Z</time>
      </trkpt>
      <trkpt lat="43.76168" lon="-1.33328">
        <ele>15.4</ele>
        <time>2021-10-16T06:33:58Z</time>
      </trkpt>
      <trkpt lat="43.76207" lon="-1.33302">
        <ele>15.4</ele>
        <time>2021-10-16T06:34:06Z</time>
      </trkpt>
      <trkpt lat="43.76244" lon="-1.33274">
        <ele>15.4</ele>
        <time>2021-10-16T06:34:14Z</time>
      </trkpt>
      <trkpt lat="43.76266" lon="-1.33255">
        <ele>15.4</ele>
        <time>2021-10-16T06:34:19Z</time>
      </trkpt>
      <trkpt lat="43.76269" lon="-1.33251">
        <ele>15.2</ele>
        <time>2021-10-16T06:34:20Z</time>
      </trkpt>
      <trkpt lat="43.76273" lon="-1.33246">
        <ele>15.2</ele>
        <time>2021-10-16T06:34:21Z</time>
      </trkpt>
      <trkpt lat="43.76295" lon="-1.33223">
        <ele>15.2</ele>
        <time>2021-10-16T06:34:26Z</time>
      </trkpt>
      <trkpt lat="43.76301" lon="-1.33219">
        <ele>15.2</ele>
        <time>2021-10-16T06:34:27Z</time>
      </trkpt>
      <trkpt lat="43.76306" lon="-1.33214">
        <ele>15.2</ele>
        <time>2021-10-16T06:34:28Z</time>
      </trkpt>
      <trkpt lat="43.76326" lon="-1.33197">
        <ele>15.2</ele>
        <time>2021-10-16T06:34:32Z</time>
      </trkpt>
      <trkpt lat="43.76329" lon="-1.33193">
        <ele>15.2</ele>
        <time>2021-10-16T06:34:33Z</time>
      </trkpt>
      <trkpt lat="43.76332" lon="-1.33189">
        <ele>15.2</ele>
        <time>2021-10-16T06:34:34Z</time>
      </trkpt>
      <trkpt lat="43.76336" lon="-1.33183">
        <ele>15.2</ele>
        <time>2021-10-16T06:34:35Z</time>
      </trkpt>
      <trkpt lat="43.76363" lon="-1.33158">
        <ele>15.2</ele>
        <time>2021-10-16T06:34:40Z</time>
      </trkpt>
      <trkpt lat="43.76383" lon="-1.33137">
        <ele>15.2</ele>
        <time>2021-10-16T06:34:44Z</time>
      </trkpt>
      <trkpt lat="43.76411" lon="-1.33109">
        <ele>15.2</ele>
        <time>2021-10-16T06:34:50Z</time>
      </trkpt>
      <trkpt lat="43.76424" lon="-1.33095">
        <ele>15.2</ele>
        <time>2021-10-16T06:34:53Z</time>
      </trkpt>
      <trkpt lat="43.76436" lon="-1.3308">
        <ele>15.2</ele>
        <time>2021-10-16T06:34:56Z</time>
      </trkpt>
      <trkpt lat="43.76445" lon="-1.33072">
        <ele>15.2</ele>
        <time>2021-10-16T06:34:58Z</time>
      </trkpt>
      <trkpt lat="43.76449" lon="-1.33068">
        <ele>15.2</ele>
        <time>2021-10-16T06:34:59Z</time>
      </trkpt>
      <trkpt lat="43.76453" lon="-1.33064">
        <ele>15.2</ele>
        <time>2021-10-16T06:35:00Z</time>
      </trkpt>
      <trkpt lat="43.76456" lon="-1.3306">
        <ele>15.2</ele>
        <time>2021-10-16T06:35:01Z</time>
      </trkpt>
      <trkpt lat="43.76461" lon="-1.33055">
        <ele>15.2</ele>
        <time>2021-10-16T06:35:02Z</time>
      </trkpt>
      <trkpt lat="43.76474" lon="-1.33039">
        <ele>15</ele>
        <time>2021-10-16T06:35:05Z</time>
      </trkpt>
      <trkpt lat="43.76479" lon="-1.33034">
        <ele>15</ele>
        <time>2021-10-16T06:35:06Z</time>
      </trkpt>
      <trkpt lat="43.76483" lon="-1.3303">
        <ele>15</ele>
        <time>2021-10-16T06:35:07Z</time>
      </trkpt>
      <trkpt lat="43.76487" lon="-1.33026">
        <ele>15.2</ele>
        <time>2021-10-16T06:35:08Z</time>
      </trkpt>
      <trkpt lat="43.76491" lon="-1.33022">
        <ele>15.2</ele>
        <time>2021-10-16T06:35:09Z</time>
      </trkpt>
      <trkpt lat="43.76495" lon="-1.33018">
        <ele>15.2</ele>
        <time>2021-10-16T06:35:10Z</time>
      </trkpt>
      <trkpt lat="43.76532" lon="-1.32985">
        <ele>15.4</ele>
        <time>2021-10-16T06:35:17Z</time>
      </trkpt>
      <trkpt lat="43.76561" lon="-1.32955">
        <ele>15.4</ele>
        <time>2021-10-16T06:35:23Z</time>
      </trkpt>
      <trkpt lat="43.76565" lon="-1.3295">
        <ele>15.4</ele>
        <time>2021-10-16T06:35:24Z</time>
      </trkpt>
      <trkpt lat="43.76569" lon="-1.32946">
        <ele>15.2</ele>
        <time>2021-10-16T06:35:25Z</time>
      </trkpt>
      <trkpt lat="43.76573" lon="-1.32942">
        <ele>15.2</ele>
        <time>2021-10-16T06:35:26Z</time>
      </trkpt>
      <trkpt lat="43.76578" lon="-1.32938">
        <ele>15.2</ele>
        <time>2021-10-16T06:35:27Z</time>
      </trkpt>
      <trkpt lat="43.76608" lon="-1.32905">
        <ele>15.2</ele>
        <time>2021-10-16T06:35:33Z</time>
      </trkpt>
      <trkpt lat="43.76642" lon="-1.3287">
        <ele>15.4</ele>
        <time>2021-10-16T06:35:40Z</time>
      </trkpt>
      <trkpt lat="43.76686" lon="-1.32825">
        <ele>15.4</ele>
        <time>2021-10-16T06:35:49Z</time>
      </trkpt>
      <trkpt lat="43.76721" lon="-1.3279">
        <ele>15.2</ele>
        <time>2021-10-16T06:35:56Z</time>
      </trkpt>
      <trkpt lat="43.76726" lon="-1.32786">
        <ele>15.2</ele>
        <time>2021-10-16T06:35:57Z</time>
      </trkpt>
      <trkpt lat="43.7675" lon="-1.32763">
        <ele>15.2</ele>
        <time>2021-10-16T06:36:02Z</time>
      </trkpt>
      <trkpt lat="43.76758" lon="-1.32755">
        <ele>15.2</ele>
        <time>2021-10-16T06:36:04Z</time>
      </trkpt>
      <trkpt lat="43.76762" lon="-1.32751">
        <ele>15.2</ele>
        <time>2021-10-16T06:36:05Z</time>
      </trkpt>
      <trkpt lat="43.76766" lon="-1.32746">
        <ele>15.2</ele>
        <time>2021-10-16T06:36:06Z</time>
      </trkpt>
      <trkpt lat="43.76769" lon="-1.32741">
        <ele>15.2</ele>
        <time>2021-10-16T06:36:07Z</time>
      </trkpt>
      <trkpt lat="43.76772" lon="-1.32736">
        <ele>15</ele>
        <time>2021-10-16T06:36:08Z</time>
      </trkpt>
      <trkpt lat="43.76785" lon="-1.32714">
        <ele>15</ele>
        <time>2021-10-16T06:36:12Z</time>
      </trkpt>
      <trkpt lat="43.76789" lon="-1.32708">
        <ele>15</ele>
        <time>2021-10-16T06:36:13Z</time>
      </trkpt>
      <trkpt lat="43.76809" lon="-1.32672">
        <ele>15</ele>
        <time>2021-10-16T06:36:19Z</time>
      </trkpt>
      <trkpt lat="43.76833" lon="-1.32628">
        <ele>14.8</ele>
        <time>2021-10-16T06:36:26Z</time>
      </trkpt>
      <trkpt lat="43.76843" lon="-1.32609">
        <ele>14.8</ele>
        <time>2021-10-16T06:36:29Z</time>
      </trkpt>
      <trkpt lat="43.76845" lon="-1.32594">
        <ele>14.6</ele>
        <time>2021-10-16T06:36:31Z</time>
      </trkpt>
      <trkpt lat="43.76844" lon="-1.32587">
        <ele>14.6</ele>
        <time>2021-10-16T06:36:32Z</time>
      </trkpt>
      <trkpt lat="43.76843" lon="-1.3258">
        <ele>14.6</ele>
        <time>2021-10-16T06:36:33Z</time>
      </trkpt>
      <trkpt lat="43.76842" lon="-1.32574">
        <ele>14.6</ele>
        <time>2021-10-16T06:36:34Z</time>
      </trkpt>
      <trkpt lat="43.76842" lon="-1.32568">
        <ele>14.4</ele>
        <time>2021-10-16T06:36:35Z</time>
      </trkpt>
      <trkpt lat="43.76842" lon="-1.32562">
        <ele>14.6</ele>
        <time>2021-10-16T06:36:36Z</time>
      </trkpt>
      <trkpt lat="43.7684" lon="-1.32556">
        <ele>14.6</ele>
        <time>2021-10-16T06:36:37Z</time>
      </trkpt>
      <trkpt lat="43.76835" lon="-1.32536">
        <ele>14.6</ele>
        <time>2021-10-16T06:36:40Z</time>
      </trkpt>
      <trkpt lat="43.76826" lon="-1.32469">
        <ele>14.8</ele>
        <time>2021-10-16T06:36:49Z</time>
      </trkpt>
      <trkpt lat="43.76824" lon="-1.32454">
        <ele>14.8</ele>
        <time>2021-10-16T06:36:51Z</time>
      </trkpt>
      <trkpt lat="43.76821" lon="-1.3244">
        <ele>14.8</ele>
        <time>2021-10-16T06:36:53Z</time>
      </trkpt>
      <trkpt lat="43.76819" lon="-1.32434">
        <ele>14.8</ele>
        <time>2021-10-16T06:36:54Z</time>
      </trkpt>
      <trkpt lat="43.76818" lon="-1.32427">
        <ele>14.8</ele>
        <time>2021-10-16T06:36:55Z</time>
      </trkpt>
      <trkpt lat="43.76816" lon="-1.32405">
        <ele>14.8</ele>
        <time>2021-10-16T06:36:58Z</time>
      </trkpt>
      <trkpt lat="43.76815" lon="-1.32397">
        <ele>14.6</ele>
        <time>2021-10-16T06:36:59Z</time>
      </trkpt>
      <trkpt lat="43.76816" lon="-1.32382">
        <ele>14.8</ele>
        <time>2021-10-16T06:37:01Z</time>
      </trkpt>
      <trkpt lat="43.76817" lon="-1.32375">
        <ele>14.8</ele>
        <time>2021-10-16T06:37:02Z</time>
      </trkpt>
      <trkpt lat="43.76818" lon="-1.32367">
        <ele>14.8</ele>
        <time>2021-10-16T06:37:03Z</time>
      </trkpt>
      <trkpt lat="43.76818" lon="-1.32359">
        <ele>14.8</ele>
        <time>2021-10-16T06:37:04Z</time>
      </trkpt>
      <trkpt lat="43.76817" lon="-1.32329">
        <ele>14.6</ele>
        <time>2021-10-16T06:37:08Z</time>
      </trkpt>
      <trkpt lat="43.76813" lon="-1.32315">
        <ele>14.8</ele>
        <time>2021-10-16T06:37:10Z</time>
      </trkpt>
      <trkpt lat="43.76812" lon="-1.3231">
        <ele>14.8</ele>
        <time>2021-10-16T06:37:11Z</time>
      </trkpt>
      <trkpt lat="43.7681" lon="-1.32304">
        <ele>14.8</ele>
        <time>2021-10-16T06:37:12Z</time>
      </trkpt>
      <trkpt lat="43.76809" lon="-1.32297">
        <ele>14.8</ele>
        <time>2021-10-16T06:37:13Z</time>
      </trkpt>
      <trkpt lat="43.76807" lon="-1.32289">
        <ele>14.6</ele>
        <time>2021-10-16T06:37:14Z</time>
      </trkpt>
      <trkpt lat="43.76801" lon="-1.32266">
        <ele>14.6</ele>
        <time>2021-10-16T06:37:17Z</time>
      </trkpt>
      <trkpt lat="43.76796" lon="-1.32243">
        <ele>14.6</ele>
        <time>2021-10-16T06:37:20Z</time>
      </trkpt>
      <trkpt lat="43.76788" lon="-1.32195">
        <ele>14.6</ele>
        <time>2021-10-16T06:37:26Z</time>
      </trkpt>
      <trkpt lat="43.76787" lon="-1.32188">
        <ele>14.6</ele>
        <time>2021-10-16T06:37:27Z</time>
      </trkpt>
      <trkpt lat="43.76786" lon="-1.32181">
        <ele>14.6</ele>
        <time>2021-10-16T06:37:28Z</time>
      </trkpt>
      <trkpt lat="43.76785" lon="-1.32173">
        <ele>14.6</ele>
        <time>2021-10-16T06:37:29Z</time>
      </trkpt>
      <trkpt lat="43.76783" lon="-1.32157">
        <ele>14.6</ele>
        <time>2021-10-16T06:37:31Z</time>
      </trkpt>
      <trkpt lat="43.76783" lon="-1.32149">
        <ele>14.6</ele>
        <time>2021-10-16T06:37:32Z</time>
      </trkpt>
      <trkpt lat="43.76783" lon="-1.32133">
        <ele>14.6</ele>
        <time>2021-10-16T06:37:34Z</time>
      </trkpt>
      <trkpt lat="43.76782" lon="-1.32118">
        <ele>14.6</ele>
        <time>2021-10-16T06:37:36Z</time>
      </trkpt>
      <trkpt lat="43.76779" lon="-1.32097">
        <ele>14.6</ele>
        <time>2021-10-16T06:37:39Z</time>
      </trkpt>
      <trkpt lat="43.76778" lon="-1.32083">
        <ele>14.6</ele>
        <time>2021-10-16T06:37:41Z</time>
      </trkpt>
      <trkpt lat="43.76778" lon="-1.32076">
        <ele>14.6</ele>
        <time>2021-10-16T06:37:42Z</time>
      </trkpt>
      <trkpt lat="43.76778" lon="-1.32068">
        <ele>14.6</ele>
        <time>2021-10-16T06:37:43Z</time>
      </trkpt>
      <trkpt lat="43.76778" lon="-1.32061">
        <ele>14.8</ele>
        <time>2021-10-16T06:37:44Z</time>
      </trkpt>
      <trkpt lat="43.76779" lon="-1.32054">
        <ele>14.8</ele>
        <time>2021-10-16T06:37:45Z</time>
      </trkpt>
      <trkpt lat="43.7678" lon="-1.32009">
        <ele>14.8</ele>
        <time>2021-10-16T06:37:51Z</time>
      </trkpt>
      <trkpt lat="43.7678" lon="-1.32001">
        <ele>14.8</ele>
        <time>2021-10-16T06:37:52Z</time>
      </trkpt>
      <trkpt lat="43.76782" lon="-1.31963">
        <ele>14.8</ele>
        <time>2021-10-16T06:37:57Z</time>
      </trkpt>
      <trkpt lat="43.76785" lon="-1.31948">
        <ele>14.8</ele>
        <time>2021-10-16T06:37:59Z</time>
      </trkpt>
      <trkpt lat="43.76799" lon="-1.31873">
        <ele>14.8</ele>
        <time>2021-10-16T06:38:09Z</time>
      </trkpt>
      <trkpt lat="43.76802" lon="-1.31851">
        <ele>14.8</ele>
        <time>2021-10-16T06:38:12Z</time>
      </trkpt>
      <trkpt lat="43.76811" lon="-1.31807">
        <ele>14.8</ele>
        <time>2021-10-16T06:38:18Z</time>
      </trkpt>
      <trkpt lat="43.7682" lon="-1.31755">
        <ele>14.8</ele>
        <time>2021-10-16T06:38:25Z</time>
      </trkpt>
      <trkpt lat="43.76822" lon="-1.31748">
        <ele>15</ele>
        <time>2021-10-16T06:38:26Z</time>
      </trkpt>
      <trkpt lat="43.76823" lon="-1.31741">
        <ele>15</ele>
        <time>2021-10-16T06:38:27Z</time>
      </trkpt>
      <trkpt lat="43.76824" lon="-1.31734">
        <ele>15</ele>
        <time>2021-10-16T06:38:28Z</time>
      </trkpt>
      <trkpt lat="43.76826" lon="-1.31727">
        <ele>15</ele>
        <time>2021-10-16T06:38:29Z</time>
      </trkpt>
      <trkpt lat="43.7683" lon="-1.31705">
        <ele>15</ele>
        <time>2021-10-16T06:38:32Z</time>
      </trkpt>
      <trkpt lat="43.76831" lon="-1.31698">
        <ele>15.2</ele>
        <time>2021-10-16T06:38:33Z</time>
      </trkpt>
      <trkpt lat="43.76838" lon="-1.31659">
        <ele>15</ele>
        <time>2021-10-16T06:38:38Z</time>
      </trkpt>
      <trkpt lat="43.76841" lon="-1.31645">
        <ele>15</ele>
        <time>2021-10-16T06:38:40Z</time>
      </trkpt>
      <trkpt lat="43.76842" lon="-1.31638">
        <ele>14.8</ele>
        <time>2021-10-16T06:38:41Z</time>
      </trkpt>
      <trkpt lat="43.76843" lon="-1.31632">
        <ele>14.8</ele>
        <time>2021-10-16T06:38:42Z</time>
      </trkpt>
      <trkpt lat="43.76843" lon="-1.31626">
        <ele>14.8</ele>
        <time>2021-10-16T06:38:43Z</time>
      </trkpt>
      <trkpt lat="43.76844" lon="-1.3162">
        <ele>14.8</ele>
        <time>2021-10-16T06:38:44Z</time>
      </trkpt>
      <trkpt lat="43.76845" lon="-1.31615">
        <ele>14.8</ele>
        <time>2021-10-16T06:38:45Z</time>
      </trkpt>
      <trkpt lat="43.76846" lon="-1.31609">
        <ele>14.8</ele>
        <time>2021-10-16T06:38:46Z</time>
      </trkpt>
      <trkpt lat="43.76851" lon="-1.31592">
        <ele>15</ele>
        <time>2021-10-16T06:38:49Z</time>
      </trkpt>
      <trkpt lat="43.76863" lon="-1.31543">
        <ele>15.2</ele>
        <time>2021-10-16T06:38:56Z</time>
      </trkpt>
      <trkpt lat="43.7688" lon="-1.31476">
        <ele>15</ele>
        <time>2021-10-16T06:39:05Z</time>
      </trkpt>
      <trkpt lat="43.769" lon="-1.31398">
        <ele>15</ele>
        <time>2021-10-16T06:39:15Z</time>
      </trkpt>
      <trkpt lat="43.76904" lon="-1.31383">
        <ele>14.8</ele>
        <time>2021-10-16T06:39:17Z</time>
      </trkpt>
      <trkpt lat="43.76921" lon="-1.31322">
        <ele>14.6</ele>
        <time>2021-10-16T06:39:25Z</time>
      </trkpt>
      <trkpt lat="43.76923" lon="-1.31314">
        <ele>14.6</ele>
        <time>2021-10-16T06:39:26Z</time>
      </trkpt>
      <trkpt lat="43.76928" lon="-1.31299">
        <ele>14.6</ele>
        <time>2021-10-16T06:39:28Z</time>
      </trkpt>
      <trkpt lat="43.76931" lon="-1.31292">
        <ele>14.6</ele>
        <time>2021-10-16T06:39:29Z</time>
      </trkpt>
      <trkpt lat="43.76934" lon="-1.31285">
        <ele>14.6</ele>
        <time>2021-10-16T06:39:30Z</time>
      </trkpt>
      <trkpt lat="43.76936" lon="-1.31278">
        <ele>14.6</ele>
        <time>2021-10-16T06:39:31Z</time>
      </trkpt>
      <trkpt lat="43.76939" lon="-1.31271">
        <ele>14.6</ele>
        <time>2021-10-16T06:39:32Z</time>
      </trkpt>
      <trkpt lat="43.76943" lon="-1.31264">
        <ele>14.6</ele>
        <time>2021-10-16T06:39:33Z</time>
      </trkpt>
      <trkpt lat="43.76971" lon="-1.31208">
        <ele>14.6</ele>
        <time>2021-10-16T06:39:41Z</time>
      </trkpt>
      <trkpt lat="43.77002" lon="-1.31144">
        <ele>14.6</ele>
        <time>2021-10-16T06:39:50Z</time>
      </trkpt>
      <trkpt lat="43.77005" lon="-1.31136">
        <ele>14.6</ele>
        <time>2021-10-16T06:39:51Z</time>
      </trkpt>
      <trkpt lat="43.7701" lon="-1.31121">
        <ele>14.6</ele>
        <time>2021-10-16T06:39:53Z</time>
      </trkpt>
      <trkpt lat="43.77015" lon="-1.31099">
        <ele>14.6</ele>
        <time>2021-10-16T06:39:56Z</time>
      </trkpt>
      <trkpt lat="43.77018" lon="-1.31082">
        <ele>14.6</ele>
        <time>2021-10-16T06:39:58Z</time>
      </trkpt>
      <trkpt lat="43.7702" lon="-1.31074">
        <ele>14.6</ele>
        <time>2021-10-16T06:39:59Z</time>
      </trkpt>
      <trkpt lat="43.77022" lon="-1.31067">
        <ele>14.6</ele>
        <time>2021-10-16T06:40:00Z</time>
      </trkpt>
      <trkpt lat="43.77032" lon="-1.31036">
        <ele>14.6</ele>
        <time>2021-10-16T06:40:04Z</time>
      </trkpt>
      <trkpt lat="43.7705" lon="-1.30983">
        <ele>14.8</ele>
        <time>2021-10-16T06:40:11Z</time>
      </trkpt>
      <trkpt lat="43.77051" lon="-1.30976">
        <ele>14.8</ele>
        <time>2021-10-16T06:40:12Z</time>
      </trkpt>
      <trkpt lat="43.77051" lon="-1.30968">
        <ele>14.8</ele>
        <time>2021-10-16T06:40:13Z</time>
      </trkpt>
      <trkpt lat="43.77049" lon="-1.30962">
        <ele>14.8</ele>
        <time>2021-10-16T06:40:14Z</time>
      </trkpt>
      <trkpt lat="43.77045" lon="-1.30956">
        <ele>14.8</ele>
        <time>2021-10-16T06:40:15Z</time>
      </trkpt>
      <trkpt lat="43.7704" lon="-1.30952">
        <ele>14.8</ele>
        <time>2021-10-16T06:40:16Z</time>
      </trkpt>
      <trkpt lat="43.77036" lon="-1.30948">
        <ele>14.8</ele>
        <time>2021-10-16T06:40:17Z</time>
      </trkpt>
      <trkpt lat="43.77031" lon="-1.30945">
        <ele>14.8</ele>
        <time>2021-10-16T06:40:18Z</time>
      </trkpt>
      <trkpt lat="43.77026" lon="-1.30942">
        <ele>14.8</ele>
        <time>2021-10-16T06:40:19Z</time>
      </trkpt>
      <trkpt lat="43.77022" lon="-1.30938">
        <ele>14.8</ele>
        <time>2021-10-16T06:40:20Z</time>
      </trkpt>
      <trkpt lat="43.77017" lon="-1.30934">
        <ele>14.8</ele>
        <time>2021-10-16T06:40:21Z</time>
      </trkpt>
      <trkpt lat="43.77013" lon="-1.30931">
        <ele>14.8</ele>
        <time>2021-10-16T06:40:22Z</time>
      </trkpt>
      <trkpt lat="43.77008" lon="-1.30927">
        <ele>14.8</ele>
        <time>2021-10-16T06:40:23Z</time>
      </trkpt>
      <trkpt lat="43.77004" lon="-1.30923">
        <ele>15</ele>
        <time>2021-10-16T06:40:24Z</time>
      </trkpt>
      <trkpt lat="43.77002" lon="-1.30917">
        <ele>15</ele>
        <time>2021-10-16T06:40:25Z</time>
      </trkpt>
      <trkpt lat="43.77002" lon="-1.3091">
        <ele>15</ele>
        <time>2021-10-16T06:40:26Z</time>
      </trkpt>
      <trkpt lat="43.77006" lon="-1.30897">
        <ele>15.2</ele>
        <time>2021-10-16T06:40:28Z</time>
      </trkpt>
      <trkpt lat="43.77012" lon="-1.30886">
        <ele>15.2</ele>
        <time>2021-10-16T06:40:30Z</time>
      </trkpt>
      <trkpt lat="43.77015" lon="-1.30879">
        <ele>15.2</ele>
        <time>2021-10-16T06:40:31Z</time>
      </trkpt>
      <trkpt lat="43.77028" lon="-1.30855">
        <ele>15.2</ele>
        <time>2021-10-16T06:40:35Z</time>
      </trkpt>
      <trkpt lat="43.77031" lon="-1.30849">
        <ele>15.2</ele>
        <time>2021-10-16T06:40:36Z</time>
      </trkpt>
      <trkpt lat="43.7705" lon="-1.3081">
        <ele>15.2</ele>
        <time>2021-10-16T06:40:42Z</time>
      </trkpt>
      <trkpt lat="43.77084" lon="-1.30745">
        <ele>15.2</ele>
        <time>2021-10-16T06:40:52Z</time>
      </trkpt>
      <trkpt lat="43.77091" lon="-1.30732">
        <ele>15.2</ele>
        <time>2021-10-16T06:40:54Z</time>
      </trkpt>
      <trkpt lat="43.77111" lon="-1.30693">
        <ele>15</ele>
        <time>2021-10-16T06:41:00Z</time>
      </trkpt>
      <trkpt lat="43.77114" lon="-1.30688">
        <ele>15</ele>
        <time>2021-10-16T06:41:01Z</time>
      </trkpt>
      <trkpt lat="43.77116" lon="-1.30683">
        <ele>15</ele>
        <time>2021-10-16T06:41:02Z</time>
      </trkpt>
      <trkpt lat="43.77117" lon="-1.30678">
        <ele>15</ele>
        <time>2021-10-16T06:41:03Z</time>
      </trkpt>
      <trkpt lat="43.77117" lon="-1.30672">
        <ele>15.2</ele>
        <time>2021-10-16T06:41:04Z</time>
      </trkpt>
      <trkpt lat="43.77116" lon="-1.30667">
        <ele>15.2</ele>
        <time>2021-10-16T06:41:05Z</time>
      </trkpt>
      <trkpt lat="43.77114" lon="-1.30663">
        <ele>15.2</ele>
        <time>2021-10-16T06:41:06Z</time>
      </trkpt>
      <trkpt lat="43.77111" lon="-1.30659">
        <ele>15.4</ele>
        <time>2021-10-16T06:41:07Z</time>
      </trkpt>
      <trkpt lat="43.77107" lon="-1.30647">
        <ele>15.2</ele>
        <time>2021-10-16T06:41:09Z</time>
      </trkpt>
      <trkpt lat="43.77107" lon="-1.3064">
        <ele>15.2</ele>
        <time>2021-10-16T06:41:10Z</time>
      </trkpt>
      <trkpt lat="43.77108" lon="-1.30634">
        <ele>15.2</ele>
        <time>2021-10-16T06:41:11Z</time>
      </trkpt>
      <trkpt lat="43.77112" lon="-1.30622">
        <ele>15.4</ele>
        <time>2021-10-16T06:41:13Z</time>
      </trkpt>
      <trkpt lat="43.77115" lon="-1.30616">
        <ele>15.2</ele>
        <time>2021-10-16T06:41:14Z</time>
      </trkpt>
      <trkpt lat="43.77134" lon="-1.30565">
        <ele>15.8</ele>
        <time>2021-10-16T06:41:22Z</time>
      </trkpt>
      <trkpt lat="43.77152" lon="-1.30523">
        <ele>16.2</ele>
        <time>2021-10-16T06:41:29Z</time>
      </trkpt>
      <trkpt lat="43.77154" lon="-1.30517">
        <ele>16.2</ele>
        <time>2021-10-16T06:41:30Z</time>
      </trkpt>
      <trkpt lat="43.77157" lon="-1.30511">
        <ele>16.2</ele>
        <time>2021-10-16T06:41:31Z</time>
      </trkpt>
      <trkpt lat="43.77184" lon="-1.30456">
        <ele>16.6</ele>
        <time>2021-10-16T06:41:40Z</time>
      </trkpt>
      <trkpt lat="43.77201" lon="-1.30428">
        <ele>16.6</ele>
        <time>2021-10-16T06:41:45Z</time>
      </trkpt>
      <trkpt lat="43.77212" lon="-1.30413">
        <ele>16.6</ele>
        <time>2021-10-16T06:41:48Z</time>
      </trkpt>
      <trkpt lat="43.77215" lon="-1.30408">
        <ele>16.6</ele>
        <time>2021-10-16T06:41:49Z</time>
      </trkpt>
      <trkpt lat="43.77222" lon="-1.30399">
        <ele>16.6</ele>
        <time>2021-10-16T06:41:51Z</time>
      </trkpt>
      <trkpt lat="43.77226" lon="-1.30393">
        <ele>16.6</ele>
        <time>2021-10-16T06:41:52Z</time>
      </trkpt>
      <trkpt lat="43.7723" lon="-1.30388">
        <ele>16.4</ele>
        <time>2021-10-16T06:41:53Z</time>
      </trkpt>
      <trkpt lat="43.77234" lon="-1.30383">
        <ele>16.4</ele>
        <time>2021-10-16T06:41:54Z</time>
      </trkpt>
      <trkpt lat="43.7724" lon="-1.3037">
        <ele>16.4</ele>
        <time>2021-10-16T06:41:56Z</time>
      </trkpt>
      <trkpt lat="43.77243" lon="-1.30357">
        <ele>16.4</ele>
        <time>2021-10-16T06:41:58Z</time>
      </trkpt>
      <trkpt lat="43.77244" lon="-1.30349">
        <ele>16.4</ele>
        <time>2021-10-16T06:41:59Z</time>
      </trkpt>
      <trkpt lat="43.77244" lon="-1.30343">
        <ele>16.4</ele>
        <time>2021-10-16T06:42:00Z</time>
      </trkpt>
      <trkpt lat="43.77245" lon="-1.30336">
        <ele>16.4</ele>
        <time>2021-10-16T06:42:01Z</time>
      </trkpt>
      <trkpt lat="43.77247" lon="-1.30331">
        <ele>16.4</ele>
        <time>2021-10-16T06:42:02Z</time>
      </trkpt>
      <trkpt lat="43.7725" lon="-1.30326">
        <ele>16.4</ele>
        <time>2021-10-16T06:42:03Z</time>
      </trkpt>
      <trkpt lat="43.77254" lon="-1.30322">
        <ele>16.4</ele>
        <time>2021-10-16T06:42:04Z</time>
      </trkpt>
      <trkpt lat="43.77258" lon="-1.30319">
        <ele>16.4</ele>
        <time>2021-10-16T06:42:05Z</time>
      </trkpt>
      <trkpt lat="43.77262" lon="-1.30315">
        <ele>16.4</ele>
        <time>2021-10-16T06:42:06Z</time>
      </trkpt>
      <trkpt lat="43.77271" lon="-1.30307">
        <ele>16.4</ele>
        <time>2021-10-16T06:42:08Z</time>
      </trkpt>
      <trkpt lat="43.77303" lon="-1.30276">
        <ele>16.2</ele>
        <time>2021-10-16T06:42:15Z</time>
      </trkpt>
      <trkpt lat="43.77336" lon="-1.30259">
        <ele>15.8</ele>
        <time>2021-10-16T06:42:21Z</time>
      </trkpt>
      <trkpt lat="43.77371" lon="-1.30241">
        <ele>15</ele>
        <time>2021-10-16T06:42:27Z</time>
      </trkpt>
      <trkpt lat="43.77382" lon="-1.30236">
        <ele>15</ele>
        <time>2021-10-16T06:42:29Z</time>
      </trkpt>
      <trkpt lat="43.77387" lon="-1.30233">
        <ele>14.8</ele>
        <time>2021-10-16T06:42:30Z</time>
      </trkpt>
      <trkpt lat="43.77392" lon="-1.30231">
        <ele>14.8</ele>
        <time>2021-10-16T06:42:31Z</time>
      </trkpt>
      <trkpt lat="43.77397" lon="-1.30229">
        <ele>14.8</ele>
        <time>2021-10-16T06:42:32Z</time>
      </trkpt>
      <trkpt lat="43.77402" lon="-1.30226">
        <ele>14.8</ele>
        <time>2021-10-16T06:42:33Z</time>
      </trkpt>
      <trkpt lat="43.77406" lon="-1.30222">
        <ele>14.8</ele>
        <time>2021-10-16T06:42:34Z</time>
      </trkpt>
      <trkpt lat="43.77413" lon="-1.30213">
        <ele>14.8</ele>
        <time>2021-10-16T06:42:36Z</time>
      </trkpt>
      <trkpt lat="43.77417" lon="-1.3021">
        <ele>14.8</ele>
        <time>2021-10-16T06:42:37Z</time>
      </trkpt>
      <trkpt lat="43.77421" lon="-1.30207">
        <ele>14.8</ele>
        <time>2021-10-16T06:42:38Z</time>
      </trkpt>
      <trkpt lat="43.77426" lon="-1.30205">
        <ele>14.8</ele>
        <time>2021-10-16T06:42:39Z</time>
      </trkpt>
      <trkpt lat="43.7743" lon="-1.30203">
        <ele>15</ele>
        <time>2021-10-16T06:42:40Z</time>
      </trkpt>
      <trkpt lat="43.77434" lon="-1.30201">
        <ele>15</ele>
        <time>2021-10-16T06:42:41Z</time>
      </trkpt>
      <trkpt lat="43.77439" lon="-1.30199">
        <ele>15</ele>
        <time>2021-10-16T06:42:42Z</time>
      </trkpt>
      <trkpt lat="43.77449" lon="-1.30198">
        <ele>15</ele>
        <time>2021-10-16T06:42:44Z</time>
      </trkpt>
      <trkpt lat="43.77488" lon="-1.30197">
        <ele>14.8</ele>
        <time>2021-10-16T06:42:51Z</time>
      </trkpt>
      <trkpt lat="43.77505" lon="-1.30198">
        <ele>14.8</ele>
        <time>2021-10-16T06:42:54Z</time>
      </trkpt>
      <trkpt lat="43.77527" lon="-1.302">
        <ele>14.8</ele>
        <time>2021-10-16T06:42:58Z</time>
      </trkpt>
      <trkpt lat="43.77532" lon="-1.30201">
        <ele>14.8</ele>
        <time>2021-10-16T06:42:59Z</time>
      </trkpt>
      <trkpt lat="43.77538" lon="-1.30202">
        <ele>14.8</ele>
        <time>2021-10-16T06:43:00Z</time>
      </trkpt>
      <trkpt lat="43.77565" lon="-1.3021">
        <ele>14.8</ele>
        <time>2021-10-16T06:43:05Z</time>
      </trkpt>
      <trkpt lat="43.77614" lon="-1.3022">
        <ele>14.8</ele>
        <time>2021-10-16T06:43:14Z</time>
      </trkpt>
      <trkpt lat="43.77671" lon="-1.3023">
        <ele>14.8</ele>
        <time>2021-10-16T06:43:24Z</time>
      </trkpt>
      <trkpt lat="43.77688" lon="-1.30233">
        <ele>14.8</ele>
        <time>2021-10-16T06:43:27Z</time>
      </trkpt>
      <trkpt lat="43.77694" lon="-1.30233">
        <ele>14.8</ele>
        <time>2021-10-16T06:43:28Z</time>
      </trkpt>
      <trkpt lat="43.77699" lon="-1.30234">
        <ele>14.8</ele>
        <time>2021-10-16T06:43:29Z</time>
      </trkpt>
      <trkpt lat="43.77704" lon="-1.30234">
        <ele>14.8</ele>
        <time>2021-10-16T06:43:30Z</time>
      </trkpt>
      <trkpt lat="43.7771" lon="-1.30235">
        <ele>14.8</ele>
        <time>2021-10-16T06:43:31Z</time>
      </trkpt>
      <trkpt lat="43.77716" lon="-1.30237">
        <ele>14.8</ele>
        <time>2021-10-16T06:43:32Z</time>
      </trkpt>
      <trkpt lat="43.77757" lon="-1.30243">
        <ele>14.6</ele>
        <time>2021-10-16T06:43:39Z</time>
      </trkpt>
      <trkpt lat="43.77786" lon="-1.30246">
        <ele>14.6</ele>
        <time>2021-10-16T06:43:44Z</time>
      </trkpt>
      <trkpt lat="43.77804" lon="-1.30247">
        <ele>14.6</ele>
        <time>2021-10-16T06:43:47Z</time>
      </trkpt>
      <trkpt lat="43.7781" lon="-1.30247">
        <ele>14.6</ele>
        <time>2021-10-16T06:43:48Z</time>
      </trkpt>
      <trkpt lat="43.77815" lon="-1.30248">
        <ele>14.6</ele>
        <time>2021-10-16T06:43:49Z</time>
      </trkpt>
      <trkpt lat="43.7784" lon="-1.30251">
        <ele>14.6</ele>
        <time>2021-10-16T06:43:53Z</time>
      </trkpt>
      <trkpt lat="43.77845" lon="-1.30251">
        <ele>14.6</ele>
        <time>2021-10-16T06:43:54Z</time>
      </trkpt>
      <trkpt lat="43.77858" lon="-1.30252">
        <ele>14.6</ele>
        <time>2021-10-16T06:43:56Z</time>
      </trkpt>
      <trkpt lat="43.77899" lon="-1.30256">
        <ele>14.6</ele>
        <time>2021-10-16T06:44:03Z</time>
      </trkpt>
      <trkpt lat="43.77904" lon="-1.30256">
        <ele>14.6</ele>
        <time>2021-10-16T06:44:04Z</time>
      </trkpt>
      <trkpt lat="43.77915" lon="-1.30255">
        <ele>14.6</ele>
        <time>2021-10-16T06:44:06Z</time>
      </trkpt>
      <trkpt lat="43.77932" lon="-1.3025">
        <ele>14.6</ele>
        <time>2021-10-16T06:44:09Z</time>
      </trkpt>
      <trkpt lat="43.77939" lon="-1.30248">
        <ele>14.6</ele>
        <time>2021-10-16T06:44:10Z</time>
      </trkpt>
      <trkpt lat="43.77945" lon="-1.30246">
        <ele>14.6</ele>
        <time>2021-10-16T06:44:11Z</time>
      </trkpt>
      <trkpt lat="43.7795" lon="-1.30243">
        <ele>14.6</ele>
        <time>2021-10-16T06:44:12Z</time>
      </trkpt>
      <trkpt lat="43.77955" lon="-1.3024">
        <ele>14.6</ele>
        <time>2021-10-16T06:44:13Z</time>
      </trkpt>
      <trkpt lat="43.7796" lon="-1.30238">
        <ele>14.6</ele>
        <time>2021-10-16T06:44:14Z</time>
      </trkpt>
      <trkpt lat="43.77964" lon="-1.30237">
        <ele>14.6</ele>
        <time>2021-10-16T06:44:15Z</time>
      </trkpt>
      <trkpt lat="43.77967" lon="-1.30235">
        <ele>14.6</ele>
        <time>2021-10-16T06:44:16Z</time>
      </trkpt>
      <trkpt lat="43.77971" lon="-1.30233">
        <ele>14.6</ele>
        <time>2021-10-16T06:44:17Z</time>
      </trkpt>
      <trkpt lat="43.77975" lon="-1.30231">
        <ele>14.6</ele>
        <time>2021-10-16T06:44:18Z</time>
      </trkpt>
      <trkpt lat="43.77979" lon="-1.30229">
        <ele>14.6</ele>
        <time>2021-10-16T06:44:19Z</time>
      </trkpt>
      <trkpt lat="43.78012" lon="-1.30206">
        <ele>14.8</ele>
        <time>2021-10-16T06:44:26Z</time>
      </trkpt>
      <trkpt lat="43.78017" lon="-1.30202">
        <ele>14.8</ele>
        <time>2021-10-16T06:44:27Z</time>
      </trkpt>
      <trkpt lat="43.78021" lon="-1.30198">
        <ele>14.8</ele>
        <time>2021-10-16T06:44:28Z</time>
      </trkpt>
      <trkpt lat="43.78039" lon="-1.30183">
        <ele>14.8</ele>
        <time>2021-10-16T06:44:32Z</time>
      </trkpt>
      <trkpt lat="43.78044" lon="-1.3018">
        <ele>14.8</ele>
        <time>2021-10-16T06:44:33Z</time>
      </trkpt>
      <trkpt lat="43.78056" lon="-1.30175">
        <ele>14.8</ele>
        <time>2021-10-16T06:44:35Z</time>
      </trkpt>
      <trkpt lat="43.78069" lon="-1.30169">
        <ele>14.8</ele>
        <time>2021-10-16T06:44:37Z</time>
      </trkpt>
      <trkpt lat="43.78075" lon="-1.30167">
        <ele>14.8</ele>
        <time>2021-10-16T06:44:38Z</time>
      </trkpt>
      <trkpt lat="43.78085" lon="-1.30163">
        <ele>14.8</ele>
        <time>2021-10-16T06:44:40Z</time>
      </trkpt>
      <trkpt lat="43.78091" lon="-1.30162">
        <ele>14.8</ele>
        <time>2021-10-16T06:44:41Z</time>
      </trkpt>
      <trkpt lat="43.78097" lon="-1.30159">
        <ele>14.6</ele>
        <time>2021-10-16T06:44:42Z</time>
      </trkpt>
      <trkpt lat="43.78104" lon="-1.30157">
        <ele>14.6</ele>
        <time>2021-10-16T06:44:43Z</time>
      </trkpt>
      <trkpt lat="43.78124" lon="-1.30159">
        <ele>14.6</ele>
        <time>2021-10-16T06:44:46Z</time>
      </trkpt>
      <trkpt lat="43.7813" lon="-1.30162">
        <ele>14.6</ele>
        <time>2021-10-16T06:44:47Z</time>
      </trkpt>
      <trkpt lat="43.78136" lon="-1.30162">
        <ele>14.6</ele>
        <time>2021-10-16T06:44:48Z</time>
      </trkpt>
      <trkpt lat="43.7817" lon="-1.3017">
        <ele>14.8</ele>
        <time>2021-10-16T06:44:54Z</time>
      </trkpt>
      <trkpt lat="43.7818" lon="-1.30172">
        <ele>14.8</ele>
        <time>2021-10-16T06:44:56Z</time>
      </trkpt>
      <trkpt lat="43.7819" lon="-1.30175">
        <ele>14.8</ele>
        <time>2021-10-16T06:44:58Z</time>
      </trkpt>
      <trkpt lat="43.78195" lon="-1.30176">
        <ele>14.8</ele>
        <time>2021-10-16T06:44:59Z</time>
      </trkpt>
      <trkpt lat="43.78201" lon="-1.30177">
        <ele>14.8</ele>
        <time>2021-10-16T06:45:00Z</time>
      </trkpt>
      <trkpt lat="43.78211" lon="-1.30179">
        <ele>14.8</ele>
        <time>2021-10-16T06:45:02Z</time>
      </trkpt>
      <trkpt lat="43.78236" lon="-1.30184">
        <ele>15</ele>
        <time>2021-10-16T06:45:07Z</time>
      </trkpt>
      <trkpt lat="43.78246" lon="-1.30187">
        <ele>15</ele>
        <time>2021-10-16T06:45:09Z</time>
      </trkpt>
      <trkpt lat="43.78256" lon="-1.30189">
        <ele>15</ele>
        <time>2021-10-16T06:45:11Z</time>
      </trkpt>
      <trkpt lat="43.78265" lon="-1.30193">
        <ele>15</ele>
        <time>2021-10-16T06:45:13Z</time>
      </trkpt>
      <trkpt lat="43.78269" lon="-1.30197">
        <ele>15</ele>
        <time>2021-10-16T06:45:14Z</time>
      </trkpt>
      <trkpt lat="43.78273" lon="-1.30202">
        <ele>15.2</ele>
        <time>2021-10-16T06:45:15Z</time>
      </trkpt>
      <trkpt lat="43.78277" lon="-1.30208">
        <ele>15.2</ele>
        <time>2021-10-16T06:45:16Z</time>
      </trkpt>
      <trkpt lat="43.78281" lon="-1.30214">
        <ele>15.2</ele>
        <time>2021-10-16T06:45:17Z</time>
      </trkpt>
      <trkpt lat="43.78287" lon="-1.30227">
        <ele>15.2</ele>
        <time>2021-10-16T06:45:19Z</time>
      </trkpt>
      <trkpt lat="43.78293" lon="-1.30241">
        <ele>15.2</ele>
        <time>2021-10-16T06:45:21Z</time>
      </trkpt>
      <trkpt lat="43.78301" lon="-1.30252">
        <ele>15.2</ele>
        <time>2021-10-16T06:45:23Z</time>
      </trkpt>
      <trkpt lat="43.78305" lon="-1.30256">
        <ele>15.2</ele>
        <time>2021-10-16T06:45:24Z</time>
      </trkpt>
      <trkpt lat="43.7831" lon="-1.30261">
        <ele>15.2</ele>
        <time>2021-10-16T06:45:25Z</time>
      </trkpt>
      <trkpt lat="43.78325" lon="-1.30283">
        <ele>15</ele>
        <time>2021-10-16T06:45:29Z</time>
      </trkpt>
      <trkpt lat="43.78358" lon="-1.30334">
        <ele>15.2</ele>
        <time>2021-10-16T06:45:38Z</time>
      </trkpt>
      <trkpt lat="43.78362" lon="-1.3034">
        <ele>15.2</ele>
        <time>2021-10-16T06:45:39Z</time>
      </trkpt>
      <trkpt lat="43.78365" lon="-1.30345">
        <ele>15</ele>
        <time>2021-10-16T06:45:40Z</time>
      </trkpt>
      <trkpt lat="43.78369" lon="-1.30351">
        <ele>15</ele>
        <time>2021-10-16T06:45:41Z</time>
      </trkpt>
      <trkpt lat="43.78372" lon="-1.30356">
        <ele>15</ele>
        <time>2021-10-16T06:45:42Z</time>
      </trkpt>
      <trkpt lat="43.78376" lon="-1.30361">
        <ele>15</ele>
        <time>2021-10-16T06:45:43Z</time>
      </trkpt>
      <trkpt lat="43.7838" lon="-1.30366">
        <ele>15</ele>
        <time>2021-10-16T06:45:44Z</time>
      </trkpt>
      <trkpt lat="43.78388" lon="-1.30378">
        <ele>15</ele>
        <time>2021-10-16T06:45:46Z</time>
      </trkpt>
      <trkpt lat="43.78396" lon="-1.30389">
        <ele>15</ele>
        <time>2021-10-16T06:45:48Z</time>
      </trkpt>
      <trkpt lat="43.78413" lon="-1.30404">
        <ele>15.2</ele>
        <time>2021-10-16T06:45:52Z</time>
      </trkpt>
      <trkpt lat="43.78421" lon="-1.30412">
        <ele>15.2</ele>
        <time>2021-10-16T06:45:54Z</time>
      </trkpt>
      <trkpt lat="43.78426" lon="-1.30416">
        <ele>15.2</ele>
        <time>2021-10-16T06:45:55Z</time>
      </trkpt>
      <trkpt lat="43.7843" lon="-1.3042">
        <ele>15.2</ele>
        <time>2021-10-16T06:45:56Z</time>
      </trkpt>
      <trkpt lat="43.78435" lon="-1.30423">
        <ele>15.2</ele>
        <time>2021-10-16T06:45:57Z</time>
      </trkpt>
      <trkpt lat="43.78449" lon="-1.30435">
        <ele>15.2</ele>
        <time>2021-10-16T06:46:00Z</time>
      </trkpt>
      <trkpt lat="43.78453" lon="-1.30439">
        <ele>15.2</ele>
        <time>2021-10-16T06:46:01Z</time>
      </trkpt>
      <trkpt lat="43.7849" lon="-1.30468">
        <ele>15</ele>
        <time>2021-10-16T06:46:09Z</time>
      </trkpt>
      <trkpt lat="43.78494" lon="-1.30472">
        <ele>15</ele>
        <time>2021-10-16T06:46:10Z</time>
      </trkpt>
      <trkpt lat="43.78497" lon="-1.30476">
        <ele>15</ele>
        <time>2021-10-16T06:46:11Z</time>
      </trkpt>
      <trkpt lat="43.78499" lon="-1.30481">
        <ele>15</ele>
        <time>2021-10-16T06:46:12Z</time>
      </trkpt>
      <trkpt lat="43.78501" lon="-1.30486">
        <ele>15</ele>
        <time>2021-10-16T06:46:13Z</time>
      </trkpt>
      <trkpt lat="43.78502" lon="-1.30492">
        <ele>15</ele>
        <time>2021-10-16T06:46:14Z</time>
      </trkpt>
      <trkpt lat="43.78503" lon="-1.30497">
        <ele>15</ele>
        <time>2021-10-16T06:46:15Z</time>
      </trkpt>
      <trkpt lat="43.78506" lon="-1.30502">
        <ele>15</ele>
        <time>2021-10-16T06:46:16Z</time>
      </trkpt>
      <trkpt lat="43.78509" lon="-1.30506">
        <ele>15</ele>
        <time>2021-10-16T06:46:17Z</time>
      </trkpt>
      <trkpt lat="43.78512" lon="-1.30509">
        <ele>15</ele>
        <time>2021-10-16T06:46:18Z</time>
      </trkpt>
      <trkpt lat="43.78516" lon="-1.30512">
        <ele>15</ele>
        <time>2021-10-16T06:46:19Z</time>
      </trkpt>
      <trkpt lat="43.7852" lon="-1.30515">
        <ele>15</ele>
        <time>2021-10-16T06:46:20Z</time>
      </trkpt>
      <trkpt lat="43.78528" lon="-1.3052">
        <ele>14.8</ele>
        <time>2021-10-16T06:46:22Z</time>
      </trkpt>
      <trkpt lat="43.7857" lon="-1.30551">
        <ele>15</ele>
        <time>2021-10-16T06:46:32Z</time>
      </trkpt>
      <trkpt lat="43.78604" lon="-1.30581">
        <ele>15</ele>
        <time>2021-10-16T06:46:40Z</time>
      </trkpt>
      <trkpt lat="43.78616" lon="-1.30597">
        <ele>14.8</ele>
        <time>2021-10-16T06:46:43Z</time>
      </trkpt>
      <trkpt lat="43.78622" lon="-1.3061">
        <ele>14.8</ele>
        <time>2021-10-16T06:46:45Z</time>
      </trkpt>
      <trkpt lat="43.78641" lon="-1.30659">
        <ele>14.8</ele>
        <time>2021-10-16T06:46:52Z</time>
      </trkpt>
      <trkpt lat="43.78645" lon="-1.30673">
        <ele>14.8</ele>
        <time>2021-10-16T06:46:54Z</time>
      </trkpt>
      <trkpt lat="43.7865" lon="-1.30695">
        <ele>14.6</ele>
        <time>2021-10-16T06:46:57Z</time>
      </trkpt>
      <trkpt lat="43.78652" lon="-1.30701">
        <ele>14.6</ele>
        <time>2021-10-16T06:46:58Z</time>
      </trkpt>
      <trkpt lat="43.78654" lon="-1.30708">
        <ele>14.6</ele>
        <time>2021-10-16T06:46:59Z</time>
      </trkpt>
      <trkpt lat="43.78659" lon="-1.30721">
        <ele>14.4</ele>
        <time>2021-10-16T06:47:01Z</time>
      </trkpt>
      <trkpt lat="43.78662" lon="-1.30727">
        <ele>14.4</ele>
        <time>2021-10-16T06:47:02Z</time>
      </trkpt>
      <trkpt lat="43.78664" lon="-1.30733">
        <ele>14.4</ele>
        <time>2021-10-16T06:47:03Z</time>
      </trkpt>
      <trkpt lat="43.78667" lon="-1.30739">
        <ele>14.4</ele>
        <time>2021-10-16T06:47:04Z</time>
      </trkpt>
      <trkpt lat="43.78669" lon="-1.30746">
        <ele>14.4</ele>
        <time>2021-10-16T06:47:05Z</time>
      </trkpt>
      <trkpt lat="43.78672" lon="-1.30752">
        <ele>14.4</ele>
        <time>2021-10-16T06:47:06Z</time>
      </trkpt>
      <trkpt lat="43.78674" lon="-1.30759">
        <ele>14.4</ele>
        <time>2021-10-16T06:47:07Z</time>
      </trkpt>
      <trkpt lat="43.78687" lon="-1.30792">
        <ele>14.4</ele>
        <time>2021-10-16T06:47:12Z</time>
      </trkpt>
      <trkpt lat="43.78695" lon="-1.30817">
        <ele>14.4</ele>
        <time>2021-10-16T06:47:16Z</time>
      </trkpt>
      <trkpt lat="43.78696" lon="-1.30823">
        <ele>14.4</ele>
        <time>2021-10-16T06:47:17Z</time>
      </trkpt>
      <trkpt lat="43.78698" lon="-1.30829">
        <ele>14.4</ele>
        <time>2021-10-16T06:47:18Z</time>
      </trkpt>
      <trkpt lat="43.787" lon="-1.30834">
        <ele>14.4</ele>
        <time>2021-10-16T06:47:19Z</time>
      </trkpt>
      <trkpt lat="43.78705" lon="-1.30854">
        <ele>14.2</ele>
        <time>2021-10-16T06:47:22Z</time>
      </trkpt>
      <trkpt lat="43.78706" lon="-1.30868">
        <ele>14.2</ele>
        <time>2021-10-16T06:47:24Z</time>
      </trkpt>
      <trkpt lat="43.78709" lon="-1.30887">
        <ele>14.2</ele>
        <time>2021-10-16T06:47:27Z</time>
      </trkpt>
      <trkpt lat="43.7871" lon="-1.30893">
        <ele>14.2</ele>
        <time>2021-10-16T06:47:28Z</time>
      </trkpt>
      <trkpt lat="43.78711" lon="-1.30899">
        <ele>14.2</ele>
        <time>2021-10-16T06:47:29Z</time>
      </trkpt>
      <trkpt lat="43.7871" lon="-1.30911">
        <ele>14.2</ele>
        <time>2021-10-16T06:47:31Z</time>
      </trkpt>
      <trkpt lat="43.7871" lon="-1.30917">
        <ele>14.2</ele>
        <time>2021-10-16T06:47:32Z</time>
      </trkpt>
      <trkpt lat="43.7871" lon="-1.30922">
        <ele>14.2</ele>
        <time>2021-10-16T06:47:33Z</time>
      </trkpt>
      <trkpt lat="43.7871" lon="-1.30928">
        <ele>14.2</ele>
        <time>2021-10-16T06:47:34Z</time>
      </trkpt>
      <trkpt lat="43.78713" lon="-1.30957">
        <ele>14.2</ele>
        <time>2021-10-16T06:47:39Z</time>
      </trkpt>
      <trkpt lat="43.78718" lon="-1.30978">
        <ele>14.2</ele>
        <time>2021-10-16T06:47:43Z</time>
      </trkpt>
      <trkpt lat="43.78719" lon="-1.30983">
        <ele>14.2</ele>
        <time>2021-10-16T06:47:44Z</time>
      </trkpt>
      <trkpt lat="43.7872" lon="-1.30988">
        <ele>14</ele>
        <time>2021-10-16T06:47:45Z</time>
      </trkpt>
      <trkpt lat="43.78723" lon="-1.30994">
        <ele>14</ele>
        <time>2021-10-16T06:47:46Z</time>
      </trkpt>
      <trkpt lat="43.78732" lon="-1.31009">
        <ele>14</ele>
        <time>2021-10-16T06:47:49Z</time>
      </trkpt>
      <trkpt lat="43.78735" lon="-1.31019">
        <ele>14</ele>
        <time>2021-10-16T06:47:51Z</time>
      </trkpt>
      <trkpt lat="43.78736" lon="-1.31026">
        <ele>14</ele>
        <time>2021-10-16T06:47:52Z</time>
      </trkpt>
      <trkpt lat="43.78736" lon="-1.31031">
        <ele>14</ele>
        <time>2021-10-16T06:47:53Z</time>
      </trkpt>
      <trkpt lat="43.78739" lon="-1.31049">
        <ele>13.8</ele>
        <time>2021-10-16T06:47:56Z</time>
      </trkpt>
      <trkpt lat="43.78739" lon="-1.31074">
        <ele>13.8</ele>
        <time>2021-10-16T06:48:00Z</time>
      </trkpt>
      <trkpt lat="43.78739" lon="-1.31081">
        <ele>13.8</ele>
        <time>2021-10-16T06:48:01Z</time>
      </trkpt>
      <trkpt lat="43.78737" lon="-1.31099">
        <ele>13.8</ele>
        <time>2021-10-16T06:48:04Z</time>
      </trkpt>
      <trkpt lat="43.78738" lon="-1.31113">
        <ele>13.8</ele>
        <time>2021-10-16T06:48:06Z</time>
      </trkpt>
      <trkpt lat="43.7874" lon="-1.3116">
        <ele>13.8</ele>
        <time>2021-10-16T06:48:13Z</time>
      </trkpt>
      <trkpt lat="43.78741" lon="-1.31168">
        <ele>13.8</ele>
        <time>2021-10-16T06:48:14Z</time>
      </trkpt>
      <trkpt lat="43.78741" lon="-1.31179">
        <ele>13.8</ele>
        <time>2021-10-16T06:48:16Z</time>
      </trkpt>
      <trkpt lat="43.78742" lon="-1.31185">
        <ele>13.8</ele>
        <time>2021-10-16T06:48:17Z</time>
      </trkpt>
      <trkpt lat="43.78742" lon="-1.31191">
        <ele>13.6</ele>
        <time>2021-10-16T06:48:18Z</time>
      </trkpt>
      <trkpt lat="43.78743" lon="-1.31196">
        <ele>13.6</ele>
        <time>2021-10-16T06:48:19Z</time>
      </trkpt>
      <trkpt lat="43.78743" lon="-1.31202">
        <ele>13.6</ele>
        <time>2021-10-16T06:48:20Z</time>
      </trkpt>
      <trkpt lat="43.78743" lon="-1.31208">
        <ele>13.6</ele>
        <time>2021-10-16T06:48:21Z</time>
      </trkpt>
      <trkpt lat="43.78744" lon="-1.31221">
        <ele>13.6</ele>
        <time>2021-10-16T06:48:23Z</time>
      </trkpt>
      <trkpt lat="43.78746" lon="-1.31232">
        <ele>13.6</ele>
        <time>2021-10-16T06:48:25Z</time>
      </trkpt>
      <trkpt lat="43.78745" lon="-1.31237">
        <ele>13.6</ele>
        <time>2021-10-16T06:48:26Z</time>
      </trkpt>
      <trkpt lat="43.78744" lon="-1.3124">
        <ele>13.6</ele>
        <time>2021-10-16T06:48:27Z</time>
      </trkpt>
      <trkpt lat="43.78742" lon="-1.31244">
        <ele>13.6</ele>
        <time>2021-10-16T06:48:28Z</time>
      </trkpt>
      <trkpt lat="43.78741" lon="-1.31248">
        <ele>13.6</ele>
        <time>2021-10-16T06:48:29Z</time>
      </trkpt>
      <trkpt lat="43.78742" lon="-1.31252">
        <ele>14</ele>
        <time>2021-10-16T06:48:30Z</time>
      </trkpt>
      <trkpt lat="43.78744" lon="-1.31254">
        <ele>14</ele>
        <time>2021-10-16T06:48:31Z</time>
      </trkpt>
      <trkpt lat="43.78746" lon="-1.31255">
        <ele>14</ele>
        <time>2021-10-16T06:48:32Z</time>
      </trkpt>
      <trkpt lat="43.78749" lon="-1.31256">
        <ele>14</ele>
        <time>2021-10-16T06:48:33Z</time>
      </trkpt>
      <trkpt lat="43.78752" lon="-1.31255">
        <ele>14</ele>
        <time>2021-10-16T06:48:34Z</time>
      </trkpt>
      <trkpt lat="43.78755" lon="-1.31253">
        <ele>14</ele>
        <time>2021-10-16T06:48:35Z</time>
      </trkpt>
      <trkpt lat="43.78758" lon="-1.31251">
        <ele>14</ele>
        <time>2021-10-16T06:48:36Z</time>
      </trkpt>
      <trkpt lat="43.78761" lon="-1.31248">
        <ele>14</ele>
        <time>2021-10-16T06:48:37Z</time>
      </trkpt>
      <trkpt lat="43.78764" lon="-1.31245">
        <ele>14</ele>
        <time>2021-10-16T06:48:38Z</time>
      </trkpt>
      <trkpt lat="43.78774" lon="-1.31237">
        <ele>14.2</ele>
        <time>2021-10-16T06:48:41Z</time>
      </trkpt>
      <trkpt lat="43.78777" lon="-1.31235">
        <ele>14.2</ele>
        <time>2021-10-16T06:48:42Z</time>
      </trkpt>
      <trkpt lat="43.7878" lon="-1.31233">
        <ele>14.4</ele>
        <time>2021-10-16T06:48:43Z</time>
      </trkpt>
      <trkpt lat="43.78792" lon="-1.31225">
        <ele>14.4</ele>
        <time>2021-10-16T06:48:46Z</time>
      </trkpt>
      <trkpt lat="43.78821" lon="-1.31203">
        <ele>15</ele>
        <time>2021-10-16T06:48:53Z</time>
      </trkpt>
      <trkpt lat="43.78835" lon="-1.31193">
        <ele>15</ele>
        <time>2021-10-16T06:48:56Z</time>
      </trkpt>
      <trkpt lat="43.78849" lon="-1.31181">
        <ele>15.2</ele>
        <time>2021-10-16T06:48:59Z</time>
      </trkpt>
      <trkpt lat="43.78859" lon="-1.31175">
        <ele>15.2</ele>
        <time>2021-10-16T06:49:01Z</time>
      </trkpt>
      <trkpt lat="43.78878" lon="-1.31161">
        <ele>15.4</ele>
        <time>2021-10-16T06:49:05Z</time>
      </trkpt>
      <trkpt lat="43.78915" lon="-1.31136">
        <ele>15.6</ele>
        <time>2021-10-16T06:49:13Z</time>
      </trkpt>
      <trkpt lat="43.7892" lon="-1.31133">
        <ele>15.8</ele>
        <time>2021-10-16T06:49:14Z</time>
      </trkpt>
      <trkpt lat="43.78937" lon="-1.31122">
        <ele>16</ele>
        <time>2021-10-16T06:49:18Z</time>
      </trkpt>
      <trkpt lat="43.7894" lon="-1.31119">
        <ele>16</ele>
        <time>2021-10-16T06:49:19Z</time>
      </trkpt>
      <trkpt lat="43.78944" lon="-1.31117">
        <ele>16</ele>
        <time>2021-10-16T06:49:20Z</time>
      </trkpt>
      <trkpt lat="43.78947" lon="-1.31114">
        <ele>16</ele>
        <time>2021-10-16T06:49:21Z</time>
      </trkpt>
      <trkpt lat="43.7895" lon="-1.31112">
        <ele>16</ele>
        <time>2021-10-16T06:49:22Z</time>
      </trkpt>
      <trkpt lat="43.78953" lon="-1.3111">
        <ele>16</ele>
        <time>2021-10-16T06:49:23Z</time>
      </trkpt>
      <trkpt lat="43.78956" lon="-1.31107">
        <ele>16</ele>
        <time>2021-10-16T06:49:24Z</time>
      </trkpt>
      <trkpt lat="43.7896" lon="-1.31105">
        <ele>16.2</ele>
        <time>2021-10-16T06:49:25Z</time>
      </trkpt>
      <trkpt lat="43.78964" lon="-1.31101">
        <ele>16.2</ele>
        <time>2021-10-16T06:49:26Z</time>
      </trkpt>
      <trkpt lat="43.78984" lon="-1.3108">
        <ele>16.6</ele>
        <time>2021-10-16T06:49:31Z</time>
      </trkpt>
      <trkpt lat="43.78994" lon="-1.31071">
        <ele>16.6</ele>
        <time>2021-10-16T06:49:33Z</time>
      </trkpt>
      <trkpt lat="43.79001" lon="-1.31062">
        <ele>16.8</ele>
        <time>2021-10-16T06:49:35Z</time>
      </trkpt>
      <trkpt lat="43.79004" lon="-1.31057">
        <ele>16.8</ele>
        <time>2021-10-16T06:49:36Z</time>
      </trkpt>
      <trkpt lat="43.79008" lon="-1.31053">
        <ele>17</ele>
        <time>2021-10-16T06:49:37Z</time>
      </trkpt>
      <trkpt lat="43.79019" lon="-1.3104">
        <ele>17</ele>
        <time>2021-10-16T06:49:40Z</time>
      </trkpt>
      <trkpt lat="43.79032" lon="-1.31024">
        <ele>17.2</ele>
        <time>2021-10-16T06:49:43Z</time>
      </trkpt>
      <trkpt lat="43.79036" lon="-1.3102">
        <ele>17.2</ele>
        <time>2021-10-16T06:49:44Z</time>
      </trkpt>
      <trkpt lat="43.79039" lon="-1.31015">
        <ele>17.2</ele>
        <time>2021-10-16T06:49:45Z</time>
      </trkpt>
      <trkpt lat="43.79043" lon="-1.3101">
        <ele>17.2</ele>
        <time>2021-10-16T06:49:46Z</time>
      </trkpt>
      <trkpt lat="43.79057" lon="-1.30991">
        <ele>17.4</ele>
        <time>2021-10-16T06:49:50Z</time>
      </trkpt>
      <trkpt lat="43.79067" lon="-1.30975">
        <ele>17.6</ele>
        <time>2021-10-16T06:49:53Z</time>
      </trkpt>
      <trkpt lat="43.7908" lon="-1.30955">
        <ele>17.6</ele>
        <time>2021-10-16T06:49:56Z</time>
      </trkpt>
      <trkpt lat="43.79088" lon="-1.30944">
        <ele>17.6</ele>
        <time>2021-10-16T06:49:58Z</time>
      </trkpt>
      <trkpt lat="43.79091" lon="-1.30939">
        <ele>17.6</ele>
        <time>2021-10-16T06:49:59Z</time>
      </trkpt>
      <trkpt lat="43.79095" lon="-1.30934">
        <ele>17.6</ele>
        <time>2021-10-16T06:50:00Z</time>
      </trkpt>
      <trkpt lat="43.79099" lon="-1.3093">
        <ele>17.6</ele>
        <time>2021-10-16T06:50:01Z</time>
      </trkpt>
      <trkpt lat="43.79103" lon="-1.30925">
        <ele>17.6</ele>
        <time>2021-10-16T06:50:02Z</time>
      </trkpt>
      <trkpt lat="43.79119" lon="-1.30903">
        <ele>17.6</ele>
        <time>2021-10-16T06:50:06Z</time>
      </trkpt>
      <trkpt lat="43.79121" lon="-1.30899">
        <ele>17.6</ele>
        <time>2021-10-16T06:50:07Z</time>
      </trkpt>
      <trkpt lat="43.79125" lon="-1.30894">
        <ele>17.6</ele>
        <time>2021-10-16T06:50:08Z</time>
      </trkpt>
      <trkpt lat="43.79131" lon="-1.30885">
        <ele>17.8</ele>
        <time>2021-10-16T06:50:10Z</time>
      </trkpt>
      <trkpt lat="43.79134" lon="-1.30882">
        <ele>18</ele>
        <time>2021-10-16T06:50:11Z</time>
      </trkpt>
      <trkpt lat="43.79137" lon="-1.30876">
        <ele>18.2</ele>
        <time>2021-10-16T06:50:12Z</time>
      </trkpt>
      <trkpt lat="43.7914" lon="-1.30871">
        <ele>18.2</ele>
        <time>2021-10-16T06:50:13Z</time>
      </trkpt>
      <trkpt lat="43.79145" lon="-1.30866">
        <ele>18.4</ele>
        <time>2021-10-16T06:50:14Z</time>
      </trkpt>
      <trkpt lat="43.79149" lon="-1.30859">
        <ele>18.4</ele>
        <time>2021-10-16T06:50:15Z</time>
      </trkpt>
      <trkpt lat="43.79157" lon="-1.30841">
        <ele>19</ele>
        <time>2021-10-16T06:50:18Z</time>
      </trkpt>
      <trkpt lat="43.79159" lon="-1.30836">
        <ele>19.2</ele>
        <time>2021-10-16T06:50:19Z</time>
      </trkpt>
      <trkpt lat="43.79172" lon="-1.30812">
        <ele>19.6</ele>
        <time>2021-10-16T06:50:23Z</time>
      </trkpt>
      <trkpt lat="43.79186" lon="-1.30788">
        <ele>19.6</ele>
        <time>2021-10-16T06:50:27Z</time>
      </trkpt>
      <trkpt lat="43.79194" lon="-1.30778">
        <ele>19.8</ele>
        <time>2021-10-16T06:50:29Z</time>
      </trkpt>
      <trkpt lat="43.79203" lon="-1.30772">
        <ele>20</ele>
        <time>2021-10-16T06:50:32Z</time>
      </trkpt>
      <trkpt lat="43.79207" lon="-1.30769">
        <ele>20</ele>
        <time>2021-10-16T06:50:33Z</time>
      </trkpt>
      <trkpt lat="43.79211" lon="-1.30766">
        <ele>20</ele>
        <time>2021-10-16T06:50:34Z</time>
      </trkpt>
      <trkpt lat="43.79232" lon="-1.30754">
        <ele>20.2</ele>
        <time>2021-10-16T06:50:39Z</time>
      </trkpt>
      <trkpt lat="43.79236" lon="-1.30752">
        <ele>20.2</ele>
        <time>2021-10-16T06:50:40Z</time>
      </trkpt>
      <trkpt lat="43.79248" lon="-1.30748">
        <ele>20.6</ele>
        <time>2021-10-16T06:50:43Z</time>
      </trkpt>
      <trkpt lat="43.79253" lon="-1.30748">
        <ele>20.8</ele>
        <time>2021-10-16T06:50:44Z</time>
      </trkpt>
      <trkpt lat="43.79258" lon="-1.30748">
        <ele>20.8</ele>
        <time>2021-10-16T06:50:45Z</time>
      </trkpt>
      <trkpt lat="43.79274" lon="-1.30752">
        <ele>20.8</ele>
        <time>2021-10-16T06:50:48Z</time>
      </trkpt>
      <trkpt lat="43.79284" lon="-1.30752">
        <ele>20.8</ele>
        <time>2021-10-16T06:50:50Z</time>
      </trkpt>
      <trkpt lat="43.79329" lon="-1.30756">
        <ele>21.2</ele>
        <time>2021-10-16T06:50:59Z</time>
      </trkpt>
      <trkpt lat="43.79365" lon="-1.30758">
        <ele>21.4</ele>
        <time>2021-10-16T06:51:06Z</time>
      </trkpt>
      <trkpt lat="43.7937" lon="-1.30757">
        <ele>21.6</ele>
        <time>2021-10-16T06:51:07Z</time>
      </trkpt>
      <trkpt lat="43.79399" lon="-1.30749">
        <ele>22</ele>
        <time>2021-10-16T06:51:13Z</time>
      </trkpt>
      <trkpt lat="43.79403" lon="-1.30747">
        <ele>22.2</ele>
        <time>2021-10-16T06:51:14Z</time>
      </trkpt>
      <trkpt lat="43.79407" lon="-1.30745">
        <ele>22.2</ele>
        <time>2021-10-16T06:51:15Z</time>
      </trkpt>
      <trkpt lat="43.79411" lon="-1.30743">
        <ele>22.4</ele>
        <time>2021-10-16T06:51:16Z</time>
      </trkpt>
      <trkpt lat="43.7942" lon="-1.30739">
        <ele>22.6</ele>
        <time>2021-10-16T06:51:18Z</time>
      </trkpt>
      <trkpt lat="43.79425" lon="-1.30736">
        <ele>22.8</ele>
        <time>2021-10-16T06:51:19Z</time>
      </trkpt>
      <trkpt lat="43.79437" lon="-1.30729">
        <ele>23.2</ele>
        <time>2021-10-16T06:51:22Z</time>
      </trkpt>
      <trkpt lat="43.79441" lon="-1.30728">
        <ele>23.2</ele>
        <time>2021-10-16T06:51:23Z</time>
      </trkpt>
      <trkpt lat="43.79454" lon="-1.30722">
        <ele>23.6</ele>
        <time>2021-10-16T06:51:26Z</time>
      </trkpt>
      <trkpt lat="43.79458" lon="-1.30719">
        <ele>23.6</ele>
        <time>2021-10-16T06:51:27Z</time>
      </trkpt>
      <trkpt lat="43.79462" lon="-1.30717">
        <ele>23.8</ele>
        <time>2021-10-16T06:51:28Z</time>
      </trkpt>
      <trkpt lat="43.79471" lon="-1.30712">
        <ele>24.2</ele>
        <time>2021-10-16T06:51:30Z</time>
      </trkpt>
      <trkpt lat="43.79481" lon="-1.30709">
        <ele>24.4</ele>
        <time>2021-10-16T06:51:32Z</time>
      </trkpt>
      <trkpt lat="43.79486" lon="-1.30708">
        <ele>24.4</ele>
        <time>2021-10-16T06:51:33Z</time>
      </trkpt>
      <trkpt lat="43.79491" lon="-1.30706">
        <ele>24.4</ele>
        <time>2021-10-16T06:51:34Z</time>
      </trkpt>
      <trkpt lat="43.79495" lon="-1.30704">
        <ele>24.4</ele>
        <time>2021-10-16T06:51:35Z</time>
      </trkpt>
      <trkpt lat="43.795" lon="-1.30702">
        <ele>24.6</ele>
        <time>2021-10-16T06:51:36Z</time>
      </trkpt>
      <trkpt lat="43.79504" lon="-1.307">
        <ele>24.6</ele>
        <time>2021-10-16T06:51:37Z</time>
      </trkpt>
      <trkpt lat="43.79508" lon="-1.30697">
        <ele>24.6</ele>
        <time>2021-10-16T06:51:38Z</time>
      </trkpt>
      <trkpt lat="43.79512" lon="-1.30693">
        <ele>24.6</ele>
        <time>2021-10-16T06:51:39Z</time>
      </trkpt>
      <trkpt lat="43.79517" lon="-1.30689">
        <ele>24.6</ele>
        <time>2021-10-16T06:51:40Z</time>
      </trkpt>
      <trkpt lat="43.79521" lon="-1.30686">
        <ele>24.6</ele>
        <time>2021-10-16T06:51:41Z</time>
      </trkpt>
      <trkpt lat="43.7953" lon="-1.30678">
        <ele>24.8</ele>
        <time>2021-10-16T06:51:43Z</time>
      </trkpt>
      <trkpt lat="43.79534" lon="-1.30675">
        <ele>24.8</ele>
        <time>2021-10-16T06:51:44Z</time>
      </trkpt>
      <trkpt lat="43.79538" lon="-1.30671">
        <ele>24.8</ele>
        <time>2021-10-16T06:51:45Z</time>
      </trkpt>
      <trkpt lat="43.79566" lon="-1.30645">
        <ele>24.6</ele>
        <time>2021-10-16T06:51:51Z</time>
      </trkpt>
      <trkpt lat="43.79571" lon="-1.30639">
        <ele>24.6</ele>
        <time>2021-10-16T06:51:52Z</time>
      </trkpt>
      <trkpt lat="43.79597" lon="-1.30615">
        <ele>24.8</ele>
        <time>2021-10-16T06:51:58Z</time>
      </trkpt>
      <trkpt lat="43.79601" lon="-1.30612">
        <ele>24.8</ele>
        <time>2021-10-16T06:51:59Z</time>
      </trkpt>
      <trkpt lat="43.79604" lon="-1.30608">
        <ele>24.8</ele>
        <time>2021-10-16T06:52:00Z</time>
      </trkpt>
      <trkpt lat="43.79608" lon="-1.30604">
        <ele>24.8</ele>
        <time>2021-10-16T06:52:01Z</time>
      </trkpt>
      <trkpt lat="43.79612" lon="-1.306">
        <ele>24.8</ele>
        <time>2021-10-16T06:52:02Z</time>
      </trkpt>
      <trkpt lat="43.79616" lon="-1.30596">
        <ele>25</ele>
        <time>2021-10-16T06:52:03Z</time>
      </trkpt>
      <trkpt lat="43.7962" lon="-1.30591">
        <ele>25</ele>
        <time>2021-10-16T06:52:04Z</time>
      </trkpt>
      <trkpt lat="43.79625" lon="-1.30586">
        <ele>25</ele>
        <time>2021-10-16T06:52:05Z</time>
      </trkpt>
      <trkpt lat="43.79629" lon="-1.30581">
        <ele>25</ele>
        <time>2021-10-16T06:52:06Z</time>
      </trkpt>
      <trkpt lat="43.79632" lon="-1.30577">
        <ele>25</ele>
        <time>2021-10-16T06:52:07Z</time>
      </trkpt>
      <trkpt lat="43.79634" lon="-1.30573">
        <ele>25.2</ele>
        <time>2021-10-16T06:52:08Z</time>
      </trkpt>
      <trkpt lat="43.79637" lon="-1.30569">
        <ele>25.4</ele>
        <time>2021-10-16T06:52:09Z</time>
      </trkpt>
      <trkpt lat="43.7964" lon="-1.30564">
        <ele>25.6</ele>
        <time>2021-10-16T06:52:10Z</time>
      </trkpt>
      <trkpt lat="43.79643" lon="-1.30559">
        <ele>25.6</ele>
        <time>2021-10-16T06:52:11Z</time>
      </trkpt>
      <trkpt lat="43.79646" lon="-1.30555">
        <ele>25.6</ele>
        <time>2021-10-16T06:52:12Z</time>
      </trkpt>
      <trkpt lat="43.79664" lon="-1.30534">
        <ele>25.8</ele>
        <time>2021-10-16T06:52:17Z</time>
      </trkpt>
      <trkpt lat="43.79667" lon="-1.30531">
        <ele>25.8</ele>
        <time>2021-10-16T06:52:18Z</time>
      </trkpt>
      <trkpt lat="43.79669" lon="-1.30527">
        <ele>25.8</ele>
        <time>2021-10-16T06:52:19Z</time>
      </trkpt>
      <trkpt lat="43.79672" lon="-1.30522">
        <ele>25.8</ele>
        <time>2021-10-16T06:52:20Z</time>
      </trkpt>
      <trkpt lat="43.79675" lon="-1.30518">
        <ele>25.6</ele>
        <time>2021-10-16T06:52:21Z</time>
      </trkpt>
      <trkpt lat="43.79678" lon="-1.30514">
        <ele>25.6</ele>
        <time>2021-10-16T06:52:22Z</time>
      </trkpt>
      <trkpt lat="43.79681" lon="-1.3051">
        <ele>25.6</ele>
        <time>2021-10-16T06:52:23Z</time>
      </trkpt>
      <trkpt lat="43.79684" lon="-1.30507">
        <ele>25.6</ele>
        <time>2021-10-16T06:52:24Z</time>
      </trkpt>
      <trkpt lat="43.79687" lon="-1.30502">
        <ele>25.8</ele>
        <time>2021-10-16T06:52:25Z</time>
      </trkpt>
      <trkpt lat="43.79691" lon="-1.30498">
        <ele>25.8</ele>
        <time>2021-10-16T06:52:26Z</time>
      </trkpt>
      <trkpt lat="43.79693" lon="-1.30494">
        <ele>25.8</ele>
        <time>2021-10-16T06:52:27Z</time>
      </trkpt>
      <trkpt lat="43.79697" lon="-1.30488">
        <ele>26</ele>
        <time>2021-10-16T06:52:28Z</time>
      </trkpt>
      <trkpt lat="43.79703" lon="-1.30478">
        <ele>26.2</ele>
        <time>2021-10-16T06:52:30Z</time>
      </trkpt>
      <trkpt lat="43.79706" lon="-1.30472">
        <ele>26.2</ele>
        <time>2021-10-16T06:52:31Z</time>
      </trkpt>
      <trkpt lat="43.79716" lon="-1.30453">
        <ele>26.4</ele>
        <time>2021-10-16T06:52:34Z</time>
      </trkpt>
      <trkpt lat="43.79735" lon="-1.30418">
        <ele>26.4</ele>
        <time>2021-10-16T06:52:38Z</time>
      </trkpt>
      <trkpt lat="43.7974" lon="-1.30399">
        <ele>26.4</ele>
        <time>2021-10-16T06:52:41Z</time>
      </trkpt>
      <trkpt lat="43.79742" lon="-1.30393">
        <ele>26.4</ele>
        <time>2021-10-16T06:52:42Z</time>
      </trkpt>
      <trkpt lat="43.79743" lon="-1.30389">
        <ele>26.4</ele>
        <time>2021-10-16T06:52:43Z</time>
      </trkpt>
      <trkpt lat="43.79745" lon="-1.30384">
        <ele>26.4</ele>
        <time>2021-10-16T06:52:44Z</time>
      </trkpt>
      <trkpt lat="43.79758" lon="-1.3035">
        <ele>26.8</ele>
        <time>2021-10-16T06:52:50Z</time>
      </trkpt>
      <trkpt lat="43.7976" lon="-1.30345">
        <ele>26.8</ele>
        <time>2021-10-16T06:52:51Z</time>
      </trkpt>
      <trkpt lat="43.79763" lon="-1.3034">
        <ele>26.8</ele>
        <time>2021-10-16T06:52:52Z</time>
      </trkpt>
      <trkpt lat="43.79777" lon="-1.30323">
        <ele>26.8</ele>
        <time>2021-10-16T06:52:56Z</time>
      </trkpt>
      <trkpt lat="43.79805" lon="-1.3029">
        <ele>27</ele>
        <time>2021-10-16T06:53:04Z</time>
      </trkpt>
      <trkpt lat="43.79808" lon="-1.30286">
        <ele>27</ele>
        <time>2021-10-16T06:53:05Z</time>
      </trkpt>
      <trkpt lat="43.79812" lon="-1.30283">
        <ele>27</ele>
        <time>2021-10-16T06:53:06Z</time>
      </trkpt>
      <trkpt lat="43.79815" lon="-1.3028">
        <ele>27</ele>
        <time>2021-10-16T06:53:07Z</time>
      </trkpt>
      <trkpt lat="43.79818" lon="-1.30277">
        <ele>27.2</ele>
        <time>2021-10-16T06:53:08Z</time>
      </trkpt>
      <trkpt lat="43.79821" lon="-1.30273">
        <ele>27.2</ele>
        <time>2021-10-16T06:53:09Z</time>
      </trkpt>
      <trkpt lat="43.79824" lon="-1.30269">
        <ele>27.2</ele>
        <time>2021-10-16T06:53:10Z</time>
      </trkpt>
      <trkpt lat="43.79827" lon="-1.30266">
        <ele>27.2</ele>
        <time>2021-10-16T06:53:11Z</time>
      </trkpt>
      <trkpt lat="43.7983" lon="-1.30262">
        <ele>27.4</ele>
        <time>2021-10-16T06:53:12Z</time>
      </trkpt>
      <trkpt lat="43.79833" lon="-1.30258">
        <ele>27.4</ele>
        <time>2021-10-16T06:53:13Z</time>
      </trkpt>
      <trkpt lat="43.79835" lon="-1.30254">
        <ele>27.6</ele>
        <time>2021-10-16T06:53:14Z</time>
      </trkpt>
      <trkpt lat="43.79836" lon="-1.3025">
        <ele>27.6</ele>
        <time>2021-10-16T06:53:15Z</time>
      </trkpt>
      <trkpt lat="43.79838" lon="-1.30247">
        <ele>27.8</ele>
        <time>2021-10-16T06:53:16Z</time>
      </trkpt>
      <trkpt lat="43.7984" lon="-1.30244">
        <ele>27.8</ele>
        <time>2021-10-16T06:53:17Z</time>
      </trkpt>
      <trkpt lat="43.79843" lon="-1.30241">
        <ele>27.8</ele>
        <time>2021-10-16T06:53:18Z</time>
      </trkpt>
      <trkpt lat="43.79847" lon="-1.30241">
        <ele>28</ele>
        <time>2021-10-16T06:53:19Z</time>
      </trkpt>
      <trkpt lat="43.7985" lon="-1.30241">
        <ele>28</ele>
        <time>2021-10-16T06:53:20Z</time>
      </trkpt>
      <trkpt lat="43.79853" lon="-1.30243">
        <ele>28</ele>
        <time>2021-10-16T06:53:21Z</time>
      </trkpt>
      <trkpt lat="43.79856" lon="-1.30244">
        <ele>28</ele>
        <time>2021-10-16T06:53:22Z</time>
      </trkpt>
      <trkpt lat="43.79859" lon="-1.30245">
        <ele>28.2</ele>
        <time>2021-10-16T06:53:23Z</time>
      </trkpt>
      <trkpt lat="43.79862" lon="-1.30245">
        <ele>28.2</ele>
        <time>2021-10-16T06:53:24Z</time>
      </trkpt>
      <trkpt lat="43.79865" lon="-1.30246">
        <ele>28.2</ele>
        <time>2021-10-16T06:53:25Z</time>
      </trkpt>
      <trkpt lat="43.79868" lon="-1.30247">
        <ele>28.2</ele>
        <time>2021-10-16T06:53:26Z</time>
      </trkpt>
      <trkpt lat="43.79881" lon="-1.30252">
        <ele>28.4</ele>
        <time>2021-10-16T06:53:30Z</time>
      </trkpt>
      <trkpt lat="43.79886" lon="-1.30254">
        <ele>28.6</ele>
        <time>2021-10-16T06:53:32Z</time>
      </trkpt>
      <trkpt lat="43.79895" lon="-1.30258">
        <ele>28.8</ele>
        <time>2021-10-16T06:53:35Z</time>
      </trkpt>
      <trkpt lat="43.799" lon="-1.3026">
        <ele>28.8</ele>
        <time>2021-10-16T06:53:37Z</time>
      </trkpt>
      <trkpt lat="43.79902" lon="-1.30261">
        <ele>28.8</ele>
        <time>2021-10-16T06:53:38Z</time>
      </trkpt>
      <trkpt lat="43.79904" lon="-1.30262">
        <ele>28.8</ele>
        <time>2021-10-16T06:53:39Z</time>
      </trkpt>
      <trkpt lat="43.79906" lon="-1.30263">
        <ele>29</ele>
        <time>2021-10-16T06:53:40Z</time>
      </trkpt>
      <trkpt lat="43.79908" lon="-1.30265">
        <ele>29</ele>
        <time>2021-10-16T06:53:41Z</time>
      </trkpt>
      <trkpt lat="43.79909" lon="-1.30267">
        <ele>29</ele>
        <time>2021-10-16T06:53:42Z</time>
      </trkpt>
      <trkpt lat="43.7991" lon="-1.30269">
        <ele>29</ele>
        <time>2021-10-16T06:53:43Z</time>
      </trkpt>
      <trkpt lat="43.79911" lon="-1.30272">
        <ele>29</ele>
        <time>2021-10-16T06:53:44Z</time>
      </trkpt>
      <trkpt lat="43.79911" lon="-1.30276">
        <ele>29</ele>
        <time>2021-10-16T06:53:45Z</time>
      </trkpt>
      <trkpt lat="43.79911" lon="-1.30279">
        <ele>29</ele>
        <time>2021-10-16T06:53:46Z</time>
      </trkpt>
      <trkpt lat="43.79911" lon="-1.30283">
        <ele>29.2</ele>
        <time>2021-10-16T06:53:47Z</time>
      </trkpt>
      <trkpt lat="43.79913" lon="-1.3029">
        <ele>29.2</ele>
        <time>2021-10-16T06:53:49Z</time>
      </trkpt>
      <trkpt lat="43.79915" lon="-1.30294">
        <ele>29.2</ele>
        <time>2021-10-16T06:53:50Z</time>
      </trkpt>
      <trkpt lat="43.79916" lon="-1.30298">
        <ele>29.2</ele>
        <time>2021-10-16T06:53:51Z</time>
      </trkpt>
      <trkpt lat="43.79921" lon="-1.30316">
        <ele>29</ele>
        <time>2021-10-16T06:53:55Z</time>
      </trkpt>
      <trkpt lat="43.79923" lon="-1.30321">
        <ele>28.8</ele>
        <time>2021-10-16T06:53:56Z</time>
      </trkpt>
      <trkpt lat="43.79934" lon="-1.30349">
        <ele>28.6</ele>
        <time>2021-10-16T06:54:02Z</time>
      </trkpt>
      <trkpt lat="43.79941" lon="-1.30376">
        <ele>28.6</ele>
        <time>2021-10-16T06:54:07Z</time>
      </trkpt>
      <trkpt lat="43.79942" lon="-1.30379">
        <ele>28.6</ele>
        <time>2021-10-16T06:54:08Z</time>
      </trkpt>
      <trkpt lat="43.79944" lon="-1.3038">
        <ele>28.6</ele>
        <time>2021-10-16T06:54:09Z</time>
      </trkpt>
      <trkpt lat="43.79946" lon="-1.30382">
        <ele>28.6</ele>
        <time>2021-10-16T06:54:10Z</time>
      </trkpt>
      <trkpt lat="43.79948" lon="-1.30384">
        <ele>28.8</ele>
        <time>2021-10-16T06:54:11Z</time>
      </trkpt>
      <trkpt lat="43.7995" lon="-1.30398">
        <ele>28.6</ele>
        <time>2021-10-16T06:54:14Z</time>
      </trkpt>
      <trkpt lat="43.79952" lon="-1.30404">
        <ele>28.2</ele>
        <time>2021-10-16T06:54:15Z</time>
      </trkpt>
      <trkpt lat="43.79956" lon="-1.3042">
        <ele>27.8</ele>
        <time>2021-10-16T06:54:18Z</time>
      </trkpt>
      <trkpt lat="43.79963" lon="-1.30441">
        <ele>27.2</ele>
        <time>2021-10-16T06:54:22Z</time>
      </trkpt>
      <trkpt lat="43.79964" lon="-1.30452">
        <ele>27</ele>
        <time>2021-10-16T06:54:24Z</time>
      </trkpt>
      <trkpt lat="43.79963" lon="-1.30458">
        <ele>27</ele>
        <time>2021-10-16T06:54:25Z</time>
      </trkpt>
      <trkpt lat="43.79961" lon="-1.30464">
        <ele>27</ele>
        <time>2021-10-16T06:54:26Z</time>
      </trkpt>
      <trkpt lat="43.7996" lon="-1.30469">
        <ele>27</ele>
        <time>2021-10-16T06:54:27Z</time>
      </trkpt>
      <trkpt lat="43.79959" lon="-1.30474">
        <ele>27</ele>
        <time>2021-10-16T06:54:28Z</time>
      </trkpt>
      <trkpt lat="43.79959" lon="-1.30479">
        <ele>27</ele>
        <time>2021-10-16T06:54:29Z</time>
      </trkpt>
      <trkpt lat="43.79958" lon="-1.30484">
        <ele>27.2</ele>
        <time>2021-10-16T06:54:30Z</time>
      </trkpt>
      <trkpt lat="43.79959" lon="-1.3049">
        <ele>27.8</ele>
        <time>2021-10-16T06:54:31Z</time>
      </trkpt>
      <trkpt lat="43.79959" lon="-1.30496">
        <ele>28</ele>
        <time>2021-10-16T06:54:32Z</time>
      </trkpt>
      <trkpt lat="43.7996" lon="-1.30514">
        <ele>28.6</ele>
        <time>2021-10-16T06:54:35Z</time>
      </trkpt>
      <trkpt lat="43.7996" lon="-1.30533">
        <ele>28.6</ele>
        <time>2021-10-16T06:54:38Z</time>
      </trkpt>
      <trkpt lat="43.7996" lon="-1.30548">
        <ele>28.6</ele>
        <time>2021-10-16T06:54:40Z</time>
      </trkpt>
      <trkpt lat="43.79959" lon="-1.30554">
        <ele>28.4</ele>
        <time>2021-10-16T06:54:41Z</time>
      </trkpt>
      <trkpt lat="43.79958" lon="-1.30561">
        <ele>28.4</ele>
        <time>2021-10-16T06:54:42Z</time>
      </trkpt>
      <trkpt lat="43.79958" lon="-1.30569">
        <ele>28.4</ele>
        <time>2021-10-16T06:54:43Z</time>
      </trkpt>
      <trkpt lat="43.79963" lon="-1.30606">
        <ele>28.8</ele>
        <time>2021-10-16T06:54:48Z</time>
      </trkpt>
      <trkpt lat="43.79962" lon="-1.30646">
        <ele>28.8</ele>
        <time>2021-10-16T06:54:53Z</time>
      </trkpt>
      <trkpt lat="43.79963" lon="-1.30652">
        <ele>28.8</ele>
        <time>2021-10-16T06:54:54Z</time>
      </trkpt>
      <trkpt lat="43.79965" lon="-1.30658">
        <ele>28.6</ele>
        <time>2021-10-16T06:54:55Z</time>
      </trkpt>
      <trkpt lat="43.79969" lon="-1.30663">
        <ele>28.6</ele>
        <time>2021-10-16T06:54:56Z</time>
      </trkpt>
      <trkpt lat="43.79972" lon="-1.30668">
        <ele>28.6</ele>
        <time>2021-10-16T06:54:57Z</time>
      </trkpt>
      <trkpt lat="43.79976" lon="-1.30672">
        <ele>28.6</ele>
        <time>2021-10-16T06:54:58Z</time>
      </trkpt>
      <trkpt lat="43.79979" lon="-1.30677">
        <ele>28.4</ele>
        <time>2021-10-16T06:54:59Z</time>
      </trkpt>
      <trkpt lat="43.80001" lon="-1.30703">
        <ele>28.4</ele>
        <time>2021-10-16T06:55:05Z</time>
      </trkpt>
      <trkpt lat="43.80007" lon="-1.30712">
        <ele>28.4</ele>
        <time>2021-10-16T06:55:07Z</time>
      </trkpt>
      <trkpt lat="43.80011" lon="-1.30717">
        <ele>28.4</ele>
        <time>2021-10-16T06:55:08Z</time>
      </trkpt>
      <trkpt lat="43.80017" lon="-1.30726">
        <ele>28.6</ele>
        <time>2021-10-16T06:55:10Z</time>
      </trkpt>
      <trkpt lat="43.80019" lon="-1.30731">
        <ele>28.8</ele>
        <time>2021-10-16T06:55:11Z</time>
      </trkpt>
      <trkpt lat="43.80021" lon="-1.30735">
        <ele>28.8</ele>
        <time>2021-10-16T06:55:12Z</time>
      </trkpt>
      <trkpt lat="43.80024" lon="-1.3074">
        <ele>28.8</ele>
        <time>2021-10-16T06:55:13Z</time>
      </trkpt>
      <trkpt lat="43.80028" lon="-1.3075">
        <ele>29</ele>
        <time>2021-10-16T06:55:15Z</time>
      </trkpt>
      <trkpt lat="43.8003" lon="-1.30761">
        <ele>29</ele>
        <time>2021-10-16T06:55:17Z</time>
      </trkpt>
      <trkpt lat="43.8003" lon="-1.30765">
        <ele>29.2</ele>
        <time>2021-10-16T06:55:18Z</time>
      </trkpt>
      <trkpt lat="43.8003" lon="-1.30769">
        <ele>29.2</ele>
        <time>2021-10-16T06:55:19Z</time>
      </trkpt>
      <trkpt lat="43.80032" lon="-1.30785">
        <ele>29.2</ele>
        <time>2021-10-16T06:55:22Z</time>
      </trkpt>
      <trkpt lat="43.80032" lon="-1.30819">
        <ele>29.2</ele>
        <time>2021-10-16T06:55:27Z</time>
      </trkpt>
      <trkpt lat="43.80034" lon="-1.30825">
        <ele>29</ele>
        <time>2021-10-16T06:55:28Z</time>
      </trkpt>
      <trkpt lat="43.80035" lon="-1.30853">
        <ele>29</ele>
        <time>2021-10-16T06:55:32Z</time>
      </trkpt>
      <trkpt lat="43.80037" lon="-1.30869">
        <ele>29</ele>
        <time>2021-10-16T06:55:34Z</time>
      </trkpt>
      <trkpt lat="43.80038" lon="-1.30878">
        <ele>28.8</ele>
        <time>2021-10-16T06:55:35Z</time>
      </trkpt>
      <trkpt lat="43.8004" lon="-1.30887">
        <ele>28.8</ele>
        <time>2021-10-16T06:55:36Z</time>
      </trkpt>
      <trkpt lat="43.80041" lon="-1.30901">
        <ele>28.8</ele>
        <time>2021-10-16T06:55:37Z</time>
      </trkpt>
      <trkpt lat="43.80041" lon="-1.30919">
        <ele>28.8</ele>
        <time>2021-10-16T06:55:39Z</time>
      </trkpt>
      <trkpt lat="43.80039" lon="-1.30928">
        <ele>28.8</ele>
        <time>2021-10-16T06:55:40Z</time>
      </trkpt>
      <trkpt lat="43.80039" lon="-1.30935">
        <ele>28.6</ele>
        <time>2021-10-16T06:55:41Z</time>
      </trkpt>
      <trkpt lat="43.80038" lon="-1.30942">
        <ele>28.6</ele>
        <time>2021-10-16T06:55:42Z</time>
      </trkpt>
      <trkpt lat="43.80038" lon="-1.30951">
        <ele>28.6</ele>
        <time>2021-10-16T06:55:43Z</time>
      </trkpt>
      <trkpt lat="43.80035" lon="-1.30968">
        <ele>28.6</ele>
        <time>2021-10-16T06:55:45Z</time>
      </trkpt>
      <trkpt lat="43.80037" lon="-1.30977">
        <ele>28.4</ele>
        <time>2021-10-16T06:55:46Z</time>
      </trkpt>
      <trkpt lat="43.80041" lon="-1.30992">
        <ele>28.4</ele>
        <time>2021-10-16T06:55:48Z</time>
      </trkpt>
      <trkpt lat="43.80044" lon="-1.31">
        <ele>28.4</ele>
        <time>2021-10-16T06:55:49Z</time>
      </trkpt>
      <trkpt lat="43.80047" lon="-1.31009">
        <ele>28.4</ele>
        <time>2021-10-16T06:55:50Z</time>
      </trkpt>
      <trkpt lat="43.80048" lon="-1.31017">
        <ele>28.4</ele>
        <time>2021-10-16T06:55:51Z</time>
      </trkpt>
      <trkpt lat="43.80051" lon="-1.31023">
        <ele>28.4</ele>
        <time>2021-10-16T06:55:52Z</time>
      </trkpt>
      <trkpt lat="43.80052" lon="-1.31029">
        <ele>28.4</ele>
        <time>2021-10-16T06:55:53Z</time>
      </trkpt>
      <trkpt lat="43.80055" lon="-1.31038">
        <ele>28.4</ele>
        <time>2021-10-16T06:55:54Z</time>
      </trkpt>
      <trkpt lat="43.80058" lon="-1.31046">
        <ele>28.4</ele>
        <time>2021-10-16T06:55:55Z</time>
      </trkpt>
      <trkpt lat="43.8006" lon="-1.31053">
        <ele>28.6</ele>
        <time>2021-10-16T06:55:56Z</time>
      </trkpt>
      <trkpt lat="43.80062" lon="-1.31059">
        <ele>28.6</ele>
        <time>2021-10-16T06:55:57Z</time>
      </trkpt>
      <trkpt lat="43.80065" lon="-1.31065">
        <ele>28.8</ele>
        <time>2021-10-16T06:55:58Z</time>
      </trkpt>
      <trkpt lat="43.80066" lon="-1.3107">
        <ele>28.8</ele>
        <time>2021-10-16T06:55:59Z</time>
      </trkpt>
      <trkpt lat="43.80068" lon="-1.31076">
        <ele>28.8</ele>
        <time>2021-10-16T06:56:00Z</time>
      </trkpt>
      <trkpt lat="43.80082" lon="-1.311">
        <ele>29</ele>
        <time>2021-10-16T06:56:04Z</time>
      </trkpt>
      <trkpt lat="43.80093" lon="-1.31119">
        <ele>29.2</ele>
        <time>2021-10-16T06:56:07Z</time>
      </trkpt>
      <trkpt lat="43.80093" lon="-1.31125">
        <ele>29.2</ele>
        <time>2021-10-16T06:56:08Z</time>
      </trkpt>
      <trkpt lat="43.80099" lon="-1.31133">
        <ele>29.2</ele>
        <time>2021-10-16T06:56:09Z</time>
      </trkpt>
      <trkpt lat="43.80103" lon="-1.31138">
        <ele>29.2</ele>
        <time>2021-10-16T06:56:10Z</time>
      </trkpt>
      <trkpt lat="43.80107" lon="-1.31144">
        <ele>29.2</ele>
        <time>2021-10-16T06:56:11Z</time>
      </trkpt>
      <trkpt lat="43.80112" lon="-1.3115">
        <ele>29.2</ele>
        <time>2021-10-16T06:56:12Z</time>
      </trkpt>
      <trkpt lat="43.80115" lon="-1.31155">
        <ele>29.2</ele>
        <time>2021-10-16T06:56:13Z</time>
      </trkpt>
      <trkpt lat="43.80119" lon="-1.3116">
        <ele>29.2</ele>
        <time>2021-10-16T06:56:14Z</time>
      </trkpt>
      <trkpt lat="43.80123" lon="-1.31166">
        <ele>29.2</ele>
        <time>2021-10-16T06:56:15Z</time>
      </trkpt>
      <trkpt lat="43.80128" lon="-1.31172">
        <ele>29.2</ele>
        <time>2021-10-16T06:56:16Z</time>
      </trkpt>
      <trkpt lat="43.80132" lon="-1.31178">
        <ele>29.2</ele>
        <time>2021-10-16T06:56:17Z</time>
      </trkpt>
      <trkpt lat="43.80136" lon="-1.31181">
        <ele>29.4</ele>
        <time>2021-10-16T06:56:18Z</time>
      </trkpt>
      <trkpt lat="43.80141" lon="-1.31183">
        <ele>29.4</ele>
        <time>2021-10-16T06:56:19Z</time>
      </trkpt>
      <trkpt lat="43.80147" lon="-1.31184">
        <ele>29.4</ele>
        <time>2021-10-16T06:56:20Z</time>
      </trkpt>
      <trkpt lat="43.8015" lon="-1.31183">
        <ele>29.4</ele>
        <time>2021-10-16T06:56:21Z</time>
      </trkpt>
      <trkpt lat="43.80154" lon="-1.31182">
        <ele>29.4</ele>
        <time>2021-10-16T06:56:22Z</time>
      </trkpt>
      <trkpt lat="43.80159" lon="-1.3118">
        <ele>29.4</ele>
        <time>2021-10-16T06:56:23Z</time>
      </trkpt>
      <trkpt lat="43.80164" lon="-1.31178">
        <ele>29.6</ele>
        <time>2021-10-16T06:56:24Z</time>
      </trkpt>
      <trkpt lat="43.80174" lon="-1.31176">
        <ele>29.6</ele>
        <time>2021-10-16T06:56:26Z</time>
      </trkpt>
      <trkpt lat="43.80178" lon="-1.31176">
        <ele>29.6</ele>
        <time>2021-10-16T06:56:27Z</time>
      </trkpt>
      <trkpt lat="43.80183" lon="-1.31177">
        <ele>29.8</ele>
        <time>2021-10-16T06:56:28Z</time>
      </trkpt>
      <trkpt lat="43.80191" lon="-1.3118">
        <ele>30</ele>
        <time>2021-10-16T06:56:30Z</time>
      </trkpt>
      <trkpt lat="43.80194" lon="-1.31181">
        <ele>30.2</ele>
        <time>2021-10-16T06:56:31Z</time>
      </trkpt>
      <trkpt lat="43.80198" lon="-1.31184">
        <ele>30.6</ele>
        <time>2021-10-16T06:56:32Z</time>
      </trkpt>
      <trkpt lat="43.80202" lon="-1.31186">
        <ele>30.6</ele>
        <time>2021-10-16T06:56:33Z</time>
      </trkpt>
      <trkpt lat="43.80206" lon="-1.31188">
        <ele>31</ele>
        <time>2021-10-16T06:56:34Z</time>
      </trkpt>
      <trkpt lat="43.8021" lon="-1.3119">
        <ele>31.4</ele>
        <time>2021-10-16T06:56:35Z</time>
      </trkpt>
      <trkpt lat="43.80214" lon="-1.31192">
        <ele>31.6</ele>
        <time>2021-10-16T06:56:36Z</time>
      </trkpt>
      <trkpt lat="43.80217" lon="-1.31194">
        <ele>32</ele>
        <time>2021-10-16T06:56:37Z</time>
      </trkpt>
      <trkpt lat="43.8022" lon="-1.31197">
        <ele>32</ele>
        <time>2021-10-16T06:56:38Z</time>
      </trkpt>
      <trkpt lat="43.80228" lon="-1.31203">
        <ele>32.4</ele>
        <time>2021-10-16T06:56:40Z</time>
      </trkpt>
      <trkpt lat="43.80231" lon="-1.31205">
        <ele>32.6</ele>
        <time>2021-10-16T06:56:41Z</time>
      </trkpt>
      <trkpt lat="43.80234" lon="-1.31209">
        <ele>32.6</ele>
        <time>2021-10-16T06:56:42Z</time>
      </trkpt>
      <trkpt lat="43.80238" lon="-1.31214">
        <ele>32.8</ele>
        <time>2021-10-16T06:56:43Z</time>
      </trkpt>
      <trkpt lat="43.80244" lon="-1.31219">
        <ele>32.8</ele>
        <time>2021-10-16T06:56:44Z</time>
      </trkpt>
      <trkpt lat="43.8025" lon="-1.31224">
        <ele>32.8</ele>
        <time>2021-10-16T06:56:45Z</time>
      </trkpt>
      <trkpt lat="43.80254" lon="-1.31229">
        <ele>32.8</ele>
        <time>2021-10-16T06:56:46Z</time>
      </trkpt>
      <trkpt lat="43.80258" lon="-1.31236">
        <ele>32.8</ele>
        <time>2021-10-16T06:56:47Z</time>
      </trkpt>
      <trkpt lat="43.80261" lon="-1.31243">
        <ele>32.8</ele>
        <time>2021-10-16T06:56:48Z</time>
      </trkpt>
      <trkpt lat="43.80265" lon="-1.31251">
        <ele>32.8</ele>
        <time>2021-10-16T06:56:49Z</time>
      </trkpt>
      <trkpt lat="43.80267" lon="-1.31258">
        <ele>32.6</ele>
        <time>2021-10-16T06:56:50Z</time>
      </trkpt>
      <trkpt lat="43.8027" lon="-1.31265">
        <ele>32.4</ele>
        <time>2021-10-16T06:56:51Z</time>
      </trkpt>
      <trkpt lat="43.80272" lon="-1.31272">
        <ele>32.4</ele>
        <time>2021-10-16T06:56:52Z</time>
      </trkpt>
      <trkpt lat="43.80275" lon="-1.31278">
        <ele>32.2</ele>
        <time>2021-10-16T06:56:53Z</time>
      </trkpt>
      <trkpt lat="43.80278" lon="-1.31285">
        <ele>32.2</ele>
        <time>2021-10-16T06:56:54Z</time>
      </trkpt>
      <trkpt lat="43.80285" lon="-1.31297">
        <ele>31.8</ele>
        <time>2021-10-16T06:56:56Z</time>
      </trkpt>
      <trkpt lat="43.80292" lon="-1.31305">
        <ele>31.8</ele>
        <time>2021-10-16T06:56:58Z</time>
      </trkpt>
      <trkpt lat="43.80295" lon="-1.31308">
        <ele>31.8</ele>
        <time>2021-10-16T06:56:59Z</time>
      </trkpt>
      <trkpt lat="43.80298" lon="-1.31311">
        <ele>32</ele>
        <time>2021-10-16T06:57:00Z</time>
      </trkpt>
      <trkpt lat="43.80301" lon="-1.31314">
        <ele>32.2</ele>
        <time>2021-10-16T06:57:01Z</time>
      </trkpt>
      <trkpt lat="43.80304" lon="-1.31317">
        <ele>32.4</ele>
        <time>2021-10-16T06:57:02Z</time>
      </trkpt>
      <trkpt lat="43.80315" lon="-1.31326">
        <ele>32.6</ele>
        <time>2021-10-16T06:57:05Z</time>
      </trkpt>
      <trkpt lat="43.80323" lon="-1.31334">
        <ele>32.6</ele>
        <time>2021-10-16T06:57:07Z</time>
      </trkpt>
      <trkpt lat="43.80348" lon="-1.31358">
        <ele>32.4</ele>
        <time>2021-10-16T06:57:12Z</time>
      </trkpt>
      <trkpt lat="43.80353" lon="-1.31363">
        <ele>32.2</ele>
        <time>2021-10-16T06:57:13Z</time>
      </trkpt>
      <trkpt lat="43.80378" lon="-1.31387">
        <ele>31.6</ele>
        <time>2021-10-16T06:57:18Z</time>
      </trkpt>
      <trkpt lat="43.80382" lon="-1.31392">
        <ele>31.6</ele>
        <time>2021-10-16T06:57:19Z</time>
      </trkpt>
      <trkpt lat="43.80387" lon="-1.31398">
        <ele>31.6</ele>
        <time>2021-10-16T06:57:20Z</time>
      </trkpt>
      <trkpt lat="43.80405" lon="-1.31421">
        <ele>31.6</ele>
        <time>2021-10-16T06:57:24Z</time>
      </trkpt>
      <trkpt lat="43.80432" lon="-1.31459">
        <ele>31.6</ele>
        <time>2021-10-16T06:57:30Z</time>
      </trkpt>
      <trkpt lat="43.8044" lon="-1.31472">
        <ele>31.6</ele>
        <time>2021-10-16T06:57:32Z</time>
      </trkpt>
      <trkpt lat="43.80447" lon="-1.31485">
        <ele>31.6</ele>
        <time>2021-10-16T06:57:34Z</time>
      </trkpt>
      <trkpt lat="43.8045" lon="-1.31492">
        <ele>31.4</ele>
        <time>2021-10-16T06:57:35Z</time>
      </trkpt>
      <trkpt lat="43.80452" lon="-1.31499">
        <ele>31.4</ele>
        <time>2021-10-16T06:57:36Z</time>
      </trkpt>
      <trkpt lat="43.80455" lon="-1.31505">
        <ele>31.4</ele>
        <time>2021-10-16T06:57:37Z</time>
      </trkpt>
      <trkpt lat="43.80457" lon="-1.31512">
        <ele>31.4</ele>
        <time>2021-10-16T06:57:38Z</time>
      </trkpt>
      <trkpt lat="43.80459" lon="-1.31518">
        <ele>31.4</ele>
        <time>2021-10-16T06:57:39Z</time>
      </trkpt>
      <trkpt lat="43.80462" lon="-1.31525">
        <ele>31.6</ele>
        <time>2021-10-16T06:57:40Z</time>
      </trkpt>
      <trkpt lat="43.80464" lon="-1.3153">
        <ele>31.6</ele>
        <time>2021-10-16T06:57:41Z</time>
      </trkpt>
      <trkpt lat="43.80466" lon="-1.31535">
        <ele>31.6</ele>
        <time>2021-10-16T06:57:42Z</time>
      </trkpt>
      <trkpt lat="43.80467" lon="-1.31541">
        <ele>31.6</ele>
        <time>2021-10-16T06:57:43Z</time>
      </trkpt>
      <trkpt lat="43.80468" lon="-1.31547">
        <ele>31.6</ele>
        <time>2021-10-16T06:57:44Z</time>
      </trkpt>
      <trkpt lat="43.80474" lon="-1.31579">
        <ele>31.8</ele>
        <time>2021-10-16T06:57:49Z</time>
      </trkpt>
      <trkpt lat="43.80477" lon="-1.31584">
        <ele>31.8</ele>
        <time>2021-10-16T06:57:50Z</time>
      </trkpt>
      <trkpt lat="43.80484" lon="-1.31595">
        <ele>31.8</ele>
        <time>2021-10-16T06:57:51Z</time>
      </trkpt>
      <trkpt lat="43.80488" lon="-1.31603">
        <ele>31.8</ele>
        <time>2021-10-16T06:57:52Z</time>
      </trkpt>
      <trkpt lat="43.80493" lon="-1.31616">
        <ele>31.8</ele>
        <time>2021-10-16T06:57:54Z</time>
      </trkpt>
      <trkpt lat="43.80496" lon="-1.31624">
        <ele>31.8</ele>
        <time>2021-10-16T06:57:55Z</time>
      </trkpt>
      <trkpt lat="43.80498" lon="-1.31632">
        <ele>31.8</ele>
        <time>2021-10-16T06:57:56Z</time>
      </trkpt>
      <trkpt lat="43.805" lon="-1.31637">
        <ele>31.8</ele>
        <time>2021-10-16T06:57:57Z</time>
      </trkpt>
      <trkpt lat="43.80501" lon="-1.31642">
        <ele>32</ele>
        <time>2021-10-16T06:57:58Z</time>
      </trkpt>
      <trkpt lat="43.80511" lon="-1.31668">
        <ele>32</ele>
        <time>2021-10-16T06:58:02Z</time>
      </trkpt>
      <trkpt lat="43.80529" lon="-1.31701">
        <ele>31.8</ele>
        <time>2021-10-16T06:58:06Z</time>
      </trkpt>
      <trkpt lat="43.80534" lon="-1.31715">
        <ele>31.8</ele>
        <time>2021-10-16T06:58:08Z</time>
      </trkpt>
      <trkpt lat="43.80552" lon="-1.31751">
        <ele>31.8</ele>
        <time>2021-10-16T06:58:13Z</time>
      </trkpt>
      <trkpt lat="43.80562" lon="-1.31779">
        <ele>32</ele>
        <time>2021-10-16T06:58:17Z</time>
      </trkpt>
      <trkpt lat="43.80564" lon="-1.31785">
        <ele>32</ele>
        <time>2021-10-16T06:58:18Z</time>
      </trkpt>
      <trkpt lat="43.80575" lon="-1.31805">
        <ele>32</ele>
        <time>2021-10-16T06:58:22Z</time>
      </trkpt>
      <trkpt lat="43.80578" lon="-1.31809">
        <ele>32</ele>
        <time>2021-10-16T06:58:23Z</time>
      </trkpt>
      <trkpt lat="43.80581" lon="-1.31814">
        <ele>32</ele>
        <time>2021-10-16T06:58:24Z</time>
      </trkpt>
      <trkpt lat="43.80589" lon="-1.31824">
        <ele>32</ele>
        <time>2021-10-16T06:58:26Z</time>
      </trkpt>
      <trkpt lat="43.80608" lon="-1.31844">
        <ele>32</ele>
        <time>2021-10-16T06:58:30Z</time>
      </trkpt>
      <trkpt lat="43.80612" lon="-1.3185">
        <ele>32</ele>
        <time>2021-10-16T06:58:31Z</time>
      </trkpt>
      <trkpt lat="43.80626" lon="-1.31877">
        <ele>32</ele>
        <time>2021-10-16T06:58:35Z</time>
      </trkpt>
      <trkpt lat="43.8063" lon="-1.31884">
        <ele>32</ele>
        <time>2021-10-16T06:58:36Z</time>
      </trkpt>
      <trkpt lat="43.80655" lon="-1.31939">
        <ele>32.4</ele>
        <time>2021-10-16T06:58:44Z</time>
      </trkpt>
      <trkpt lat="43.80684" lon="-1.32008">
        <ele>32.4</ele>
        <time>2021-10-16T06:58:54Z</time>
      </trkpt>
      <trkpt lat="43.8069" lon="-1.3202">
        <ele>32.4</ele>
        <time>2021-10-16T06:58:56Z</time>
      </trkpt>
      <trkpt lat="43.80693" lon="-1.32026">
        <ele>32.4</ele>
        <time>2021-10-16T06:58:57Z</time>
      </trkpt>
      <trkpt lat="43.80696" lon="-1.32032">
        <ele>32.6</ele>
        <time>2021-10-16T06:58:58Z</time>
      </trkpt>
      <trkpt lat="43.80706" lon="-1.32048">
        <ele>32.8</ele>
        <time>2021-10-16T06:59:01Z</time>
      </trkpt>
      <trkpt lat="43.80709" lon="-1.32054">
        <ele>32.8</ele>
        <time>2021-10-16T06:59:02Z</time>
      </trkpt>
      <trkpt lat="43.80712" lon="-1.32059">
        <ele>33</ele>
        <time>2021-10-16T06:59:03Z</time>
      </trkpt>
      <trkpt lat="43.80716" lon="-1.32065">
        <ele>33</ele>
        <time>2021-10-16T06:59:04Z</time>
      </trkpt>
      <trkpt lat="43.80719" lon="-1.3207">
        <ele>33</ele>
        <time>2021-10-16T06:59:05Z</time>
      </trkpt>
      <trkpt lat="43.80722" lon="-1.32075">
        <ele>33</ele>
        <time>2021-10-16T06:59:06Z</time>
      </trkpt>
      <trkpt lat="43.80725" lon="-1.32081">
        <ele>33</ele>
        <time>2021-10-16T06:59:07Z</time>
      </trkpt>
      <trkpt lat="43.80729" lon="-1.32087">
        <ele>33</ele>
        <time>2021-10-16T06:59:08Z</time>
      </trkpt>
      <trkpt lat="43.80732" lon="-1.32094">
        <ele>33</ele>
        <time>2021-10-16T06:59:09Z</time>
      </trkpt>
      <trkpt lat="43.80735" lon="-1.321">
        <ele>33</ele>
        <time>2021-10-16T06:59:10Z</time>
      </trkpt>
      <trkpt lat="43.80738" lon="-1.32107">
        <ele>33</ele>
        <time>2021-10-16T06:59:11Z</time>
      </trkpt>
      <trkpt lat="43.80744" lon="-1.32122">
        <ele>33</ele>
        <time>2021-10-16T06:59:13Z</time>
      </trkpt>
      <trkpt lat="43.80749" lon="-1.32136">
        <ele>33</ele>
        <time>2021-10-16T06:59:15Z</time>
      </trkpt>
      <trkpt lat="43.8076" lon="-1.32166">
        <ele>32.8</ele>
        <time>2021-10-16T06:59:19Z</time>
      </trkpt>
      <trkpt lat="43.80763" lon="-1.32183">
        <ele>32.8</ele>
        <time>2021-10-16T06:59:21Z</time>
      </trkpt>
      <trkpt lat="43.80766" lon="-1.32191">
        <ele>32.8</ele>
        <time>2021-10-16T06:59:22Z</time>
      </trkpt>
      <trkpt lat="43.80768" lon="-1.32199">
        <ele>32.8</ele>
        <time>2021-10-16T06:59:23Z</time>
      </trkpt>
      <trkpt lat="43.80769" lon="-1.32207">
        <ele>32.8</ele>
        <time>2021-10-16T06:59:24Z</time>
      </trkpt>
      <trkpt lat="43.80771" lon="-1.32216">
        <ele>32.8</ele>
        <time>2021-10-16T06:59:25Z</time>
      </trkpt>
      <trkpt lat="43.80772" lon="-1.32223">
        <ele>32.8</ele>
        <time>2021-10-16T06:59:26Z</time>
      </trkpt>
      <trkpt lat="43.80773" lon="-1.32231">
        <ele>32.8</ele>
        <time>2021-10-16T06:59:27Z</time>
      </trkpt>
      <trkpt lat="43.80774" lon="-1.32238">
        <ele>33</ele>
        <time>2021-10-16T06:59:28Z</time>
      </trkpt>
      <trkpt lat="43.80777" lon="-1.32246">
        <ele>33</ele>
        <time>2021-10-16T06:59:29Z</time>
      </trkpt>
      <trkpt lat="43.80781" lon="-1.32269">
        <ele>33</ele>
        <time>2021-10-16T06:59:32Z</time>
      </trkpt>
      <trkpt lat="43.80782" lon="-1.32276">
        <ele>33</ele>
        <time>2021-10-16T06:59:33Z</time>
      </trkpt>
      <trkpt lat="43.80782" lon="-1.32283">
        <ele>33</ele>
        <time>2021-10-16T06:59:34Z</time>
      </trkpt>
      <trkpt lat="43.80783" lon="-1.32289">
        <ele>33.2</ele>
        <time>2021-10-16T06:59:35Z</time>
      </trkpt>
      <trkpt lat="43.80789" lon="-1.32306">
        <ele>33</ele>
        <time>2021-10-16T06:59:37Z</time>
      </trkpt>
      <trkpt lat="43.80793" lon="-1.32312">
        <ele>33</ele>
        <time>2021-10-16T06:59:38Z</time>
      </trkpt>
      <trkpt lat="43.80795" lon="-1.32324">
        <ele>33</ele>
        <time>2021-10-16T06:59:39Z</time>
      </trkpt>
      <trkpt lat="43.80798" lon="-1.32332">
        <ele>33</ele>
        <time>2021-10-16T06:59:40Z</time>
      </trkpt>
      <trkpt lat="43.80805" lon="-1.32347">
        <ele>33</ele>
        <time>2021-10-16T06:59:42Z</time>
      </trkpt>
      <trkpt lat="43.80815" lon="-1.32367">
        <ele>33</ele>
        <time>2021-10-16T06:59:45Z</time>
      </trkpt>
      <trkpt lat="43.80818" lon="-1.32373">
        <ele>33</ele>
        <time>2021-10-16T06:59:46Z</time>
      </trkpt>
      <trkpt lat="43.80826" lon="-1.32386">
        <ele>33</ele>
        <time>2021-10-16T06:59:48Z</time>
      </trkpt>
      <trkpt lat="43.80834" lon="-1.32398">
        <ele>33</ele>
        <time>2021-10-16T06:59:50Z</time>
      </trkpt>
      <trkpt lat="43.80841" lon="-1.32411">
        <ele>33</ele>
        <time>2021-10-16T06:59:52Z</time>
      </trkpt>
      <trkpt lat="43.80844" lon="-1.32418">
        <ele>33</ele>
        <time>2021-10-16T06:59:53Z</time>
      </trkpt>
      <trkpt lat="43.80871" lon="-1.32475">
        <ele>32.8</ele>
        <time>2021-10-16T07:00:01Z</time>
      </trkpt>
      <trkpt lat="43.80873" lon="-1.32482">
        <ele>33</ele>
        <time>2021-10-16T07:00:02Z</time>
      </trkpt>
      <trkpt lat="43.80876" lon="-1.32489">
        <ele>33</ele>
        <time>2021-10-16T07:00:03Z</time>
      </trkpt>
      <trkpt lat="43.80877" lon="-1.32497">
        <ele>33</ele>
        <time>2021-10-16T07:00:04Z</time>
      </trkpt>
      <trkpt lat="43.80879" lon="-1.32503">
        <ele>33</ele>
        <time>2021-10-16T07:00:05Z</time>
      </trkpt>
      <trkpt lat="43.80881" lon="-1.3251">
        <ele>33</ele>
        <time>2021-10-16T07:00:06Z</time>
      </trkpt>
      <trkpt lat="43.80883" lon="-1.32517">
        <ele>33.2</ele>
        <time>2021-10-16T07:00:07Z</time>
      </trkpt>
      <trkpt lat="43.80895" lon="-1.32546">
        <ele>33.4</ele>
        <time>2021-10-16T07:00:11Z</time>
      </trkpt>
      <trkpt lat="43.80897" lon="-1.32554">
        <ele>33.4</ele>
        <time>2021-10-16T07:00:12Z</time>
      </trkpt>
      <trkpt lat="43.80901" lon="-1.32606">
        <ele>33.2</ele>
        <time>2021-10-16T07:00:18Z</time>
      </trkpt>
      <trkpt lat="43.80899" lon="-1.32613">
        <ele>33.4</ele>
        <time>2021-10-16T07:00:19Z</time>
      </trkpt>
      <trkpt lat="43.80898" lon="-1.32621">
        <ele>33.2</ele>
        <time>2021-10-16T07:00:20Z</time>
      </trkpt>
      <trkpt lat="43.80899" lon="-1.32628">
        <ele>33</ele>
        <time>2021-10-16T07:00:21Z</time>
      </trkpt>
      <trkpt lat="43.80899" lon="-1.32635">
        <ele>33.2</ele>
        <time>2021-10-16T07:00:22Z</time>
      </trkpt>
      <trkpt lat="43.809" lon="-1.32643">
        <ele>33.2</ele>
        <time>2021-10-16T07:00:23Z</time>
      </trkpt>
      <trkpt lat="43.809" lon="-1.3265">
        <ele>33.2</ele>
        <time>2021-10-16T07:00:24Z</time>
      </trkpt>
      <trkpt lat="43.80901" lon="-1.32658">
        <ele>33</ele>
        <time>2021-10-16T07:00:25Z</time>
      </trkpt>
      <trkpt lat="43.80901" lon="-1.32669">
        <ele>33</ele>
        <time>2021-10-16T07:00:26Z</time>
      </trkpt>
      <trkpt lat="43.80902" lon="-1.32686">
        <ele>33</ele>
        <time>2021-10-16T07:00:28Z</time>
      </trkpt>
      <trkpt lat="43.80901" lon="-1.32703">
        <ele>33</ele>
        <time>2021-10-16T07:00:30Z</time>
      </trkpt>
      <trkpt lat="43.80903" lon="-1.3271">
        <ele>33</ele>
        <time>2021-10-16T07:00:31Z</time>
      </trkpt>
      <trkpt lat="43.80904" lon="-1.32718">
        <ele>33</ele>
        <time>2021-10-16T07:00:32Z</time>
      </trkpt>
      <trkpt lat="43.80907" lon="-1.32725">
        <ele>33</ele>
        <time>2021-10-16T07:00:33Z</time>
      </trkpt>
      <trkpt lat="43.8091" lon="-1.32734">
        <ele>33</ele>
        <time>2021-10-16T07:00:34Z</time>
      </trkpt>
      <trkpt lat="43.80911" lon="-1.32742">
        <ele>33</ele>
        <time>2021-10-16T07:00:35Z</time>
      </trkpt>
      <trkpt lat="43.80911" lon="-1.3275">
        <ele>33</ele>
        <time>2021-10-16T07:00:36Z</time>
      </trkpt>
      <trkpt lat="43.80913" lon="-1.32757">
        <ele>33</ele>
        <time>2021-10-16T07:00:37Z</time>
      </trkpt>
      <trkpt lat="43.80914" lon="-1.32775">
        <ele>33</ele>
        <time>2021-10-16T07:00:39Z</time>
      </trkpt>
      <trkpt lat="43.80913" lon="-1.32782">
        <ele>33</ele>
        <time>2021-10-16T07:00:40Z</time>
      </trkpt>
      <trkpt lat="43.80914" lon="-1.32789">
        <ele>33</ele>
        <time>2021-10-16T07:00:41Z</time>
      </trkpt>
      <trkpt lat="43.80915" lon="-1.32797">
        <ele>33</ele>
        <time>2021-10-16T07:00:42Z</time>
      </trkpt>
      <trkpt lat="43.80916" lon="-1.32807">
        <ele>33</ele>
        <time>2021-10-16T07:00:43Z</time>
      </trkpt>
      <trkpt lat="43.80917" lon="-1.32815">
        <ele>32.8</ele>
        <time>2021-10-16T07:00:44Z</time>
      </trkpt>
      <trkpt lat="43.80918" lon="-1.32825">
        <ele>32.8</ele>
        <time>2021-10-16T07:00:45Z</time>
      </trkpt>
      <trkpt lat="43.80919" lon="-1.32833">
        <ele>32.8</ele>
        <time>2021-10-16T07:00:46Z</time>
      </trkpt>
      <trkpt lat="43.80922" lon="-1.32845">
        <ele>32.8</ele>
        <time>2021-10-16T07:00:48Z</time>
      </trkpt>
      <trkpt lat="43.80924" lon="-1.32853">
        <ele>33</ele>
        <time>2021-10-16T07:00:49Z</time>
      </trkpt>
      <trkpt lat="43.80927" lon="-1.32868">
        <ele>33</ele>
        <time>2021-10-16T07:00:51Z</time>
      </trkpt>
      <trkpt lat="43.8093" lon="-1.32895">
        <ele>33</ele>
        <time>2021-10-16T07:00:55Z</time>
      </trkpt>
      <trkpt lat="43.80932" lon="-1.32909">
        <ele>33.2</ele>
        <time>2021-10-16T07:00:57Z</time>
      </trkpt>
      <trkpt lat="43.80933" lon="-1.32915">
        <ele>33.2</ele>
        <time>2021-10-16T07:00:58Z</time>
      </trkpt>
      <trkpt lat="43.80935" lon="-1.32922">
        <ele>33.2</ele>
        <time>2021-10-16T07:00:59Z</time>
      </trkpt>
      <trkpt lat="43.80939" lon="-1.32936">
        <ele>33</ele>
        <time>2021-10-16T07:01:01Z</time>
      </trkpt>
      <trkpt lat="43.8094" lon="-1.32943">
        <ele>33</ele>
        <time>2021-10-16T07:01:02Z</time>
      </trkpt>
      <trkpt lat="43.80946" lon="-1.32975">
        <ele>33</ele>
        <time>2021-10-16T07:01:06Z</time>
      </trkpt>
      <trkpt lat="43.80947" lon="-1.32998">
        <ele>32.8</ele>
        <time>2021-10-16T07:01:09Z</time>
      </trkpt>
      <trkpt lat="43.80952" lon="-1.33014">
        <ele>32.8</ele>
        <time>2021-10-16T07:01:11Z</time>
      </trkpt>
      <trkpt lat="43.80962" lon="-1.33057">
        <ele>32.8</ele>
        <time>2021-10-16T07:01:16Z</time>
      </trkpt>
      <trkpt lat="43.80963" lon="-1.33068">
        <ele>32.8</ele>
        <time>2021-10-16T07:01:17Z</time>
      </trkpt>
      <trkpt lat="43.8097" lon="-1.33106">
        <ele>32.6</ele>
        <time>2021-10-16T07:01:21Z</time>
      </trkpt>
      <trkpt lat="43.80972" lon="-1.33114">
        <ele>32.6</ele>
        <time>2021-10-16T07:01:22Z</time>
      </trkpt>
      <trkpt lat="43.80974" lon="-1.33122">
        <ele>32.6</ele>
        <time>2021-10-16T07:01:23Z</time>
      </trkpt>
      <trkpt lat="43.80976" lon="-1.3313">
        <ele>32.6</ele>
        <time>2021-10-16T07:01:24Z</time>
      </trkpt>
      <trkpt lat="43.80978" lon="-1.33138">
        <ele>32.4</ele>
        <time>2021-10-16T07:01:25Z</time>
      </trkpt>
      <trkpt lat="43.80981" lon="-1.33154">
        <ele>32.4</ele>
        <time>2021-10-16T07:01:27Z</time>
      </trkpt>
      <trkpt lat="43.80982" lon="-1.33161">
        <ele>32.6</ele>
        <time>2021-10-16T07:01:28Z</time>
      </trkpt>
      <trkpt lat="43.80985" lon="-1.33168">
        <ele>32.6</ele>
        <time>2021-10-16T07:01:29Z</time>
      </trkpt>
      <trkpt lat="43.80987" lon="-1.33174">
        <ele>32.6</ele>
        <time>2021-10-16T07:01:30Z</time>
      </trkpt>
      <trkpt lat="43.80989" lon="-1.3318">
        <ele>32.8</ele>
        <time>2021-10-16T07:01:31Z</time>
      </trkpt>
      <trkpt lat="43.8099" lon="-1.33186">
        <ele>33</ele>
        <time>2021-10-16T07:01:32Z</time>
      </trkpt>
      <trkpt lat="43.80992" lon="-1.33192">
        <ele>33.2</ele>
        <time>2021-10-16T07:01:33Z</time>
      </trkpt>
      <trkpt lat="43.80995" lon="-1.33204">
        <ele>33.6</ele>
        <time>2021-10-16T07:01:35Z</time>
      </trkpt>
      <trkpt lat="43.80997" lon="-1.33208">
        <ele>34</ele>
        <time>2021-10-16T07:01:36Z</time>
      </trkpt>
      <trkpt lat="43.80998" lon="-1.33214">
        <ele>34.2</ele>
        <time>2021-10-16T07:01:37Z</time>
      </trkpt>
      <trkpt lat="43.80998" lon="-1.3322">
        <ele>34.4</ele>
        <time>2021-10-16T07:01:38Z</time>
      </trkpt>
      <trkpt lat="43.80999" lon="-1.33227">
        <ele>34.6</ele>
        <time>2021-10-16T07:01:39Z</time>
      </trkpt>
      <trkpt lat="43.81001" lon="-1.33234">
        <ele>34.8</ele>
        <time>2021-10-16T07:01:40Z</time>
      </trkpt>
      <trkpt lat="43.81002" lon="-1.33241">
        <ele>35</ele>
        <time>2021-10-16T07:01:41Z</time>
      </trkpt>
      <trkpt lat="43.81011" lon="-1.33287">
        <ele>35.2</ele>
        <time>2021-10-16T07:01:47Z</time>
      </trkpt>
      <trkpt lat="43.81013" lon="-1.33298">
        <ele>35.2</ele>
        <time>2021-10-16T07:01:48Z</time>
      </trkpt>
      <trkpt lat="43.81016" lon="-1.33307">
        <ele>35.2</ele>
        <time>2021-10-16T07:01:49Z</time>
      </trkpt>
      <trkpt lat="43.81018" lon="-1.33316">
        <ele>35</ele>
        <time>2021-10-16T07:01:50Z</time>
      </trkpt>
      <trkpt lat="43.81021" lon="-1.33325">
        <ele>34.8</ele>
        <time>2021-10-16T07:01:51Z</time>
      </trkpt>
      <trkpt lat="43.81026" lon="-1.33341">
        <ele>34.2</ele>
        <time>2021-10-16T07:01:53Z</time>
      </trkpt>
      <trkpt lat="43.81028" lon="-1.33348">
        <ele>34</ele>
        <time>2021-10-16T07:01:54Z</time>
      </trkpt>
      <trkpt lat="43.81031" lon="-1.33356">
        <ele>33.6</ele>
        <time>2021-10-16T07:01:55Z</time>
      </trkpt>
      <trkpt lat="43.81033" lon="-1.33363">
        <ele>33.4</ele>
        <time>2021-10-16T07:01:56Z</time>
      </trkpt>
      <trkpt lat="43.81034" lon="-1.3337">
        <ele>33.2</ele>
        <time>2021-10-16T07:01:57Z</time>
      </trkpt>
      <trkpt lat="43.81035" lon="-1.33377">
        <ele>33</ele>
        <time>2021-10-16T07:01:58Z</time>
      </trkpt>
      <trkpt lat="43.81036" lon="-1.33384">
        <ele>33</ele>
        <time>2021-10-16T07:01:59Z</time>
      </trkpt>
      <trkpt lat="43.81042" lon="-1.33407">
        <ele>32.8</ele>
        <time>2021-10-16T07:02:02Z</time>
      </trkpt>
      <trkpt lat="43.81044" lon="-1.33414">
        <ele>32.8</ele>
        <time>2021-10-16T07:02:03Z</time>
      </trkpt>
      <trkpt lat="43.81047" lon="-1.33422">
        <ele>32.6</ele>
        <time>2021-10-16T07:02:04Z</time>
      </trkpt>
      <trkpt lat="43.8105" lon="-1.33436">
        <ele>32.6</ele>
        <time>2021-10-16T07:02:06Z</time>
      </trkpt>
      <trkpt lat="43.81052" lon="-1.33443">
        <ele>32.6</ele>
        <time>2021-10-16T07:02:07Z</time>
      </trkpt>
      <trkpt lat="43.81054" lon="-1.33451">
        <ele>32.6</ele>
        <time>2021-10-16T07:02:08Z</time>
      </trkpt>
      <trkpt lat="43.81057" lon="-1.33459">
        <ele>32.6</ele>
        <time>2021-10-16T07:02:09Z</time>
      </trkpt>
      <trkpt lat="43.8106" lon="-1.33466">
        <ele>32.6</ele>
        <time>2021-10-16T07:02:10Z</time>
      </trkpt>
      <trkpt lat="43.81064" lon="-1.33475">
        <ele>32.6</ele>
        <time>2021-10-16T07:02:11Z</time>
      </trkpt>
      <trkpt lat="43.81066" lon="-1.33483">
        <ele>32.6</ele>
        <time>2021-10-16T07:02:12Z</time>
      </trkpt>
      <trkpt lat="43.81072" lon="-1.33503">
        <ele>32.6</ele>
        <time>2021-10-16T07:02:14Z</time>
      </trkpt>
      <trkpt lat="43.81076" lon="-1.33514">
        <ele>32.6</ele>
        <time>2021-10-16T07:02:15Z</time>
      </trkpt>
      <trkpt lat="43.81078" lon="-1.33524">
        <ele>32.6</ele>
        <time>2021-10-16T07:02:16Z</time>
      </trkpt>
      <trkpt lat="43.81081" lon="-1.33542">
        <ele>32.6</ele>
        <time>2021-10-16T07:02:18Z</time>
      </trkpt>
      <trkpt lat="43.81085" lon="-1.33551">
        <ele>32.6</ele>
        <time>2021-10-16T07:02:19Z</time>
      </trkpt>
      <trkpt lat="43.81099" lon="-1.33612">
        <ele>32.4</ele>
        <time>2021-10-16T07:02:26Z</time>
      </trkpt>
      <trkpt lat="43.81098" lon="-1.33621">
        <ele>32.4</ele>
        <time>2021-10-16T07:02:27Z</time>
      </trkpt>
      <trkpt lat="43.81099" lon="-1.33629">
        <ele>32.4</ele>
        <time>2021-10-16T07:02:28Z</time>
      </trkpt>
      <trkpt lat="43.81108" lon="-1.33655">
        <ele>32.4</ele>
        <time>2021-10-16T07:02:31Z</time>
      </trkpt>
      <trkpt lat="43.81112" lon="-1.33663">
        <ele>32.4</ele>
        <time>2021-10-16T07:02:32Z</time>
      </trkpt>
      <trkpt lat="43.81114" lon="-1.33671">
        <ele>32.2</ele>
        <time>2021-10-16T07:02:33Z</time>
      </trkpt>
      <trkpt lat="43.8112" lon="-1.33706">
        <ele>32.2</ele>
        <time>2021-10-16T07:02:37Z</time>
      </trkpt>
      <trkpt lat="43.8112" lon="-1.33713">
        <ele>32.2</ele>
        <time>2021-10-16T07:02:38Z</time>
      </trkpt>
      <trkpt lat="43.81121" lon="-1.33721">
        <ele>32.2</ele>
        <time>2021-10-16T07:02:39Z</time>
      </trkpt>
      <trkpt lat="43.81126" lon="-1.33734">
        <ele>32.2</ele>
        <time>2021-10-16T07:02:41Z</time>
      </trkpt>
      <trkpt lat="43.81129" lon="-1.33742">
        <ele>32.2</ele>
        <time>2021-10-16T07:02:42Z</time>
      </trkpt>
      <trkpt lat="43.81138" lon="-1.33764">
        <ele>32.2</ele>
        <time>2021-10-16T07:02:45Z</time>
      </trkpt>
      <trkpt lat="43.81144" lon="-1.33791">
        <ele>32.2</ele>
        <time>2021-10-16T07:02:49Z</time>
      </trkpt>
      <trkpt lat="43.81146" lon="-1.33797">
        <ele>32.4</ele>
        <time>2021-10-16T07:02:50Z</time>
      </trkpt>
      <trkpt lat="43.81148" lon="-1.33803">
        <ele>32.4</ele>
        <time>2021-10-16T07:02:51Z</time>
      </trkpt>
      <trkpt lat="43.8115" lon="-1.3381">
        <ele>32.4</ele>
        <time>2021-10-16T07:02:52Z</time>
      </trkpt>
      <trkpt lat="43.81157" lon="-1.33824">
        <ele>32.4</ele>
        <time>2021-10-16T07:02:54Z</time>
      </trkpt>
      <trkpt lat="43.81167" lon="-1.33845">
        <ele>32.4</ele>
        <time>2021-10-16T07:02:57Z</time>
      </trkpt>
      <trkpt lat="43.81184" lon="-1.33882">
        <ele>32.2</ele>
        <time>2021-10-16T07:03:02Z</time>
      </trkpt>
      <trkpt lat="43.81188" lon="-1.33889">
        <ele>32.2</ele>
        <time>2021-10-16T07:03:03Z</time>
      </trkpt>
      <trkpt lat="43.81193" lon="-1.33902">
        <ele>32</ele>
        <time>2021-10-16T07:03:05Z</time>
      </trkpt>
      <trkpt lat="43.81196" lon="-1.33908">
        <ele>32</ele>
        <time>2021-10-16T07:03:06Z</time>
      </trkpt>
      <trkpt lat="43.812" lon="-1.33913">
        <ele>32</ele>
        <time>2021-10-16T07:03:07Z</time>
      </trkpt>
      <trkpt lat="43.81204" lon="-1.3392">
        <ele>32</ele>
        <time>2021-10-16T07:03:08Z</time>
      </trkpt>
      <trkpt lat="43.81218" lon="-1.3395">
        <ele>32</ele>
        <time>2021-10-16T07:03:12Z</time>
      </trkpt>
      <trkpt lat="43.81221" lon="-1.33954">
        <ele>32.2</ele>
        <time>2021-10-16T07:03:13Z</time>
      </trkpt>
      <trkpt lat="43.81224" lon="-1.3396">
        <ele>32.2</ele>
        <time>2021-10-16T07:03:14Z</time>
      </trkpt>
      <trkpt lat="43.81227" lon="-1.33965">
        <ele>32.2</ele>
        <time>2021-10-16T07:03:15Z</time>
      </trkpt>
      <trkpt lat="43.81228" lon="-1.3397">
        <ele>32.4</ele>
        <time>2021-10-16T07:03:16Z</time>
      </trkpt>
      <trkpt lat="43.8123" lon="-1.33974">
        <ele>32.4</ele>
        <time>2021-10-16T07:03:17Z</time>
      </trkpt>
      <trkpt lat="43.8123" lon="-1.33978">
        <ele>32.6</ele>
        <time>2021-10-16T07:03:18Z</time>
      </trkpt>
      <trkpt lat="43.8123" lon="-1.33981">
        <ele>33</ele>
        <time>2021-10-16T07:03:19Z</time>
      </trkpt>
      <trkpt lat="43.81232" lon="-1.33984">
        <ele>33.2</ele>
        <time>2021-10-16T07:03:20Z</time>
      </trkpt>
      <trkpt lat="43.81231" lon="-1.33986">
        <ele>33.8</ele>
        <time>2021-10-16T07:03:21Z</time>
      </trkpt>
      <trkpt lat="43.81232" lon="-1.33987">
        <ele>34</ele>
        <time>2021-10-16T07:03:22Z</time>
      </trkpt>
      <trkpt lat="43.81233" lon="-1.33989">
        <ele>34.4</ele>
        <time>2021-10-16T07:03:23Z</time>
      </trkpt>
      <trkpt lat="43.81235" lon="-1.33992">
        <ele>34.6</ele>
        <time>2021-10-16T07:03:24Z</time>
      </trkpt>
      <trkpt lat="43.8124" lon="-1.33994">
        <ele>35.2</ele>
        <time>2021-10-16T07:03:25Z</time>
      </trkpt>
      <trkpt lat="43.81248" lon="-1.34006">
        <ele>36.2</ele>
        <time>2021-10-16T07:03:28Z</time>
      </trkpt>
      <trkpt lat="43.81248" lon="-1.34009">
        <ele>36.2</ele>
        <time>2021-10-16T07:03:29Z</time>
      </trkpt>
      <trkpt lat="43.8125" lon="-1.34012">
        <ele>36.6</ele>
        <time>2021-10-16T07:03:30Z</time>
      </trkpt>
      <trkpt lat="43.81251" lon="-1.34016">
        <ele>36.6</ele>
        <time>2021-10-16T07:03:31Z</time>
      </trkpt>
      <trkpt lat="43.81253" lon="-1.34019">
        <ele>37.4</ele>
        <time>2021-10-16T07:03:32Z</time>
      </trkpt>
      <trkpt lat="43.81254" lon="-1.34021">
        <ele>37.6</ele>
        <time>2021-10-16T07:03:33Z</time>
      </trkpt>
      <trkpt lat="43.81257" lon="-1.34023">
        <ele>37.8</ele>
        <time>2021-10-16T07:03:34Z</time>
      </trkpt>
      <trkpt lat="43.81259" lon="-1.34026">
        <ele>38</ele>
        <time>2021-10-16T07:03:35Z</time>
      </trkpt>
      <trkpt lat="43.81262" lon="-1.34028">
        <ele>38.2</ele>
        <time>2021-10-16T07:03:36Z</time>
      </trkpt>
      <trkpt lat="43.81266" lon="-1.3403">
        <ele>38.4</ele>
        <time>2021-10-16T07:03:37Z</time>
      </trkpt>
      <trkpt lat="43.81267" lon="-1.34031">
        <ele>38.6</ele>
        <time>2021-10-16T07:03:38Z</time>
      </trkpt>
      <trkpt lat="43.81269" lon="-1.34032">
        <ele>39</ele>
        <time>2021-10-16T07:03:39Z</time>
      </trkpt>
      <trkpt lat="43.81271" lon="-1.34032">
        <ele>39.2</ele>
        <time>2021-10-16T07:03:40Z</time>
      </trkpt>
      <trkpt lat="43.81274" lon="-1.34032">
        <ele>39.4</ele>
        <time>2021-10-16T07:03:41Z</time>
      </trkpt>
      <trkpt lat="43.81277" lon="-1.34033">
        <ele>39.8</ele>
        <time>2021-10-16T07:03:42Z</time>
      </trkpt>
      <trkpt lat="43.81281" lon="-1.34034">
        <ele>39.8</ele>
        <time>2021-10-16T07:03:43Z</time>
      </trkpt>
      <trkpt lat="43.81285" lon="-1.34035">
        <ele>40.2</ele>
        <time>2021-10-16T07:03:44Z</time>
      </trkpt>
      <trkpt lat="43.81288" lon="-1.34034">
        <ele>40.4</ele>
        <time>2021-10-16T07:03:45Z</time>
      </trkpt>
      <trkpt lat="43.81291" lon="-1.34032">
        <ele>40.6</ele>
        <time>2021-10-16T07:03:46Z</time>
      </trkpt>
      <trkpt lat="43.81293" lon="-1.34029">
        <ele>40.6</ele>
        <time>2021-10-16T07:03:47Z</time>
      </trkpt>
      <trkpt lat="43.81296" lon="-1.34024">
        <ele>40.6</ele>
        <time>2021-10-16T07:03:48Z</time>
      </trkpt>
      <trkpt lat="43.813" lon="-1.34019">
        <ele>40.6</ele>
        <time>2021-10-16T07:03:49Z</time>
      </trkpt>
      <trkpt lat="43.81304" lon="-1.34015">
        <ele>40.8</ele>
        <time>2021-10-16T07:03:50Z</time>
      </trkpt>
      <trkpt lat="43.81309" lon="-1.34011">
        <ele>40.6</ele>
        <time>2021-10-16T07:03:51Z</time>
      </trkpt>
      <trkpt lat="43.81313" lon="-1.34007">
        <ele>40.6</ele>
        <time>2021-10-16T07:03:52Z</time>
      </trkpt>
      <trkpt lat="43.81317" lon="-1.34003">
        <ele>40.6</ele>
        <time>2021-10-16T07:03:53Z</time>
      </trkpt>
      <trkpt lat="43.81321" lon="-1.34">
        <ele>40.6</ele>
        <time>2021-10-16T07:03:54Z</time>
      </trkpt>
      <trkpt lat="43.81325" lon="-1.33997">
        <ele>40.4</ele>
        <time>2021-10-16T07:03:55Z</time>
      </trkpt>
      <trkpt lat="43.81328" lon="-1.33994">
        <ele>40.2</ele>
        <time>2021-10-16T07:03:56Z</time>
      </trkpt>
      <trkpt lat="43.81332" lon="-1.33992">
        <ele>40.2</ele>
        <time>2021-10-16T07:03:57Z</time>
      </trkpt>
      <trkpt lat="43.81334" lon="-1.33989">
        <ele>40</ele>
        <time>2021-10-16T07:03:58Z</time>
      </trkpt>
      <trkpt lat="43.81338" lon="-1.33986">
        <ele>40</ele>
        <time>2021-10-16T07:03:59Z</time>
      </trkpt>
      <trkpt lat="43.81341" lon="-1.33985">
        <ele>40</ele>
        <time>2021-10-16T07:04:00Z</time>
      </trkpt>
      <trkpt lat="43.81344" lon="-1.33986">
        <ele>40</ele>
        <time>2021-10-16T07:04:01Z</time>
      </trkpt>
      <trkpt lat="43.81347" lon="-1.33986">
        <ele>40.2</ele>
        <time>2021-10-16T07:04:02Z</time>
      </trkpt>
      <trkpt lat="43.81349" lon="-1.33987">
        <ele>40.6</ele>
        <time>2021-10-16T07:04:03Z</time>
      </trkpt>
      <trkpt lat="43.81351" lon="-1.33989">
        <ele>40.8</ele>
        <time>2021-10-16T07:04:04Z</time>
      </trkpt>
      <trkpt lat="43.81353" lon="-1.33991">
        <ele>41</ele>
        <time>2021-10-16T07:04:05Z</time>
      </trkpt>
      <trkpt lat="43.81355" lon="-1.33993">
        <ele>41.2</ele>
        <time>2021-10-16T07:04:06Z</time>
      </trkpt>
      <trkpt lat="43.81356" lon="-1.33995">
        <ele>41.4</ele>
        <time>2021-10-16T07:04:07Z</time>
      </trkpt>
      <trkpt lat="43.8136" lon="-1.34001">
        <ele>41.8</ele>
        <time>2021-10-16T07:04:09Z</time>
      </trkpt>
      <trkpt lat="43.81361" lon="-1.34003">
        <ele>42.2</ele>
        <time>2021-10-16T07:04:10Z</time>
      </trkpt>
      <trkpt lat="43.81363" lon="-1.34005">
        <ele>42.4</ele>
        <time>2021-10-16T07:04:11Z</time>
      </trkpt>
      <trkpt lat="43.81365" lon="-1.34008">
        <ele>42.6</ele>
        <time>2021-10-16T07:04:12Z</time>
      </trkpt>
      <trkpt lat="43.81369" lon="-1.34013">
        <ele>42.8</ele>
        <time>2021-10-16T07:04:14Z</time>
      </trkpt>
      <trkpt lat="43.8137" lon="-1.34017">
        <ele>43</ele>
        <time>2021-10-16T07:04:15Z</time>
      </trkpt>
      <trkpt lat="43.81371" lon="-1.34021">
        <ele>43.2</ele>
        <time>2021-10-16T07:04:16Z</time>
      </trkpt>
      <trkpt lat="43.81371" lon="-1.34024">
        <ele>43.2</ele>
        <time>2021-10-16T07:04:17Z</time>
      </trkpt>
      <trkpt lat="43.81372" lon="-1.34028">
        <ele>43.4</ele>
        <time>2021-10-16T07:04:18Z</time>
      </trkpt>
      <trkpt lat="43.81374" lon="-1.34031">
        <ele>43.6</ele>
        <time>2021-10-16T07:04:19Z</time>
      </trkpt>
      <trkpt lat="43.81375" lon="-1.34034">
        <ele>43.8</ele>
        <time>2021-10-16T07:04:20Z</time>
      </trkpt>
      <trkpt lat="43.81376" lon="-1.34037">
        <ele>44</ele>
        <time>2021-10-16T07:04:21Z</time>
      </trkpt>
      <trkpt lat="43.81377" lon="-1.34041">
        <ele>44.2</ele>
        <time>2021-10-16T07:04:22Z</time>
      </trkpt>
      <trkpt lat="43.81378" lon="-1.34045">
        <ele>44.2</ele>
        <time>2021-10-16T07:04:23Z</time>
      </trkpt>
      <trkpt lat="43.8138" lon="-1.34048">
        <ele>44.6</ele>
        <time>2021-10-16T07:04:24Z</time>
      </trkpt>
      <trkpt lat="43.81381" lon="-1.34052">
        <ele>44.6</ele>
        <time>2021-10-16T07:04:25Z</time>
      </trkpt>
      <trkpt lat="43.81383" lon="-1.34057">
        <ele>44.8</ele>
        <time>2021-10-16T07:04:26Z</time>
      </trkpt>
      <trkpt lat="43.81385" lon="-1.34061">
        <ele>45</ele>
        <time>2021-10-16T07:04:27Z</time>
      </trkpt>
      <trkpt lat="43.81386" lon="-1.34065">
        <ele>45</ele>
        <time>2021-10-16T07:04:28Z</time>
      </trkpt>
      <trkpt lat="43.81386" lon="-1.3407">
        <ele>45</ele>
        <time>2021-10-16T07:04:29Z</time>
      </trkpt>
      <trkpt lat="43.81387" lon="-1.34074">
        <ele>45.2</ele>
        <time>2021-10-16T07:04:30Z</time>
      </trkpt>
      <trkpt lat="43.81388" lon="-1.34079">
        <ele>45.4</ele>
        <time>2021-10-16T07:04:31Z</time>
      </trkpt>
      <trkpt lat="43.81389" lon="-1.34083">
        <ele>45.4</ele>
        <time>2021-10-16T07:04:32Z</time>
      </trkpt>
      <trkpt lat="43.8139" lon="-1.34088">
        <ele>45.6</ele>
        <time>2021-10-16T07:04:33Z</time>
      </trkpt>
      <trkpt lat="43.81392" lon="-1.34093">
        <ele>45.6</ele>
        <time>2021-10-16T07:04:34Z</time>
      </trkpt>
      <trkpt lat="43.81393" lon="-1.34097">
        <ele>45.8</ele>
        <time>2021-10-16T07:04:35Z</time>
      </trkpt>
      <trkpt lat="43.81395" lon="-1.34102">
        <ele>45.8</ele>
        <time>2021-10-16T07:04:36Z</time>
      </trkpt>
      <trkpt lat="43.81397" lon="-1.34107">
        <ele>46</ele>
        <time>2021-10-16T07:04:37Z</time>
      </trkpt>
      <trkpt lat="43.81398" lon="-1.34111">
        <ele>46</ele>
        <time>2021-10-16T07:04:38Z</time>
      </trkpt>
      <trkpt lat="43.81398" lon="-1.34115">
        <ele>46.2</ele>
        <time>2021-10-16T07:04:39Z</time>
      </trkpt>
      <trkpt lat="43.81399" lon="-1.34119">
        <ele>46.4</ele>
        <time>2021-10-16T07:04:40Z</time>
      </trkpt>
      <trkpt lat="43.81398" lon="-1.34123">
        <ele>46.4</ele>
        <time>2021-10-16T07:04:41Z</time>
      </trkpt>
      <trkpt lat="43.81399" lon="-1.34128">
        <ele>46.6</ele>
        <time>2021-10-16T07:04:42Z</time>
      </trkpt>
      <trkpt lat="43.81399" lon="-1.34132">
        <ele>46.8</ele>
        <time>2021-10-16T07:04:43Z</time>
      </trkpt>
      <trkpt lat="43.814" lon="-1.34136">
        <ele>46.8</ele>
        <time>2021-10-16T07:04:44Z</time>
      </trkpt>
      <trkpt lat="43.81402" lon="-1.3414">
        <ele>47</ele>
        <time>2021-10-16T07:04:45Z</time>
      </trkpt>
      <trkpt lat="43.81402" lon="-1.34145">
        <ele>47</ele>
        <time>2021-10-16T07:04:46Z</time>
      </trkpt>
      <trkpt lat="43.81403" lon="-1.34148">
        <ele>47.2</ele>
        <time>2021-10-16T07:04:47Z</time>
      </trkpt>
      <trkpt lat="43.81403" lon="-1.34151">
        <ele>47.4</ele>
        <time>2021-10-16T07:04:48Z</time>
      </trkpt>
      <trkpt lat="43.81403" lon="-1.34154">
        <ele>47.4</ele>
        <time>2021-10-16T07:04:49Z</time>
      </trkpt>
      <trkpt lat="43.81403" lon="-1.34157">
        <ele>47.8</ele>
        <time>2021-10-16T07:04:50Z</time>
      </trkpt>
      <trkpt lat="43.81404" lon="-1.3416">
        <ele>48</ele>
        <time>2021-10-16T07:04:51Z</time>
      </trkpt>
      <trkpt lat="43.81404" lon="-1.34162">
        <ele>48.4</ele>
        <time>2021-10-16T07:04:52Z</time>
      </trkpt>
      <trkpt lat="43.81405" lon="-1.34165">
        <ele>48.4</ele>
        <time>2021-10-16T07:04:53Z</time>
      </trkpt>
      <trkpt lat="43.81405" lon="-1.34168">
        <ele>48.8</ele>
        <time>2021-10-16T07:04:54Z</time>
      </trkpt>
      <trkpt lat="43.81405" lon="-1.34171">
        <ele>49</ele>
        <time>2021-10-16T07:04:55Z</time>
      </trkpt>
      <trkpt lat="43.81406" lon="-1.34174">
        <ele>49.2</ele>
        <time>2021-10-16T07:04:56Z</time>
      </trkpt>
      <trkpt lat="43.81407" lon="-1.34176">
        <ele>49.2</ele>
        <time>2021-10-16T07:04:57Z</time>
      </trkpt>
      <trkpt lat="43.81408" lon="-1.34179">
        <ele>49.6</ele>
        <time>2021-10-16T07:04:58Z</time>
      </trkpt>
      <trkpt lat="43.81408" lon="-1.34182">
        <ele>49.6</ele>
        <time>2021-10-16T07:04:59Z</time>
      </trkpt>
      <trkpt lat="43.81408" lon="-1.34185">
        <ele>50.2</ele>
        <time>2021-10-16T07:05:00Z</time>
      </trkpt>
      <trkpt lat="43.81409" lon="-1.34188">
        <ele>50.2</ele>
        <time>2021-10-16T07:05:01Z</time>
      </trkpt>
      <trkpt lat="43.8141" lon="-1.34191">
        <ele>50.6</ele>
        <time>2021-10-16T07:05:02Z</time>
      </trkpt>
      <trkpt lat="43.81411" lon="-1.34194">
        <ele>50.6</ele>
        <time>2021-10-16T07:05:03Z</time>
      </trkpt>
      <trkpt lat="43.81412" lon="-1.34197">
        <ele>50.8</ele>
        <time>2021-10-16T07:05:04Z</time>
      </trkpt>
      <trkpt lat="43.81413" lon="-1.34201">
        <ele>50.8</ele>
        <time>2021-10-16T07:05:05Z</time>
      </trkpt>
      <trkpt lat="43.81414" lon="-1.34204">
        <ele>51</ele>
        <time>2021-10-16T07:05:06Z</time>
      </trkpt>
      <trkpt lat="43.81414" lon="-1.34208">
        <ele>51.2</ele>
        <time>2021-10-16T07:05:07Z</time>
      </trkpt>
      <trkpt lat="43.81414" lon="-1.34212">
        <ele>51.4</ele>
        <time>2021-10-16T07:05:08Z</time>
      </trkpt>
      <trkpt lat="43.81415" lon="-1.34215">
        <ele>51.6</ele>
        <time>2021-10-16T07:05:09Z</time>
      </trkpt>
      <trkpt lat="43.81416" lon="-1.34219">
        <ele>51.6</ele>
        <time>2021-10-16T07:05:10Z</time>
      </trkpt>
      <trkpt lat="43.81416" lon="-1.34224">
        <ele>51.8</ele>
        <time>2021-10-16T07:05:11Z</time>
      </trkpt>
      <trkpt lat="43.81417" lon="-1.34227">
        <ele>52</ele>
        <time>2021-10-16T07:05:12Z</time>
      </trkpt>
      <trkpt lat="43.81418" lon="-1.34231">
        <ele>52.2</ele>
        <time>2021-10-16T07:05:13Z</time>
      </trkpt>
      <trkpt lat="43.81418" lon="-1.34235">
        <ele>52.2</ele>
        <time>2021-10-16T07:05:14Z</time>
      </trkpt>
      <trkpt lat="43.81418" lon="-1.3424">
        <ele>52.2</ele>
        <time>2021-10-16T07:05:15Z</time>
      </trkpt>
      <trkpt lat="43.81418" lon="-1.34244">
        <ele>52.2</ele>
        <time>2021-10-16T07:05:16Z</time>
      </trkpt>
      <trkpt lat="43.81418" lon="-1.34249">
        <ele>52.2</ele>
        <time>2021-10-16T07:05:17Z</time>
      </trkpt>
      <trkpt lat="43.81418" lon="-1.34255">
        <ele>52.2</ele>
        <time>2021-10-16T07:05:18Z</time>
      </trkpt>
      <trkpt lat="43.81418" lon="-1.3426">
        <ele>52.2</ele>
        <time>2021-10-16T07:05:19Z</time>
      </trkpt>
      <trkpt lat="43.8142" lon="-1.34265">
        <ele>52.2</ele>
        <time>2021-10-16T07:05:20Z</time>
      </trkpt>
      <trkpt lat="43.81422" lon="-1.34271">
        <ele>52</ele>
        <time>2021-10-16T07:05:21Z</time>
      </trkpt>
      <trkpt lat="43.81425" lon="-1.34278">
        <ele>52</ele>
        <time>2021-10-16T07:05:22Z</time>
      </trkpt>
      <trkpt lat="43.81426" lon="-1.34287">
        <ele>51.8</ele>
        <time>2021-10-16T07:05:23Z</time>
      </trkpt>
      <trkpt lat="43.81427" lon="-1.34295">
        <ele>51.6</ele>
        <time>2021-10-16T07:05:24Z</time>
      </trkpt>
      <trkpt lat="43.81429" lon="-1.34305">
        <ele>51.2</ele>
        <time>2021-10-16T07:05:25Z</time>
      </trkpt>
      <trkpt lat="43.8143" lon="-1.34315">
        <ele>51</ele>
        <time>2021-10-16T07:05:26Z</time>
      </trkpt>
      <trkpt lat="43.81432" lon="-1.34328">
        <ele>50.6</ele>
        <time>2021-10-16T07:05:27Z</time>
      </trkpt>
      <trkpt lat="43.81433" lon="-1.34343">
        <ele>50.2</ele>
        <time>2021-10-16T07:05:28Z</time>
      </trkpt>
      <trkpt lat="43.81439" lon="-1.34388">
        <ele>48.2</ele>
        <time>2021-10-16T07:05:31Z</time>
      </trkpt>
      <trkpt lat="43.81442" lon="-1.34421">
        <ele>46.8</ele>
        <time>2021-10-16T07:05:33Z</time>
      </trkpt>
      <trkpt lat="43.81443" lon="-1.34439">
        <ele>45.4</ele>
        <time>2021-10-16T07:05:34Z</time>
      </trkpt>
      <trkpt lat="43.81446" lon="-1.34474">
        <ele>43.6</ele>
        <time>2021-10-16T07:05:36Z</time>
      </trkpt>
      <trkpt lat="43.81449" lon="-1.34507">
        <ele>41.6</ele>
        <time>2021-10-16T07:05:38Z</time>
      </trkpt>
      <trkpt lat="43.81451" lon="-1.34524">
        <ele>41</ele>
        <time>2021-10-16T07:05:39Z</time>
      </trkpt>
      <trkpt lat="43.81451" lon="-1.34539">
        <ele>39.6</ele>
        <time>2021-10-16T07:05:40Z</time>
      </trkpt>
      <trkpt lat="43.81452" lon="-1.34553">
        <ele>38.8</ele>
        <time>2021-10-16T07:05:41Z</time>
      </trkpt>
      <trkpt lat="43.81454" lon="-1.34566">
        <ele>38</ele>
        <time>2021-10-16T07:05:42Z</time>
      </trkpt>
      <trkpt lat="43.81455" lon="-1.34577">
        <ele>38</ele>
        <time>2021-10-16T07:05:43Z</time>
      </trkpt>
      <trkpt lat="43.81456" lon="-1.34586">
        <ele>37.8</ele>
        <time>2021-10-16T07:05:44Z</time>
      </trkpt>
      <trkpt lat="43.81457" lon="-1.34593">
        <ele>37.8</ele>
        <time>2021-10-16T07:05:45Z</time>
      </trkpt>
      <trkpt lat="43.81457" lon="-1.34598">
        <ele>37.8</ele>
        <time>2021-10-16T07:05:46Z</time>
      </trkpt>
      <trkpt lat="43.81458" lon="-1.34603">
        <ele>37.6</ele>
        <time>2021-10-16T07:05:47Z</time>
      </trkpt>
      <trkpt lat="43.81458" lon="-1.34607">
        <ele>38</ele>
        <time>2021-10-16T07:05:48Z</time>
      </trkpt>
      <trkpt lat="43.81458" lon="-1.3461">
        <ele>38.4</ele>
        <time>2021-10-16T07:05:49Z</time>
      </trkpt>
      <trkpt lat="43.81458" lon="-1.34612">
        <ele>39.2</ele>
        <time>2021-10-16T07:05:50Z</time>
      </trkpt>
      <trkpt lat="43.81458" lon="-1.34615">
        <ele>39.6</ele>
        <time>2021-10-16T07:05:51Z</time>
      </trkpt>
      <trkpt lat="43.81458" lon="-1.34618">
        <ele>40.4</ele>
        <time>2021-10-16T07:05:52Z</time>
      </trkpt>
      <trkpt lat="43.81458" lon="-1.3462">
        <ele>41</ele>
        <time>2021-10-16T07:05:53Z</time>
      </trkpt>
      <trkpt lat="43.81459" lon="-1.34623">
        <ele>41.2</ele>
        <time>2021-10-16T07:05:54Z</time>
      </trkpt>
      <trkpt lat="43.81459" lon="-1.34626">
        <ele>41.8</ele>
        <time>2021-10-16T07:05:55Z</time>
      </trkpt>
      <trkpt lat="43.81458" lon="-1.34631">
        <ele>42.4</ele>
        <time>2021-10-16T07:05:57Z</time>
      </trkpt>
      <trkpt lat="43.81458" lon="-1.34638">
        <ele>43</ele>
        <time>2021-10-16T07:05:59Z</time>
      </trkpt>
      <trkpt lat="43.81459" lon="-1.34643">
        <ele>43.2</ele>
        <time>2021-10-16T07:06:00Z</time>
      </trkpt>
      <trkpt lat="43.8146" lon="-1.34647">
        <ele>43.6</ele>
        <time>2021-10-16T07:06:01Z</time>
      </trkpt>
      <trkpt lat="43.8146" lon="-1.34653">
        <ele>43.8</ele>
        <time>2021-10-16T07:06:02Z</time>
      </trkpt>
      <trkpt lat="43.81461" lon="-1.34669">
        <ele>44.2</ele>
        <time>2021-10-16T07:06:05Z</time>
      </trkpt>
      <trkpt lat="43.8146" lon="-1.34678">
        <ele>44.4</ele>
        <time>2021-10-16T07:06:07Z</time>
      </trkpt>
      <trkpt lat="43.81461" lon="-1.34681">
        <ele>44.6</ele>
        <time>2021-10-16T07:06:08Z</time>
      </trkpt>
      <trkpt lat="43.8146" lon="-1.34685">
        <ele>44.8</ele>
        <time>2021-10-16T07:06:09Z</time>
      </trkpt>
      <trkpt lat="43.81459" lon="-1.34691">
        <ele>45</ele>
        <time>2021-10-16T07:06:10Z</time>
      </trkpt>
      <trkpt lat="43.8146" lon="-1.34697">
        <ele>45.2</ele>
        <time>2021-10-16T07:06:11Z</time>
      </trkpt>
      <trkpt lat="43.81459" lon="-1.34706">
        <ele>45.2</ele>
        <time>2021-10-16T07:06:12Z</time>
      </trkpt>
      <trkpt lat="43.8146" lon="-1.34711">
        <ele>45.2</ele>
        <time>2021-10-16T07:06:13Z</time>
      </trkpt>
      <trkpt lat="43.8146" lon="-1.34717">
        <ele>45.4</ele>
        <time>2021-10-16T07:06:14Z</time>
      </trkpt>
      <trkpt lat="43.8146" lon="-1.34726">
        <ele>45.4</ele>
        <time>2021-10-16T07:06:15Z</time>
      </trkpt>
      <trkpt lat="43.81459" lon="-1.3473">
        <ele>45.4</ele>
        <time>2021-10-16T07:06:16Z</time>
      </trkpt>
      <trkpt lat="43.81459" lon="-1.34736">
        <ele>45.4</ele>
        <time>2021-10-16T07:06:17Z</time>
      </trkpt>
      <trkpt lat="43.81458" lon="-1.34744">
        <ele>45.4</ele>
        <time>2021-10-16T07:06:18Z</time>
      </trkpt>
      <trkpt lat="43.81457" lon="-1.34751">
        <ele>45.4</ele>
        <time>2021-10-16T07:06:19Z</time>
      </trkpt>
      <trkpt lat="43.81458" lon="-1.34755">
        <ele>45.4</ele>
        <time>2021-10-16T07:06:20Z</time>
      </trkpt>
      <trkpt lat="43.81459" lon="-1.3476">
        <ele>45.4</ele>
        <time>2021-10-16T07:06:21Z</time>
      </trkpt>
      <trkpt lat="43.81458" lon="-1.34765">
        <ele>45.6</ele>
        <time>2021-10-16T07:06:22Z</time>
      </trkpt>
      <trkpt lat="43.81457" lon="-1.34773">
        <ele>45.6</ele>
        <time>2021-10-16T07:06:23Z</time>
      </trkpt>
      <trkpt lat="43.81458" lon="-1.34779">
        <ele>45.6</ele>
        <time>2021-10-16T07:06:24Z</time>
      </trkpt>
      <trkpt lat="43.8146" lon="-1.34782">
        <ele>45.8</ele>
        <time>2021-10-16T07:06:25Z</time>
      </trkpt>
      <trkpt lat="43.8146" lon="-1.34785">
        <ele>45.8</ele>
        <time>2021-10-16T07:06:26Z</time>
      </trkpt>
      <trkpt lat="43.81458" lon="-1.34791">
        <ele>46</ele>
        <time>2021-10-16T07:06:27Z</time>
      </trkpt>
      <trkpt lat="43.81455" lon="-1.34795">
        <ele>46</ele>
        <time>2021-10-16T07:06:28Z</time>
      </trkpt>
      <trkpt lat="43.81455" lon="-1.34798">
        <ele>46</ele>
        <time>2021-10-16T07:06:29Z</time>
      </trkpt>
      <trkpt lat="43.81458" lon="-1.34805">
        <ele>46.2</ele>
        <time>2021-10-16T07:06:30Z</time>
      </trkpt>
      <trkpt lat="43.8146" lon="-1.34809">
        <ele>46.2</ele>
        <time>2021-10-16T07:06:31Z</time>
      </trkpt>
      <trkpt lat="43.81461" lon="-1.34813">
        <ele>46.4</ele>
        <time>2021-10-16T07:06:32Z</time>
      </trkpt>
      <trkpt lat="43.81461" lon="-1.34822">
        <ele>46.4</ele>
        <time>2021-10-16T07:06:33Z</time>
      </trkpt>
      <trkpt lat="43.81459" lon="-1.34843">
        <ele>46.6</ele>
        <time>2021-10-16T07:06:36Z</time>
      </trkpt>
      <trkpt lat="43.81455" lon="-1.34868">
        <ele>46.6</ele>
        <time>2021-10-16T07:06:39Z</time>
      </trkpt>
      <trkpt lat="43.81457" lon="-1.34874">
        <ele>46.6</ele>
        <time>2021-10-16T07:06:40Z</time>
      </trkpt>
      <trkpt lat="43.81451" lon="-1.34907">
        <ele>46.4</ele>
        <time>2021-10-16T07:06:44Z</time>
      </trkpt>
      <trkpt lat="43.81448" lon="-1.34915">
        <ele>46.4</ele>
        <time>2021-10-16T07:06:45Z</time>
      </trkpt>
      <trkpt lat="43.81445" lon="-1.34928">
        <ele>46.4</ele>
        <time>2021-10-16T07:06:47Z</time>
      </trkpt>
      <trkpt lat="43.81445" lon="-1.34933">
        <ele>46.4</ele>
        <time>2021-10-16T07:06:48Z</time>
      </trkpt>
      <trkpt lat="43.81443" lon="-1.34938">
        <ele>46.2</ele>
        <time>2021-10-16T07:06:49Z</time>
      </trkpt>
      <trkpt lat="43.81441" lon="-1.34944">
        <ele>46.2</ele>
        <time>2021-10-16T07:06:50Z</time>
      </trkpt>
      <trkpt lat="43.8144" lon="-1.3495">
        <ele>46.2</ele>
        <time>2021-10-16T07:06:51Z</time>
      </trkpt>
      <trkpt lat="43.81439" lon="-1.34955">
        <ele>46.2</ele>
        <time>2021-10-16T07:06:52Z</time>
      </trkpt>
      <trkpt lat="43.81439" lon="-1.34961">
        <ele>46.2</ele>
        <time>2021-10-16T07:06:53Z</time>
      </trkpt>
      <trkpt lat="43.81438" lon="-1.34966">
        <ele>46.6</ele>
        <time>2021-10-16T07:06:54Z</time>
      </trkpt>
      <trkpt lat="43.81433" lon="-1.35">
        <ele>46.6</ele>
        <time>2021-10-16T07:06:59Z</time>
      </trkpt>
      <trkpt lat="43.81432" lon="-1.35007">
        <ele>46.6</ele>
        <time>2021-10-16T07:07:00Z</time>
      </trkpt>
      <trkpt lat="43.81428" lon="-1.35021">
        <ele>46.4</ele>
        <time>2021-10-16T07:07:02Z</time>
      </trkpt>
      <trkpt lat="43.81423" lon="-1.35043">
        <ele>46.4</ele>
        <time>2021-10-16T07:07:05Z</time>
      </trkpt>
      <trkpt lat="43.81423" lon="-1.3505">
        <ele>46.4</ele>
        <time>2021-10-16T07:07:06Z</time>
      </trkpt>
      <trkpt lat="43.81419" lon="-1.35084">
        <ele>46</ele>
        <time>2021-10-16T07:07:09Z</time>
      </trkpt>
      <trkpt lat="43.81413" lon="-1.35124">
        <ele>45</ele>
        <time>2021-10-16T07:07:12Z</time>
      </trkpt>
      <trkpt lat="43.81411" lon="-1.3514">
        <ele>44.4</ele>
        <time>2021-10-16T07:07:13Z</time>
      </trkpt>
      <trkpt lat="43.81409" lon="-1.35155">
        <ele>43.4</ele>
        <time>2021-10-16T07:07:14Z</time>
      </trkpt>
      <trkpt lat="43.81406" lon="-1.35185">
        <ele>41.6</ele>
        <time>2021-10-16T07:07:16Z</time>
      </trkpt>
      <trkpt lat="43.81404" lon="-1.35217">
        <ele>39.8</ele>
        <time>2021-10-16T07:07:18Z</time>
      </trkpt>
      <trkpt lat="43.81404" lon="-1.35233">
        <ele>38.4</ele>
        <time>2021-10-16T07:07:19Z</time>
      </trkpt>
      <trkpt lat="43.81405" lon="-1.35265">
        <ele>36.6</ele>
        <time>2021-10-16T07:07:21Z</time>
      </trkpt>
      <trkpt lat="43.81405" lon="-1.35294">
        <ele>35.2</ele>
        <time>2021-10-16T07:07:23Z</time>
      </trkpt>
      <trkpt lat="43.81405" lon="-1.35307">
        <ele>34.8</ele>
        <time>2021-10-16T07:07:24Z</time>
      </trkpt>
      <trkpt lat="43.81406" lon="-1.35319">
        <ele>34.2</ele>
        <time>2021-10-16T07:07:25Z</time>
      </trkpt>
      <trkpt lat="43.81406" lon="-1.35329">
        <ele>34.2</ele>
        <time>2021-10-16T07:07:26Z</time>
      </trkpt>
      <trkpt lat="43.81406" lon="-1.35338">
        <ele>34</ele>
        <time>2021-10-16T07:07:27Z</time>
      </trkpt>
      <trkpt lat="43.81406" lon="-1.35346">
        <ele>34</ele>
        <time>2021-10-16T07:07:28Z</time>
      </trkpt>
      <trkpt lat="43.81406" lon="-1.35353">
        <ele>34</ele>
        <time>2021-10-16T07:07:29Z</time>
      </trkpt>
      <trkpt lat="43.81406" lon="-1.3536">
        <ele>34</ele>
        <time>2021-10-16T07:07:30Z</time>
      </trkpt>
      <trkpt lat="43.81406" lon="-1.35366">
        <ele>34.2</ele>
        <time>2021-10-16T07:07:31Z</time>
      </trkpt>
      <trkpt lat="43.81407" lon="-1.35372">
        <ele>34.6</ele>
        <time>2021-10-16T07:07:32Z</time>
      </trkpt>
      <trkpt lat="43.81407" lon="-1.35377">
        <ele>35</ele>
        <time>2021-10-16T07:07:33Z</time>
      </trkpt>
      <trkpt lat="43.81407" lon="-1.35383">
        <ele>35.4</ele>
        <time>2021-10-16T07:07:34Z</time>
      </trkpt>
      <trkpt lat="43.81407" lon="-1.35387">
        <ele>35.8</ele>
        <time>2021-10-16T07:07:35Z</time>
      </trkpt>
      <trkpt lat="43.81407" lon="-1.35391">
        <ele>36.2</ele>
        <time>2021-10-16T07:07:36Z</time>
      </trkpt>
      <trkpt lat="43.81408" lon="-1.35396">
        <ele>36.6</ele>
        <time>2021-10-16T07:07:37Z</time>
      </trkpt>
      <trkpt lat="43.81408" lon="-1.354">
        <ele>36.8</ele>
        <time>2021-10-16T07:07:38Z</time>
      </trkpt>
      <trkpt lat="43.81408" lon="-1.35405">
        <ele>37.4</ele>
        <time>2021-10-16T07:07:39Z</time>
      </trkpt>
      <trkpt lat="43.81408" lon="-1.35414">
        <ele>37.8</ele>
        <time>2021-10-16T07:07:41Z</time>
      </trkpt>
      <trkpt lat="43.81407" lon="-1.35418">
        <ele>38.2</ele>
        <time>2021-10-16T07:07:42Z</time>
      </trkpt>
      <trkpt lat="43.81407" lon="-1.35423">
        <ele>38.4</ele>
        <time>2021-10-16T07:07:43Z</time>
      </trkpt>
      <trkpt lat="43.81408" lon="-1.35433">
        <ele>39</ele>
        <time>2021-10-16T07:07:45Z</time>
      </trkpt>
      <trkpt lat="43.81407" lon="-1.35455">
        <ele>39.6</ele>
        <time>2021-10-16T07:07:49Z</time>
      </trkpt>
      <trkpt lat="43.81407" lon="-1.35486">
        <ele>39.6</ele>
        <time>2021-10-16T07:07:53Z</time>
      </trkpt>
      <trkpt lat="43.81407" lon="-1.35493">
        <ele>39.6</ele>
        <time>2021-10-16T07:07:54Z</time>
      </trkpt>
      <trkpt lat="43.81407" lon="-1.35501">
        <ele>39.6</ele>
        <time>2021-10-16T07:07:55Z</time>
      </trkpt>
      <trkpt lat="43.81407" lon="-1.35509">
        <ele>39.2</ele>
        <time>2021-10-16T07:07:56Z</time>
      </trkpt>
      <trkpt lat="43.81407" lon="-1.35517">
        <ele>39</ele>
        <time>2021-10-16T07:07:57Z</time>
      </trkpt>
      <trkpt lat="43.81407" lon="-1.35524">
        <ele>38.8</ele>
        <time>2021-10-16T07:07:58Z</time>
      </trkpt>
      <trkpt lat="43.81408" lon="-1.35532">
        <ele>38.6</ele>
        <time>2021-10-16T07:07:59Z</time>
      </trkpt>
      <trkpt lat="43.81409" lon="-1.35538">
        <ele>38.4</ele>
        <time>2021-10-16T07:08:00Z</time>
      </trkpt>
      <trkpt lat="43.81409" lon="-1.35552">
        <ele>38.4</ele>
        <time>2021-10-16T07:08:02Z</time>
      </trkpt>
      <trkpt lat="43.81409" lon="-1.35559">
        <ele>38.4</ele>
        <time>2021-10-16T07:08:03Z</time>
      </trkpt>
      <trkpt lat="43.81409" lon="-1.35566">
        <ele>38.4</ele>
        <time>2021-10-16T07:08:04Z</time>
      </trkpt>
      <trkpt lat="43.81408" lon="-1.35572">
        <ele>38.6</ele>
        <time>2021-10-16T07:08:05Z</time>
      </trkpt>
      <trkpt lat="43.81408" lon="-1.35577">
        <ele>38.6</ele>
        <time>2021-10-16T07:08:06Z</time>
      </trkpt>
      <trkpt lat="43.81408" lon="-1.35582">
        <ele>38.6</ele>
        <time>2021-10-16T07:08:07Z</time>
      </trkpt>
      <trkpt lat="43.81408" lon="-1.35586">
        <ele>38.6</ele>
        <time>2021-10-16T07:08:08Z</time>
      </trkpt>
      <trkpt lat="43.81407" lon="-1.35591">
        <ele>38.8</ele>
        <time>2021-10-16T07:08:09Z</time>
      </trkpt>
      <trkpt lat="43.81406" lon="-1.35596">
        <ele>38.8</ele>
        <time>2021-10-16T07:08:10Z</time>
      </trkpt>
      <trkpt lat="43.81403" lon="-1.35614">
        <ele>39.2</ele>
        <time>2021-10-16T07:08:13Z</time>
      </trkpt>
      <trkpt lat="43.81402" lon="-1.35621">
        <ele>39.4</ele>
        <time>2021-10-16T07:08:14Z</time>
      </trkpt>
      <trkpt lat="43.814" lon="-1.35646">
        <ele>39.4</ele>
        <time>2021-10-16T07:08:17Z</time>
      </trkpt>
      <trkpt lat="43.81398" lon="-1.35656">
        <ele>39.4</ele>
        <time>2021-10-16T07:08:18Z</time>
      </trkpt>
      <trkpt lat="43.81398" lon="-1.35682">
        <ele>39</ele>
        <time>2021-10-16T07:08:21Z</time>
      </trkpt>
      <trkpt lat="43.81398" lon="-1.35693">
        <ele>38.8</ele>
        <time>2021-10-16T07:08:22Z</time>
      </trkpt>
      <trkpt lat="43.81398" lon="-1.35703">
        <ele>38.6</ele>
        <time>2021-10-16T07:08:23Z</time>
      </trkpt>
      <trkpt lat="43.81396" lon="-1.35724">
        <ele>38</ele>
        <time>2021-10-16T07:08:25Z</time>
      </trkpt>
      <trkpt lat="43.81396" lon="-1.35735">
        <ele>37.6</ele>
        <time>2021-10-16T07:08:26Z</time>
      </trkpt>
      <trkpt lat="43.81397" lon="-1.35768">
        <ele>37.4</ele>
        <time>2021-10-16T07:08:29Z</time>
      </trkpt>
      <trkpt lat="43.81398" lon="-1.35789">
        <ele>37.2</ele>
        <time>2021-10-16T07:08:31Z</time>
      </trkpt>
      <trkpt lat="43.81396" lon="-1.35799">
        <ele>37</ele>
        <time>2021-10-16T07:08:32Z</time>
      </trkpt>
      <trkpt lat="43.81396" lon="-1.35808">
        <ele>36.8</ele>
        <time>2021-10-16T07:08:33Z</time>
      </trkpt>
      <trkpt lat="43.81395" lon="-1.35816">
        <ele>36.4</ele>
        <time>2021-10-16T07:08:34Z</time>
      </trkpt>
      <trkpt lat="43.81396" lon="-1.35822">
        <ele>36.4</ele>
        <time>2021-10-16T07:08:35Z</time>
      </trkpt>
      <trkpt lat="43.81396" lon="-1.3583">
        <ele>36.2</ele>
        <time>2021-10-16T07:08:36Z</time>
      </trkpt>
      <trkpt lat="43.81396" lon="-1.35837">
        <ele>36.2</ele>
        <time>2021-10-16T07:08:37Z</time>
      </trkpt>
      <trkpt lat="43.81396" lon="-1.35844">
        <ele>36.2</ele>
        <time>2021-10-16T07:08:38Z</time>
      </trkpt>
      <trkpt lat="43.81395" lon="-1.35851">
        <ele>36.2</ele>
        <time>2021-10-16T07:08:39Z</time>
      </trkpt>
      <trkpt lat="43.81395" lon="-1.35858">
        <ele>36.2</ele>
        <time>2021-10-16T07:08:40Z</time>
      </trkpt>
      <trkpt lat="43.81395" lon="-1.35871">
        <ele>36.6</ele>
        <time>2021-10-16T07:08:42Z</time>
      </trkpt>
      <trkpt lat="43.81395" lon="-1.35933">
        <ele>36.8</ele>
        <time>2021-10-16T07:08:50Z</time>
      </trkpt>
      <trkpt lat="43.81392" lon="-1.35986">
        <ele>36</ele>
        <time>2021-10-16T07:08:56Z</time>
      </trkpt>
      <trkpt lat="43.81391" lon="-1.36014">
        <ele>35.8</ele>
        <time>2021-10-16T07:08:59Z</time>
      </trkpt>
      <trkpt lat="43.81393" lon="-1.36053">
        <ele>35</ele>
        <time>2021-10-16T07:09:03Z</time>
      </trkpt>
      <trkpt lat="43.81394" lon="-1.36064">
        <ele>34.8</ele>
        <time>2021-10-16T07:09:04Z</time>
      </trkpt>
      <trkpt lat="43.81401" lon="-1.3611">
        <ele>33.2</ele>
        <time>2021-10-16T07:09:08Z</time>
      </trkpt>
      <trkpt lat="43.81407" lon="-1.36158">
        <ele>31.4</ele>
        <time>2021-10-16T07:09:12Z</time>
      </trkpt>
      <trkpt lat="43.81409" lon="-1.36183">
        <ele>30.6</ele>
        <time>2021-10-16T07:09:14Z</time>
      </trkpt>
      <trkpt lat="43.8141" lon="-1.36195">
        <ele>30.4</ele>
        <time>2021-10-16T07:09:15Z</time>
      </trkpt>
      <trkpt lat="43.81414" lon="-1.36231">
        <ele>29.2</ele>
        <time>2021-10-16T07:09:18Z</time>
      </trkpt>
      <trkpt lat="43.81419" lon="-1.36267">
        <ele>28.4</ele>
        <time>2021-10-16T07:09:21Z</time>
      </trkpt>
      <trkpt lat="43.8142" lon="-1.36278">
        <ele>28.2</ele>
        <time>2021-10-16T07:09:22Z</time>
      </trkpt>
      <trkpt lat="43.81429" lon="-1.36346">
        <ele>26.8</ele>
        <time>2021-10-16T07:09:28Z</time>
      </trkpt>
      <trkpt lat="43.81434" lon="-1.36381">
        <ele>25.6</ele>
        <time>2021-10-16T07:09:31Z</time>
      </trkpt>
      <trkpt lat="43.81437" lon="-1.36404">
        <ele>24.8</ele>
        <time>2021-10-16T07:09:33Z</time>
      </trkpt>
      <trkpt lat="43.8144" lon="-1.36427">
        <ele>24.4</ele>
        <time>2021-10-16T07:09:35Z</time>
      </trkpt>
      <trkpt lat="43.81444" lon="-1.36462">
        <ele>23.2</ele>
        <time>2021-10-16T07:09:38Z</time>
      </trkpt>
      <trkpt lat="43.81447" lon="-1.36483">
        <ele>22.6</ele>
        <time>2021-10-16T07:09:40Z</time>
      </trkpt>
      <trkpt lat="43.81448" lon="-1.36494">
        <ele>22.2</ele>
        <time>2021-10-16T07:09:41Z</time>
      </trkpt>
      <trkpt lat="43.81449" lon="-1.36503">
        <ele>22.2</ele>
        <time>2021-10-16T07:09:42Z</time>
      </trkpt>
      <trkpt lat="43.8145" lon="-1.36512">
        <ele>22</ele>
        <time>2021-10-16T07:09:43Z</time>
      </trkpt>
      <trkpt lat="43.81451" lon="-1.36518">
        <ele>22</ele>
        <time>2021-10-16T07:09:44Z</time>
      </trkpt>
      <trkpt lat="43.81451" lon="-1.36524">
        <ele>21.6</ele>
        <time>2021-10-16T07:09:45Z</time>
      </trkpt>
      <trkpt lat="43.81452" lon="-1.36528">
        <ele>21.6</ele>
        <time>2021-10-16T07:09:46Z</time>
      </trkpt>
      <trkpt lat="43.81454" lon="-1.3653">
        <ele>21.4</ele>
        <time>2021-10-16T07:09:47Z</time>
      </trkpt>
      <trkpt lat="43.81456" lon="-1.3653">
        <ele>21.4</ele>
        <time>2021-10-16T07:09:48Z</time>
      </trkpt>
      <trkpt lat="43.81457" lon="-1.36529">
        <ele>21.4</ele>
        <time>2021-10-16T07:09:49Z</time>
      </trkpt>
      <trkpt lat="43.81458" lon="-1.36528">
        <ele>21.4</ele>
        <time>2021-10-16T07:09:50Z</time>
      </trkpt>
      <trkpt lat="43.81459" lon="-1.36527">
        <ele>21.2</ele>
        <time>2021-10-16T07:09:51Z</time>
      </trkpt>
      <trkpt lat="43.8146" lon="-1.36526">
        <ele>21.2</ele>
        <time>2021-10-16T07:09:54Z</time>
      </trkpt>
      <trkpt lat="43.81459" lon="-1.36526">
        <ele>20.8</ele>
        <time>2021-10-16T07:10:02Z</time>
      </trkpt>
      <trkpt lat="43.81459" lon="-1.36526">
        <ele>20.4</ele>
        <time>2021-10-16T07:10:09Z</time>
      </trkpt>
      <trkpt lat="43.81459" lon="-1.36526">
        <ele>20.4</ele>
        <time>2021-10-16T07:10:54Z</time>
      </trkpt>
      <trkpt lat="43.81459" lon="-1.36527">
        <ele>20.6</ele>
        <time>2021-10-16T07:10:55Z</time>
      </trkpt>
      <trkpt lat="43.81459" lon="-1.36528">
        <ele>20.6</ele>
        <time>2021-10-16T07:10:57Z</time>
      </trkpt>
      <trkpt lat="43.81459" lon="-1.36528">
        <ele>20.8</ele>
        <time>2021-10-16T07:11:01Z</time>
      </trkpt>
      <trkpt lat="43.81455" lon="-1.36532">
        <ele>20.8</ele>
        <time>2021-10-16T07:11:27Z</time>
      </trkpt>
      <trkpt lat="43.81455" lon="-1.36534">
        <ele>20.8</ele>
        <time>2021-10-16T07:11:28Z</time>
      </trkpt>
      <trkpt lat="43.81454" lon="-1.36537">
        <ele>20.8</ele>
        <time>2021-10-16T07:11:29Z</time>
      </trkpt>
      <trkpt lat="43.81454" lon="-1.3654">
        <ele>20.8</ele>
        <time>2021-10-16T07:11:30Z</time>
      </trkpt>
      <trkpt lat="43.81455" lon="-1.36544">
        <ele>20.8</ele>
        <time>2021-10-16T07:11:31Z</time>
      </trkpt>
      <trkpt lat="43.81455" lon="-1.36548">
        <ele>20.8</ele>
        <time>2021-10-16T07:11:32Z</time>
      </trkpt>
      <trkpt lat="43.81455" lon="-1.36553">
        <ele>20.8</ele>
        <time>2021-10-16T07:11:33Z</time>
      </trkpt>
      <trkpt lat="43.8146" lon="-1.36592">
        <ele>20.8</ele>
        <time>2021-10-16T07:11:40Z</time>
      </trkpt>
      <trkpt lat="43.81467" lon="-1.36639">
        <ele>20.6</ele>
        <time>2021-10-16T07:11:47Z</time>
      </trkpt>
      <trkpt lat="43.81467" lon="-1.36646">
        <ele>20.6</ele>
        <time>2021-10-16T07:11:48Z</time>
      </trkpt>
      <trkpt lat="43.81473" lon="-1.36692">
        <ele>20.2</ele>
        <time>2021-10-16T07:11:54Z</time>
      </trkpt>
      <trkpt lat="43.8148" lon="-1.36735">
        <ele>19.8</ele>
        <time>2021-10-16T07:12:00Z</time>
      </trkpt>
      <trkpt lat="43.81482" lon="-1.36749">
        <ele>19.6</ele>
        <time>2021-10-16T07:12:02Z</time>
      </trkpt>
      <trkpt lat="43.81483" lon="-1.36756">
        <ele>19.6</ele>
        <time>2021-10-16T07:12:03Z</time>
      </trkpt>
      <trkpt lat="43.81484" lon="-1.36763">
        <ele>19.6</ele>
        <time>2021-10-16T07:12:04Z</time>
      </trkpt>
      <trkpt lat="43.81485" lon="-1.36771">
        <ele>19.6</ele>
        <time>2021-10-16T07:12:05Z</time>
      </trkpt>
      <trkpt lat="43.81485" lon="-1.36777">
        <ele>19.6</ele>
        <time>2021-10-16T07:12:06Z</time>
      </trkpt>
      <trkpt lat="43.81486" lon="-1.36791">
        <ele>19.6</ele>
        <time>2021-10-16T07:12:08Z</time>
      </trkpt>
      <trkpt lat="43.81487" lon="-1.36797">
        <ele>19.4</ele>
        <time>2021-10-16T07:12:09Z</time>
      </trkpt>
      <trkpt lat="43.81488" lon="-1.36804">
        <ele>19.4</ele>
        <time>2021-10-16T07:12:10Z</time>
      </trkpt>
      <trkpt lat="43.81489" lon="-1.36811">
        <ele>19.4</ele>
        <time>2021-10-16T07:12:11Z</time>
      </trkpt>
      <trkpt lat="43.8149" lon="-1.36819">
        <ele>19.4</ele>
        <time>2021-10-16T07:12:12Z</time>
      </trkpt>
      <trkpt lat="43.8149" lon="-1.36826">
        <ele>19.4</ele>
        <time>2021-10-16T07:12:13Z</time>
      </trkpt>
      <trkpt lat="43.81492" lon="-1.36841">
        <ele>19.2</ele>
        <time>2021-10-16T07:12:15Z</time>
      </trkpt>
      <trkpt lat="43.81496" lon="-1.36866">
        <ele>19.2</ele>
        <time>2021-10-16T07:12:18Z</time>
      </trkpt>
      <trkpt lat="43.81499" lon="-1.36884">
        <ele>19</ele>
        <time>2021-10-16T07:12:20Z</time>
      </trkpt>
      <trkpt lat="43.81502" lon="-1.36901">
        <ele>18.8</ele>
        <time>2021-10-16T07:12:22Z</time>
      </trkpt>
      <trkpt lat="43.81503" lon="-1.36909">
        <ele>18.8</ele>
        <time>2021-10-16T07:12:23Z</time>
      </trkpt>
      <trkpt lat="43.81505" lon="-1.36934">
        <ele>18.6</ele>
        <time>2021-10-16T07:12:26Z</time>
      </trkpt>
      <trkpt lat="43.81511" lon="-1.36991">
        <ele>18.4</ele>
        <time>2021-10-16T07:12:33Z</time>
      </trkpt>
      <trkpt lat="43.81513" lon="-1.36998">
        <ele>18.4</ele>
        <time>2021-10-16T07:12:34Z</time>
      </trkpt>
      <trkpt lat="43.81514" lon="-1.37006">
        <ele>18.4</ele>
        <time>2021-10-16T07:12:35Z</time>
      </trkpt>
      <trkpt lat="43.81518" lon="-1.3703">
        <ele>18.2</ele>
        <time>2021-10-16T07:12:38Z</time>
      </trkpt>
      <trkpt lat="43.81519" lon="-1.37037">
        <ele>18.2</ele>
        <time>2021-10-16T07:12:39Z</time>
      </trkpt>
      <trkpt lat="43.81521" lon="-1.37045">
        <ele>18.2</ele>
        <time>2021-10-16T07:12:40Z</time>
      </trkpt>
      <trkpt lat="43.81526" lon="-1.37094">
        <ele>18</ele>
        <time>2021-10-16T07:12:46Z</time>
      </trkpt>
      <trkpt lat="43.81527" lon="-1.37101">
        <ele>18</ele>
        <time>2021-10-16T07:12:47Z</time>
      </trkpt>
      <trkpt lat="43.81528" lon="-1.37109">
        <ele>18</ele>
        <time>2021-10-16T07:12:48Z</time>
      </trkpt>
      <trkpt lat="43.81531" lon="-1.37143">
        <ele>18</ele>
        <time>2021-10-16T07:12:52Z</time>
      </trkpt>
      <trkpt lat="43.81532" lon="-1.37152">
        <ele>18</ele>
        <time>2021-10-16T07:12:53Z</time>
      </trkpt>
      <trkpt lat="43.81533" lon="-1.37169">
        <ele>18</ele>
        <time>2021-10-16T07:12:55Z</time>
      </trkpt>
      <trkpt lat="43.81537" lon="-1.37194">
        <ele>17.6</ele>
        <time>2021-10-16T07:12:58Z</time>
      </trkpt>
      <trkpt lat="43.81543" lon="-1.37225">
        <ele>17.6</ele>
        <time>2021-10-16T07:13:02Z</time>
      </trkpt>
      <trkpt lat="43.81545" lon="-1.37233">
        <ele>17.6</ele>
        <time>2021-10-16T07:13:03Z</time>
      </trkpt>
      <trkpt lat="43.81546" lon="-1.3724">
        <ele>17.6</ele>
        <time>2021-10-16T07:13:04Z</time>
      </trkpt>
      <trkpt lat="43.81547" lon="-1.37248">
        <ele>17.6</ele>
        <time>2021-10-16T07:13:05Z</time>
      </trkpt>
      <trkpt lat="43.81548" lon="-1.37256">
        <ele>17.6</ele>
        <time>2021-10-16T07:13:06Z</time>
      </trkpt>
      <trkpt lat="43.81549" lon="-1.37265">
        <ele>17.6</ele>
        <time>2021-10-16T07:13:07Z</time>
      </trkpt>
      <trkpt lat="43.81551" lon="-1.37273">
        <ele>17.6</ele>
        <time>2021-10-16T07:13:08Z</time>
      </trkpt>
      <trkpt lat="43.81552" lon="-1.37281">
        <ele>17.6</ele>
        <time>2021-10-16T07:13:09Z</time>
      </trkpt>
      <trkpt lat="43.81554" lon="-1.37298">
        <ele>17.6</ele>
        <time>2021-10-16T07:13:11Z</time>
      </trkpt>
      <trkpt lat="43.81559" lon="-1.37357">
        <ele>17.6</ele>
        <time>2021-10-16T07:13:18Z</time>
      </trkpt>
      <trkpt lat="43.81567" lon="-1.3741">
        <ele>17.6</ele>
        <time>2021-10-16T07:13:24Z</time>
      </trkpt>
      <trkpt lat="43.81567" lon="-1.37419">
        <ele>17.6</ele>
        <time>2021-10-16T07:13:25Z</time>
      </trkpt>
      <trkpt lat="43.8157" lon="-1.37445">
        <ele>17.4</ele>
        <time>2021-10-16T07:13:28Z</time>
      </trkpt>
      <trkpt lat="43.81573" lon="-1.37463">
        <ele>17.2</ele>
        <time>2021-10-16T07:13:30Z</time>
      </trkpt>
      <trkpt lat="43.81574" lon="-1.37472">
        <ele>17.2</ele>
        <time>2021-10-16T07:13:31Z</time>
      </trkpt>
      <trkpt lat="43.81579" lon="-1.37509">
        <ele>17</ele>
        <time>2021-10-16T07:13:35Z</time>
      </trkpt>
      <trkpt lat="43.81582" lon="-1.37547">
        <ele>17</ele>
        <time>2021-10-16T07:13:39Z</time>
      </trkpt>
      <trkpt lat="43.81587" lon="-1.37619">
        <ele>16.6</ele>
        <time>2021-10-16T07:13:47Z</time>
      </trkpt>
      <trkpt lat="43.81584" lon="-1.37664">
        <ele>16.6</ele>
        <time>2021-10-16T07:13:52Z</time>
      </trkpt>
      <trkpt lat="43.81584" lon="-1.37673">
        <ele>16.6</ele>
        <time>2021-10-16T07:13:53Z</time>
      </trkpt>
      <trkpt lat="43.81583" lon="-1.37718">
        <ele>16.4</ele>
        <time>2021-10-16T07:13:58Z</time>
      </trkpt>
      <trkpt lat="43.81579" lon="-1.37762">
        <ele>16</ele>
        <time>2021-10-16T07:14:03Z</time>
      </trkpt>
      <trkpt lat="43.81578" lon="-1.37788">
        <ele>15.8</ele>
        <time>2021-10-16T07:14:06Z</time>
      </trkpt>
      <trkpt lat="43.81577" lon="-1.37796">
        <ele>15.8</ele>
        <time>2021-10-16T07:14:07Z</time>
      </trkpt>
      <trkpt lat="43.81577" lon="-1.37803">
        <ele>15.8</ele>
        <time>2021-10-16T07:14:08Z</time>
      </trkpt>
      <trkpt lat="43.81577" lon="-1.3781">
        <ele>15.8</ele>
        <time>2021-10-16T07:14:09Z</time>
      </trkpt>
      <trkpt lat="43.81577" lon="-1.37815">
        <ele>15.8</ele>
        <time>2021-10-16T07:14:10Z</time>
      </trkpt>
      <trkpt lat="43.81578" lon="-1.37819">
        <ele>15.8</ele>
        <time>2021-10-16T07:14:11Z</time>
      </trkpt>
      <trkpt lat="43.81578" lon="-1.37822">
        <ele>15.8</ele>
        <time>2021-10-16T07:14:12Z</time>
      </trkpt>
      <trkpt lat="43.81578" lon="-1.37824">
        <ele>15.8</ele>
        <time>2021-10-16T07:14:13Z</time>
      </trkpt>
      <trkpt lat="43.81578" lon="-1.37826">
        <ele>15.8</ele>
        <time>2021-10-16T07:14:14Z</time>
      </trkpt>
      <trkpt lat="43.81578" lon="-1.37826">
        <ele>15.8</ele>
        <time>2021-10-16T07:14:15Z</time>
      </trkpt>
      <trkpt lat="43.81578" lon="-1.37826">
        <ele>15.8</ele>
        <time>2021-10-16T07:14:16Z</time>
      </trkpt>
      <trkpt lat="43.81578" lon="-1.37827">
        <ele>15.8</ele>
        <time>2021-10-16T07:14:17Z</time>
      </trkpt>
      <trkpt lat="43.81577" lon="-1.37835">
        <ele>15.6</ele>
        <time>2021-10-16T07:14:20Z</time>
      </trkpt>
      <trkpt lat="43.81576" lon="-1.37839">
        <ele>15.6</ele>
        <time>2021-10-16T07:14:21Z</time>
      </trkpt>
      <trkpt lat="43.81576" lon="-1.37853">
        <ele>15.6</ele>
        <time>2021-10-16T07:14:24Z</time>
      </trkpt>
      <trkpt lat="43.81577" lon="-1.37858">
        <ele>15.6</ele>
        <time>2021-10-16T07:14:25Z</time>
      </trkpt>
      <trkpt lat="43.81577" lon="-1.37864">
        <ele>15.6</ele>
        <time>2021-10-16T07:14:26Z</time>
      </trkpt>
      <trkpt lat="43.81576" lon="-1.37869">
        <ele>15.6</ele>
        <time>2021-10-16T07:14:27Z</time>
      </trkpt>
      <trkpt lat="43.81571" lon="-1.37898">
        <ele>15.4</ele>
        <time>2021-10-16T07:14:32Z</time>
      </trkpt>
      <trkpt lat="43.81569" lon="-1.37941">
        <ele>15.4</ele>
        <time>2021-10-16T07:14:39Z</time>
      </trkpt>
      <trkpt lat="43.81569" lon="-1.37945">
        <ele>15.4</ele>
        <time>2021-10-16T07:14:40Z</time>
      </trkpt>
      <trkpt lat="43.81569" lon="-1.37949">
        <ele>15.4</ele>
        <time>2021-10-16T07:14:41Z</time>
      </trkpt>
      <trkpt lat="43.8157" lon="-1.37954">
        <ele>15.4</ele>
        <time>2021-10-16T07:14:42Z</time>
      </trkpt>
      <trkpt lat="43.81571" lon="-1.37957">
        <ele>15.4</ele>
        <time>2021-10-16T07:14:43Z</time>
      </trkpt>
      <trkpt lat="43.81573" lon="-1.37961">
        <ele>15.4</ele>
        <time>2021-10-16T07:14:44Z</time>
      </trkpt>
      <trkpt lat="43.81575" lon="-1.37964">
        <ele>15.4</ele>
        <time>2021-10-16T07:14:45Z</time>
      </trkpt>
      <trkpt lat="43.81577" lon="-1.37965">
        <ele>15.4</ele>
        <time>2021-10-16T07:14:46Z</time>
      </trkpt>
      <trkpt lat="43.8158" lon="-1.37968">
        <ele>15.4</ele>
        <time>2021-10-16T07:14:47Z</time>
      </trkpt>
      <trkpt lat="43.81582" lon="-1.3797">
        <ele>15.6</ele>
        <time>2021-10-16T07:14:48Z</time>
      </trkpt>
      <trkpt lat="43.81584" lon="-1.37973">
        <ele>15.8</ele>
        <time>2021-10-16T07:14:49Z</time>
      </trkpt>
      <trkpt lat="43.81595" lon="-1.37993">
        <ele>16.6</ele>
        <time>2021-10-16T07:14:54Z</time>
      </trkpt>
      <trkpt lat="43.81608" lon="-1.38029">
        <ele>16.4</ele>
        <time>2021-10-16T07:15:00Z</time>
      </trkpt>
      <trkpt lat="43.81611" lon="-1.38043">
        <ele>16.4</ele>
        <time>2021-10-16T07:15:02Z</time>
      </trkpt>
      <trkpt lat="43.81616" lon="-1.38067">
        <ele>16</ele>
        <time>2021-10-16T07:15:05Z</time>
      </trkpt>
      <trkpt lat="43.81617" lon="-1.38076">
        <ele>15.8</ele>
        <time>2021-10-16T07:15:06Z</time>
      </trkpt>
      <trkpt lat="43.81621" lon="-1.38111">
        <ele>15.2</ele>
        <time>2021-10-16T07:15:10Z</time>
      </trkpt>
      <trkpt lat="43.81622" lon="-1.3812">
        <ele>15.4</ele>
        <time>2021-10-16T07:15:11Z</time>
      </trkpt>
      <trkpt lat="43.81623" lon="-1.38128">
        <ele>15.2</ele>
        <time>2021-10-16T07:15:12Z</time>
      </trkpt>
      <trkpt lat="43.81625" lon="-1.38144">
        <ele>14.6</ele>
        <time>2021-10-16T07:15:14Z</time>
      </trkpt>
      <trkpt lat="43.81626" lon="-1.3815">
        <ele>14.6</ele>
        <time>2021-10-16T07:15:15Z</time>
      </trkpt>
      <trkpt lat="43.81628" lon="-1.38156">
        <ele>14.6</ele>
        <time>2021-10-16T07:15:16Z</time>
      </trkpt>
      <trkpt lat="43.81629" lon="-1.38161">
        <ele>14.6</ele>
        <time>2021-10-16T07:15:17Z</time>
      </trkpt>
      <trkpt lat="43.8163" lon="-1.38165">
        <ele>14.6</ele>
        <time>2021-10-16T07:15:18Z</time>
      </trkpt>
      <trkpt lat="43.8163" lon="-1.38167">
        <ele>14.8</ele>
        <time>2021-10-16T07:15:19Z</time>
      </trkpt>
      <trkpt lat="43.8163" lon="-1.38168">
        <ele>14.8</ele>
        <time>2021-10-16T07:15:20Z</time>
      </trkpt>
      <trkpt lat="43.81628" lon="-1.38169">
        <ele>14.8</ele>
        <time>2021-10-16T07:15:21Z</time>
      </trkpt>
      <trkpt lat="43.81627" lon="-1.3817">
        <ele>14.8</ele>
        <time>2021-10-16T07:15:22Z</time>
      </trkpt>
      <trkpt lat="43.81625" lon="-1.38175">
        <ele>15</ele>
        <time>2021-10-16T07:15:24Z</time>
      </trkpt>
      <trkpt lat="43.81624" lon="-1.38178">
        <ele>15</ele>
        <time>2021-10-16T07:15:25Z</time>
      </trkpt>
      <trkpt lat="43.81624" lon="-1.38181">
        <ele>15</ele>
        <time>2021-10-16T07:15:26Z</time>
      </trkpt>
      <trkpt lat="43.81625" lon="-1.38184">
        <ele>15</ele>
        <time>2021-10-16T07:15:27Z</time>
      </trkpt>
      <trkpt lat="43.81625" lon="-1.38186">
        <ele>15.2</ele>
        <time>2021-10-16T07:15:28Z</time>
      </trkpt>
      <trkpt lat="43.81626" lon="-1.38188">
        <ele>15.2</ele>
        <time>2021-10-16T07:15:29Z</time>
      </trkpt>
      <trkpt lat="43.81626" lon="-1.38189">
        <ele>15.2</ele>
        <time>2021-10-16T07:15:30Z</time>
      </trkpt>
      <trkpt lat="43.81627" lon="-1.38191">
        <ele>15.2</ele>
        <time>2021-10-16T07:15:31Z</time>
      </trkpt>
      <trkpt lat="43.81628" lon="-1.38193">
        <ele>15.4</ele>
        <time>2021-10-16T07:15:32Z</time>
      </trkpt>
      <trkpt lat="43.81629" lon="-1.38195">
        <ele>15.4</ele>
        <time>2021-10-16T07:15:33Z</time>
      </trkpt>
      <trkpt lat="43.8163" lon="-1.38196">
        <ele>15.4</ele>
        <time>2021-10-16T07:15:34Z</time>
      </trkpt>
      <trkpt lat="43.81632" lon="-1.38197">
        <ele>15.4</ele>
        <time>2021-10-16T07:15:35Z</time>
      </trkpt>
      <trkpt lat="43.81634" lon="-1.38197">
        <ele>15.4</ele>
        <time>2021-10-16T07:15:36Z</time>
      </trkpt>
      <trkpt lat="43.81636" lon="-1.38198">
        <ele>15.6</ele>
        <time>2021-10-16T07:15:37Z</time>
      </trkpt>
      <trkpt lat="43.81637" lon="-1.38199">
        <ele>15.6</ele>
        <time>2021-10-16T07:15:38Z</time>
      </trkpt>
      <trkpt lat="43.81644" lon="-1.38205">
        <ele>16</ele>
        <time>2021-10-16T07:15:42Z</time>
      </trkpt>
      <trkpt lat="43.81646" lon="-1.38207">
        <ele>16</ele>
        <time>2021-10-16T07:15:43Z</time>
      </trkpt>
      <trkpt lat="43.81663" lon="-1.38225">
        <ele>16.8</ele>
        <time>2021-10-16T07:15:52Z</time>
      </trkpt>
      <trkpt lat="43.81668" lon="-1.38231">
        <ele>17.2</ele>
        <time>2021-10-16T07:15:54Z</time>
      </trkpt>
      <trkpt lat="43.81674" lon="-1.38237">
        <ele>17.4</ele>
        <time>2021-10-16T07:15:56Z</time>
      </trkpt>
      <trkpt lat="43.81677" lon="-1.3824">
        <ele>17.6</ele>
        <time>2021-10-16T07:15:57Z</time>
      </trkpt>
      <trkpt lat="43.8168" lon="-1.38244">
        <ele>17.6</ele>
        <time>2021-10-16T07:15:58Z</time>
      </trkpt>
      <trkpt lat="43.81689" lon="-1.38255">
        <ele>18.2</ele>
        <time>2021-10-16T07:16:01Z</time>
      </trkpt>
      <trkpt lat="43.81699" lon="-1.38272">
        <ele>19.2</ele>
        <time>2021-10-16T07:16:05Z</time>
      </trkpt>
      <trkpt lat="43.81701" lon="-1.38276">
        <ele>19.4</ele>
        <time>2021-10-16T07:16:06Z</time>
      </trkpt>
      <trkpt lat="43.81704" lon="-1.38281">
        <ele>19.6</ele>
        <time>2021-10-16T07:16:07Z</time>
      </trkpt>
      <trkpt lat="43.81706" lon="-1.38285">
        <ele>19.8</ele>
        <time>2021-10-16T07:16:08Z</time>
      </trkpt>
      <trkpt lat="43.81708" lon="-1.3829">
        <ele>20</ele>
        <time>2021-10-16T07:16:09Z</time>
      </trkpt>
      <trkpt lat="43.8171" lon="-1.38294">
        <ele>20.2</ele>
        <time>2021-10-16T07:16:10Z</time>
      </trkpt>
      <trkpt lat="43.81714" lon="-1.38299">
        <ele>20.4</ele>
        <time>2021-10-16T07:16:11Z</time>
      </trkpt>
      <trkpt lat="43.81716" lon="-1.38303">
        <ele>20.6</ele>
        <time>2021-10-16T07:16:12Z</time>
      </trkpt>
      <trkpt lat="43.81718" lon="-1.38308">
        <ele>20.8</ele>
        <time>2021-10-16T07:16:13Z</time>
      </trkpt>
      <trkpt lat="43.8172" lon="-1.38312">
        <ele>21</ele>
        <time>2021-10-16T07:16:14Z</time>
      </trkpt>
      <trkpt lat="43.81723" lon="-1.38316">
        <ele>21.2</ele>
        <time>2021-10-16T07:16:15Z</time>
      </trkpt>
      <trkpt lat="43.81725" lon="-1.38321">
        <ele>21.4</ele>
        <time>2021-10-16T07:16:16Z</time>
      </trkpt>
      <trkpt lat="43.81726" lon="-1.38326">
        <ele>21.6</ele>
        <time>2021-10-16T07:16:17Z</time>
      </trkpt>
      <trkpt lat="43.81727" lon="-1.3833">
        <ele>21.8</ele>
        <time>2021-10-16T07:16:18Z</time>
      </trkpt>
      <trkpt lat="43.81729" lon="-1.38334">
        <ele>22</ele>
        <time>2021-10-16T07:16:19Z</time>
      </trkpt>
      <trkpt lat="43.81731" lon="-1.38338">
        <ele>22.4</ele>
        <time>2021-10-16T07:16:20Z</time>
      </trkpt>
      <trkpt lat="43.81734" lon="-1.38342">
        <ele>22.6</ele>
        <time>2021-10-16T07:16:21Z</time>
      </trkpt>
      <trkpt lat="43.81736" lon="-1.38346">
        <ele>22.8</ele>
        <time>2021-10-16T07:16:22Z</time>
      </trkpt>
      <trkpt lat="43.81738" lon="-1.3835">
        <ele>22.8</ele>
        <time>2021-10-16T07:16:23Z</time>
      </trkpt>
      <trkpt lat="43.8174" lon="-1.38354">
        <ele>23.2</ele>
        <time>2021-10-16T07:16:24Z</time>
      </trkpt>
      <trkpt lat="43.81742" lon="-1.38359">
        <ele>23.4</ele>
        <time>2021-10-16T07:16:25Z</time>
      </trkpt>
      <trkpt lat="43.81744" lon="-1.38364">
        <ele>23.4</ele>
        <time>2021-10-16T07:16:26Z</time>
      </trkpt>
      <trkpt lat="43.81746" lon="-1.38369">
        <ele>23.6</ele>
        <time>2021-10-16T07:16:27Z</time>
      </trkpt>
      <trkpt lat="43.81749" lon="-1.38375">
        <ele>23.6</ele>
        <time>2021-10-16T07:16:28Z</time>
      </trkpt>
      <trkpt lat="43.81751" lon="-1.3838">
        <ele>23.6</ele>
        <time>2021-10-16T07:16:29Z</time>
      </trkpt>
      <trkpt lat="43.81753" lon="-1.38386">
        <ele>23.6</ele>
        <time>2021-10-16T07:16:30Z</time>
      </trkpt>
      <trkpt lat="43.81756" lon="-1.38392">
        <ele>23.8</ele>
        <time>2021-10-16T07:16:31Z</time>
      </trkpt>
      <trkpt lat="43.81758" lon="-1.38396">
        <ele>23.8</ele>
        <time>2021-10-16T07:16:32Z</time>
      </trkpt>
      <trkpt lat="43.8176" lon="-1.38402">
        <ele>23.8</ele>
        <time>2021-10-16T07:16:33Z</time>
      </trkpt>
      <trkpt lat="43.81761" lon="-1.38408">
        <ele>23.8</ele>
        <time>2021-10-16T07:16:34Z</time>
      </trkpt>
      <trkpt lat="43.81762" lon="-1.38415">
        <ele>23.8</ele>
        <time>2021-10-16T07:16:35Z</time>
      </trkpt>
      <trkpt lat="43.81763" lon="-1.38422">
        <ele>23.6</ele>
        <time>2021-10-16T07:16:36Z</time>
      </trkpt>
      <trkpt lat="43.81763" lon="-1.38429">
        <ele>23.6</ele>
        <time>2021-10-16T07:16:37Z</time>
      </trkpt>
      <trkpt lat="43.81764" lon="-1.38436">
        <ele>23.6</ele>
        <time>2021-10-16T07:16:38Z</time>
      </trkpt>
      <trkpt lat="43.81764" lon="-1.38444">
        <ele>23.6</ele>
        <time>2021-10-16T07:16:39Z</time>
      </trkpt>
      <trkpt lat="43.81764" lon="-1.38451">
        <ele>23.6</ele>
        <time>2021-10-16T07:16:40Z</time>
      </trkpt>
      <trkpt lat="43.81764" lon="-1.38459">
        <ele>23.4</ele>
        <time>2021-10-16T07:16:41Z</time>
      </trkpt>
      <trkpt lat="43.81764" lon="-1.38466">
        <ele>23.2</ele>
        <time>2021-10-16T07:16:42Z</time>
      </trkpt>
      <trkpt lat="43.81763" lon="-1.38474">
        <ele>23.2</ele>
        <time>2021-10-16T07:16:43Z</time>
      </trkpt>
      <trkpt lat="43.81756" lon="-1.38546">
        <ele>22.2</ele>
        <time>2021-10-16T07:16:51Z</time>
      </trkpt>
      <trkpt lat="43.81756" lon="-1.38554">
        <ele>21.6</ele>
        <time>2021-10-16T07:16:53Z</time>
      </trkpt>
      <trkpt lat="43.81748" lon="-1.38615">
        <ele>20.6</ele>
        <time>2021-10-16T07:17:00Z</time>
      </trkpt>
      <trkpt lat="43.81747" lon="-1.38632">
        <ele>20.4</ele>
        <time>2021-10-16T07:17:02Z</time>
      </trkpt>
      <trkpt lat="43.8174" lon="-1.387">
        <ele>19.2</ele>
        <time>2021-10-16T07:17:09Z</time>
      </trkpt>
      <trkpt lat="43.8174" lon="-1.387">
        <ele>19</ele>
        <time>2021-10-16T07:17:10Z</time>
      </trkpt>
      <trkpt lat="43.81739" lon="-1.38714">
        <ele>18.8</ele>
        <time>2021-10-16T07:17:11Z</time>
      </trkpt>
      <trkpt lat="43.81737" lon="-1.38722">
        <ele>18.6</ele>
        <time>2021-10-16T07:17:12Z</time>
      </trkpt>
      <trkpt lat="43.81736" lon="-1.3873">
        <ele>18.6</ele>
        <time>2021-10-16T07:17:13Z</time>
      </trkpt>
      <trkpt lat="43.81732" lon="-1.38753">
        <ele>18</ele>
        <time>2021-10-16T07:17:16Z</time>
      </trkpt>
      <trkpt lat="43.81723" lon="-1.38808">
        <ele>17</ele>
        <time>2021-10-16T07:17:23Z</time>
      </trkpt>
      <trkpt lat="43.81722" lon="-1.38816">
        <ele>16.8</ele>
        <time>2021-10-16T07:17:24Z</time>
      </trkpt>
      <trkpt lat="43.81711" lon="-1.38873">
        <ele>15.8</ele>
        <time>2021-10-16T07:17:31Z</time>
      </trkpt>
      <trkpt lat="43.81709" lon="-1.38882">
        <ele>15.8</ele>
        <time>2021-10-16T07:17:32Z</time>
      </trkpt>
      <trkpt lat="43.81695" lon="-1.38957">
        <ele>15.2</ele>
        <time>2021-10-16T07:17:41Z</time>
      </trkpt>
      <trkpt lat="43.81686" lon="-1.39">
        <ele>14.6</ele>
        <time>2021-10-16T07:17:46Z</time>
      </trkpt>
      <trkpt lat="43.8168" lon="-1.39026">
        <ele>14.2</ele>
        <time>2021-10-16T07:17:49Z</time>
      </trkpt>
      <trkpt lat="43.81669" lon="-1.3908">
        <ele>13.6</ele>
        <time>2021-10-16T07:17:56Z</time>
      </trkpt>
      <trkpt lat="43.81668" lon="-1.39087">
        <ele>13.6</ele>
        <time>2021-10-16T07:17:57Z</time>
      </trkpt>
      <trkpt lat="43.81667" lon="-1.39094">
        <ele>13.4</ele>
        <time>2021-10-16T07:17:58Z</time>
      </trkpt>
      <trkpt lat="43.81665" lon="-1.39101">
        <ele>13.4</ele>
        <time>2021-10-16T07:17:59Z</time>
      </trkpt>
      <trkpt lat="43.81664" lon="-1.39107">
        <ele>13.4</ele>
        <time>2021-10-16T07:18:00Z</time>
      </trkpt>
      <trkpt lat="43.81659" lon="-1.39127">
        <ele>13.2</ele>
        <time>2021-10-16T07:18:03Z</time>
      </trkpt>
      <trkpt lat="43.81658" lon="-1.39135">
        <ele>13.2</ele>
        <time>2021-10-16T07:18:04Z</time>
      </trkpt>
      <trkpt lat="43.81657" lon="-1.3914">
        <ele>13</ele>
        <time>2021-10-16T07:18:05Z</time>
      </trkpt>
      <trkpt lat="43.81654" lon="-1.39154">
        <ele>13</ele>
        <time>2021-10-16T07:18:07Z</time>
      </trkpt>
      <trkpt lat="43.81647" lon="-1.39179">
        <ele>13</ele>
        <time>2021-10-16T07:18:11Z</time>
      </trkpt>
      <trkpt lat="43.81646" lon="-1.39185">
        <ele>13</ele>
        <time>2021-10-16T07:18:12Z</time>
      </trkpt>
      <trkpt lat="43.81642" lon="-1.39205">
        <ele>13</ele>
        <time>2021-10-16T07:18:15Z</time>
      </trkpt>
      <trkpt lat="43.8164" lon="-1.39211">
        <ele>13</ele>
        <time>2021-10-16T07:18:16Z</time>
      </trkpt>
      <trkpt lat="43.81638" lon="-1.39224">
        <ele>13.2</ele>
        <time>2021-10-16T07:18:18Z</time>
      </trkpt>
      <trkpt lat="43.81637" lon="-1.39231">
        <ele>13.2</ele>
        <time>2021-10-16T07:18:19Z</time>
      </trkpt>
      <trkpt lat="43.81628" lon="-1.39267">
        <ele>13.4</ele>
        <time>2021-10-16T07:18:24Z</time>
      </trkpt>
      <trkpt lat="43.81616" lon="-1.39326">
        <ele>13.4</ele>
        <time>2021-10-16T07:18:32Z</time>
      </trkpt>
      <trkpt lat="43.81606" lon="-1.39376">
        <ele>13.4</ele>
        <time>2021-10-16T07:18:39Z</time>
      </trkpt>
      <trkpt lat="43.81602" lon="-1.39401">
        <ele>13.4</ele>
        <time>2021-10-16T07:18:42Z</time>
      </trkpt>
      <trkpt lat="43.816" lon="-1.39409">
        <ele>13.4</ele>
        <time>2021-10-16T07:18:43Z</time>
      </trkpt>
      <trkpt lat="43.81598" lon="-1.39416">
        <ele>13.4</ele>
        <time>2021-10-16T07:18:44Z</time>
      </trkpt>
      <trkpt lat="43.81596" lon="-1.39421">
        <ele>13.4</ele>
        <time>2021-10-16T07:18:45Z</time>
      </trkpt>
      <trkpt lat="43.81596" lon="-1.39421">
        <ele>13.6</ele>
        <time>2021-10-16T07:18:46Z</time>
      </trkpt>
      <trkpt lat="43.81594" lon="-1.39433">
        <ele>13.6</ele>
        <time>2021-10-16T07:18:47Z</time>
      </trkpt>
      <trkpt lat="43.81593" lon="-1.39438">
        <ele>13.6</ele>
        <time>2021-10-16T07:18:48Z</time>
      </trkpt>
      <trkpt lat="43.81592" lon="-1.39444">
        <ele>13.6</ele>
        <time>2021-10-16T07:18:49Z</time>
      </trkpt>
      <trkpt lat="43.81591" lon="-1.39449">
        <ele>13.6</ele>
        <time>2021-10-16T07:18:50Z</time>
      </trkpt>
      <trkpt lat="43.8159" lon="-1.39455">
        <ele>13.6</ele>
        <time>2021-10-16T07:18:51Z</time>
      </trkpt>
      <trkpt lat="43.81585" lon="-1.39474">
        <ele>13.6</ele>
        <time>2021-10-16T07:18:54Z</time>
      </trkpt>
      <trkpt lat="43.81583" lon="-1.39489">
        <ele>13.6</ele>
        <time>2021-10-16T07:18:56Z</time>
      </trkpt>
      <trkpt lat="43.81574" lon="-1.39543">
        <ele>13.8</ele>
        <time>2021-10-16T07:19:04Z</time>
      </trkpt>
      <trkpt lat="43.81574" lon="-1.39573">
        <ele>13.8</ele>
        <time>2021-10-16T07:19:08Z</time>
      </trkpt>
      <trkpt lat="43.81574" lon="-1.39597">
        <ele>13.8</ele>
        <time>2021-10-16T07:19:11Z</time>
      </trkpt>
      <trkpt lat="43.81574" lon="-1.39605">
        <ele>13.8</ele>
        <time>2021-10-16T07:19:12Z</time>
      </trkpt>
      <trkpt lat="43.81574" lon="-1.39613">
        <ele>13.8</ele>
        <time>2021-10-16T07:19:13Z</time>
      </trkpt>
      <trkpt lat="43.81574" lon="-1.3962">
        <ele>13.8</ele>
        <time>2021-10-16T07:19:14Z</time>
      </trkpt>
      <trkpt lat="43.81574" lon="-1.39628">
        <ele>13.8</ele>
        <time>2021-10-16T07:19:15Z</time>
      </trkpt>
      <trkpt lat="43.81575" lon="-1.39636">
        <ele>13.8</ele>
        <time>2021-10-16T07:19:16Z</time>
      </trkpt>
      <trkpt lat="43.81575" lon="-1.39652">
        <ele>13.6</ele>
        <time>2021-10-16T07:19:18Z</time>
      </trkpt>
      <trkpt lat="43.81574" lon="-1.39667">
        <ele>13.6</ele>
        <time>2021-10-16T07:19:20Z</time>
      </trkpt>
      <trkpt lat="43.81574" lon="-1.39675">
        <ele>13.6</ele>
        <time>2021-10-16T07:19:21Z</time>
      </trkpt>
      <trkpt lat="43.81573" lon="-1.39682">
        <ele>13.6</ele>
        <time>2021-10-16T07:19:22Z</time>
      </trkpt>
      <trkpt lat="43.81574" lon="-1.39708">
        <ele>13.6</ele>
        <time>2021-10-16T07:19:25Z</time>
      </trkpt>
      <trkpt lat="43.81574" lon="-1.39723">
        <ele>13.8</ele>
        <time>2021-10-16T07:19:27Z</time>
      </trkpt>
      <trkpt lat="43.81575" lon="-1.39731">
        <ele>13.8</ele>
        <time>2021-10-16T07:19:28Z</time>
      </trkpt>
      <trkpt lat="43.81574" lon="-1.39755">
        <ele>13.8</ele>
        <time>2021-10-16T07:19:31Z</time>
      </trkpt>
      <trkpt lat="43.81573" lon="-1.39779">
        <ele>13.8</ele>
        <time>2021-10-16T07:19:34Z</time>
      </trkpt>
      <trkpt lat="43.81572" lon="-1.3983">
        <ele>13.8</ele>
        <time>2021-10-16T07:19:41Z</time>
      </trkpt>
      <trkpt lat="43.81572" lon="-1.39837">
        <ele>14</ele>
        <time>2021-10-16T07:19:42Z</time>
      </trkpt>
      <trkpt lat="43.81572" lon="-1.39845">
        <ele>14</ele>
        <time>2021-10-16T07:19:43Z</time>
      </trkpt>
      <trkpt lat="43.81571" lon="-1.39881">
        <ele>14.2</ele>
        <time>2021-10-16T07:19:48Z</time>
      </trkpt>
      <trkpt lat="43.81571" lon="-1.39888">
        <ele>14.2</ele>
        <time>2021-10-16T07:19:49Z</time>
      </trkpt>
      <trkpt lat="43.81571" lon="-1.39901">
        <ele>14.4</ele>
        <time>2021-10-16T07:19:51Z</time>
      </trkpt>
      <trkpt lat="43.8157" lon="-1.39929">
        <ele>15</ele>
        <time>2021-10-16T07:19:55Z</time>
      </trkpt>
      <trkpt lat="43.8157" lon="-1.39935">
        <ele>15</ele>
        <time>2021-10-16T07:19:56Z</time>
      </trkpt>
      <trkpt lat="43.81569" lon="-1.39942">
        <ele>15</ele>
        <time>2021-10-16T07:19:57Z</time>
      </trkpt>
      <trkpt lat="43.81569" lon="-1.39949">
        <ele>15.2</ele>
        <time>2021-10-16T07:19:58Z</time>
      </trkpt>
      <trkpt lat="43.81569" lon="-1.39955">
        <ele>15.2</ele>
        <time>2021-10-16T07:19:59Z</time>
      </trkpt>
      <trkpt lat="43.81569" lon="-1.39962">
        <ele>15.2</ele>
        <time>2021-10-16T07:20:00Z</time>
      </trkpt>
      <trkpt lat="43.81569" lon="-1.3998">
        <ele>15.6</ele>
        <time>2021-10-16T07:20:03Z</time>
      </trkpt>
      <trkpt lat="43.81568" lon="-1.39986">
        <ele>15.8</ele>
        <time>2021-10-16T07:20:04Z</time>
      </trkpt>
      <trkpt lat="43.81568" lon="-1.39992">
        <ele>16</ele>
        <time>2021-10-16T07:20:05Z</time>
      </trkpt>
      <trkpt lat="43.81568" lon="-1.39998">
        <ele>16</ele>
        <time>2021-10-16T07:20:06Z</time>
      </trkpt>
      <trkpt lat="43.81568" lon="-1.40004">
        <ele>16.2</ele>
        <time>2021-10-16T07:20:07Z</time>
      </trkpt>
      <trkpt lat="43.81568" lon="-1.4001">
        <ele>16.2</ele>
        <time>2021-10-16T07:20:08Z</time>
      </trkpt>
      <trkpt lat="43.81568" lon="-1.40016">
        <ele>16.2</ele>
        <time>2021-10-16T07:20:09Z</time>
      </trkpt>
      <trkpt lat="43.81569" lon="-1.40021">
        <ele>16.4</ele>
        <time>2021-10-16T07:20:10Z</time>
      </trkpt>
      <trkpt lat="43.81568" lon="-1.40027">
        <ele>16.6</ele>
        <time>2021-10-16T07:20:11Z</time>
      </trkpt>
      <trkpt lat="43.81568" lon="-1.40039">
        <ele>17</ele>
        <time>2021-10-16T07:20:13Z</time>
      </trkpt>
      <trkpt lat="43.81568" lon="-1.40044">
        <ele>17</ele>
        <time>2021-10-16T07:20:14Z</time>
      </trkpt>
      <trkpt lat="43.81568" lon="-1.4005">
        <ele>17.2</ele>
        <time>2021-10-16T07:20:15Z</time>
      </trkpt>
      <trkpt lat="43.81568" lon="-1.40054">
        <ele>17.2</ele>
        <time>2021-10-16T07:20:16Z</time>
      </trkpt>
      <trkpt lat="43.81568" lon="-1.40059">
        <ele>17.4</ele>
        <time>2021-10-16T07:20:17Z</time>
      </trkpt>
      <trkpt lat="43.81567" lon="-1.40064">
        <ele>17.4</ele>
        <time>2021-10-16T07:20:18Z</time>
      </trkpt>
      <trkpt lat="43.81566" lon="-1.40068">
        <ele>17.6</ele>
        <time>2021-10-16T07:20:19Z</time>
      </trkpt>
      <trkpt lat="43.81564" lon="-1.40072">
        <ele>17.6</ele>
        <time>2021-10-16T07:20:20Z</time>
      </trkpt>
      <trkpt lat="43.81562" lon="-1.40075">
        <ele>17.8</ele>
        <time>2021-10-16T07:20:21Z</time>
      </trkpt>
      <trkpt lat="43.81561" lon="-1.40078">
        <ele>18</ele>
        <time>2021-10-16T07:20:22Z</time>
      </trkpt>
      <trkpt lat="43.8156" lon="-1.40081">
        <ele>18</ele>
        <time>2021-10-16T07:20:23Z</time>
      </trkpt>
      <trkpt lat="43.8156" lon="-1.40081">
        <ele>18</ele>
        <time>2021-10-16T07:20:24Z</time>
      </trkpt>
      <trkpt lat="43.81559" lon="-1.40088">
        <ele>18.2</ele>
        <time>2021-10-16T07:20:25Z</time>
      </trkpt>
      <trkpt lat="43.8156" lon="-1.40092">
        <ele>18.4</ele>
        <time>2021-10-16T07:20:26Z</time>
      </trkpt>
      <trkpt lat="43.81561" lon="-1.40095">
        <ele>18.4</ele>
        <time>2021-10-16T07:20:27Z</time>
      </trkpt>
      <trkpt lat="43.81563" lon="-1.40098">
        <ele>18.4</ele>
        <time>2021-10-16T07:20:28Z</time>
      </trkpt>
      <trkpt lat="43.81566" lon="-1.401">
        <ele>18.6</ele>
        <time>2021-10-16T07:20:29Z</time>
      </trkpt>
      <trkpt lat="43.81568" lon="-1.40104">
        <ele>18.6</ele>
        <time>2021-10-16T07:20:30Z</time>
      </trkpt>
      <trkpt lat="43.8157" lon="-1.40108">
        <ele>18.6</ele>
        <time>2021-10-16T07:20:31Z</time>
      </trkpt>
      <trkpt lat="43.81571" lon="-1.40113">
        <ele>18.6</ele>
        <time>2021-10-16T07:20:32Z</time>
      </trkpt>
      <trkpt lat="43.81572" lon="-1.40118">
        <ele>18.6</ele>
        <time>2021-10-16T07:20:33Z</time>
      </trkpt>
      <trkpt lat="43.81573" lon="-1.40123">
        <ele>18.6</ele>
        <time>2021-10-16T07:20:34Z</time>
      </trkpt>
      <trkpt lat="43.81574" lon="-1.40128">
        <ele>18.6</ele>
        <time>2021-10-16T07:20:35Z</time>
      </trkpt>
      <trkpt lat="43.81578" lon="-1.40155">
        <ele>19</ele>
        <time>2021-10-16T07:20:40Z</time>
      </trkpt>
      <trkpt lat="43.81587" lon="-1.4021">
        <ele>19.2</ele>
        <time>2021-10-16T07:20:50Z</time>
      </trkpt>
      <trkpt lat="43.81589" lon="-1.40226">
        <ele>19.2</ele>
        <time>2021-10-16T07:20:53Z</time>
      </trkpt>
      <trkpt lat="43.81591" lon="-1.40242">
        <ele>19.4</ele>
        <time>2021-10-16T07:20:56Z</time>
      </trkpt>
      <trkpt lat="43.81592" lon="-1.40247">
        <ele>19.4</ele>
        <time>2021-10-16T07:20:57Z</time>
      </trkpt>
      <trkpt lat="43.81594" lon="-1.40257">
        <ele>19.6</ele>
        <time>2021-10-16T07:20:59Z</time>
      </trkpt>
      <trkpt lat="43.81595" lon="-1.40261">
        <ele>19.6</ele>
        <time>2021-10-16T07:21:00Z</time>
      </trkpt>
      <trkpt lat="43.81596" lon="-1.40269">
        <ele>19.8</ele>
        <time>2021-10-16T07:21:02Z</time>
      </trkpt>
      <trkpt lat="43.81597" lon="-1.40272">
        <ele>19.8</ele>
        <time>2021-10-16T07:21:03Z</time>
      </trkpt>
      <trkpt lat="43.81597" lon="-1.40275">
        <ele>19.8</ele>
        <time>2021-10-16T07:21:04Z</time>
      </trkpt>
      <trkpt lat="43.81597" lon="-1.40278">
        <ele>19.8</ele>
        <time>2021-10-16T07:21:05Z</time>
      </trkpt>
      <trkpt lat="43.81597" lon="-1.40281">
        <ele>19.8</ele>
        <time>2021-10-16T07:21:06Z</time>
      </trkpt>
      <trkpt lat="43.81596" lon="-1.40283">
        <ele>19.8</ele>
        <time>2021-10-16T07:21:07Z</time>
      </trkpt>
      <trkpt lat="43.81594" lon="-1.40285">
        <ele>19.8</ele>
        <time>2021-10-16T07:21:08Z</time>
      </trkpt>
      <trkpt lat="43.81591" lon="-1.40287">
        <ele>20</ele>
        <time>2021-10-16T07:21:10Z</time>
      </trkpt>
      <trkpt lat="43.81589" lon="-1.40288">
        <ele>20</ele>
        <time>2021-10-16T07:21:11Z</time>
      </trkpt>
      <trkpt lat="43.81588" lon="-1.40289">
        <ele>20</ele>
        <time>2021-10-16T07:21:12Z</time>
      </trkpt>
      <trkpt lat="43.81587" lon="-1.4029">
        <ele>20</ele>
        <time>2021-10-16T07:21:13Z</time>
      </trkpt>
      <trkpt lat="43.81585" lon="-1.4029">
        <ele>20</ele>
        <time>2021-10-16T07:21:14Z</time>
      </trkpt>
      <trkpt lat="43.81584" lon="-1.40291">
        <ele>20</ele>
        <time>2021-10-16T07:21:15Z</time>
      </trkpt>
      <trkpt lat="43.81582" lon="-1.40292">
        <ele>20</ele>
        <time>2021-10-16T07:21:16Z</time>
      </trkpt>
      <trkpt lat="43.81581" lon="-1.40292">
        <ele>20</ele>
        <time>2021-10-16T07:21:17Z</time>
      </trkpt>
      <trkpt lat="43.8158" lon="-1.40291">
        <ele>20</ele>
        <time>2021-10-16T07:21:18Z</time>
      </trkpt>
      <trkpt lat="43.8158" lon="-1.40289">
        <ele>20</ele>
        <time>2021-10-16T07:21:19Z</time>
      </trkpt>
      <trkpt lat="43.81581" lon="-1.40289">
        <ele>19.8</ele>
        <time>2021-10-16T07:21:20Z</time>
      </trkpt>
      <trkpt lat="43.81583" lon="-1.40288">
        <ele>19.8</ele>
        <time>2021-10-16T07:21:21Z</time>
      </trkpt>
      <trkpt lat="43.81584" lon="-1.40288">
        <ele>19.8</ele>
        <time>2021-10-16T07:21:22Z</time>
      </trkpt>
      <trkpt lat="43.81586" lon="-1.40288">
        <ele>19.8</ele>
        <time>2021-10-16T07:21:23Z</time>
      </trkpt>
      <trkpt lat="43.81588" lon="-1.40287">
        <ele>19.8</ele>
        <time>2021-10-16T07:21:24Z</time>
      </trkpt>
      <trkpt lat="43.8159" lon="-1.40286">
        <ele>19.8</ele>
        <time>2021-10-16T07:21:25Z</time>
      </trkpt>
      <trkpt lat="43.81597" lon="-1.40281">
        <ele>20</ele>
        <time>2021-10-16T07:21:28Z</time>
      </trkpt>
      <trkpt lat="43.81598" lon="-1.40279">
        <ele>20</ele>
        <time>2021-10-16T07:21:29Z</time>
      </trkpt>
      <trkpt lat="43.81598" lon="-1.40275">
        <ele>20</ele>
        <time>2021-10-16T07:21:30Z</time>
      </trkpt>
      <trkpt lat="43.816" lon="-1.40274">
        <ele>20</ele>
        <time>2021-10-16T07:21:31Z</time>
      </trkpt>
      <trkpt lat="43.81602" lon="-1.40274">
        <ele>20</ele>
        <time>2021-10-16T07:21:32Z</time>
      </trkpt>
      <trkpt lat="43.81603" lon="-1.40276">
        <ele>20</ele>
        <time>2021-10-16T07:21:33Z</time>
      </trkpt>
      <trkpt lat="43.81607" lon="-1.40289">
        <ele>20</ele>
        <time>2021-10-16T07:21:36Z</time>
      </trkpt>
      <trkpt lat="43.81608" lon="-1.40293">
        <ele>20</ele>
        <time>2021-10-16T07:21:37Z</time>
      </trkpt>
      <trkpt lat="43.81609" lon="-1.40298">
        <ele>20</ele>
        <time>2021-10-16T07:21:38Z</time>
      </trkpt>
      <trkpt lat="43.81609" lon="-1.40313">
        <ele>20</ele>
        <time>2021-10-16T07:21:41Z</time>
      </trkpt>
      <trkpt lat="43.81609" lon="-1.40318">
        <ele>20</ele>
        <time>2021-10-16T07:21:42Z</time>
      </trkpt>
      <trkpt lat="43.81608" lon="-1.4032">
        <ele>20</ele>
        <time>2021-10-16T07:21:43Z</time>
      </trkpt>
      <trkpt lat="43.81608" lon="-1.40324">
        <ele>20</ele>
        <time>2021-10-16T07:21:44Z</time>
      </trkpt>
      <trkpt lat="43.81607" lon="-1.40327">
        <ele>20.4</ele>
        <time>2021-10-16T07:21:45Z</time>
      </trkpt>
      <trkpt lat="43.81606" lon="-1.4033">
        <ele>20.2</ele>
        <time>2021-10-16T07:21:46Z</time>
      </trkpt>
      <trkpt lat="43.81605" lon="-1.40333">
        <ele>20.4</ele>
        <time>2021-10-16T07:21:47Z</time>
      </trkpt>
      <trkpt lat="43.816" lon="-1.40345">
        <ele>20.4</ele>
        <time>2021-10-16T07:21:51Z</time>
      </trkpt>
      <trkpt lat="43.81599" lon="-1.40348">
        <ele>20.4</ele>
        <time>2021-10-16T07:21:52Z</time>
      </trkpt>
      <trkpt lat="43.81598" lon="-1.40351">
        <ele>20.4</ele>
        <time>2021-10-16T07:21:53Z</time>
      </trkpt>
      <trkpt lat="43.81597" lon="-1.40354">
        <ele>20.4</ele>
        <time>2021-10-16T07:21:54Z</time>
      </trkpt>
      <trkpt lat="43.81596" lon="-1.40356">
        <ele>20.4</ele>
        <time>2021-10-16T07:21:55Z</time>
      </trkpt>
      <trkpt lat="43.81595" lon="-1.40358">
        <ele>20.6</ele>
        <time>2021-10-16T07:21:56Z</time>
      </trkpt>
      <trkpt lat="43.81594" lon="-1.40361">
        <ele>20.6</ele>
        <time>2021-10-16T07:21:57Z</time>
      </trkpt>
      <trkpt lat="43.81593" lon="-1.40363">
        <ele>20.8</ele>
        <time>2021-10-16T07:21:58Z</time>
      </trkpt>
      <trkpt lat="43.81593" lon="-1.40365">
        <ele>21</ele>
        <time>2021-10-16T07:21:59Z</time>
      </trkpt>
      <trkpt lat="43.81592" lon="-1.40368">
        <ele>21.2</ele>
        <time>2021-10-16T07:22:00Z</time>
      </trkpt>
      <trkpt lat="43.81591" lon="-1.4037">
        <ele>21.4</ele>
        <time>2021-10-16T07:22:01Z</time>
      </trkpt>
      <trkpt lat="43.81591" lon="-1.40372">
        <ele>21.8</ele>
        <time>2021-10-16T07:22:02Z</time>
      </trkpt>
      <trkpt lat="43.8159" lon="-1.40374">
        <ele>22</ele>
        <time>2021-10-16T07:22:03Z</time>
      </trkpt>
      <trkpt lat="43.81589" lon="-1.40376">
        <ele>22.4</ele>
        <time>2021-10-16T07:22:04Z</time>
      </trkpt>
      <trkpt lat="43.81588" lon="-1.40379">
        <ele>22.6</ele>
        <time>2021-10-16T07:22:05Z</time>
      </trkpt>
      <trkpt lat="43.81588" lon="-1.40381">
        <ele>23.2</ele>
        <time>2021-10-16T07:22:06Z</time>
      </trkpt>
      <trkpt lat="43.81587" lon="-1.40383">
        <ele>23.2</ele>
        <time>2021-10-16T07:22:07Z</time>
      </trkpt>
      <trkpt lat="43.81587" lon="-1.40385">
        <ele>23.6</ele>
        <time>2021-10-16T07:22:08Z</time>
      </trkpt>
      <trkpt lat="43.81586" lon="-1.40387">
        <ele>23.8</ele>
        <time>2021-10-16T07:22:09Z</time>
      </trkpt>
      <trkpt lat="43.81586" lon="-1.40389">
        <ele>24.2</ele>
        <time>2021-10-16T07:22:10Z</time>
      </trkpt>
      <trkpt lat="43.81586" lon="-1.40391">
        <ele>24.4</ele>
        <time>2021-10-16T07:22:11Z</time>
      </trkpt>
      <trkpt lat="43.81585" lon="-1.40394">
        <ele>24.6</ele>
        <time>2021-10-16T07:22:12Z</time>
      </trkpt>
      <trkpt lat="43.81585" lon="-1.40396">
        <ele>24.8</ele>
        <time>2021-10-16T07:22:13Z</time>
      </trkpt>
      <trkpt lat="43.81585" lon="-1.40398">
        <ele>25.2</ele>
        <time>2021-10-16T07:22:14Z</time>
      </trkpt>
      <trkpt lat="43.81585" lon="-1.40401">
        <ele>25.2</ele>
        <time>2021-10-16T07:22:15Z</time>
      </trkpt>
      <trkpt lat="43.81585" lon="-1.40403">
        <ele>25.6</ele>
        <time>2021-10-16T07:22:16Z</time>
      </trkpt>
      <trkpt lat="43.81585" lon="-1.40405">
        <ele>25.8</ele>
        <time>2021-10-16T07:22:17Z</time>
      </trkpt>
      <trkpt lat="43.81585" lon="-1.40408">
        <ele>26</ele>
        <time>2021-10-16T07:22:18Z</time>
      </trkpt>
      <trkpt lat="43.81585" lon="-1.40411">
        <ele>26</ele>
        <time>2021-10-16T07:22:19Z</time>
      </trkpt>
      <trkpt lat="43.81585" lon="-1.40413">
        <ele>26.2</ele>
        <time>2021-10-16T07:22:20Z</time>
      </trkpt>
      <trkpt lat="43.81585" lon="-1.40416">
        <ele>26.4</ele>
        <time>2021-10-16T07:22:21Z</time>
      </trkpt>
      <trkpt lat="43.81585" lon="-1.40419">
        <ele>26.6</ele>
        <time>2021-10-16T07:22:22Z</time>
      </trkpt>
      <trkpt lat="43.81586" lon="-1.40421">
        <ele>26.8</ele>
        <time>2021-10-16T07:22:23Z</time>
      </trkpt>
      <trkpt lat="43.81586" lon="-1.40424">
        <ele>26.8</ele>
        <time>2021-10-16T07:22:24Z</time>
      </trkpt>
      <trkpt lat="43.81585" lon="-1.40426">
        <ele>27</ele>
        <time>2021-10-16T07:22:25Z</time>
      </trkpt>
      <trkpt lat="43.81585" lon="-1.40428">
        <ele>27</ele>
        <time>2021-10-16T07:22:26Z</time>
      </trkpt>
      <trkpt lat="43.81585" lon="-1.40431">
        <ele>27</ele>
        <time>2021-10-16T07:22:27Z</time>
      </trkpt>
      <trkpt lat="43.81585" lon="-1.40433">
        <ele>27</ele>
        <time>2021-10-16T07:22:28Z</time>
      </trkpt>
      <trkpt lat="43.81585" lon="-1.40436">
        <ele>27</ele>
        <time>2021-10-16T07:22:29Z</time>
      </trkpt>
      <trkpt lat="43.81585" lon="-1.40438">
        <ele>27</ele>
        <time>2021-10-16T07:22:30Z</time>
      </trkpt>
      <trkpt lat="43.81585" lon="-1.40441">
        <ele>27</ele>
        <time>2021-10-16T07:22:31Z</time>
      </trkpt>
      <trkpt lat="43.81585" lon="-1.40444">
        <ele>27</ele>
        <time>2021-10-16T07:22:32Z</time>
      </trkpt>
      <trkpt lat="43.81585" lon="-1.40445">
        <ele>27</ele>
        <time>2021-10-16T07:22:33Z</time>
      </trkpt>
      <trkpt lat="43.81585" lon="-1.40448">
        <ele>27.2</ele>
        <time>2021-10-16T07:22:34Z</time>
      </trkpt>
      <trkpt lat="43.81585" lon="-1.4045">
        <ele>27.2</ele>
        <time>2021-10-16T07:22:35Z</time>
      </trkpt>
      <trkpt lat="43.81585" lon="-1.40452">
        <ele>27.2</ele>
        <time>2021-10-16T07:22:36Z</time>
      </trkpt>
      <trkpt lat="43.81585" lon="-1.40454">
        <ele>27.4</ele>
        <time>2021-10-16T07:22:37Z</time>
      </trkpt>
      <trkpt lat="43.81586" lon="-1.40456">
        <ele>27.4</ele>
        <time>2021-10-16T07:22:38Z</time>
      </trkpt>
      <trkpt lat="43.81586" lon="-1.40458">
        <ele>27.6</ele>
        <time>2021-10-16T07:22:39Z</time>
      </trkpt>
      <trkpt lat="43.81587" lon="-1.40459">
        <ele>27.6</ele>
        <time>2021-10-16T07:22:40Z</time>
      </trkpt>
      <trkpt lat="43.81587" lon="-1.4046">
        <ele>27.6</ele>
        <time>2021-10-16T07:22:41Z</time>
      </trkpt>
      <trkpt lat="43.81588" lon="-1.40461">
        <ele>27.8</ele>
        <time>2021-10-16T07:22:42Z</time>
      </trkpt>
      <trkpt lat="43.81588" lon="-1.40463">
        <ele>27.8</ele>
        <time>2021-10-16T07:22:43Z</time>
      </trkpt>
      <trkpt lat="43.81588" lon="-1.40464">
        <ele>27.8</ele>
        <time>2021-10-16T07:22:44Z</time>
      </trkpt>
      <trkpt lat="43.81589" lon="-1.40465">
        <ele>27.8</ele>
        <time>2021-10-16T07:22:45Z</time>
      </trkpt>
      <trkpt lat="43.81589" lon="-1.40466">
        <ele>27.8</ele>
        <time>2021-10-16T07:22:46Z</time>
      </trkpt>
      <trkpt lat="43.8159" lon="-1.40467">
        <ele>27.8</ele>
        <time>2021-10-16T07:22:47Z</time>
      </trkpt>
      <trkpt lat="43.8159" lon="-1.40468">
        <ele>27.8</ele>
        <time>2021-10-16T07:22:48Z</time>
      </trkpt>
      <trkpt lat="43.81591" lon="-1.40469">
        <ele>27.8</ele>
        <time>2021-10-16T07:22:49Z</time>
      </trkpt>
      <trkpt lat="43.81591" lon="-1.4047">
        <ele>27.8</ele>
        <time>2021-10-16T07:22:50Z</time>
      </trkpt>
      <trkpt lat="43.81591" lon="-1.4047">
        <ele>27.8</ele>
        <time>2021-10-16T07:22:54Z</time>
      </trkpt>
      <trkpt lat="43.81591" lon="-1.4047">
        <ele>28</ele>
        <time>2021-10-16T07:24:42Z</time>
      </trkpt>
      <trkpt lat="43.8159" lon="-1.40464">
        <ele>28</ele>
        <time>2021-10-16T07:24:46Z</time>
      </trkpt>
      <trkpt lat="43.81589" lon="-1.40461">
        <ele>28</ele>
        <time>2021-10-16T07:24:47Z</time>
      </trkpt>
      <trkpt lat="43.81588" lon="-1.40459">
        <ele>28</ele>
        <time>2021-10-16T07:24:48Z</time>
      </trkpt>
      <trkpt lat="43.81587" lon="-1.40458">
        <ele>28</ele>
        <time>2021-10-16T07:24:49Z</time>
      </trkpt>
      <trkpt lat="43.81586" lon="-1.40457">
        <ele>28</ele>
        <time>2021-10-16T07:24:50Z</time>
      </trkpt>
      <trkpt lat="43.81585" lon="-1.40456">
        <ele>28</ele>
        <time>2021-10-16T07:24:51Z</time>
      </trkpt>
      <trkpt lat="43.81583" lon="-1.40457">
        <ele>28</ele>
        <time>2021-10-16T07:24:52Z</time>
      </trkpt>
      <trkpt lat="43.81582" lon="-1.40459">
        <ele>28</ele>
        <time>2021-10-16T07:24:54Z</time>
      </trkpt>
      <trkpt lat="43.81582" lon="-1.40463">
        <ele>28</ele>
        <time>2021-10-16T07:24:56Z</time>
      </trkpt>
      <trkpt lat="43.81582" lon="-1.40464">
        <ele>28</ele>
        <time>2021-10-16T07:24:57Z</time>
      </trkpt>
      <trkpt lat="43.81582" lon="-1.40466">
        <ele>28.2</ele>
        <time>2021-10-16T07:24:58Z</time>
      </trkpt>
      <trkpt lat="43.81581" lon="-1.40469">
        <ele>28.4</ele>
        <time>2021-10-16T07:25:00Z</time>
      </trkpt>
      <trkpt lat="43.8158" lon="-1.4047">
        <ele>28.4</ele>
        <time>2021-10-16T07:25:01Z</time>
      </trkpt>
      <trkpt lat="43.81578" lon="-1.40471">
        <ele>28.4</ele>
        <time>2021-10-16T07:25:03Z</time>
      </trkpt>
      <trkpt lat="43.81577" lon="-1.40471">
        <ele>28.4</ele>
        <time>2021-10-16T07:25:04Z</time>
      </trkpt>
      <trkpt lat="43.81575" lon="-1.40472">
        <ele>28.4</ele>
        <time>2021-10-16T07:25:05Z</time>
      </trkpt>
      <trkpt lat="43.81575" lon="-1.40473">
        <ele>28.4</ele>
        <time>2021-10-16T07:25:06Z</time>
      </trkpt>
      <trkpt lat="43.81574" lon="-1.40474">
        <ele>28.4</ele>
        <time>2021-10-16T07:25:07Z</time>
      </trkpt>
      <trkpt lat="43.81574" lon="-1.40476">
        <ele>28.4</ele>
        <time>2021-10-16T07:25:08Z</time>
      </trkpt>
      <trkpt lat="43.81574" lon="-1.40481">
        <ele>28.4</ele>
        <time>2021-10-16T07:25:11Z</time>
      </trkpt>
      <trkpt lat="43.81574" lon="-1.40483">
        <ele>28.4</ele>
        <time>2021-10-16T07:25:12Z</time>
      </trkpt>
      <trkpt lat="43.81575" lon="-1.40491">
        <ele>28.4</ele>
        <time>2021-10-16T07:25:18Z</time>
      </trkpt>
      <trkpt lat="43.81575" lon="-1.40491">
        <ele>28.2</ele>
        <time>2021-10-16T07:25:30Z</time>
      </trkpt>
      <trkpt lat="43.81575" lon="-1.40483">
        <ele>28.2</ele>
        <time>2021-10-16T07:27:19Z</time>
      </trkpt>
      <trkpt lat="43.81575" lon="-1.40473">
        <ele>28.2</ele>
        <time>2021-10-16T07:27:23Z</time>
      </trkpt>
      <trkpt lat="43.81577" lon="-1.40472">
        <ele>28.2</ele>
        <time>2021-10-16T07:27:24Z</time>
      </trkpt>
      <trkpt lat="43.81578" lon="-1.4047">
        <ele>28.4</ele>
        <time>2021-10-16T07:27:25Z</time>
      </trkpt>
      <trkpt lat="43.81581" lon="-1.40467">
        <ele>28.4</ele>
        <time>2021-10-16T07:27:27Z</time>
      </trkpt>
      <trkpt lat="43.81582" lon="-1.40466">
        <ele>28.4</ele>
        <time>2021-10-16T07:27:28Z</time>
      </trkpt>
      <trkpt lat="43.81583" lon="-1.40463">
        <ele>28.4</ele>
        <time>2021-10-16T07:27:29Z</time>
      </trkpt>
      <trkpt lat="43.81584" lon="-1.4046">
        <ele>28.4</ele>
        <time>2021-10-16T07:27:30Z</time>
      </trkpt>
      <trkpt lat="43.81584" lon="-1.40457">
        <ele>28.6</ele>
        <time>2021-10-16T07:27:31Z</time>
      </trkpt>
      <trkpt lat="43.81585" lon="-1.40453">
        <ele>28.6</ele>
        <time>2021-10-16T07:27:32Z</time>
      </trkpt>
      <trkpt lat="43.81585" lon="-1.40435">
        <ele>28.4</ele>
        <time>2021-10-16T07:27:37Z</time>
      </trkpt>
      <trkpt lat="43.81586" lon="-1.40431">
        <ele>28.2</ele>
        <time>2021-10-16T07:27:38Z</time>
      </trkpt>
      <trkpt lat="43.81586" lon="-1.40428">
        <ele>28.2</ele>
        <time>2021-10-16T07:27:39Z</time>
      </trkpt>
      <trkpt lat="43.81583" lon="-1.40412">
        <ele>27.6</ele>
        <time>2021-10-16T07:27:43Z</time>
      </trkpt>
      <trkpt lat="43.81586" lon="-1.40375">
        <ele>26.8</ele>
        <time>2021-10-16T07:27:52Z</time>
      </trkpt>
      <trkpt lat="43.81593" lon="-1.40359">
        <ele>25.6</ele>
        <time>2021-10-16T07:27:57Z</time>
      </trkpt>
      <trkpt lat="43.81594" lon="-1.40356">
        <ele>25.4</ele>
        <time>2021-10-16T07:27:58Z</time>
      </trkpt>
      <trkpt lat="43.81595" lon="-1.40353">
        <ele>24.8</ele>
        <time>2021-10-16T07:27:59Z</time>
      </trkpt>
      <trkpt lat="43.81595" lon="-1.4035">
        <ele>24.6</ele>
        <time>2021-10-16T07:28:00Z</time>
      </trkpt>
      <trkpt lat="43.81596" lon="-1.40347">
        <ele>23.8</ele>
        <time>2021-10-16T07:28:01Z</time>
      </trkpt>
      <trkpt lat="43.81597" lon="-1.40346">
        <ele>23.6</ele>
        <time>2021-10-16T07:28:02Z</time>
      </trkpt>
      <trkpt lat="43.81598" lon="-1.40345">
        <ele>23</ele>
        <time>2021-10-16T07:28:03Z</time>
      </trkpt>
      <trkpt lat="43.816" lon="-1.40345">
        <ele>22.6</ele>
        <time>2021-10-16T07:28:04Z</time>
      </trkpt>
      <trkpt lat="43.81601" lon="-1.40344">
        <ele>22.2</ele>
        <time>2021-10-16T07:28:05Z</time>
      </trkpt>
      <trkpt lat="43.81602" lon="-1.40342">
        <ele>21.8</ele>
        <time>2021-10-16T07:28:06Z</time>
      </trkpt>
      <trkpt lat="43.81602" lon="-1.4034">
        <ele>21.2</ele>
        <time>2021-10-16T07:28:07Z</time>
      </trkpt>
      <trkpt lat="43.81601" lon="-1.40338">
        <ele>21.2</ele>
        <time>2021-10-16T07:28:08Z</time>
      </trkpt>
      <trkpt lat="43.816" lon="-1.40334">
        <ele>20.6</ele>
        <time>2021-10-16T07:28:10Z</time>
      </trkpt>
      <trkpt lat="43.816" lon="-1.40332">
        <ele>20.4</ele>
        <time>2021-10-16T07:28:11Z</time>
      </trkpt>
      <trkpt lat="43.816" lon="-1.40328">
        <ele>20.2</ele>
        <time>2021-10-16T07:28:13Z</time>
      </trkpt>
      <trkpt lat="43.81601" lon="-1.40325">
        <ele>20</ele>
        <time>2021-10-16T07:28:14Z</time>
      </trkpt>
      <trkpt lat="43.81603" lon="-1.40324">
        <ele>20</ele>
        <time>2021-10-16T07:28:15Z</time>
      </trkpt>
      <trkpt lat="43.8161" lon="-1.40323">
        <ele>20</ele>
        <time>2021-10-16T07:28:19Z</time>
      </trkpt>
      <trkpt lat="43.81611" lon="-1.40326">
        <ele>19.8</ele>
        <time>2021-10-16T07:28:22Z</time>
      </trkpt>
      <trkpt lat="43.8161" lon="-1.40326">
        <ele>19.8</ele>
        <time>2021-10-16T07:28:23Z</time>
      </trkpt>
      <trkpt lat="43.81609" lon="-1.40327">
        <ele>19.8</ele>
        <time>2021-10-16T07:28:24Z</time>
      </trkpt>
      <trkpt lat="43.81604" lon="-1.40325">
        <ele>19.8</ele>
        <time>2021-10-16T07:28:27Z</time>
      </trkpt>
      <trkpt lat="43.816" lon="-1.40321">
        <ele>19.8</ele>
        <time>2021-10-16T07:28:29Z</time>
      </trkpt>
      <trkpt lat="43.81599" lon="-1.40319">
        <ele>19.8</ele>
        <time>2021-10-16T07:28:30Z</time>
      </trkpt>
      <trkpt lat="43.81598" lon="-1.40316">
        <ele>19.8</ele>
        <time>2021-10-16T07:28:31Z</time>
      </trkpt>
      <trkpt lat="43.81596" lon="-1.40313">
        <ele>19.8</ele>
        <time>2021-10-16T07:28:32Z</time>
      </trkpt>
      <trkpt lat="43.81594" lon="-1.40308">
        <ele>19.8</ele>
        <time>2021-10-16T07:28:34Z</time>
      </trkpt>
      <trkpt lat="43.81594" lon="-1.40298">
        <ele>19.8</ele>
        <time>2021-10-16T07:28:37Z</time>
      </trkpt>
      <trkpt lat="43.81595" lon="-1.40294">
        <ele>19.8</ele>
        <time>2021-10-16T07:28:38Z</time>
      </trkpt>
      <trkpt lat="43.81596" lon="-1.40292">
        <ele>19.8</ele>
        <time>2021-10-16T07:28:39Z</time>
      </trkpt>
      <trkpt lat="43.81598" lon="-1.40288">
        <ele>19.8</ele>
        <time>2021-10-16T07:28:40Z</time>
      </trkpt>
      <trkpt lat="43.81599" lon="-1.40285">
        <ele>19.8</ele>
        <time>2021-10-16T07:28:41Z</time>
      </trkpt>
      <trkpt lat="43.81598" lon="-1.40273">
        <ele>19.8</ele>
        <time>2021-10-16T07:28:44Z</time>
      </trkpt>
      <trkpt lat="43.81597" lon="-1.4027">
        <ele>19.8</ele>
        <time>2021-10-16T07:28:45Z</time>
      </trkpt>
      <trkpt lat="43.81596" lon="-1.40266">
        <ele>19.6</ele>
        <time>2021-10-16T07:28:46Z</time>
      </trkpt>
      <trkpt lat="43.81595" lon="-1.40261">
        <ele>19.8</ele>
        <time>2021-10-16T07:28:47Z</time>
      </trkpt>
      <trkpt lat="43.81591" lon="-1.40233">
        <ele>19.6</ele>
        <time>2021-10-16T07:28:53Z</time>
      </trkpt>
      <trkpt lat="43.81583" lon="-1.40186">
        <ele>19.2</ele>
        <time>2021-10-16T07:29:03Z</time>
      </trkpt>
      <trkpt lat="43.81581" lon="-1.40177">
        <ele>19</ele>
        <time>2021-10-16T07:29:05Z</time>
      </trkpt>
      <trkpt lat="43.8158" lon="-1.40172">
        <ele>19</ele>
        <time>2021-10-16T07:29:06Z</time>
      </trkpt>
      <trkpt lat="43.81579" lon="-1.40168">
        <ele>18.8</ele>
        <time>2021-10-16T07:29:07Z</time>
      </trkpt>
      <trkpt lat="43.81579" lon="-1.40164">
        <ele>18.8</ele>
        <time>2021-10-16T07:29:08Z</time>
      </trkpt>
      <trkpt lat="43.81578" lon="-1.4016">
        <ele>18.8</ele>
        <time>2021-10-16T07:29:09Z</time>
      </trkpt>
      <trkpt lat="43.81578" lon="-1.40156">
        <ele>18.8</ele>
        <time>2021-10-16T07:29:10Z</time>
      </trkpt>
      <trkpt lat="43.81577" lon="-1.40152">
        <ele>18.8</ele>
        <time>2021-10-16T07:29:11Z</time>
      </trkpt>
      <trkpt lat="43.81576" lon="-1.40146">
        <ele>18.8</ele>
        <time>2021-10-16T07:29:12Z</time>
      </trkpt>
      <trkpt lat="43.81576" lon="-1.40142">
        <ele>18.6</ele>
        <time>2021-10-16T07:29:13Z</time>
      </trkpt>
      <trkpt lat="43.81575" lon="-1.40137">
        <ele>18.6</ele>
        <time>2021-10-16T07:29:14Z</time>
      </trkpt>
      <trkpt lat="43.81574" lon="-1.40132">
        <ele>18.6</ele>
        <time>2021-10-16T07:29:15Z</time>
      </trkpt>
      <trkpt lat="43.81568" lon="-1.40102">
        <ele>18.6</ele>
        <time>2021-10-16T07:29:22Z</time>
      </trkpt>
      <trkpt lat="43.81564" lon="-1.40098">
        <ele>18.4</ele>
        <time>2021-10-16T07:29:24Z</time>
      </trkpt>
      <trkpt lat="43.81562" lon="-1.40096">
        <ele>18.4</ele>
        <time>2021-10-16T07:29:25Z</time>
      </trkpt>
      <trkpt lat="43.81561" lon="-1.40094">
        <ele>18.2</ele>
        <time>2021-10-16T07:29:26Z</time>
      </trkpt>
      <trkpt lat="43.81559" lon="-1.40093">
        <ele>18.2</ele>
        <time>2021-10-16T07:29:27Z</time>
      </trkpt>
      <trkpt lat="43.81557" lon="-1.40091">
        <ele>18.2</ele>
        <time>2021-10-16T07:29:28Z</time>
      </trkpt>
      <trkpt lat="43.81553" lon="-1.40092">
        <ele>18</ele>
        <time>2021-10-16T07:29:30Z</time>
      </trkpt>
      <trkpt lat="43.81548" lon="-1.40095">
        <ele>18</ele>
        <time>2021-10-16T07:29:32Z</time>
      </trkpt>
      <trkpt lat="43.81546" lon="-1.40096">
        <ele>18</ele>
        <time>2021-10-16T07:29:33Z</time>
      </trkpt>
      <trkpt lat="43.81535" lon="-1.40098">
        <ele>18.2</ele>
        <time>2021-10-16T07:29:37Z</time>
      </trkpt>
      <trkpt lat="43.81515" lon="-1.40102">
        <ele>18.6</ele>
        <time>2021-10-16T07:29:44Z</time>
      </trkpt>
      <trkpt lat="43.81509" lon="-1.40101">
        <ele>18.6</ele>
        <time>2021-10-16T07:29:47Z</time>
      </trkpt>
      <trkpt lat="43.81508" lon="-1.40102">
        <ele>18.6</ele>
        <time>2021-10-16T07:29:48Z</time>
      </trkpt>
      <trkpt lat="43.81507" lon="-1.40102">
        <ele>18.6</ele>
        <time>2021-10-16T07:29:49Z</time>
      </trkpt>
      <trkpt lat="43.81506" lon="-1.40102">
        <ele>18.6</ele>
        <time>2021-10-16T07:29:50Z</time>
      </trkpt>
      <trkpt lat="43.81504" lon="-1.40103">
        <ele>18.8</ele>
        <time>2021-10-16T07:29:51Z</time>
      </trkpt>
      <trkpt lat="43.81503" lon="-1.40104">
        <ele>18.8</ele>
        <time>2021-10-16T07:29:52Z</time>
      </trkpt>
      <trkpt lat="43.81492" lon="-1.40108">
        <ele>19</ele>
        <time>2021-10-16T07:29:57Z</time>
      </trkpt>
      <trkpt lat="43.81471" lon="-1.40115">
        <ele>19</ele>
        <time>2021-10-16T07:30:03Z</time>
      </trkpt>
      <trkpt lat="43.81445" lon="-1.40128">
        <ele>18.2</ele>
        <time>2021-10-16T07:30:08Z</time>
      </trkpt>
      <trkpt lat="43.81439" lon="-1.40131">
        <ele>17.8</ele>
        <time>2021-10-16T07:30:09Z</time>
      </trkpt>
      <trkpt lat="43.81434" lon="-1.40134">
        <ele>17.2</ele>
        <time>2021-10-16T07:30:10Z</time>
      </trkpt>
      <trkpt lat="43.81428" lon="-1.40138">
        <ele>17</ele>
        <time>2021-10-16T07:30:11Z</time>
      </trkpt>
      <trkpt lat="43.81423" lon="-1.40143">
        <ele>16.6</ele>
        <time>2021-10-16T07:30:12Z</time>
      </trkpt>
      <trkpt lat="43.81419" lon="-1.40148">
        <ele>16.2</ele>
        <time>2021-10-16T07:30:13Z</time>
      </trkpt>
      <trkpt lat="43.81416" lon="-1.40153">
        <ele>15.8</ele>
        <time>2021-10-16T07:30:14Z</time>
      </trkpt>
      <trkpt lat="43.81413" lon="-1.40159">
        <ele>15.6</ele>
        <time>2021-10-16T07:30:15Z</time>
      </trkpt>
      <trkpt lat="43.81409" lon="-1.40165">
        <ele>15.4</ele>
        <time>2021-10-16T07:30:16Z</time>
      </trkpt>
      <trkpt lat="43.81405" lon="-1.40171">
        <ele>15.4</ele>
        <time>2021-10-16T07:30:17Z</time>
      </trkpt>
      <trkpt lat="43.81402" lon="-1.40177">
        <ele>15.2</ele>
        <time>2021-10-16T07:30:18Z</time>
      </trkpt>
      <trkpt lat="43.81395" lon="-1.40186">
        <ele>15.2</ele>
        <time>2021-10-16T07:30:20Z</time>
      </trkpt>
      <trkpt lat="43.81391" lon="-1.40189">
        <ele>15.2</ele>
        <time>2021-10-16T07:30:21Z</time>
      </trkpt>
      <trkpt lat="43.81386" lon="-1.40191">
        <ele>15.2</ele>
        <time>2021-10-16T07:30:22Z</time>
      </trkpt>
      <trkpt lat="43.81382" lon="-1.40192">
        <ele>15.2</ele>
        <time>2021-10-16T07:30:23Z</time>
      </trkpt>
      <trkpt lat="43.81377" lon="-1.40191">
        <ele>15.2</ele>
        <time>2021-10-16T07:30:24Z</time>
      </trkpt>
      <trkpt lat="43.81373" lon="-1.4019">
        <ele>15.2</ele>
        <time>2021-10-16T07:30:25Z</time>
      </trkpt>
      <trkpt lat="43.81369" lon="-1.40188">
        <ele>15.2</ele>
        <time>2021-10-16T07:30:26Z</time>
      </trkpt>
      <trkpt lat="43.81365" lon="-1.40185">
        <ele>15.2</ele>
        <time>2021-10-16T07:30:27Z</time>
      </trkpt>
      <trkpt lat="43.8136" lon="-1.4018">
        <ele>15.2</ele>
        <time>2021-10-16T07:30:28Z</time>
      </trkpt>
      <trkpt lat="43.81356" lon="-1.40175">
        <ele>15.2</ele>
        <time>2021-10-16T07:30:29Z</time>
      </trkpt>
      <trkpt lat="43.81352" lon="-1.4017">
        <ele>15</ele>
        <time>2021-10-16T07:30:30Z</time>
      </trkpt>
      <trkpt lat="43.81339" lon="-1.40162">
        <ele>14.6</ele>
        <time>2021-10-16T07:30:32Z</time>
      </trkpt>
      <trkpt lat="43.81332" lon="-1.4016">
        <ele>14.2</ele>
        <time>2021-10-16T07:30:33Z</time>
      </trkpt>
      <trkpt lat="43.81326" lon="-1.4016">
        <ele>14</ele>
        <time>2021-10-16T07:30:34Z</time>
      </trkpt>
      <trkpt lat="43.8132" lon="-1.40159">
        <ele>13.6</ele>
        <time>2021-10-16T07:30:35Z</time>
      </trkpt>
      <trkpt lat="43.81315" lon="-1.40157">
        <ele>13.6</ele>
        <time>2021-10-16T07:30:36Z</time>
      </trkpt>
      <trkpt lat="43.8131" lon="-1.40152">
        <ele>13.2</ele>
        <time>2021-10-16T07:30:37Z</time>
      </trkpt>
      <trkpt lat="43.81305" lon="-1.40146">
        <ele>13.2</ele>
        <time>2021-10-16T07:30:38Z</time>
      </trkpt>
      <trkpt lat="43.81303" lon="-1.40139">
        <ele>13</ele>
        <time>2021-10-16T07:30:39Z</time>
      </trkpt>
      <trkpt lat="43.81301" lon="-1.40133">
        <ele>13</ele>
        <time>2021-10-16T07:30:40Z</time>
      </trkpt>
      <trkpt lat="43.813" lon="-1.40127">
        <ele>12.8</ele>
        <time>2021-10-16T07:30:41Z</time>
      </trkpt>
      <trkpt lat="43.81299" lon="-1.40123">
        <ele>12.8</ele>
        <time>2021-10-16T07:30:42Z</time>
      </trkpt>
      <trkpt lat="43.81299" lon="-1.40119">
        <ele>12.8</ele>
        <time>2021-10-16T07:30:43Z</time>
      </trkpt>
      <trkpt lat="43.81298" lon="-1.40116">
        <ele>12.8</ele>
        <time>2021-10-16T07:30:44Z</time>
      </trkpt>
      <trkpt lat="43.81298" lon="-1.40113">
        <ele>12.8</ele>
        <time>2021-10-16T07:30:45Z</time>
      </trkpt>
      <trkpt lat="43.81297" lon="-1.40111">
        <ele>12.8</ele>
        <time>2021-10-16T07:30:46Z</time>
      </trkpt>
      <trkpt lat="43.81297" lon="-1.40108">
        <ele>13</ele>
        <time>2021-10-16T07:30:47Z</time>
      </trkpt>
      <trkpt lat="43.81296" lon="-1.40106">
        <ele>13.2</ele>
        <time>2021-10-16T07:30:48Z</time>
      </trkpt>
      <trkpt lat="43.81296" lon="-1.40104">
        <ele>13.6</ele>
        <time>2021-10-16T07:30:49Z</time>
      </trkpt>
      <trkpt lat="43.81295" lon="-1.40102">
        <ele>13.8</ele>
        <time>2021-10-16T07:30:50Z</time>
      </trkpt>
      <trkpt lat="43.81295" lon="-1.40099">
        <ele>14</ele>
        <time>2021-10-16T07:30:52Z</time>
      </trkpt>
      <trkpt lat="43.81295" lon="-1.40099">
        <ele>14.4</ele>
        <time>2021-10-16T07:30:53Z</time>
      </trkpt>
      <trkpt lat="43.81295" lon="-1.40099">
        <ele>14.6</ele>
        <time>2021-10-16T07:30:54Z</time>
      </trkpt>
      <trkpt lat="43.81295" lon="-1.40099">
        <ele>15.4</ele>
        <time>2021-10-16T07:31:04Z</time>
      </trkpt>
      <trkpt lat="43.81297" lon="-1.40102">
        <ele>15.2</ele>
        <time>2021-10-16T07:31:09Z</time>
      </trkpt>
      <trkpt lat="43.81297" lon="-1.40108">
        <ele>15.2</ele>
        <time>2021-10-16T07:31:11Z</time>
      </trkpt>
      <trkpt lat="43.81298" lon="-1.40112">
        <ele>15.2</ele>
        <time>2021-10-16T07:31:12Z</time>
      </trkpt>
      <trkpt lat="43.81298" lon="-1.40117">
        <ele>15.2</ele>
        <time>2021-10-16T07:31:13Z</time>
      </trkpt>
      <trkpt lat="43.81301" lon="-1.40134">
        <ele>14.8</ele>
        <time>2021-10-16T07:31:16Z</time>
      </trkpt>
      <trkpt lat="43.81307" lon="-1.40146">
        <ele>14.4</ele>
        <time>2021-10-16T07:31:18Z</time>
      </trkpt>
      <trkpt lat="43.81311" lon="-1.40151">
        <ele>14</ele>
        <time>2021-10-16T07:31:19Z</time>
      </trkpt>
      <trkpt lat="43.81316" lon="-1.40155">
        <ele>14</ele>
        <time>2021-10-16T07:31:20Z</time>
      </trkpt>
      <trkpt lat="43.81321" lon="-1.40157">
        <ele>13.6</ele>
        <time>2021-10-16T07:31:21Z</time>
      </trkpt>
      <trkpt lat="43.81326" lon="-1.40158">
        <ele>13.4</ele>
        <time>2021-10-16T07:31:22Z</time>
      </trkpt>
      <trkpt lat="43.8133" lon="-1.40158">
        <ele>13</ele>
        <time>2021-10-16T07:31:23Z</time>
      </trkpt>
      <trkpt lat="43.81334" lon="-1.40157">
        <ele>12.8</ele>
        <time>2021-10-16T07:31:24Z</time>
      </trkpt>
      <trkpt lat="43.81337" lon="-1.40157">
        <ele>12.8</ele>
        <time>2021-10-16T07:31:25Z</time>
      </trkpt>
      <trkpt lat="43.8134" lon="-1.40157">
        <ele>12.8</ele>
        <time>2021-10-16T07:31:26Z</time>
      </trkpt>
      <trkpt lat="43.81343" lon="-1.40158">
        <ele>12.6</ele>
        <time>2021-10-16T07:31:27Z</time>
      </trkpt>
      <trkpt lat="43.81346" lon="-1.4016">
        <ele>12.6</ele>
        <time>2021-10-16T07:31:28Z</time>
      </trkpt>
      <trkpt lat="43.81349" lon="-1.40162">
        <ele>12.6</ele>
        <time>2021-10-16T07:31:29Z</time>
      </trkpt>
      <trkpt lat="43.81351" lon="-1.40164">
        <ele>12.8</ele>
        <time>2021-10-16T07:31:30Z</time>
      </trkpt>
      <trkpt lat="43.81353" lon="-1.40167">
        <ele>12.8</ele>
        <time>2021-10-16T07:31:31Z</time>
      </trkpt>
      <trkpt lat="43.81359" lon="-1.40175">
        <ele>13</ele>
        <time>2021-10-16T07:31:34Z</time>
      </trkpt>
      <trkpt lat="43.81361" lon="-1.40178">
        <ele>13</ele>
        <time>2021-10-16T07:31:35Z</time>
      </trkpt>
      <trkpt lat="43.81364" lon="-1.4018">
        <ele>13.2</ele>
        <time>2021-10-16T07:31:36Z</time>
      </trkpt>
      <trkpt lat="43.81375" lon="-1.40184">
        <ele>13.6</ele>
        <time>2021-10-16T07:31:40Z</time>
      </trkpt>
      <trkpt lat="43.81378" lon="-1.40185">
        <ele>13.8</ele>
        <time>2021-10-16T07:31:41Z</time>
      </trkpt>
      <trkpt lat="43.81381" lon="-1.40185">
        <ele>14</ele>
        <time>2021-10-16T07:31:42Z</time>
      </trkpt>
      <trkpt lat="43.81383" lon="-1.40184">
        <ele>14</ele>
        <time>2021-10-16T07:31:43Z</time>
      </trkpt>
      <trkpt lat="43.81392" lon="-1.40177">
        <ele>14.8</ele>
        <time>2021-10-16T07:31:46Z</time>
      </trkpt>
      <trkpt lat="43.81395" lon="-1.40172">
        <ele>14.8</ele>
        <time>2021-10-16T07:31:47Z</time>
      </trkpt>
      <trkpt lat="43.81398" lon="-1.40168">
        <ele>14.8</ele>
        <time>2021-10-16T07:31:48Z</time>
      </trkpt>
      <trkpt lat="43.81408" lon="-1.40155">
        <ele>15</ele>
        <time>2021-10-16T07:31:51Z</time>
      </trkpt>
      <trkpt lat="43.81411" lon="-1.40152">
        <ele>15</ele>
        <time>2021-10-16T07:31:52Z</time>
      </trkpt>
      <trkpt lat="43.81417" lon="-1.40144">
        <ele>15</ele>
        <time>2021-10-16T07:31:54Z</time>
      </trkpt>
      <trkpt lat="43.8142" lon="-1.40141">
        <ele>15</ele>
        <time>2021-10-16T07:31:55Z</time>
      </trkpt>
      <trkpt lat="43.81428" lon="-1.40135">
        <ele>15</ele>
        <time>2021-10-16T07:31:57Z</time>
      </trkpt>
      <trkpt lat="43.81435" lon="-1.40129">
        <ele>15</ele>
        <time>2021-10-16T07:31:59Z</time>
      </trkpt>
      <trkpt lat="43.81453" lon="-1.40118">
        <ele>15.2</ele>
        <time>2021-10-16T07:32:04Z</time>
      </trkpt>
      <trkpt lat="43.81456" lon="-1.40116">
        <ele>15.2</ele>
        <time>2021-10-16T07:32:05Z</time>
      </trkpt>
      <trkpt lat="43.81459" lon="-1.40115">
        <ele>15.2</ele>
        <time>2021-10-16T07:32:06Z</time>
      </trkpt>
      <trkpt lat="43.81462" lon="-1.40114">
        <ele>15.4</ele>
        <time>2021-10-16T07:32:07Z</time>
      </trkpt>
      <trkpt lat="43.81465" lon="-1.40113">
        <ele>15.4</ele>
        <time>2021-10-16T07:32:08Z</time>
      </trkpt>
      <trkpt lat="43.81467" lon="-1.40112">
        <ele>15.6</ele>
        <time>2021-10-16T07:32:09Z</time>
      </trkpt>
      <trkpt lat="43.8147" lon="-1.40111">
        <ele>16</ele>
        <time>2021-10-16T07:32:10Z</time>
      </trkpt>
      <trkpt lat="43.81473" lon="-1.40111">
        <ele>16</ele>
        <time>2021-10-16T07:32:11Z</time>
      </trkpt>
      <trkpt lat="43.81475" lon="-1.40109">
        <ele>16.2</ele>
        <time>2021-10-16T07:32:12Z</time>
      </trkpt>
      <trkpt lat="43.81478" lon="-1.40108">
        <ele>16.4</ele>
        <time>2021-10-16T07:32:13Z</time>
      </trkpt>
      <trkpt lat="43.81483" lon="-1.40107">
        <ele>17</ele>
        <time>2021-10-16T07:32:15Z</time>
      </trkpt>
      <trkpt lat="43.81485" lon="-1.40106">
        <ele>17.2</ele>
        <time>2021-10-16T07:32:16Z</time>
      </trkpt>
      <trkpt lat="43.81488" lon="-1.40106">
        <ele>17.4</ele>
        <time>2021-10-16T07:32:17Z</time>
      </trkpt>
      <trkpt lat="43.8149" lon="-1.40105">
        <ele>17.8</ele>
        <time>2021-10-16T07:32:18Z</time>
      </trkpt>
      <trkpt lat="43.81493" lon="-1.40105">
        <ele>18</ele>
        <time>2021-10-16T07:32:19Z</time>
      </trkpt>
      <trkpt lat="43.81496" lon="-1.40104">
        <ele>18.2</ele>
        <time>2021-10-16T07:32:20Z</time>
      </trkpt>
      <trkpt lat="43.81498" lon="-1.40103">
        <ele>18.2</ele>
        <time>2021-10-16T07:32:21Z</time>
      </trkpt>
      <trkpt lat="43.81501" lon="-1.40101">
        <ele>18.6</ele>
        <time>2021-10-16T07:32:22Z</time>
      </trkpt>
      <trkpt lat="43.81504" lon="-1.40101">
        <ele>18.6</ele>
        <time>2021-10-16T07:32:23Z</time>
      </trkpt>
      <trkpt lat="43.81507" lon="-1.401">
        <ele>18.6</ele>
        <time>2021-10-16T07:32:24Z</time>
      </trkpt>
      <trkpt lat="43.8151" lon="-1.40099">
        <ele>18.6</ele>
        <time>2021-10-16T07:32:25Z</time>
      </trkpt>
      <trkpt lat="43.81513" lon="-1.40099">
        <ele>18.4</ele>
        <time>2021-10-16T07:32:26Z</time>
      </trkpt>
      <trkpt lat="43.81516" lon="-1.40099">
        <ele>18.6</ele>
        <time>2021-10-16T07:32:27Z</time>
      </trkpt>
      <trkpt lat="43.81519" lon="-1.40098">
        <ele>18.6</ele>
        <time>2021-10-16T07:32:28Z</time>
      </trkpt>
      <trkpt lat="43.81523" lon="-1.40097">
        <ele>18.6</ele>
        <time>2021-10-16T07:32:29Z</time>
      </trkpt>
      <trkpt lat="43.81526" lon="-1.40096">
        <ele>18.4</ele>
        <time>2021-10-16T07:32:30Z</time>
      </trkpt>
      <trkpt lat="43.8153" lon="-1.40096">
        <ele>18.4</ele>
        <time>2021-10-16T07:32:31Z</time>
      </trkpt>
      <trkpt lat="43.81533" lon="-1.40095">
        <ele>18.4</ele>
        <time>2021-10-16T07:32:32Z</time>
      </trkpt>
      <trkpt lat="43.81537" lon="-1.40094">
        <ele>18.4</ele>
        <time>2021-10-16T07:32:33Z</time>
      </trkpt>
      <trkpt lat="43.81541" lon="-1.40093">
        <ele>18.4</ele>
        <time>2021-10-16T07:32:34Z</time>
      </trkpt>
      <trkpt lat="43.81545" lon="-1.40093">
        <ele>18.4</ele>
        <time>2021-10-16T07:32:35Z</time>
      </trkpt>
      <trkpt lat="43.81548" lon="-1.40092">
        <ele>18.4</ele>
        <time>2021-10-16T07:32:36Z</time>
      </trkpt>
      <trkpt lat="43.81551" lon="-1.40091">
        <ele>18.4</ele>
        <time>2021-10-16T07:32:37Z</time>
      </trkpt>
      <trkpt lat="43.81553" lon="-1.40089">
        <ele>18.2</ele>
        <time>2021-10-16T07:32:38Z</time>
      </trkpt>
      <trkpt lat="43.81556" lon="-1.40087">
        <ele>18.2</ele>
        <time>2021-10-16T07:32:39Z</time>
      </trkpt>
      <trkpt lat="43.81558" lon="-1.40086">
        <ele>18.2</ele>
        <time>2021-10-16T07:32:40Z</time>
      </trkpt>
      <trkpt lat="43.81559" lon="-1.40084">
        <ele>18</ele>
        <time>2021-10-16T07:32:41Z</time>
      </trkpt>
      <trkpt lat="43.8156" lon="-1.40081">
        <ele>18</ele>
        <time>2021-10-16T07:32:42Z</time>
      </trkpt>
      <trkpt lat="43.81561" lon="-1.40079">
        <ele>18</ele>
        <time>2021-10-16T07:32:43Z</time>
      </trkpt>
      <trkpt lat="43.81562" lon="-1.40077">
        <ele>17.8</ele>
        <time>2021-10-16T07:32:44Z</time>
      </trkpt>
      <trkpt lat="43.81564" lon="-1.40073">
        <ele>17.8</ele>
        <time>2021-10-16T07:32:46Z</time>
      </trkpt>
      <trkpt lat="43.81565" lon="-1.40071">
        <ele>17.8</ele>
        <time>2021-10-16T07:32:47Z</time>
      </trkpt>
      <trkpt lat="43.81566" lon="-1.40069">
        <ele>17.8</ele>
        <time>2021-10-16T07:32:48Z</time>
      </trkpt>
      <trkpt lat="43.81566" lon="-1.40066">
        <ele>17.6</ele>
        <time>2021-10-16T07:32:49Z</time>
      </trkpt>
      <trkpt lat="43.81566" lon="-1.40064">
        <ele>17.6</ele>
        <time>2021-10-16T07:32:50Z</time>
      </trkpt>
      <trkpt lat="43.81567" lon="-1.4006">
        <ele>17.6</ele>
        <time>2021-10-16T07:32:51Z</time>
      </trkpt>
      <trkpt lat="43.81567" lon="-1.40057">
        <ele>17.6</ele>
        <time>2021-10-16T07:32:52Z</time>
      </trkpt>
      <trkpt lat="43.81567" lon="-1.40049">
        <ele>17.4</ele>
        <time>2021-10-16T07:32:54Z</time>
      </trkpt>
      <trkpt lat="43.81567" lon="-1.40036">
        <ele>17.2</ele>
        <time>2021-10-16T07:32:57Z</time>
      </trkpt>
      <trkpt lat="43.81567" lon="-1.40022">
        <ele>17</ele>
        <time>2021-10-16T07:33:00Z</time>
      </trkpt>
      <trkpt lat="43.81566" lon="-1.39977">
        <ele>16.2</ele>
        <time>2021-10-16T07:33:08Z</time>
      </trkpt>
      <trkpt lat="43.81566" lon="-1.39924">
        <ele>15.2</ele>
        <time>2021-10-16T07:33:15Z</time>
      </trkpt>
      <trkpt lat="43.81567" lon="-1.39916">
        <ele>15.2</ele>
        <time>2021-10-16T07:33:16Z</time>
      </trkpt>
      <trkpt lat="43.81567" lon="-1.39908">
        <ele>15</ele>
        <time>2021-10-16T07:33:17Z</time>
      </trkpt>
      <trkpt lat="43.81567" lon="-1.3986">
        <ele>14.4</ele>
        <time>2021-10-16T07:33:23Z</time>
      </trkpt>
      <trkpt lat="43.81567" lon="-1.39837">
        <ele>14</ele>
        <time>2021-10-16T07:33:26Z</time>
      </trkpt>
      <trkpt lat="43.81567" lon="-1.39815">
        <ele>13.8</ele>
        <time>2021-10-16T07:33:29Z</time>
      </trkpt>
      <trkpt lat="43.81568" lon="-1.39807">
        <ele>13.6</ele>
        <time>2021-10-16T07:33:30Z</time>
      </trkpt>
      <trkpt lat="43.81568" lon="-1.39744">
        <ele>13</ele>
        <time>2021-10-16T07:33:38Z</time>
      </trkpt>
      <trkpt lat="43.81569" lon="-1.39721">
        <ele>13</ele>
        <time>2021-10-16T07:33:41Z</time>
      </trkpt>
      <trkpt lat="43.81569" lon="-1.39714">
        <ele>13</ele>
        <time>2021-10-16T07:33:42Z</time>
      </trkpt>
      <trkpt lat="43.81568" lon="-1.397">
        <ele>12.8</ele>
        <time>2021-10-16T07:33:44Z</time>
      </trkpt>
      <trkpt lat="43.81569" lon="-1.39692">
        <ele>12.8</ele>
        <time>2021-10-16T07:33:45Z</time>
      </trkpt>
      <trkpt lat="43.81569" lon="-1.39685">
        <ele>12.8</ele>
        <time>2021-10-16T07:33:46Z</time>
      </trkpt>
      <trkpt lat="43.8157" lon="-1.39678">
        <ele>12.8</ele>
        <time>2021-10-16T07:33:47Z</time>
      </trkpt>
      <trkpt lat="43.8157" lon="-1.39671">
        <ele>12.8</ele>
        <time>2021-10-16T07:33:48Z</time>
      </trkpt>
      <trkpt lat="43.8157" lon="-1.39664">
        <ele>12.8</ele>
        <time>2021-10-16T07:33:49Z</time>
      </trkpt>
      <trkpt lat="43.8157" lon="-1.39657">
        <ele>12.8</ele>
        <time>2021-10-16T07:33:50Z</time>
      </trkpt>
      <trkpt lat="43.8157" lon="-1.3965">
        <ele>12.8</ele>
        <time>2021-10-16T07:33:51Z</time>
      </trkpt>
      <trkpt lat="43.8157" lon="-1.39643">
        <ele>12.8</ele>
        <time>2021-10-16T07:33:52Z</time>
      </trkpt>
      <trkpt lat="43.81571" lon="-1.39629">
        <ele>12.6</ele>
        <time>2021-10-16T07:33:54Z</time>
      </trkpt>
      <trkpt lat="43.81571" lon="-1.39622">
        <ele>12.6</ele>
        <time>2021-10-16T07:33:55Z</time>
      </trkpt>
      <trkpt lat="43.81571" lon="-1.39616">
        <ele>12.6</ele>
        <time>2021-10-16T07:33:56Z</time>
      </trkpt>
      <trkpt lat="43.81572" lon="-1.39609">
        <ele>12.6</ele>
        <time>2021-10-16T07:33:57Z</time>
      </trkpt>
      <trkpt lat="43.81572" lon="-1.39602">
        <ele>12.8</ele>
        <time>2021-10-16T07:33:58Z</time>
      </trkpt>
      <trkpt lat="43.81572" lon="-1.39595">
        <ele>12.6</ele>
        <time>2021-10-16T07:33:59Z</time>
      </trkpt>
      <trkpt lat="43.81572" lon="-1.39587">
        <ele>12.6</ele>
        <time>2021-10-16T07:34:00Z</time>
      </trkpt>
      <trkpt lat="43.81571" lon="-1.39579">
        <ele>12.6</ele>
        <time>2021-10-16T07:34:01Z</time>
      </trkpt>
      <trkpt lat="43.81572" lon="-1.39572">
        <ele>12.8</ele>
        <time>2021-10-16T07:34:02Z</time>
      </trkpt>
      <trkpt lat="43.81572" lon="-1.39566">
        <ele>12.8</ele>
        <time>2021-10-16T07:34:03Z</time>
      </trkpt>
      <trkpt lat="43.81572" lon="-1.3956">
        <ele>12.8</ele>
        <time>2021-10-16T07:34:04Z</time>
      </trkpt>
      <trkpt lat="43.81573" lon="-1.39552">
        <ele>12.8</ele>
        <time>2021-10-16T07:34:05Z</time>
      </trkpt>
      <trkpt lat="43.81573" lon="-1.39544">
        <ele>12.8</ele>
        <time>2021-10-16T07:34:06Z</time>
      </trkpt>
      <trkpt lat="43.81574" lon="-1.39536">
        <ele>12.8</ele>
        <time>2021-10-16T07:34:07Z</time>
      </trkpt>
      <trkpt lat="43.81575" lon="-1.39529">
        <ele>12.8</ele>
        <time>2021-10-16T07:34:08Z</time>
      </trkpt>
      <trkpt lat="43.81579" lon="-1.39507">
        <ele>12.8</ele>
        <time>2021-10-16T07:34:11Z</time>
      </trkpt>
      <trkpt lat="43.81589" lon="-1.39446">
        <ele>12.8</ele>
        <time>2021-10-16T07:34:19Z</time>
      </trkpt>
      <trkpt lat="43.81595" lon="-1.39427">
        <ele>12.6</ele>
        <time>2021-10-16T07:34:22Z</time>
      </trkpt>
      <trkpt lat="43.81595" lon="-1.39424">
        <ele>12.6</ele>
        <time>2021-10-16T07:34:23Z</time>
      </trkpt>
      <trkpt lat="43.81592" lon="-1.39423">
        <ele>12.6</ele>
        <time>2021-10-16T07:34:24Z</time>
      </trkpt>
      <trkpt lat="43.81586" lon="-1.39421">
        <ele>12.6</ele>
        <time>2021-10-16T07:34:25Z</time>
      </trkpt>
      <trkpt lat="43.81582" lon="-1.39421">
        <ele>12.6</ele>
        <time>2021-10-16T07:34:26Z</time>
      </trkpt>
      <trkpt lat="43.8158" lon="-1.39421">
        <ele>12.4</ele>
        <time>2021-10-16T07:34:27Z</time>
      </trkpt>
      <trkpt lat="43.81576" lon="-1.39421">
        <ele>12.4</ele>
        <time>2021-10-16T07:34:28Z</time>
      </trkpt>
      <trkpt lat="43.81573" lon="-1.39422">
        <ele>12.4</ele>
        <time>2021-10-16T07:34:29Z</time>
      </trkpt>
      <trkpt lat="43.81566" lon="-1.39422">
        <ele>12.4</ele>
        <time>2021-10-16T07:34:31Z</time>
      </trkpt>
      <trkpt lat="43.81553" lon="-1.39428">
        <ele>12.2</ele>
        <time>2021-10-16T07:34:35Z</time>
      </trkpt>
      <trkpt lat="43.8155" lon="-1.39431">
        <ele>12.2</ele>
        <time>2021-10-16T07:34:36Z</time>
      </trkpt>
      <trkpt lat="43.81545" lon="-1.39433">
        <ele>12.2</ele>
        <time>2021-10-16T07:34:37Z</time>
      </trkpt>
      <trkpt lat="43.81538" lon="-1.39439">
        <ele>12.2</ele>
        <time>2021-10-16T07:34:39Z</time>
      </trkpt>
      <trkpt lat="43.81522" lon="-1.3945">
        <ele>12</ele>
        <time>2021-10-16T07:34:43Z</time>
      </trkpt>
      <trkpt lat="43.81508" lon="-1.39453">
        <ele>12</ele>
        <time>2021-10-16T07:34:46Z</time>
      </trkpt>
      <trkpt lat="43.81504" lon="-1.39453">
        <ele>11.8</ele>
        <time>2021-10-16T07:34:47Z</time>
      </trkpt>
      <trkpt lat="43.81499" lon="-1.39453">
        <ele>11.8</ele>
        <time>2021-10-16T07:34:48Z</time>
      </trkpt>
      <trkpt lat="43.81493" lon="-1.39452">
        <ele>11.8</ele>
        <time>2021-10-16T07:34:49Z</time>
      </trkpt>
      <trkpt lat="43.81479" lon="-1.39454">
        <ele>11.8</ele>
        <time>2021-10-16T07:34:52Z</time>
      </trkpt>
      <trkpt lat="43.81476" lon="-1.39455">
        <ele>11.8</ele>
        <time>2021-10-16T07:34:53Z</time>
      </trkpt>
      <trkpt lat="43.81472" lon="-1.39456">
        <ele>11.8</ele>
        <time>2021-10-16T07:34:54Z</time>
      </trkpt>
      <trkpt lat="43.81468" lon="-1.39457">
        <ele>11.8</ele>
        <time>2021-10-16T07:34:55Z</time>
      </trkpt>
      <trkpt lat="43.81463" lon="-1.39459">
        <ele>11.8</ele>
        <time>2021-10-16T07:34:56Z</time>
      </trkpt>
      <trkpt lat="43.81459" lon="-1.39459">
        <ele>11.8</ele>
        <time>2021-10-16T07:34:57Z</time>
      </trkpt>
      <trkpt lat="43.81438" lon="-1.39463">
        <ele>11.8</ele>
        <time>2021-10-16T07:35:01Z</time>
      </trkpt>
      <trkpt lat="43.81433" lon="-1.39464">
        <ele>11.6</ele>
        <time>2021-10-16T07:35:02Z</time>
      </trkpt>
      <trkpt lat="43.81426" lon="-1.39464">
        <ele>11.8</ele>
        <time>2021-10-16T07:35:03Z</time>
      </trkpt>
      <trkpt lat="43.81411" lon="-1.3947">
        <ele>11.6</ele>
        <time>2021-10-16T07:35:06Z</time>
      </trkpt>
      <trkpt lat="43.81407" lon="-1.39473">
        <ele>11.6</ele>
        <time>2021-10-16T07:35:07Z</time>
      </trkpt>
      <trkpt lat="43.81404" lon="-1.39477">
        <ele>11.6</ele>
        <time>2021-10-16T07:35:08Z</time>
      </trkpt>
      <trkpt lat="43.81401" lon="-1.39484">
        <ele>11.6</ele>
        <time>2021-10-16T07:35:09Z</time>
      </trkpt>
      <trkpt lat="43.81398" lon="-1.39489">
        <ele>11.6</ele>
        <time>2021-10-16T07:35:10Z</time>
      </trkpt>
      <trkpt lat="43.81395" lon="-1.39493">
        <ele>11.6</ele>
        <time>2021-10-16T07:35:11Z</time>
      </trkpt>
      <trkpt lat="43.81394" lon="-1.39497">
        <ele>11.6</ele>
        <time>2021-10-16T07:35:12Z</time>
      </trkpt>
      <trkpt lat="43.81391" lon="-1.39502">
        <ele>11.6</ele>
        <time>2021-10-16T07:35:13Z</time>
      </trkpt>
      <trkpt lat="43.81388" lon="-1.39507">
        <ele>11.6</ele>
        <time>2021-10-16T07:35:14Z</time>
      </trkpt>
      <trkpt lat="43.81387" lon="-1.39512">
        <ele>11.4</ele>
        <time>2021-10-16T07:35:15Z</time>
      </trkpt>
      <trkpt lat="43.81386" lon="-1.39517">
        <ele>11.4</ele>
        <time>2021-10-16T07:35:16Z</time>
      </trkpt>
      <trkpt lat="43.81384" lon="-1.39522">
        <ele>11.4</ele>
        <time>2021-10-16T07:35:17Z</time>
      </trkpt>
      <trkpt lat="43.81366" lon="-1.39542">
        <ele>11</ele>
        <time>2021-10-16T07:35:21Z</time>
      </trkpt>
      <trkpt lat="43.8136" lon="-1.39545">
        <ele>11</ele>
        <time>2021-10-16T07:35:22Z</time>
      </trkpt>
      <trkpt lat="43.81355" lon="-1.3955">
        <ele>11</ele>
        <time>2021-10-16T07:35:23Z</time>
      </trkpt>
      <trkpt lat="43.81345" lon="-1.39559">
        <ele>11</ele>
        <time>2021-10-16T07:35:25Z</time>
      </trkpt>
      <trkpt lat="43.81342" lon="-1.39563">
        <ele>10.8</ele>
        <time>2021-10-16T07:35:26Z</time>
      </trkpt>
      <trkpt lat="43.81339" lon="-1.39567">
        <ele>10.8</ele>
        <time>2021-10-16T07:35:27Z</time>
      </trkpt>
      <trkpt lat="43.81328" lon="-1.39576">
        <ele>10.8</ele>
        <time>2021-10-16T07:35:29Z</time>
      </trkpt>
      <trkpt lat="43.8132" lon="-1.39584">
        <ele>10.6</ele>
        <time>2021-10-16T07:35:31Z</time>
      </trkpt>
      <trkpt lat="43.81317" lon="-1.39587">
        <ele>10.6</ele>
        <time>2021-10-16T07:35:32Z</time>
      </trkpt>
      <trkpt lat="43.81314" lon="-1.39591">
        <ele>10.6</ele>
        <time>2021-10-16T07:35:33Z</time>
      </trkpt>
      <trkpt lat="43.81295" lon="-1.39619">
        <ele>10.4</ele>
        <time>2021-10-16T07:35:38Z</time>
      </trkpt>
      <trkpt lat="43.81285" lon="-1.39637">
        <ele>10.4</ele>
        <time>2021-10-16T07:35:41Z</time>
      </trkpt>
      <trkpt lat="43.81282" lon="-1.39643">
        <ele>10.2</ele>
        <time>2021-10-16T07:35:42Z</time>
      </trkpt>
      <trkpt lat="43.81278" lon="-1.39648">
        <ele>10.2</ele>
        <time>2021-10-16T07:35:43Z</time>
      </trkpt>
      <trkpt lat="43.81274" lon="-1.39653">
        <ele>10</ele>
        <time>2021-10-16T07:35:44Z</time>
      </trkpt>
      <trkpt lat="43.81269" lon="-1.39657">
        <ele>10</ele>
        <time>2021-10-16T07:35:45Z</time>
      </trkpt>
      <trkpt lat="43.8126" lon="-1.39662">
        <ele>10</ele>
        <time>2021-10-16T07:35:47Z</time>
      </trkpt>
      <trkpt lat="43.81255" lon="-1.39664">
        <ele>9.8</ele>
        <time>2021-10-16T07:35:48Z</time>
      </trkpt>
      <trkpt lat="43.81251" lon="-1.39665">
        <ele>9.8</ele>
        <time>2021-10-16T07:35:49Z</time>
      </trkpt>
      <trkpt lat="43.81246" lon="-1.39666">
        <ele>9.8</ele>
        <time>2021-10-16T07:35:50Z</time>
      </trkpt>
      <trkpt lat="43.81242" lon="-1.39665">
        <ele>9.8</ele>
        <time>2021-10-16T07:35:51Z</time>
      </trkpt>
      <trkpt lat="43.81238" lon="-1.39664">
        <ele>9.8</ele>
        <time>2021-10-16T07:35:52Z</time>
      </trkpt>
      <trkpt lat="43.81234" lon="-1.39662">
        <ele>9.8</ele>
        <time>2021-10-16T07:35:53Z</time>
      </trkpt>
      <trkpt lat="43.8123" lon="-1.39661">
        <ele>10</ele>
        <time>2021-10-16T07:35:54Z</time>
      </trkpt>
      <trkpt lat="43.81227" lon="-1.3966">
        <ele>10</ele>
        <time>2021-10-16T07:35:55Z</time>
      </trkpt>
      <trkpt lat="43.81223" lon="-1.39659">
        <ele>10</ele>
        <time>2021-10-16T07:35:56Z</time>
      </trkpt>
      <trkpt lat="43.81219" lon="-1.39658">
        <ele>10</ele>
        <time>2021-10-16T07:35:57Z</time>
      </trkpt>
      <trkpt lat="43.81214" lon="-1.39658">
        <ele>10</ele>
        <time>2021-10-16T07:35:58Z</time>
      </trkpt>
      <trkpt lat="43.81205" lon="-1.39658">
        <ele>10.2</ele>
        <time>2021-10-16T07:36:00Z</time>
      </trkpt>
      <trkpt lat="43.81195" lon="-1.39661">
        <ele>10.2</ele>
        <time>2021-10-16T07:36:02Z</time>
      </trkpt>
      <trkpt lat="43.81191" lon="-1.39663">
        <ele>10.4</ele>
        <time>2021-10-16T07:36:03Z</time>
      </trkpt>
      <trkpt lat="43.81188" lon="-1.39665">
        <ele>10.4</ele>
        <time>2021-10-16T07:36:04Z</time>
      </trkpt>
      <trkpt lat="43.81184" lon="-1.39667">
        <ele>10.4</ele>
        <time>2021-10-16T07:36:05Z</time>
      </trkpt>
      <trkpt lat="43.8118" lon="-1.39668">
        <ele>10.4</ele>
        <time>2021-10-16T07:36:06Z</time>
      </trkpt>
      <trkpt lat="43.81176" lon="-1.3967">
        <ele>10.4</ele>
        <time>2021-10-16T07:36:07Z</time>
      </trkpt>
      <trkpt lat="43.8117" lon="-1.3967">
        <ele>10.4</ele>
        <time>2021-10-16T07:36:08Z</time>
      </trkpt>
      <trkpt lat="43.81166" lon="-1.39671">
        <ele>10.8</ele>
        <time>2021-10-16T07:36:09Z</time>
      </trkpt>
      <trkpt lat="43.81162" lon="-1.39673">
        <ele>10.8</ele>
        <time>2021-10-16T07:36:10Z</time>
      </trkpt>
      <trkpt lat="43.81156" lon="-1.39675">
        <ele>10.8</ele>
        <time>2021-10-16T07:36:11Z</time>
      </trkpt>
      <trkpt lat="43.81151" lon="-1.39676">
        <ele>10.8</ele>
        <time>2021-10-16T07:36:12Z</time>
      </trkpt>
      <trkpt lat="43.81144" lon="-1.39679">
        <ele>11.2</ele>
        <time>2021-10-16T07:36:14Z</time>
      </trkpt>
      <trkpt lat="43.81141" lon="-1.39682">
        <ele>11.2</ele>
        <time>2021-10-16T07:36:15Z</time>
      </trkpt>
      <trkpt lat="43.81135" lon="-1.39688">
        <ele>11.4</ele>
        <time>2021-10-16T07:36:17Z</time>
      </trkpt>
      <trkpt lat="43.81116" lon="-1.39712">
        <ele>11</ele>
        <time>2021-10-16T07:36:23Z</time>
      </trkpt>
      <trkpt lat="43.81113" lon="-1.39714">
        <ele>11</ele>
        <time>2021-10-16T07:36:24Z</time>
      </trkpt>
      <trkpt lat="43.8111" lon="-1.39716">
        <ele>11</ele>
        <time>2021-10-16T07:36:25Z</time>
      </trkpt>
      <trkpt lat="43.81106" lon="-1.39716">
        <ele>11</ele>
        <time>2021-10-16T07:36:26Z</time>
      </trkpt>
      <trkpt lat="43.81102" lon="-1.39716">
        <ele>11</ele>
        <time>2021-10-16T07:36:27Z</time>
      </trkpt>
      <trkpt lat="43.81097" lon="-1.39716">
        <ele>10.8</ele>
        <time>2021-10-16T07:36:28Z</time>
      </trkpt>
      <trkpt lat="43.8109" lon="-1.39715">
        <ele>10.8</ele>
        <time>2021-10-16T07:36:29Z</time>
      </trkpt>
      <trkpt lat="43.81072" lon="-1.39714">
        <ele>10.6</ele>
        <time>2021-10-16T07:36:32Z</time>
      </trkpt>
      <trkpt lat="43.81054" lon="-1.39715">
        <ele>10.4</ele>
        <time>2021-10-16T07:36:35Z</time>
      </trkpt>
      <trkpt lat="43.81049" lon="-1.39714">
        <ele>10.4</ele>
        <time>2021-10-16T07:36:36Z</time>
      </trkpt>
      <trkpt lat="43.81039" lon="-1.39712">
        <ele>10.2</ele>
        <time>2021-10-16T07:36:38Z</time>
      </trkpt>
      <trkpt lat="43.81034" lon="-1.39711">
        <ele>10.2</ele>
        <time>2021-10-16T07:36:39Z</time>
      </trkpt>
      <trkpt lat="43.81029" lon="-1.39709">
        <ele>10.2</ele>
        <time>2021-10-16T07:36:40Z</time>
      </trkpt>
      <trkpt lat="43.81025" lon="-1.39706">
        <ele>10.2</ele>
        <time>2021-10-16T07:36:41Z</time>
      </trkpt>
      <trkpt lat="43.81015" lon="-1.39702">
        <ele>10.2</ele>
        <time>2021-10-16T07:36:43Z</time>
      </trkpt>
      <trkpt lat="43.81009" lon="-1.39701">
        <ele>10.2</ele>
        <time>2021-10-16T07:36:44Z</time>
      </trkpt>
      <trkpt lat="43.81005" lon="-1.39699">
        <ele>10.2</ele>
        <time>2021-10-16T07:36:45Z</time>
      </trkpt>
      <trkpt lat="43.80996" lon="-1.39696">
        <ele>10.2</ele>
        <time>2021-10-16T07:36:47Z</time>
      </trkpt>
      <trkpt lat="43.80991" lon="-1.39695">
        <ele>10.2</ele>
        <time>2021-10-16T07:36:48Z</time>
      </trkpt>
      <trkpt lat="43.80985" lon="-1.39696">
        <ele>10.2</ele>
        <time>2021-10-16T07:36:49Z</time>
      </trkpt>
      <trkpt lat="43.80966" lon="-1.39699">
        <ele>10.2</ele>
        <time>2021-10-16T07:36:53Z</time>
      </trkpt>
      <trkpt lat="43.80961" lon="-1.39698">
        <ele>10.2</ele>
        <time>2021-10-16T07:36:54Z</time>
      </trkpt>
      <trkpt lat="43.80957" lon="-1.39698">
        <ele>10.2</ele>
        <time>2021-10-16T07:36:55Z</time>
      </trkpt>
      <trkpt lat="43.80933" lon="-1.39701">
        <ele>10.2</ele>
        <time>2021-10-16T07:37:00Z</time>
      </trkpt>
      <trkpt lat="43.80929" lon="-1.39702">
        <ele>10.2</ele>
        <time>2021-10-16T07:37:01Z</time>
      </trkpt>
      <trkpt lat="43.80916" lon="-1.39704">
        <ele>10.2</ele>
        <time>2021-10-16T07:37:04Z</time>
      </trkpt>
      <trkpt lat="43.80907" lon="-1.39705">
        <ele>10.2</ele>
        <time>2021-10-16T07:37:06Z</time>
      </trkpt>
      <trkpt lat="43.80902" lon="-1.39707">
        <ele>10.2</ele>
        <time>2021-10-16T07:37:07Z</time>
      </trkpt>
      <trkpt lat="43.80898" lon="-1.39708">
        <ele>10.2</ele>
        <time>2021-10-16T07:37:08Z</time>
      </trkpt>
      <trkpt lat="43.80889" lon="-1.39708">
        <ele>10.2</ele>
        <time>2021-10-16T07:37:10Z</time>
      </trkpt>
      <trkpt lat="43.80875" lon="-1.39707">
        <ele>10</ele>
        <time>2021-10-16T07:37:13Z</time>
      </trkpt>
      <trkpt lat="43.8087" lon="-1.39706">
        <ele>10.2</ele>
        <time>2021-10-16T07:37:14Z</time>
      </trkpt>
      <trkpt lat="43.80861" lon="-1.39704">
        <ele>10</ele>
        <time>2021-10-16T07:37:16Z</time>
      </trkpt>
      <trkpt lat="43.80853" lon="-1.39701">
        <ele>10</ele>
        <time>2021-10-16T07:37:18Z</time>
      </trkpt>
      <trkpt lat="43.8085" lon="-1.39699">
        <ele>10</ele>
        <time>2021-10-16T07:37:19Z</time>
      </trkpt>
      <trkpt lat="43.80847" lon="-1.39697">
        <ele>10</ele>
        <time>2021-10-16T07:37:20Z</time>
      </trkpt>
      <trkpt lat="43.80846" lon="-1.39695">
        <ele>10</ele>
        <time>2021-10-16T07:37:21Z</time>
      </trkpt>
      <trkpt lat="43.80845" lon="-1.39694">
        <ele>10</ele>
        <time>2021-10-16T07:37:22Z</time>
      </trkpt>
      <trkpt lat="43.80844" lon="-1.39694">
        <ele>10</ele>
        <time>2021-10-16T07:37:23Z</time>
      </trkpt>
      <trkpt lat="43.80844" lon="-1.39694">
        <ele>10</ele>
        <time>2021-10-16T07:37:24Z</time>
      </trkpt>
      <trkpt lat="43.80844" lon="-1.39694">
        <ele>10</ele>
        <time>2021-10-16T07:37:26Z</time>
      </trkpt>
      <trkpt lat="43.80844" lon="-1.39693">
        <ele>10.2</ele>
        <time>2021-10-16T07:37:36Z</time>
      </trkpt>
      <trkpt lat="43.80844" lon="-1.39693">
        <ele>10</ele>
        <time>2021-10-16T07:38:09Z</time>
      </trkpt>
      <trkpt lat="43.80841" lon="-1.39693">
        <ele>10</ele>
        <time>2021-10-16T07:38:12Z</time>
      </trkpt>
      <trkpt lat="43.8084" lon="-1.39693">
        <ele>10</ele>
        <time>2021-10-16T07:38:13Z</time>
      </trkpt>
      <trkpt lat="43.80836" lon="-1.39693">
        <ele>10</ele>
        <time>2021-10-16T07:38:15Z</time>
      </trkpt>
      <trkpt lat="43.80831" lon="-1.39692">
        <ele>10</ele>
        <time>2021-10-16T07:38:17Z</time>
      </trkpt>
      <trkpt lat="43.80813" lon="-1.39691">
        <ele>10</ele>
        <time>2021-10-16T07:38:22Z</time>
      </trkpt>
      <trkpt lat="43.80809" lon="-1.39692">
        <ele>10</ele>
        <time>2021-10-16T07:38:23Z</time>
      </trkpt>
      <trkpt lat="43.80805" lon="-1.39692">
        <ele>10</ele>
        <time>2021-10-16T07:38:24Z</time>
      </trkpt>
      <trkpt lat="43.80786" lon="-1.39697">
        <ele>9.8</ele>
        <time>2021-10-16T07:38:29Z</time>
      </trkpt>
      <trkpt lat="43.80779" lon="-1.397">
        <ele>9.8</ele>
        <time>2021-10-16T07:38:31Z</time>
      </trkpt>
      <trkpt lat="43.80774" lon="-1.39706">
        <ele>9.8</ele>
        <time>2021-10-16T07:38:33Z</time>
      </trkpt>
      <trkpt lat="43.8077" lon="-1.3971">
        <ele>9.8</ele>
        <time>2021-10-16T07:38:34Z</time>
      </trkpt>
      <trkpt lat="43.80768" lon="-1.39713">
        <ele>9.8</ele>
        <time>2021-10-16T07:38:35Z</time>
      </trkpt>
      <trkpt lat="43.8076" lon="-1.39721">
        <ele>10.2</ele>
        <time>2021-10-16T07:38:37Z</time>
      </trkpt>
      <trkpt lat="43.80756" lon="-1.39724">
        <ele>10.2</ele>
        <time>2021-10-16T07:38:38Z</time>
      </trkpt>
      <trkpt lat="43.80748" lon="-1.3973">
        <ele>10.2</ele>
        <time>2021-10-16T07:38:40Z</time>
      </trkpt>
      <trkpt lat="43.80743" lon="-1.39733">
        <ele>10.2</ele>
        <time>2021-10-16T07:38:41Z</time>
      </trkpt>
      <trkpt lat="43.80737" lon="-1.39738">
        <ele>10.4</ele>
        <time>2021-10-16T07:38:43Z</time>
      </trkpt>
      <trkpt lat="43.80733" lon="-1.3974">
        <ele>10.4</ele>
        <time>2021-10-16T07:38:44Z</time>
      </trkpt>
      <trkpt lat="43.80729" lon="-1.39742">
        <ele>10.4</ele>
        <time>2021-10-16T07:38:45Z</time>
      </trkpt>
      <trkpt lat="43.80726" lon="-1.39744">
        <ele>10.4</ele>
        <time>2021-10-16T07:38:46Z</time>
      </trkpt>
      <trkpt lat="43.80722" lon="-1.39746">
        <ele>10.4</ele>
        <time>2021-10-16T07:38:47Z</time>
      </trkpt>
      <trkpt lat="43.80718" lon="-1.39748">
        <ele>10.4</ele>
        <time>2021-10-16T07:38:48Z</time>
      </trkpt>
      <trkpt lat="43.80709" lon="-1.39749">
        <ele>10.4</ele>
        <time>2021-10-16T07:38:50Z</time>
      </trkpt>
      <trkpt lat="43.80699" lon="-1.39748">
        <ele>10.4</ele>
        <time>2021-10-16T07:38:52Z</time>
      </trkpt>
      <trkpt lat="43.80694" lon="-1.39749">
        <ele>10.4</ele>
        <time>2021-10-16T07:38:53Z</time>
      </trkpt>
      <trkpt lat="43.8069" lon="-1.3975">
        <ele>10.6</ele>
        <time>2021-10-16T07:38:54Z</time>
      </trkpt>
      <trkpt lat="43.80684" lon="-1.39749">
        <ele>10.6</ele>
        <time>2021-10-16T07:38:55Z</time>
      </trkpt>
      <trkpt lat="43.80679" lon="-1.39749">
        <ele>10.6</ele>
        <time>2021-10-16T07:38:56Z</time>
      </trkpt>
      <trkpt lat="43.80674" lon="-1.39749">
        <ele>10.6</ele>
        <time>2021-10-16T07:38:57Z</time>
      </trkpt>
      <trkpt lat="43.80669" lon="-1.39748">
        <ele>10.6</ele>
        <time>2021-10-16T07:38:58Z</time>
      </trkpt>
      <trkpt lat="43.80664" lon="-1.39746">
        <ele>10.6</ele>
        <time>2021-10-16T07:38:59Z</time>
      </trkpt>
      <trkpt lat="43.80657" lon="-1.39746">
        <ele>10.6</ele>
        <time>2021-10-16T07:39:00Z</time>
      </trkpt>
      <trkpt lat="43.80652" lon="-1.39744">
        <ele>10.6</ele>
        <time>2021-10-16T07:39:01Z</time>
      </trkpt>
      <trkpt lat="43.80646" lon="-1.39741">
        <ele>10.6</ele>
        <time>2021-10-16T07:39:02Z</time>
      </trkpt>
      <trkpt lat="43.8064" lon="-1.3974">
        <ele>10.6</ele>
        <time>2021-10-16T07:39:03Z</time>
      </trkpt>
      <trkpt lat="43.80635" lon="-1.39739">
        <ele>10.6</ele>
        <time>2021-10-16T07:39:04Z</time>
      </trkpt>
      <trkpt lat="43.80625" lon="-1.39735">
        <ele>10.6</ele>
        <time>2021-10-16T07:39:06Z</time>
      </trkpt>
      <trkpt lat="43.80616" lon="-1.39727">
        <ele>10.6</ele>
        <time>2021-10-16T07:39:08Z</time>
      </trkpt>
      <trkpt lat="43.8061" lon="-1.39723">
        <ele>10.8</ele>
        <time>2021-10-16T07:39:09Z</time>
      </trkpt>
      <trkpt lat="43.806" lon="-1.39718">
        <ele>10.8</ele>
        <time>2021-10-16T07:39:11Z</time>
      </trkpt>
      <trkpt lat="43.80591" lon="-1.39717">
        <ele>10.8</ele>
        <time>2021-10-16T07:39:13Z</time>
      </trkpt>
      <trkpt lat="43.80581" lon="-1.39712">
        <ele>10.8</ele>
        <time>2021-10-16T07:39:15Z</time>
      </trkpt>
      <trkpt lat="43.80567" lon="-1.39705">
        <ele>10.8</ele>
        <time>2021-10-16T07:39:18Z</time>
      </trkpt>
      <trkpt lat="43.80552" lon="-1.39698">
        <ele>10.8</ele>
        <time>2021-10-16T07:39:21Z</time>
      </trkpt>
      <trkpt lat="43.80542" lon="-1.39697">
        <ele>10.8</ele>
        <time>2021-10-16T07:39:23Z</time>
      </trkpt>
      <trkpt lat="43.80535" lon="-1.39696">
        <ele>10.6</ele>
        <time>2021-10-16T07:39:24Z</time>
      </trkpt>
      <trkpt lat="43.80524" lon="-1.39696">
        <ele>10.4</ele>
        <time>2021-10-16T07:39:26Z</time>
      </trkpt>
      <trkpt lat="43.80509" lon="-1.39697">
        <ele>10.4</ele>
        <time>2021-10-16T07:39:29Z</time>
      </trkpt>
      <trkpt lat="43.80492" lon="-1.39697">
        <ele>10.4</ele>
        <time>2021-10-16T07:39:32Z</time>
      </trkpt>
      <trkpt lat="43.80482" lon="-1.39699">
        <ele>10.4</ele>
        <time>2021-10-16T07:39:34Z</time>
      </trkpt>
      <trkpt lat="43.80477" lon="-1.39701">
        <ele>10.4</ele>
        <time>2021-10-16T07:39:35Z</time>
      </trkpt>
      <trkpt lat="43.80472" lon="-1.39703">
        <ele>10.4</ele>
        <time>2021-10-16T07:39:36Z</time>
      </trkpt>
      <trkpt lat="43.80468" lon="-1.39704">
        <ele>10.4</ele>
        <time>2021-10-16T07:39:37Z</time>
      </trkpt>
      <trkpt lat="43.80464" lon="-1.39705">
        <ele>10.2</ele>
        <time>2021-10-16T07:39:38Z</time>
      </trkpt>
      <trkpt lat="43.80458" lon="-1.39705">
        <ele>10.2</ele>
        <time>2021-10-16T07:39:39Z</time>
      </trkpt>
      <trkpt lat="43.80452" lon="-1.39704">
        <ele>10.2</ele>
        <time>2021-10-16T07:39:40Z</time>
      </trkpt>
      <trkpt lat="43.80445" lon="-1.39703">
        <ele>10.2</ele>
        <time>2021-10-16T07:39:41Z</time>
      </trkpt>
      <trkpt lat="43.80439" lon="-1.397">
        <ele>10.2</ele>
        <time>2021-10-16T07:39:42Z</time>
      </trkpt>
      <trkpt lat="43.80433" lon="-1.39697">
        <ele>10.2</ele>
        <time>2021-10-16T07:39:43Z</time>
      </trkpt>
      <trkpt lat="43.80429" lon="-1.39694">
        <ele>10.2</ele>
        <time>2021-10-16T07:39:44Z</time>
      </trkpt>
      <trkpt lat="43.80425" lon="-1.39691">
        <ele>10</ele>
        <time>2021-10-16T07:39:45Z</time>
      </trkpt>
      <trkpt lat="43.8042" lon="-1.39689">
        <ele>9.8</ele>
        <time>2021-10-16T07:39:46Z</time>
      </trkpt>
      <trkpt lat="43.80415" lon="-1.39685">
        <ele>9.8</ele>
        <time>2021-10-16T07:39:47Z</time>
      </trkpt>
      <trkpt lat="43.80396" lon="-1.39674">
        <ele>9.8</ele>
        <time>2021-10-16T07:39:50Z</time>
      </trkpt>
      <trkpt lat="43.80384" lon="-1.39667">
        <ele>9.6</ele>
        <time>2021-10-16T07:39:52Z</time>
      </trkpt>
      <trkpt lat="43.80378" lon="-1.39665">
        <ele>9.6</ele>
        <time>2021-10-16T07:39:53Z</time>
      </trkpt>
      <trkpt lat="43.80373" lon="-1.39663">
        <ele>10</ele>
        <time>2021-10-16T07:39:54Z</time>
      </trkpt>
      <trkpt lat="43.80368" lon="-1.39661">
        <ele>10</ele>
        <time>2021-10-16T07:39:55Z</time>
      </trkpt>
      <trkpt lat="43.80364" lon="-1.3966">
        <ele>10</ele>
        <time>2021-10-16T07:39:56Z</time>
      </trkpt>
      <trkpt lat="43.80356" lon="-1.39655">
        <ele>10</ele>
        <time>2021-10-16T07:39:58Z</time>
      </trkpt>
      <trkpt lat="43.80347" lon="-1.39651">
        <ele>10.2</ele>
        <time>2021-10-16T07:40:00Z</time>
      </trkpt>
      <trkpt lat="43.80343" lon="-1.39649">
        <ele>10.2</ele>
        <time>2021-10-16T07:40:01Z</time>
      </trkpt>
      <trkpt lat="43.8034" lon="-1.39648">
        <ele>10.2</ele>
        <time>2021-10-16T07:40:02Z</time>
      </trkpt>
      <trkpt lat="43.80335" lon="-1.39648">
        <ele>10.4</ele>
        <time>2021-10-16T07:40:03Z</time>
      </trkpt>
      <trkpt lat="43.8033" lon="-1.39648">
        <ele>10.4</ele>
        <time>2021-10-16T07:40:04Z</time>
      </trkpt>
      <trkpt lat="43.80325" lon="-1.39647">
        <ele>10.4</ele>
        <time>2021-10-16T07:40:05Z</time>
      </trkpt>
      <trkpt lat="43.80315" lon="-1.39647">
        <ele>10.4</ele>
        <time>2021-10-16T07:40:07Z</time>
      </trkpt>
      <trkpt lat="43.80301" lon="-1.39647">
        <ele>10.4</ele>
        <time>2021-10-16T07:40:10Z</time>
      </trkpt>
      <trkpt lat="43.80296" lon="-1.39645">
        <ele>10.4</ele>
        <time>2021-10-16T07:40:11Z</time>
      </trkpt>
      <trkpt lat="43.80286" lon="-1.39642">
        <ele>10.2</ele>
        <time>2021-10-16T07:40:13Z</time>
      </trkpt>
      <trkpt lat="43.80271" lon="-1.39639">
        <ele>10</ele>
        <time>2021-10-16T07:40:16Z</time>
      </trkpt>
      <trkpt lat="43.80268" lon="-1.39638">
        <ele>10</ele>
        <time>2021-10-16T07:40:17Z</time>
      </trkpt>
      <trkpt lat="43.80264" lon="-1.39638">
        <ele>10</ele>
        <time>2021-10-16T07:40:18Z</time>
      </trkpt>
      <trkpt lat="43.8026" lon="-1.39638">
        <ele>10.2</ele>
        <time>2021-10-16T07:40:19Z</time>
      </trkpt>
      <trkpt lat="43.80255" lon="-1.39638">
        <ele>10.2</ele>
        <time>2021-10-16T07:40:20Z</time>
      </trkpt>
      <trkpt lat="43.80251" lon="-1.39638">
        <ele>10.2</ele>
        <time>2021-10-16T07:40:21Z</time>
      </trkpt>
      <trkpt lat="43.80211" lon="-1.39632">
        <ele>10.4</ele>
        <time>2021-10-16T07:40:27Z</time>
      </trkpt>
      <trkpt lat="43.80194" lon="-1.3963">
        <ele>10.4</ele>
        <time>2021-10-16T07:40:30Z</time>
      </trkpt>
      <trkpt lat="43.80189" lon="-1.3963">
        <ele>10.2</ele>
        <time>2021-10-16T07:40:31Z</time>
      </trkpt>
      <trkpt lat="43.80186" lon="-1.3963">
        <ele>10.2</ele>
        <time>2021-10-16T07:40:32Z</time>
      </trkpt>
      <trkpt lat="43.80183" lon="-1.39631">
        <ele>10.2</ele>
        <time>2021-10-16T07:40:33Z</time>
      </trkpt>
      <trkpt lat="43.8018" lon="-1.39633">
        <ele>10.2</ele>
        <time>2021-10-16T07:40:34Z</time>
      </trkpt>
      <trkpt lat="43.80178" lon="-1.39634">
        <ele>10.2</ele>
        <time>2021-10-16T07:40:35Z</time>
      </trkpt>
      <trkpt lat="43.80178" lon="-1.39636">
        <ele>10.2</ele>
        <time>2021-10-16T07:40:36Z</time>
      </trkpt>
      <trkpt lat="43.80176" lon="-1.39638">
        <ele>10.2</ele>
        <time>2021-10-16T07:40:37Z</time>
      </trkpt>
      <trkpt lat="43.80175" lon="-1.39643">
        <ele>10.2</ele>
        <time>2021-10-16T07:40:38Z</time>
      </trkpt>
      <trkpt lat="43.80175" lon="-1.39647">
        <ele>10.2</ele>
        <time>2021-10-16T07:40:39Z</time>
      </trkpt>
      <trkpt lat="43.80175" lon="-1.3965">
        <ele>10.2</ele>
        <time>2021-10-16T07:40:40Z</time>
      </trkpt>
      <trkpt lat="43.80177" lon="-1.39655">
        <ele>10.2</ele>
        <time>2021-10-16T07:40:42Z</time>
      </trkpt>
      <trkpt lat="43.80178" lon="-1.39657">
        <ele>10.2</ele>
        <time>2021-10-16T07:40:43Z</time>
      </trkpt>
      <trkpt lat="43.80179" lon="-1.39659">
        <ele>10.2</ele>
        <time>2021-10-16T07:40:44Z</time>
      </trkpt>
      <trkpt lat="43.8018" lon="-1.39661">
        <ele>10.2</ele>
        <time>2021-10-16T07:40:45Z</time>
      </trkpt>
      <trkpt lat="43.80181" lon="-1.39664">
        <ele>10</ele>
        <time>2021-10-16T07:40:46Z</time>
      </trkpt>
      <trkpt lat="43.80182" lon="-1.39666">
        <ele>10</ele>
        <time>2021-10-16T07:40:47Z</time>
      </trkpt>
      <trkpt lat="43.80189" lon="-1.39679">
        <ele>10</ele>
        <time>2021-10-16T07:40:51Z</time>
      </trkpt>
      <trkpt lat="43.802" lon="-1.39698">
        <ele>10</ele>
        <time>2021-10-16T07:40:57Z</time>
      </trkpt>
      <trkpt lat="43.80214" lon="-1.39714">
        <ele>10.2</ele>
        <time>2021-10-16T07:41:02Z</time>
      </trkpt>
      <trkpt lat="43.80218" lon="-1.39718">
        <ele>10.2</ele>
        <time>2021-10-16T07:41:04Z</time>
      </trkpt>
      <trkpt lat="43.80226" lon="-1.39723">
        <ele>10.2</ele>
        <time>2021-10-16T07:41:06Z</time>
      </trkpt>
      <trkpt lat="43.80236" lon="-1.39732">
        <ele>10.4</ele>
        <time>2021-10-16T07:41:09Z</time>
      </trkpt>
      <trkpt lat="43.80264" lon="-1.39765">
        <ele>10.2</ele>
        <time>2021-10-16T07:41:16Z</time>
      </trkpt>
      <trkpt lat="43.80282" lon="-1.39784">
        <ele>10.2</ele>
        <time>2021-10-16T07:41:21Z</time>
      </trkpt>
      <trkpt lat="43.803" lon="-1.39801">
        <ele>10.2</ele>
        <time>2021-10-16T07:41:26Z</time>
      </trkpt>
      <trkpt lat="43.80305" lon="-1.3981">
        <ele>10.2</ele>
        <time>2021-10-16T07:41:28Z</time>
      </trkpt>
      <trkpt lat="43.80306" lon="-1.39812">
        <ele>10.2</ele>
        <time>2021-10-16T07:41:29Z</time>
      </trkpt>
      <trkpt lat="43.80306" lon="-1.39812">
        <ele>10.2</ele>
        <time>2021-10-16T07:41:30Z</time>
      </trkpt>
      <trkpt lat="43.80306" lon="-1.39812">
        <ele>10.2</ele>
        <time>2021-10-16T07:41:31Z</time>
      </trkpt>
      <trkpt lat="43.80306" lon="-1.39812">
        <ele>10.2</ele>
        <time>2021-10-16T07:41:32Z</time>
      </trkpt>
      <trkpt lat="43.80309" lon="-1.39819">
        <ele>10.2</ele>
        <time>2021-10-16T07:41:33Z</time>
      </trkpt>
      <trkpt lat="43.80311" lon="-1.39823">
        <ele>10.2</ele>
        <time>2021-10-16T07:41:34Z</time>
      </trkpt>
      <trkpt lat="43.80311" lon="-1.39838">
        <ele>10</ele>
        <time>2021-10-16T07:41:37Z</time>
      </trkpt>
      <trkpt lat="43.80313" lon="-1.39841">
        <ele>10</ele>
        <time>2021-10-16T07:41:38Z</time>
      </trkpt>
      <trkpt lat="43.80315" lon="-1.39844">
        <ele>10</ele>
        <time>2021-10-16T07:41:39Z</time>
      </trkpt>
      <trkpt lat="43.80318" lon="-1.39847">
        <ele>10</ele>
        <time>2021-10-16T07:41:40Z</time>
      </trkpt>
      <trkpt lat="43.80321" lon="-1.3985">
        <ele>10</ele>
        <time>2021-10-16T07:41:41Z</time>
      </trkpt>
      <trkpt lat="43.80323" lon="-1.39853">
        <ele>10</ele>
        <time>2021-10-16T07:41:42Z</time>
      </trkpt>
      <trkpt lat="43.80325" lon="-1.39856">
        <ele>10</ele>
        <time>2021-10-16T07:41:43Z</time>
      </trkpt>
      <trkpt lat="43.80326" lon="-1.3986">
        <ele>10.2</ele>
        <time>2021-10-16T07:41:44Z</time>
      </trkpt>
      <trkpt lat="43.80327" lon="-1.39863">
        <ele>10.2</ele>
        <time>2021-10-16T07:41:45Z</time>
      </trkpt>
      <trkpt lat="43.80328" lon="-1.39865">
        <ele>10.2</ele>
        <time>2021-10-16T07:41:46Z</time>
      </trkpt>
      <trkpt lat="43.80329" lon="-1.39868">
        <ele>10.2</ele>
        <time>2021-10-16T07:41:47Z</time>
      </trkpt>
      <trkpt lat="43.80329" lon="-1.39868">
        <ele>10.2</ele>
        <time>2021-10-16T07:41:48Z</time>
      </trkpt>
      <trkpt lat="43.8033" lon="-1.39872">
        <ele>10.2</ele>
        <time>2021-10-16T07:41:49Z</time>
      </trkpt>
      <trkpt lat="43.80337" lon="-1.39882">
        <ele>10.2</ele>
        <time>2021-10-16T07:41:51Z</time>
      </trkpt>
      <trkpt lat="43.80342" lon="-1.39889">
        <ele>10.4</ele>
        <time>2021-10-16T07:41:53Z</time>
      </trkpt>
      <trkpt lat="43.80344" lon="-1.39893">
        <ele>10.4</ele>
        <time>2021-10-16T07:41:54Z</time>
      </trkpt>
      <trkpt lat="43.80347" lon="-1.39899">
        <ele>10.4</ele>
        <time>2021-10-16T07:41:55Z</time>
      </trkpt>
      <trkpt lat="43.80349" lon="-1.39904">
        <ele>10.6</ele>
        <time>2021-10-16T07:41:56Z</time>
      </trkpt>
      <trkpt lat="43.8035" lon="-1.39912">
        <ele>10.8</ele>
        <time>2021-10-16T07:41:59Z</time>
      </trkpt>
      <trkpt lat="43.80356" lon="-1.3992">
        <ele>10.8</ele>
        <time>2021-10-16T07:42:01Z</time>
      </trkpt>
      <trkpt lat="43.80375" lon="-1.39962">
        <ele>10.8</ele>
        <time>2021-10-16T07:42:09Z</time>
      </trkpt>
      <trkpt lat="43.80381" lon="-1.39973">
        <ele>10.6</ele>
        <time>2021-10-16T07:42:12Z</time>
      </trkpt>
      <trkpt lat="43.80382" lon="-1.39978">
        <ele>10.6</ele>
        <time>2021-10-16T07:42:13Z</time>
      </trkpt>
      <trkpt lat="43.80383" lon="-1.3998">
        <ele>10.6</ele>
        <time>2021-10-16T07:42:14Z</time>
      </trkpt>
      <trkpt lat="43.80385" lon="-1.39983">
        <ele>10.8</ele>
        <time>2021-10-16T07:42:15Z</time>
      </trkpt>
      <trkpt lat="43.80387" lon="-1.40015">
        <ele>10.8</ele>
        <time>2021-10-16T07:42:21Z</time>
      </trkpt>
      <trkpt lat="43.80387" lon="-1.40019">
        <ele>11</ele>
        <time>2021-10-16T07:42:22Z</time>
      </trkpt>
      <trkpt lat="43.80388" lon="-1.40023">
        <ele>11</ele>
        <time>2021-10-16T07:42:23Z</time>
      </trkpt>
      <trkpt lat="43.80389" lon="-1.40026">
        <ele>11</ele>
        <time>2021-10-16T07:42:24Z</time>
      </trkpt>
      <trkpt lat="43.80388" lon="-1.40031">
        <ele>11</ele>
        <time>2021-10-16T07:42:25Z</time>
      </trkpt>
      <trkpt lat="43.8039" lon="-1.40035">
        <ele>11</ele>
        <time>2021-10-16T07:42:26Z</time>
      </trkpt>
      <trkpt lat="43.8039" lon="-1.40038">
        <ele>11</ele>
        <time>2021-10-16T07:42:27Z</time>
      </trkpt>
      <trkpt lat="43.80389" lon="-1.40042">
        <ele>11</ele>
        <time>2021-10-16T07:42:28Z</time>
      </trkpt>
      <trkpt lat="43.80387" lon="-1.40046">
        <ele>11</ele>
        <time>2021-10-16T07:42:29Z</time>
      </trkpt>
      <trkpt lat="43.80386" lon="-1.40049">
        <ele>11</ele>
        <time>2021-10-16T07:42:30Z</time>
      </trkpt>
      <trkpt lat="43.80386" lon="-1.40053">
        <ele>11</ele>
        <time>2021-10-16T07:42:31Z</time>
      </trkpt>
      <trkpt lat="43.80386" lon="-1.40061">
        <ele>11</ele>
        <time>2021-10-16T07:42:33Z</time>
      </trkpt>
      <trkpt lat="43.80385" lon="-1.40064">
        <ele>11</ele>
        <time>2021-10-16T07:42:34Z</time>
      </trkpt>
      <trkpt lat="43.80382" lon="-1.40067">
        <ele>11</ele>
        <time>2021-10-16T07:42:35Z</time>
      </trkpt>
      <trkpt lat="43.80381" lon="-1.40069">
        <ele>11</ele>
        <time>2021-10-16T07:42:36Z</time>
      </trkpt>
      <trkpt lat="43.80379" lon="-1.40071">
        <ele>11</ele>
        <time>2021-10-16T07:42:37Z</time>
      </trkpt>
      <trkpt lat="43.80378" lon="-1.40074">
        <ele>11</ele>
        <time>2021-10-16T07:42:38Z</time>
      </trkpt>
      <trkpt lat="43.80379" lon="-1.40077">
        <ele>11.2</ele>
        <time>2021-10-16T07:42:40Z</time>
      </trkpt>
      <trkpt lat="43.80382" lon="-1.40078">
        <ele>11.2</ele>
        <time>2021-10-16T07:42:41Z</time>
      </trkpt>
      <trkpt lat="43.80383" lon="-1.4008">
        <ele>11.2</ele>
        <time>2021-10-16T07:42:42Z</time>
      </trkpt>
      <trkpt lat="43.80388" lon="-1.40086">
        <ele>11.2</ele>
        <time>2021-10-16T07:42:44Z</time>
      </trkpt>
      <trkpt lat="43.80389" lon="-1.40088">
        <ele>11.2</ele>
        <time>2021-10-16T07:42:45Z</time>
      </trkpt>
      <trkpt lat="43.80391" lon="-1.40091">
        <ele>11.2</ele>
        <time>2021-10-16T07:42:46Z</time>
      </trkpt>
      <trkpt lat="43.80396" lon="-1.40099">
        <ele>11.4</ele>
        <time>2021-10-16T07:42:49Z</time>
      </trkpt>
      <trkpt lat="43.80396" lon="-1.40102">
        <ele>11.4</ele>
        <time>2021-10-16T07:42:50Z</time>
      </trkpt>
      <trkpt lat="43.80397" lon="-1.40106">
        <ele>11.4</ele>
        <time>2021-10-16T07:42:51Z</time>
      </trkpt>
      <trkpt lat="43.80398" lon="-1.40111">
        <ele>11.4</ele>
        <time>2021-10-16T07:42:52Z</time>
      </trkpt>
      <trkpt lat="43.80398" lon="-1.40116">
        <ele>11.4</ele>
        <time>2021-10-16T07:42:53Z</time>
      </trkpt>
      <trkpt lat="43.80399" lon="-1.4012">
        <ele>11.4</ele>
        <time>2021-10-16T07:42:54Z</time>
      </trkpt>
      <trkpt lat="43.80399" lon="-1.40124">
        <ele>11.4</ele>
        <time>2021-10-16T07:42:55Z</time>
      </trkpt>
      <trkpt lat="43.80406" lon="-1.40145">
        <ele>11.4</ele>
        <time>2021-10-16T07:43:01Z</time>
      </trkpt>
      <trkpt lat="43.80408" lon="-1.40151">
        <ele>11.4</ele>
        <time>2021-10-16T07:43:02Z</time>
      </trkpt>
      <trkpt lat="43.80409" lon="-1.40153">
        <ele>11.4</ele>
        <time>2021-10-16T07:43:03Z</time>
      </trkpt>
      <trkpt lat="43.80411" lon="-1.40157">
        <ele>11.4</ele>
        <time>2021-10-16T07:43:04Z</time>
      </trkpt>
      <trkpt lat="43.80412" lon="-1.4016">
        <ele>11.4</ele>
        <time>2021-10-16T07:43:05Z</time>
      </trkpt>
      <trkpt lat="43.80414" lon="-1.40164">
        <ele>11.4</ele>
        <time>2021-10-16T07:43:06Z</time>
      </trkpt>
      <trkpt lat="43.80417" lon="-1.40166">
        <ele>11.4</ele>
        <time>2021-10-16T07:43:07Z</time>
      </trkpt>
      <trkpt lat="43.80419" lon="-1.4017">
        <ele>11.4</ele>
        <time>2021-10-16T07:43:08Z</time>
      </trkpt>
      <trkpt lat="43.80421" lon="-1.40175">
        <ele>11.4</ele>
        <time>2021-10-16T07:43:09Z</time>
      </trkpt>
      <trkpt lat="43.80422" lon="-1.40179">
        <ele>11.4</ele>
        <time>2021-10-16T07:43:10Z</time>
      </trkpt>
      <trkpt lat="43.80424" lon="-1.40181">
        <ele>11.4</ele>
        <time>2021-10-16T07:43:11Z</time>
      </trkpt>
      <trkpt lat="43.80425" lon="-1.40184">
        <ele>11.4</ele>
        <time>2021-10-16T07:43:12Z</time>
      </trkpt>
      <trkpt lat="43.80428" lon="-1.40194">
        <ele>11.4</ele>
        <time>2021-10-16T07:43:15Z</time>
      </trkpt>
      <trkpt lat="43.80431" lon="-1.40197">
        <ele>11.4</ele>
        <time>2021-10-16T07:43:16Z</time>
      </trkpt>
      <trkpt lat="43.80434" lon="-1.40202">
        <ele>11.4</ele>
        <time>2021-10-16T07:43:17Z</time>
      </trkpt>
      <trkpt lat="43.80436" lon="-1.40205">
        <ele>11.6</ele>
        <time>2021-10-16T07:43:18Z</time>
      </trkpt>
      <trkpt lat="43.80437" lon="-1.40209">
        <ele>11.6</ele>
        <time>2021-10-16T07:43:19Z</time>
      </trkpt>
      <trkpt lat="43.80439" lon="-1.40212">
        <ele>11.6</ele>
        <time>2021-10-16T07:43:20Z</time>
      </trkpt>
      <trkpt lat="43.80442" lon="-1.40219">
        <ele>11.6</ele>
        <time>2021-10-16T07:43:21Z</time>
      </trkpt>
      <trkpt lat="43.80444" lon="-1.4023">
        <ele>12.2</ele>
        <time>2021-10-16T07:43:24Z</time>
      </trkpt>
      <trkpt lat="43.80445" lon="-1.40231">
        <ele>12.6</ele>
        <time>2021-10-16T07:43:25Z</time>
      </trkpt>
      <trkpt lat="43.80446" lon="-1.40234">
        <ele>12.8</ele>
        <time>2021-10-16T07:43:26Z</time>
      </trkpt>
      <trkpt lat="43.80447" lon="-1.40236">
        <ele>12.8</ele>
        <time>2021-10-16T07:43:27Z</time>
      </trkpt>
      <trkpt lat="43.80449" lon="-1.40238">
        <ele>13</ele>
        <time>2021-10-16T07:43:28Z</time>
      </trkpt>
      <trkpt lat="43.8045" lon="-1.4024">
        <ele>13</ele>
        <time>2021-10-16T07:43:29Z</time>
      </trkpt>
      <trkpt lat="43.80451" lon="-1.40242">
        <ele>13.2</ele>
        <time>2021-10-16T07:43:30Z</time>
      </trkpt>
      <trkpt lat="43.80451" lon="-1.40244">
        <ele>13.6</ele>
        <time>2021-10-16T07:43:31Z</time>
      </trkpt>
      <trkpt lat="43.80451" lon="-1.40246">
        <ele>13.6</ele>
        <time>2021-10-16T07:43:32Z</time>
      </trkpt>
      <trkpt lat="43.80452" lon="-1.40247">
        <ele>14</ele>
        <time>2021-10-16T07:43:33Z</time>
      </trkpt>
      <trkpt lat="43.80452" lon="-1.40249">
        <ele>14.2</ele>
        <time>2021-10-16T07:43:34Z</time>
      </trkpt>
      <trkpt lat="43.80453" lon="-1.40251">
        <ele>14.4</ele>
        <time>2021-10-16T07:43:35Z</time>
      </trkpt>
      <trkpt lat="43.80453" lon="-1.40253">
        <ele>14.6</ele>
        <time>2021-10-16T07:43:36Z</time>
      </trkpt>
      <trkpt lat="43.80454" lon="-1.40254">
        <ele>14.8</ele>
        <time>2021-10-16T07:43:37Z</time>
      </trkpt>
      <trkpt lat="43.80455" lon="-1.40255">
        <ele>14.8</ele>
        <time>2021-10-16T07:43:38Z</time>
      </trkpt>
      <trkpt lat="43.80455" lon="-1.40256">
        <ele>15.2</ele>
        <time>2021-10-16T07:43:39Z</time>
      </trkpt>
      <trkpt lat="43.80455" lon="-1.40258">
        <ele>15.4</ele>
        <time>2021-10-16T07:43:40Z</time>
      </trkpt>
      <trkpt lat="43.80456" lon="-1.40259">
        <ele>15.6</ele>
        <time>2021-10-16T07:43:41Z</time>
      </trkpt>
      <trkpt lat="43.80457" lon="-1.40261">
        <ele>15.6</ele>
        <time>2021-10-16T07:43:42Z</time>
      </trkpt>
      <trkpt lat="43.80458" lon="-1.40262">
        <ele>16</ele>
        <time>2021-10-16T07:43:43Z</time>
      </trkpt>
      <trkpt lat="43.80458" lon="-1.40263">
        <ele>16.2</ele>
        <time>2021-10-16T07:43:44Z</time>
      </trkpt>
      <trkpt lat="43.8046" lon="-1.40265">
        <ele>16.2</ele>
        <time>2021-10-16T07:43:45Z</time>
      </trkpt>
      <trkpt lat="43.80461" lon="-1.40266">
        <ele>16.4</ele>
        <time>2021-10-16T07:43:46Z</time>
      </trkpt>
      <trkpt lat="43.80462" lon="-1.40268">
        <ele>16.6</ele>
        <time>2021-10-16T07:43:47Z</time>
      </trkpt>
      <trkpt lat="43.80463" lon="-1.40271">
        <ele>16.8</ele>
        <time>2021-10-16T07:43:48Z</time>
      </trkpt>
      <trkpt lat="43.80463" lon="-1.40272">
        <ele>17</ele>
        <time>2021-10-16T07:43:49Z</time>
      </trkpt>
      <trkpt lat="43.80464" lon="-1.40275">
        <ele>17.2</ele>
        <time>2021-10-16T07:43:50Z</time>
      </trkpt>
      <trkpt lat="43.80465" lon="-1.40276">
        <ele>17.4</ele>
        <time>2021-10-16T07:43:51Z</time>
      </trkpt>
      <trkpt lat="43.80466" lon="-1.40278">
        <ele>17.6</ele>
        <time>2021-10-16T07:43:52Z</time>
      </trkpt>
      <trkpt lat="43.80467" lon="-1.4028">
        <ele>17.6</ele>
        <time>2021-10-16T07:43:53Z</time>
      </trkpt>
      <trkpt lat="43.80469" lon="-1.40281">
        <ele>17.8</ele>
        <time>2021-10-16T07:43:54Z</time>
      </trkpt>
      <trkpt lat="43.8047" lon="-1.40283">
        <ele>18</ele>
        <time>2021-10-16T07:43:55Z</time>
      </trkpt>
      <trkpt lat="43.80471" lon="-1.40285">
        <ele>18.2</ele>
        <time>2021-10-16T07:43:56Z</time>
      </trkpt>
      <trkpt lat="43.80472" lon="-1.40286">
        <ele>18.2</ele>
        <time>2021-10-16T07:43:57Z</time>
      </trkpt>
      <trkpt lat="43.80473" lon="-1.40288">
        <ele>18.4</ele>
        <time>2021-10-16T07:43:58Z</time>
      </trkpt>
      <trkpt lat="43.80476" lon="-1.4029">
        <ele>18.4</ele>
        <time>2021-10-16T07:43:59Z</time>
      </trkpt>
      <trkpt lat="43.80477" lon="-1.40291">
        <ele>18.6</ele>
        <time>2021-10-16T07:44:00Z</time>
      </trkpt>
      <trkpt lat="43.80478" lon="-1.40292">
        <ele>18.8</ele>
        <time>2021-10-16T07:44:01Z</time>
      </trkpt>
      <trkpt lat="43.80478" lon="-1.40293">
        <ele>19</ele>
        <time>2021-10-16T07:44:02Z</time>
      </trkpt>
      <trkpt lat="43.80479" lon="-1.40297">
        <ele>19.2</ele>
        <time>2021-10-16T07:44:03Z</time>
      </trkpt>
      <trkpt lat="43.80479" lon="-1.403">
        <ele>19.2</ele>
        <time>2021-10-16T07:44:04Z</time>
      </trkpt>
      <trkpt lat="43.8048" lon="-1.40303">
        <ele>19.4</ele>
        <time>2021-10-16T07:44:05Z</time>
      </trkpt>
      <trkpt lat="43.8048" lon="-1.40303">
        <ele>19.4</ele>
        <time>2021-10-16T07:44:06Z</time>
      </trkpt>
      <trkpt lat="43.80481" lon="-1.40305">
        <ele>19.6</ele>
        <time>2021-10-16T07:44:07Z</time>
      </trkpt>
      <trkpt lat="43.80483" lon="-1.40307">
        <ele>19.6</ele>
        <time>2021-10-16T07:44:08Z</time>
      </trkpt>
      <trkpt lat="43.80483" lon="-1.40309">
        <ele>19.8</ele>
        <time>2021-10-16T07:44:09Z</time>
      </trkpt>
      <trkpt lat="43.80484" lon="-1.40312">
        <ele>19.8</ele>
        <time>2021-10-16T07:44:10Z</time>
      </trkpt>
      <trkpt lat="43.80485" lon="-1.40314">
        <ele>19.8</ele>
        <time>2021-10-16T07:44:11Z</time>
      </trkpt>
      <trkpt lat="43.80486" lon="-1.40317">
        <ele>19.8</ele>
        <time>2021-10-16T07:44:12Z</time>
      </trkpt>
      <trkpt lat="43.80488" lon="-1.40322">
        <ele>20</ele>
        <time>2021-10-16T07:44:13Z</time>
      </trkpt>
      <trkpt lat="43.80488" lon="-1.40324">
        <ele>20</ele>
        <time>2021-10-16T07:44:14Z</time>
      </trkpt>
      <trkpt lat="43.80488" lon="-1.40326">
        <ele>20</ele>
        <time>2021-10-16T07:44:15Z</time>
      </trkpt>
      <trkpt lat="43.80489" lon="-1.40329">
        <ele>20</ele>
        <time>2021-10-16T07:44:16Z</time>
      </trkpt>
      <trkpt lat="43.80491" lon="-1.40331">
        <ele>20</ele>
        <time>2021-10-16T07:44:17Z</time>
      </trkpt>
      <trkpt lat="43.80492" lon="-1.40332">
        <ele>20</ele>
        <time>2021-10-16T07:44:18Z</time>
      </trkpt>
      <trkpt lat="43.80492" lon="-1.40335">
        <ele>20</ele>
        <time>2021-10-16T07:44:19Z</time>
      </trkpt>
      <trkpt lat="43.80492" lon="-1.40337">
        <ele>20</ele>
        <time>2021-10-16T07:44:20Z</time>
      </trkpt>
      <trkpt lat="43.80493" lon="-1.40339">
        <ele>20</ele>
        <time>2021-10-16T07:44:21Z</time>
      </trkpt>
      <trkpt lat="43.80494" lon="-1.40341">
        <ele>20</ele>
        <time>2021-10-16T07:44:22Z</time>
      </trkpt>
      <trkpt lat="43.80495" lon="-1.40344">
        <ele>20</ele>
        <time>2021-10-16T07:44:23Z</time>
      </trkpt>
      <trkpt lat="43.80495" lon="-1.40346">
        <ele>20</ele>
        <time>2021-10-16T07:44:24Z</time>
      </trkpt>
      <trkpt lat="43.80496" lon="-1.40348">
        <ele>19.8</ele>
        <time>2021-10-16T07:44:25Z</time>
      </trkpt>
      <trkpt lat="43.80499" lon="-1.40354">
        <ele>19.6</ele>
        <time>2021-10-16T07:44:28Z</time>
      </trkpt>
      <trkpt lat="43.80502" lon="-1.40361">
        <ele>19.2</ele>
        <time>2021-10-16T07:44:31Z</time>
      </trkpt>
      <trkpt lat="43.80504" lon="-1.40367">
        <ele>19</ele>
        <time>2021-10-16T07:44:33Z</time>
      </trkpt>
      <trkpt lat="43.80505" lon="-1.40369">
        <ele>19</ele>
        <time>2021-10-16T07:44:34Z</time>
      </trkpt>
      <trkpt lat="43.80507" lon="-1.40373">
        <ele>19</ele>
        <time>2021-10-16T07:44:35Z</time>
      </trkpt>
      <trkpt lat="43.8051" lon="-1.40381">
        <ele>18.2</ele>
        <time>2021-10-16T07:44:38Z</time>
      </trkpt>
      <trkpt lat="43.80512" lon="-1.40386">
        <ele>18.2</ele>
        <time>2021-10-16T07:44:39Z</time>
      </trkpt>
      <trkpt lat="43.80513" lon="-1.4039">
        <ele>17.8</ele>
        <time>2021-10-16T07:44:40Z</time>
      </trkpt>
      <trkpt lat="43.80515" lon="-1.40394">
        <ele>17.6</ele>
        <time>2021-10-16T07:44:41Z</time>
      </trkpt>
      <trkpt lat="43.80516" lon="-1.40398">
        <ele>17.4</ele>
        <time>2021-10-16T07:44:42Z</time>
      </trkpt>
      <trkpt lat="43.80516" lon="-1.40402">
        <ele>17.2</ele>
        <time>2021-10-16T07:44:43Z</time>
      </trkpt>
      <trkpt lat="43.80517" lon="-1.40407">
        <ele>17</ele>
        <time>2021-10-16T07:44:44Z</time>
      </trkpt>
      <trkpt lat="43.80517" lon="-1.4041">
        <ele>16.8</ele>
        <time>2021-10-16T07:44:45Z</time>
      </trkpt>
      <trkpt lat="43.80519" lon="-1.40413">
        <ele>16.2</ele>
        <time>2021-10-16T07:44:46Z</time>
      </trkpt>
      <trkpt lat="43.8052" lon="-1.40419">
        <ele>15.8</ele>
        <time>2021-10-16T07:44:47Z</time>
      </trkpt>
      <trkpt lat="43.80518" lon="-1.40425">
        <ele>15.6</ele>
        <time>2021-10-16T07:44:48Z</time>
      </trkpt>
      <trkpt lat="43.80516" lon="-1.4043">
        <ele>15.2</ele>
        <time>2021-10-16T07:44:49Z</time>
      </trkpt>
      <trkpt lat="43.80515" lon="-1.40437">
        <ele>15</ele>
        <time>2021-10-16T07:44:50Z</time>
      </trkpt>
      <trkpt lat="43.80516" lon="-1.40442">
        <ele>14.8</ele>
        <time>2021-10-16T07:44:51Z</time>
      </trkpt>
      <trkpt lat="43.80516" lon="-1.40449">
        <ele>14.8</ele>
        <time>2021-10-16T07:44:52Z</time>
      </trkpt>
      <trkpt lat="43.80517" lon="-1.40452">
        <ele>14.6</ele>
        <time>2021-10-16T07:44:53Z</time>
      </trkpt>
      <trkpt lat="43.80517" lon="-1.40455">
        <ele>14.4</ele>
        <time>2021-10-16T07:44:54Z</time>
      </trkpt>
      <trkpt lat="43.80518" lon="-1.40457">
        <ele>13.8</ele>
        <time>2021-10-16T07:44:55Z</time>
      </trkpt>
      <trkpt lat="43.80518" lon="-1.40459">
        <ele>13.6</ele>
        <time>2021-10-16T07:44:56Z</time>
      </trkpt>
      <trkpt lat="43.80517" lon="-1.40462">
        <ele>13.2</ele>
        <time>2021-10-16T07:44:57Z</time>
      </trkpt>
      <trkpt lat="43.80517" lon="-1.40463">
        <ele>13</ele>
        <time>2021-10-16T07:44:58Z</time>
      </trkpt>
      <trkpt lat="43.80517" lon="-1.40463">
        <ele>12.6</ele>
        <time>2021-10-16T07:44:59Z</time>
      </trkpt>
      <trkpt lat="43.80518" lon="-1.40465">
        <ele>12.6</ele>
        <time>2021-10-16T07:45:00Z</time>
      </trkpt>
      <trkpt lat="43.80517" lon="-1.40469">
        <ele>12.4</ele>
        <time>2021-10-16T07:45:01Z</time>
      </trkpt>
      <trkpt lat="43.80515" lon="-1.40471">
        <ele>12.2</ele>
        <time>2021-10-16T07:45:03Z</time>
      </trkpt>
      <trkpt lat="43.80513" lon="-1.40472">
        <ele>12.2</ele>
        <time>2021-10-16T07:45:04Z</time>
      </trkpt>
      <trkpt lat="43.80509" lon="-1.40471">
        <ele>12.2</ele>
        <time>2021-10-16T07:45:06Z</time>
      </trkpt>
      <trkpt lat="43.80502" lon="-1.40471">
        <ele>12.2</ele>
        <time>2021-10-16T07:45:11Z</time>
      </trkpt>
      <trkpt lat="43.80496" lon="-1.4047">
        <ele>12.2</ele>
        <time>2021-10-16T07:45:14Z</time>
      </trkpt>
      <trkpt lat="43.80496" lon="-1.4047">
        <ele>12.2</ele>
        <time>2021-10-16T07:45:15Z</time>
      </trkpt>
      <trkpt lat="43.80496" lon="-1.4047">
        <ele>12.2</ele>
        <time>2021-10-16T07:45:16Z</time>
      </trkpt>
      <trkpt lat="43.80496" lon="-1.4047">
        <ele>12.4</ele>
        <time>2021-10-16T07:45:17Z</time>
      </trkpt>
      <trkpt lat="43.80496" lon="-1.40471">
        <ele>12.4</ele>
        <time>2021-10-16T07:45:18Z</time>
      </trkpt>
      <trkpt lat="43.80495" lon="-1.4047">
        <ele>12.6</ele>
        <time>2021-10-16T07:45:19Z</time>
      </trkpt>
      <trkpt lat="43.80491" lon="-1.4047">
        <ele>12.6</ele>
        <time>2021-10-16T07:45:22Z</time>
      </trkpt>
      <trkpt lat="43.80491" lon="-1.40471">
        <ele>12.8</ele>
        <time>2021-10-16T07:45:23Z</time>
      </trkpt>
      <trkpt lat="43.8049" lon="-1.40471">
        <ele>12.8</ele>
        <time>2021-10-16T07:45:24Z</time>
      </trkpt>
      <trkpt lat="43.8049" lon="-1.40471">
        <ele>12.8</ele>
        <time>2021-10-16T07:45:25Z</time>
      </trkpt>
      <trkpt lat="43.80489" lon="-1.40471">
        <ele>13</ele>
        <time>2021-10-16T07:45:27Z</time>
      </trkpt>
      <trkpt lat="43.80488" lon="-1.40471">
        <ele>13</ele>
        <time>2021-10-16T07:45:28Z</time>
      </trkpt>
      <trkpt lat="43.80487" lon="-1.4047">
        <ele>13.2</ele>
        <time>2021-10-16T07:45:29Z</time>
      </trkpt>
      <trkpt lat="43.80485" lon="-1.40469">
        <ele>13.2</ele>
        <time>2021-10-16T07:45:32Z</time>
      </trkpt>
      <trkpt lat="43.80483" lon="-1.40469">
        <ele>13.4</ele>
        <time>2021-10-16T07:45:34Z</time>
      </trkpt>
      <trkpt lat="43.80482" lon="-1.40469">
        <ele>13.6</ele>
        <time>2021-10-16T07:45:35Z</time>
      </trkpt>
      <trkpt lat="43.80482" lon="-1.40469">
        <ele>13.6</ele>
        <time>2021-10-16T07:45:36Z</time>
      </trkpt>
      <trkpt lat="43.80481" lon="-1.40468">
        <ele>13.8</ele>
        <time>2021-10-16T07:45:37Z</time>
      </trkpt>
      <trkpt lat="43.8048" lon="-1.40468">
        <ele>13.8</ele>
        <time>2021-10-16T07:45:38Z</time>
      </trkpt>
      <trkpt lat="43.80478" lon="-1.40469">
        <ele>14.6</ele>
        <time>2021-10-16T07:45:41Z</time>
      </trkpt>
      <trkpt lat="43.80477" lon="-1.40469">
        <ele>14.6</ele>
        <time>2021-10-16T07:45:44Z</time>
      </trkpt>
      <trkpt lat="43.80477" lon="-1.40469">
        <ele>14.8</ele>
        <time>2021-10-16T07:45:45Z</time>
      </trkpt>
      <trkpt lat="43.80469" lon="-1.4047">
        <ele>15.6</ele>
        <time>2021-10-16T07:45:53Z</time>
      </trkpt>
      <trkpt lat="43.80468" lon="-1.4047">
        <ele>15.6</ele>
        <time>2021-10-16T07:45:54Z</time>
      </trkpt>
      <trkpt lat="43.80468" lon="-1.4047">
        <ele>15.6</ele>
        <time>2021-10-16T07:45:55Z</time>
      </trkpt>
      <trkpt lat="43.80467" lon="-1.40469">
        <ele>16</ele>
        <time>2021-10-16T07:45:58Z</time>
      </trkpt>
      <trkpt lat="43.80466" lon="-1.40468">
        <ele>16</ele>
        <time>2021-10-16T07:45:59Z</time>
      </trkpt>
      <trkpt lat="43.80461" lon="-1.40464">
        <ele>16.6</ele>
        <time>2021-10-16T07:46:06Z</time>
      </trkpt>
      <trkpt lat="43.8046" lon="-1.40464">
        <ele>16.8</ele>
        <time>2021-10-16T07:46:07Z</time>
      </trkpt>
      <trkpt lat="43.80459" lon="-1.40464">
        <ele>17</ele>
        <time>2021-10-16T07:46:08Z</time>
      </trkpt>
      <trkpt lat="43.80458" lon="-1.40464">
        <ele>17</ele>
        <time>2021-10-16T07:46:09Z</time>
      </trkpt>
      <trkpt lat="43.80457" lon="-1.40464">
        <ele>17.2</ele>
        <time>2021-10-16T07:46:10Z</time>
      </trkpt>
      <trkpt lat="43.80456" lon="-1.40465">
        <ele>17.2</ele>
        <time>2021-10-16T07:46:12Z</time>
      </trkpt>
      <trkpt lat="43.80455" lon="-1.40466">
        <ele>17.2</ele>
        <time>2021-10-16T07:46:14Z</time>
      </trkpt>
      <trkpt lat="43.80454" lon="-1.40466">
        <ele>17.2</ele>
        <time>2021-10-16T07:46:16Z</time>
      </trkpt>
      <trkpt lat="43.80454" lon="-1.40466">
        <ele>17.2</ele>
        <time>2021-10-16T07:46:18Z</time>
      </trkpt>
      <trkpt lat="43.80454" lon="-1.40466">
        <ele>17.2</ele>
        <time>2021-10-16T07:46:19Z</time>
      </trkpt>
      <trkpt lat="43.80454" lon="-1.40467">
        <ele>17.2</ele>
        <time>2021-10-16T07:46:20Z</time>
      </trkpt>
      <trkpt lat="43.80454" lon="-1.40467">
        <ele>17.2</ele>
        <time>2021-10-16T07:46:21Z</time>
      </trkpt>
      <trkpt lat="43.80453" lon="-1.40467">
        <ele>17.2</ele>
        <time>2021-10-16T07:46:22Z</time>
      </trkpt>
      <trkpt lat="43.80453" lon="-1.40468">
        <ele>17</ele>
        <time>2021-10-16T07:46:24Z</time>
      </trkpt>
      <trkpt lat="43.80453" lon="-1.40468">
        <ele>16.8</ele>
        <time>2021-10-16T07:46:25Z</time>
      </trkpt>
      <trkpt lat="43.80452" lon="-1.40468">
        <ele>16.4</ele>
        <time>2021-10-16T07:46:29Z</time>
      </trkpt>
      <trkpt lat="43.80447" lon="-1.40466">
        <ele>16.4</ele>
        <time>2021-10-16T07:46:45Z</time>
      </trkpt>
      <trkpt lat="43.8044" lon="-1.40461">
        <ele>16.4</ele>
        <time>2021-10-16T07:46:49Z</time>
      </trkpt>
      <trkpt lat="43.80437" lon="-1.40458">
        <ele>16.4</ele>
        <time>2021-10-16T07:46:52Z</time>
      </trkpt>
      <trkpt lat="43.80436" lon="-1.40458">
        <ele>16.4</ele>
        <time>2021-10-16T07:46:53Z</time>
      </trkpt>
      <trkpt lat="43.80435" lon="-1.40458">
        <ele>16.4</ele>
        <time>2021-10-16T07:46:54Z</time>
      </trkpt>
      <trkpt lat="43.80435" lon="-1.40458">
        <ele>16.2</ele>
        <time>2021-10-16T07:46:55Z</time>
      </trkpt>
      <trkpt lat="43.80434" lon="-1.40458">
        <ele>16.2</ele>
        <time>2021-10-16T07:46:56Z</time>
      </trkpt>
      <trkpt lat="43.80433" lon="-1.40458">
        <ele>16.2</ele>
        <time>2021-10-16T07:46:57Z</time>
      </trkpt>
      <trkpt lat="43.80432" lon="-1.40457">
        <ele>16.2</ele>
        <time>2021-10-16T07:46:59Z</time>
      </trkpt>
      <trkpt lat="43.80432" lon="-1.40457">
        <ele>16</ele>
        <time>2021-10-16T07:47:00Z</time>
      </trkpt>
      <trkpt lat="43.80431" lon="-1.40458">
        <ele>16</ele>
        <time>2021-10-16T07:47:01Z</time>
      </trkpt>
      <trkpt lat="43.8043" lon="-1.40458">
        <ele>16</ele>
        <time>2021-10-16T07:47:02Z</time>
      </trkpt>
      <trkpt lat="43.8043" lon="-1.40458">
        <ele>15.8</ele>
        <time>2021-10-16T07:47:03Z</time>
      </trkpt>
      <trkpt lat="43.80429" lon="-1.40461">
        <ele>15.8</ele>
        <time>2021-10-16T07:47:05Z</time>
      </trkpt>
      <trkpt lat="43.80426" lon="-1.40462">
        <ele>15.6</ele>
        <time>2021-10-16T07:47:06Z</time>
      </trkpt>
      <trkpt lat="43.80425" lon="-1.40463">
        <ele>15.4</ele>
        <time>2021-10-16T07:47:07Z</time>
      </trkpt>
      <trkpt lat="43.8042" lon="-1.40464">
        <ele>15.2</ele>
        <time>2021-10-16T07:47:09Z</time>
      </trkpt>
      <trkpt lat="43.80418" lon="-1.40461">
        <ele>15</ele>
        <time>2021-10-16T07:47:10Z</time>
      </trkpt>
      <trkpt lat="43.80414" lon="-1.40461">
        <ele>14.8</ele>
        <time>2021-10-16T07:47:12Z</time>
      </trkpt>
      <trkpt lat="43.80414" lon="-1.4046">
        <ele>14.6</ele>
        <time>2021-10-16T07:47:13Z</time>
      </trkpt>
      <trkpt lat="43.80414" lon="-1.4046">
        <ele>14.6</ele>
        <time>2021-10-16T07:47:14Z</time>
      </trkpt>
      <trkpt lat="43.80414" lon="-1.4046">
        <ele>14.4</ele>
        <time>2021-10-16T07:47:15Z</time>
      </trkpt>
      <trkpt lat="43.80414" lon="-1.4046">
        <ele>14.2</ele>
        <time>2021-10-16T07:47:19Z</time>
      </trkpt>
      <trkpt lat="43.80407" lon="-1.40461">
        <ele>14</ele>
        <time>2021-10-16T07:47:25Z</time>
      </trkpt>
      <trkpt lat="43.80403" lon="-1.40461">
        <ele>13.8</ele>
        <time>2021-10-16T07:47:27Z</time>
      </trkpt>
      <trkpt lat="43.80398" lon="-1.40463">
        <ele>13.4</ele>
        <time>2021-10-16T07:47:31Z</time>
      </trkpt>
      <trkpt lat="43.80396" lon="-1.40463">
        <ele>13.2</ele>
        <time>2021-10-16T07:47:32Z</time>
      </trkpt>
      <trkpt lat="43.80393" lon="-1.40463">
        <ele>12.8</ele>
        <time>2021-10-16T07:47:34Z</time>
      </trkpt>
      <trkpt lat="43.80389" lon="-1.40464">
        <ele>12.2</ele>
        <time>2021-10-16T07:47:36Z</time>
      </trkpt>
      <trkpt lat="43.80388" lon="-1.40464">
        <ele>12</ele>
        <time>2021-10-16T07:47:37Z</time>
      </trkpt>
      <trkpt lat="43.80386" lon="-1.40464">
        <ele>11.8</ele>
        <time>2021-10-16T07:47:38Z</time>
      </trkpt>
      <trkpt lat="43.80383" lon="-1.40463">
        <ele>11.8</ele>
        <time>2021-10-16T07:47:39Z</time>
      </trkpt>
      <trkpt lat="43.80382" lon="-1.40463">
        <ele>11.8</ele>
        <time>2021-10-16T07:47:40Z</time>
      </trkpt>
      <trkpt lat="43.80379" lon="-1.40463">
        <ele>11.6</ele>
        <time>2021-10-16T07:47:41Z</time>
      </trkpt>
      <trkpt lat="43.80371" lon="-1.40466">
        <ele>11.4</ele>
        <time>2021-10-16T07:47:44Z</time>
      </trkpt>
      <trkpt lat="43.80366" lon="-1.40467">
        <ele>11.4</ele>
        <time>2021-10-16T07:47:46Z</time>
      </trkpt>
      <trkpt lat="43.80363" lon="-1.40468">
        <ele>11.2</ele>
        <time>2021-10-16T07:47:47Z</time>
      </trkpt>
      <trkpt lat="43.80355" lon="-1.40473">
        <ele>10.8</ele>
        <time>2021-10-16T07:47:51Z</time>
      </trkpt>
      <trkpt lat="43.80353" lon="-1.40474">
        <ele>10.8</ele>
        <time>2021-10-16T07:47:52Z</time>
      </trkpt>
      <trkpt lat="43.80351" lon="-1.40474">
        <ele>10.6</ele>
        <time>2021-10-16T07:47:53Z</time>
      </trkpt>
      <trkpt lat="43.80349" lon="-1.40473">
        <ele>10.4</ele>
        <time>2021-10-16T07:47:55Z</time>
      </trkpt>
      <trkpt lat="43.80348" lon="-1.40473">
        <ele>10.4</ele>
        <time>2021-10-16T07:47:56Z</time>
      </trkpt>
      <trkpt lat="43.80346" lon="-1.40472">
        <ele>10.4</ele>
        <time>2021-10-16T07:47:57Z</time>
      </trkpt>
      <trkpt lat="43.80345" lon="-1.4047">
        <ele>10.4</ele>
        <time>2021-10-16T07:47:58Z</time>
      </trkpt>
      <trkpt lat="43.80344" lon="-1.40468">
        <ele>10.4</ele>
        <time>2021-10-16T07:47:59Z</time>
      </trkpt>
      <trkpt lat="43.80343" lon="-1.40466">
        <ele>10.4</ele>
        <time>2021-10-16T07:48:00Z</time>
      </trkpt>
      <trkpt lat="43.80343" lon="-1.40464">
        <ele>10.4</ele>
        <time>2021-10-16T07:48:01Z</time>
      </trkpt>
      <trkpt lat="43.80343" lon="-1.40462">
        <ele>10.4</ele>
        <time>2021-10-16T07:48:02Z</time>
      </trkpt>
      <trkpt lat="43.80342" lon="-1.4046">
        <ele>10.4</ele>
        <time>2021-10-16T07:48:03Z</time>
      </trkpt>
      <trkpt lat="43.80342" lon="-1.40457">
        <ele>10.6</ele>
        <time>2021-10-16T07:48:04Z</time>
      </trkpt>
      <trkpt lat="43.80341" lon="-1.40455">
        <ele>10.6</ele>
        <time>2021-10-16T07:48:05Z</time>
      </trkpt>
      <trkpt lat="43.80339" lon="-1.40444">
        <ele>10.8</ele>
        <time>2021-10-16T07:48:10Z</time>
      </trkpt>
      <trkpt lat="43.80338" lon="-1.40438">
        <ele>11</ele>
        <time>2021-10-16T07:48:13Z</time>
      </trkpt>
      <trkpt lat="43.80334" lon="-1.40421">
        <ele>11.4</ele>
        <time>2021-10-16T07:48:20Z</time>
      </trkpt>
      <trkpt lat="43.8033" lon="-1.40398">
        <ele>12.2</ele>
        <time>2021-10-16T07:48:28Z</time>
      </trkpt>
      <trkpt lat="43.8033" lon="-1.40395">
        <ele>12.2</ele>
        <time>2021-10-16T07:48:29Z</time>
      </trkpt>
      <trkpt lat="43.80327" lon="-1.40383">
        <ele>12.6</ele>
        <time>2021-10-16T07:48:34Z</time>
      </trkpt>
      <trkpt lat="43.80326" lon="-1.40381">
        <ele>12.6</ele>
        <time>2021-10-16T07:48:35Z</time>
      </trkpt>
      <trkpt lat="43.80326" lon="-1.40378">
        <ele>12.8</ele>
        <time>2021-10-16T07:48:36Z</time>
      </trkpt>
      <trkpt lat="43.80325" lon="-1.40376">
        <ele>13</ele>
        <time>2021-10-16T07:48:37Z</time>
      </trkpt>
      <trkpt lat="43.80325" lon="-1.40374">
        <ele>13</ele>
        <time>2021-10-16T07:48:38Z</time>
      </trkpt>
      <trkpt lat="43.80324" lon="-1.40373">
        <ele>13.2</ele>
        <time>2021-10-16T07:48:39Z</time>
      </trkpt>
      <trkpt lat="43.80324" lon="-1.40373">
        <ele>13.4</ele>
        <time>2021-10-16T07:48:40Z</time>
      </trkpt>
      <trkpt lat="43.80324" lon="-1.40373">
        <ele>13.6</ele>
        <time>2021-10-16T07:48:42Z</time>
      </trkpt>
      <trkpt lat="43.80324" lon="-1.40375">
        <ele>13.8</ele>
        <time>2021-10-16T07:48:53Z</time>
      </trkpt>
      <trkpt lat="43.80323" lon="-1.40375">
        <ele>13.8</ele>
        <time>2021-10-16T07:48:55Z</time>
      </trkpt>
      <trkpt lat="43.8032" lon="-1.40373">
        <ele>13.6</ele>
        <time>2021-10-16T07:49:47Z</time>
      </trkpt>
      <trkpt lat="43.80317" lon="-1.40373">
        <ele>13.6</ele>
        <time>2021-10-16T07:49:48Z</time>
      </trkpt>
      <trkpt lat="43.80312" lon="-1.40376">
        <ele>13.4</ele>
        <time>2021-10-16T07:49:50Z</time>
      </trkpt>
      <trkpt lat="43.80308" lon="-1.40378">
        <ele>13.4</ele>
        <time>2021-10-16T07:49:51Z</time>
      </trkpt>
      <trkpt lat="43.80305" lon="-1.40379">
        <ele>13.4</ele>
        <time>2021-10-16T07:49:52Z</time>
      </trkpt>
      <trkpt lat="43.80297" lon="-1.40384">
        <ele>13.2</ele>
        <time>2021-10-16T07:49:55Z</time>
      </trkpt>
      <trkpt lat="43.80295" lon="-1.40386">
        <ele>13.2</ele>
        <time>2021-10-16T07:49:56Z</time>
      </trkpt>
      <trkpt lat="43.80292" lon="-1.40388">
        <ele>13</ele>
        <time>2021-10-16T07:49:57Z</time>
      </trkpt>
      <trkpt lat="43.8029" lon="-1.4039">
        <ele>13</ele>
        <time>2021-10-16T07:49:58Z</time>
      </trkpt>
      <trkpt lat="43.80288" lon="-1.40391">
        <ele>13</ele>
        <time>2021-10-16T07:49:59Z</time>
      </trkpt>
      <trkpt lat="43.80286" lon="-1.40393">
        <ele>13</ele>
        <time>2021-10-16T07:50:00Z</time>
      </trkpt>
      <trkpt lat="43.80284" lon="-1.40395">
        <ele>13</ele>
        <time>2021-10-16T07:50:01Z</time>
      </trkpt>
      <trkpt lat="43.80282" lon="-1.40397">
        <ele>13.2</ele>
        <time>2021-10-16T07:50:02Z</time>
      </trkpt>
      <trkpt lat="43.8028" lon="-1.40398">
        <ele>13.4</ele>
        <time>2021-10-16T07:50:03Z</time>
      </trkpt>
      <trkpt lat="43.80278" lon="-1.404">
        <ele>13.6</ele>
        <time>2021-10-16T07:50:04Z</time>
      </trkpt>
      <trkpt lat="43.80277" lon="-1.40401">
        <ele>13.6</ele>
        <time>2021-10-16T07:50:05Z</time>
      </trkpt>
      <trkpt lat="43.80275" lon="-1.40403">
        <ele>13.8</ele>
        <time>2021-10-16T07:50:06Z</time>
      </trkpt>
      <trkpt lat="43.80273" lon="-1.40404">
        <ele>14</ele>
        <time>2021-10-16T07:50:07Z</time>
      </trkpt>
      <trkpt lat="43.80271" lon="-1.40405">
        <ele>14.2</ele>
        <time>2021-10-16T07:50:08Z</time>
      </trkpt>
      <trkpt lat="43.80269" lon="-1.40406">
        <ele>14.4</ele>
        <time>2021-10-16T07:50:09Z</time>
      </trkpt>
      <trkpt lat="43.80267" lon="-1.40408">
        <ele>14.6</ele>
        <time>2021-10-16T07:50:10Z</time>
      </trkpt>
      <trkpt lat="43.80265" lon="-1.40409">
        <ele>14.8</ele>
        <time>2021-10-16T07:50:11Z</time>
      </trkpt>
      <trkpt lat="43.80264" lon="-1.4041">
        <ele>15.2</ele>
        <time>2021-10-16T07:50:12Z</time>
      </trkpt>
      <trkpt lat="43.80262" lon="-1.40411">
        <ele>15.2</ele>
        <time>2021-10-16T07:50:13Z</time>
      </trkpt>
      <trkpt lat="43.80261" lon="-1.40412">
        <ele>15.6</ele>
        <time>2021-10-16T07:50:14Z</time>
      </trkpt>
      <trkpt lat="43.80259" lon="-1.40413">
        <ele>15.8</ele>
        <time>2021-10-16T07:50:15Z</time>
      </trkpt>
      <trkpt lat="43.80257" lon="-1.40414">
        <ele>16.2</ele>
        <time>2021-10-16T07:50:16Z</time>
      </trkpt>
      <trkpt lat="43.80256" lon="-1.40414">
        <ele>16.2</ele>
        <time>2021-10-16T07:50:17Z</time>
      </trkpt>
      <trkpt lat="43.80254" lon="-1.40415">
        <ele>16.6</ele>
        <time>2021-10-16T07:50:18Z</time>
      </trkpt>
      <trkpt lat="43.80252" lon="-1.40416">
        <ele>16.6</ele>
        <time>2021-10-16T07:50:19Z</time>
      </trkpt>
      <trkpt lat="43.80251" lon="-1.40417">
        <ele>17.2</ele>
        <time>2021-10-16T07:50:20Z</time>
      </trkpt>
      <trkpt lat="43.80249" lon="-1.40419">
        <ele>17.4</ele>
        <time>2021-10-16T07:50:21Z</time>
      </trkpt>
      <trkpt lat="43.80248" lon="-1.4042">
        <ele>17.6</ele>
        <time>2021-10-16T07:50:22Z</time>
      </trkpt>
      <trkpt lat="43.80246" lon="-1.40421">
        <ele>17.8</ele>
        <time>2021-10-16T07:50:23Z</time>
      </trkpt>
      <trkpt lat="43.80243" lon="-1.40422">
        <ele>17.8</ele>
        <time>2021-10-16T07:50:24Z</time>
      </trkpt>
      <trkpt lat="43.80241" lon="-1.40424">
        <ele>18.2</ele>
        <time>2021-10-16T07:50:25Z</time>
      </trkpt>
      <trkpt lat="43.80239" lon="-1.40425">
        <ele>18.4</ele>
        <time>2021-10-16T07:50:26Z</time>
      </trkpt>
      <trkpt lat="43.80238" lon="-1.40427">
        <ele>18.6</ele>
        <time>2021-10-16T07:50:27Z</time>
      </trkpt>
      <trkpt lat="43.80236" lon="-1.40428">
        <ele>18.6</ele>
        <time>2021-10-16T07:50:28Z</time>
      </trkpt>
      <trkpt lat="43.80234" lon="-1.4043">
        <ele>19</ele>
        <time>2021-10-16T07:50:29Z</time>
      </trkpt>
      <trkpt lat="43.80232" lon="-1.40431">
        <ele>19</ele>
        <time>2021-10-16T07:50:30Z</time>
      </trkpt>
      <trkpt lat="43.80231" lon="-1.40432">
        <ele>19.4</ele>
        <time>2021-10-16T07:50:31Z</time>
      </trkpt>
      <trkpt lat="43.80229" lon="-1.40433">
        <ele>19.4</ele>
        <time>2021-10-16T07:50:32Z</time>
      </trkpt>
      <trkpt lat="43.80227" lon="-1.40434">
        <ele>19.6</ele>
        <time>2021-10-16T07:50:33Z</time>
      </trkpt>
      <trkpt lat="43.80225" lon="-1.40435">
        <ele>19.8</ele>
        <time>2021-10-16T07:50:34Z</time>
      </trkpt>
      <trkpt lat="43.80223" lon="-1.40436">
        <ele>20</ele>
        <time>2021-10-16T07:50:35Z</time>
      </trkpt>
      <trkpt lat="43.80221" lon="-1.40439">
        <ele>20</ele>
        <time>2021-10-16T07:50:36Z</time>
      </trkpt>
      <trkpt lat="43.80218" lon="-1.40441">
        <ele>20</ele>
        <time>2021-10-16T07:50:37Z</time>
      </trkpt>
      <trkpt lat="43.80214" lon="-1.40445">
        <ele>20.2</ele>
        <time>2021-10-16T07:50:38Z</time>
      </trkpt>
      <trkpt lat="43.80211" lon="-1.40449">
        <ele>20.2</ele>
        <time>2021-10-16T07:50:39Z</time>
      </trkpt>
      <trkpt lat="43.80207" lon="-1.40454">
        <ele>20.2</ele>
        <time>2021-10-16T07:50:40Z</time>
      </trkpt>
      <trkpt lat="43.80203" lon="-1.40459">
        <ele>20</ele>
        <time>2021-10-16T07:50:41Z</time>
      </trkpt>
      <trkpt lat="43.80199" lon="-1.40463">
        <ele>19.8</ele>
        <time>2021-10-16T07:50:42Z</time>
      </trkpt>
      <trkpt lat="43.80195" lon="-1.40468">
        <ele>19.8</ele>
        <time>2021-10-16T07:50:43Z</time>
      </trkpt>
      <trkpt lat="43.80191" lon="-1.40471">
        <ele>19.4</ele>
        <time>2021-10-16T07:50:44Z</time>
      </trkpt>
      <trkpt lat="43.80187" lon="-1.40473">
        <ele>19.4</ele>
        <time>2021-10-16T07:50:45Z</time>
      </trkpt>
      <trkpt lat="43.80183" lon="-1.40475">
        <ele>19</ele>
        <time>2021-10-16T07:50:46Z</time>
      </trkpt>
      <trkpt lat="43.80179" lon="-1.40475">
        <ele>19</ele>
        <time>2021-10-16T07:50:47Z</time>
      </trkpt>
      <trkpt lat="43.80175" lon="-1.40476">
        <ele>18.8</ele>
        <time>2021-10-16T07:50:48Z</time>
      </trkpt>
      <trkpt lat="43.80172" lon="-1.40476">
        <ele>18.8</ele>
        <time>2021-10-16T07:50:49Z</time>
      </trkpt>
      <trkpt lat="43.80169" lon="-1.40476">
        <ele>18.8</ele>
        <time>2021-10-16T07:50:50Z</time>
      </trkpt>
      <trkpt lat="43.80166" lon="-1.40476">
        <ele>18.8</ele>
        <time>2021-10-16T07:50:51Z</time>
      </trkpt>
      <trkpt lat="43.80164" lon="-1.40476">
        <ele>18.8</ele>
        <time>2021-10-16T07:50:52Z</time>
      </trkpt>
      <trkpt lat="43.80161" lon="-1.40476">
        <ele>18.8</ele>
        <time>2021-10-16T07:50:53Z</time>
      </trkpt>
      <trkpt lat="43.80158" lon="-1.40475">
        <ele>18.8</ele>
        <time>2021-10-16T07:50:54Z</time>
      </trkpt>
      <trkpt lat="43.80149" lon="-1.40475">
        <ele>19</ele>
        <time>2021-10-16T07:50:57Z</time>
      </trkpt>
      <trkpt lat="43.80147" lon="-1.40475">
        <ele>19.2</ele>
        <time>2021-10-16T07:50:58Z</time>
      </trkpt>
      <trkpt lat="43.80144" lon="-1.40475">
        <ele>19.4</ele>
        <time>2021-10-16T07:50:59Z</time>
      </trkpt>
      <trkpt lat="43.80141" lon="-1.40475">
        <ele>19.6</ele>
        <time>2021-10-16T07:51:00Z</time>
      </trkpt>
      <trkpt lat="43.80139" lon="-1.40474">
        <ele>19.8</ele>
        <time>2021-10-16T07:51:01Z</time>
      </trkpt>
      <trkpt lat="43.80137" lon="-1.40475">
        <ele>20</ele>
        <time>2021-10-16T07:51:02Z</time>
      </trkpt>
      <trkpt lat="43.80134" lon="-1.40475">
        <ele>20.2</ele>
        <time>2021-10-16T07:51:03Z</time>
      </trkpt>
      <trkpt lat="43.80133" lon="-1.40475">
        <ele>20.4</ele>
        <time>2021-10-16T07:51:04Z</time>
      </trkpt>
      <trkpt lat="43.80131" lon="-1.40475">
        <ele>20.6</ele>
        <time>2021-10-16T07:51:05Z</time>
      </trkpt>
      <trkpt lat="43.80129" lon="-1.40476">
        <ele>20.8</ele>
        <time>2021-10-16T07:51:06Z</time>
      </trkpt>
      <trkpt lat="43.80126" lon="-1.40477">
        <ele>21</ele>
        <time>2021-10-16T07:51:07Z</time>
      </trkpt>
      <trkpt lat="43.80115" lon="-1.40481">
        <ele>21</ele>
        <time>2021-10-16T07:51:10Z</time>
      </trkpt>
      <trkpt lat="43.80082" lon="-1.40489">
        <ele>20.6</ele>
        <time>2021-10-16T07:51:16Z</time>
      </trkpt>
      <trkpt lat="43.80071" lon="-1.4049">
        <ele>20.2</ele>
        <time>2021-10-16T07:51:18Z</time>
      </trkpt>
      <trkpt lat="43.80067" lon="-1.40491">
        <ele>19.6</ele>
        <time>2021-10-16T07:51:19Z</time>
      </trkpt>
      <trkpt lat="43.80064" lon="-1.40491">
        <ele>19.4</ele>
        <time>2021-10-16T07:51:20Z</time>
      </trkpt>
      <trkpt lat="43.80061" lon="-1.40491">
        <ele>19.2</ele>
        <time>2021-10-16T07:51:21Z</time>
      </trkpt>
      <trkpt lat="43.80058" lon="-1.40493">
        <ele>19.2</ele>
        <time>2021-10-16T07:51:22Z</time>
      </trkpt>
      <trkpt lat="43.80055" lon="-1.40494">
        <ele>19.2</ele>
        <time>2021-10-16T07:51:23Z</time>
      </trkpt>
      <trkpt lat="43.80052" lon="-1.40495">
        <ele>19.2</ele>
        <time>2021-10-16T07:51:24Z</time>
      </trkpt>
      <trkpt lat="43.80045" lon="-1.40497">
        <ele>19.2</ele>
        <time>2021-10-16T07:51:26Z</time>
      </trkpt>
      <trkpt lat="43.80012" lon="-1.40499">
        <ele>19.4</ele>
        <time>2021-10-16T07:51:35Z</time>
      </trkpt>
      <trkpt lat="43.79983" lon="-1.40506">
        <ele>18.8</ele>
        <time>2021-10-16T07:51:42Z</time>
      </trkpt>
      <trkpt lat="43.79963" lon="-1.40512">
        <ele>18.6</ele>
        <time>2021-10-16T07:51:45Z</time>
      </trkpt>
      <trkpt lat="43.79956" lon="-1.40514">
        <ele>18.2</ele>
        <time>2021-10-16T07:51:46Z</time>
      </trkpt>
      <trkpt lat="43.7995" lon="-1.40516">
        <ele>17.2</ele>
        <time>2021-10-16T07:51:47Z</time>
      </trkpt>
      <trkpt lat="43.79944" lon="-1.40518">
        <ele>16.8</ele>
        <time>2021-10-16T07:51:48Z</time>
      </trkpt>
      <trkpt lat="43.79939" lon="-1.40521">
        <ele>16.2</ele>
        <time>2021-10-16T07:51:49Z</time>
      </trkpt>
      <trkpt lat="43.79934" lon="-1.40523">
        <ele>15.8</ele>
        <time>2021-10-16T07:51:50Z</time>
      </trkpt>
      <trkpt lat="43.79929" lon="-1.40526">
        <ele>15.4</ele>
        <time>2021-10-16T07:51:51Z</time>
      </trkpt>
      <trkpt lat="43.79925" lon="-1.40529">
        <ele>15.4</ele>
        <time>2021-10-16T07:51:52Z</time>
      </trkpt>
      <trkpt lat="43.79921" lon="-1.40532">
        <ele>15.2</ele>
        <time>2021-10-16T07:51:53Z</time>
      </trkpt>
      <trkpt lat="43.79918" lon="-1.40536">
        <ele>15</ele>
        <time>2021-10-16T07:51:54Z</time>
      </trkpt>
      <trkpt lat="43.79915" lon="-1.40539">
        <ele>14.8</ele>
        <time>2021-10-16T07:51:55Z</time>
      </trkpt>
      <trkpt lat="43.79911" lon="-1.40542">
        <ele>14.6</ele>
        <time>2021-10-16T07:51:56Z</time>
      </trkpt>
      <trkpt lat="43.79909" lon="-1.40545">
        <ele>14.4</ele>
        <time>2021-10-16T07:51:57Z</time>
      </trkpt>
      <trkpt lat="43.79906" lon="-1.40549">
        <ele>14.2</ele>
        <time>2021-10-16T07:51:58Z</time>
      </trkpt>
      <trkpt lat="43.79904" lon="-1.40552">
        <ele>14</ele>
        <time>2021-10-16T07:51:59Z</time>
      </trkpt>
      <trkpt lat="43.79901" lon="-1.40555">
        <ele>14</ele>
        <time>2021-10-16T07:52:00Z</time>
      </trkpt>
      <trkpt lat="43.79898" lon="-1.40558">
        <ele>13.8</ele>
        <time>2021-10-16T07:52:01Z</time>
      </trkpt>
      <trkpt lat="43.79895" lon="-1.40561">
        <ele>13.4</ele>
        <time>2021-10-16T07:52:02Z</time>
      </trkpt>
      <trkpt lat="43.79892" lon="-1.40563">
        <ele>13.2</ele>
        <time>2021-10-16T07:52:03Z</time>
      </trkpt>
      <trkpt lat="43.79889" lon="-1.40564">
        <ele>13</ele>
        <time>2021-10-16T07:52:04Z</time>
      </trkpt>
      <trkpt lat="43.79887" lon="-1.40563">
        <ele>12.8</ele>
        <time>2021-10-16T07:52:05Z</time>
      </trkpt>
      <trkpt lat="43.79884" lon="-1.4056">
        <ele>12.8</ele>
        <time>2021-10-16T07:52:06Z</time>
      </trkpt>
      <trkpt lat="43.79882" lon="-1.40557">
        <ele>12.4</ele>
        <time>2021-10-16T07:52:07Z</time>
      </trkpt>
      <trkpt lat="43.79881" lon="-1.40554">
        <ele>12.2</ele>
        <time>2021-10-16T07:52:08Z</time>
      </trkpt>
      <trkpt lat="43.79881" lon="-1.4055">
        <ele>12</ele>
        <time>2021-10-16T07:52:09Z</time>
      </trkpt>
      <trkpt lat="43.79881" lon="-1.40547">
        <ele>12</ele>
        <time>2021-10-16T07:52:10Z</time>
      </trkpt>
      <trkpt lat="43.79881" lon="-1.40543">
        <ele>11.8</ele>
        <time>2021-10-16T07:52:11Z</time>
      </trkpt>
      <trkpt lat="43.7988" lon="-1.4054">
        <ele>11.8</ele>
        <time>2021-10-16T07:52:12Z</time>
      </trkpt>
      <trkpt lat="43.7988" lon="-1.40537">
        <ele>11.8</ele>
        <time>2021-10-16T07:52:13Z</time>
      </trkpt>
      <trkpt lat="43.7988" lon="-1.40535">
        <ele>11.8</ele>
        <time>2021-10-16T07:52:14Z</time>
      </trkpt>
      <trkpt lat="43.79879" lon="-1.40532">
        <ele>12</ele>
        <time>2021-10-16T07:52:15Z</time>
      </trkpt>
      <trkpt lat="43.79878" lon="-1.4053">
        <ele>12.2</ele>
        <time>2021-10-16T07:52:16Z</time>
      </trkpt>
      <trkpt lat="43.79876" lon="-1.40528">
        <ele>12.2</ele>
        <time>2021-10-16T07:52:17Z</time>
      </trkpt>
      <trkpt lat="43.79874" lon="-1.40526">
        <ele>12.2</ele>
        <time>2021-10-16T07:52:18Z</time>
      </trkpt>
      <trkpt lat="43.79872" lon="-1.40526">
        <ele>12.2</ele>
        <time>2021-10-16T07:52:19Z</time>
      </trkpt>
      <trkpt lat="43.7987" lon="-1.40525">
        <ele>12.2</ele>
        <time>2021-10-16T07:52:20Z</time>
      </trkpt>
      <trkpt lat="43.79868" lon="-1.40525">
        <ele>12.2</ele>
        <time>2021-10-16T07:52:21Z</time>
      </trkpt>
      <trkpt lat="43.79866" lon="-1.40526">
        <ele>12.2</ele>
        <time>2021-10-16T07:52:22Z</time>
      </trkpt>
      <trkpt lat="43.79865" lon="-1.40526">
        <ele>12.2</ele>
        <time>2021-10-16T07:52:23Z</time>
      </trkpt>
      <trkpt lat="43.79864" lon="-1.40527">
        <ele>12.2</ele>
        <time>2021-10-16T07:52:24Z</time>
      </trkpt>
      <trkpt lat="43.79862" lon="-1.40527">
        <ele>11.8</ele>
        <time>2021-10-16T07:52:25Z</time>
      </trkpt>
      <trkpt lat="43.79861" lon="-1.40528">
        <ele>11.6</ele>
        <time>2021-10-16T07:52:26Z</time>
      </trkpt>
      <trkpt lat="43.7986" lon="-1.40528">
        <ele>11.6</ele>
        <time>2021-10-16T07:52:27Z</time>
      </trkpt>
      <trkpt lat="43.79859" lon="-1.40528">
        <ele>11.4</ele>
        <time>2021-10-16T07:52:28Z</time>
      </trkpt>
      <trkpt lat="43.79858" lon="-1.40528">
        <ele>11.4</ele>
        <time>2021-10-16T07:52:29Z</time>
      </trkpt>
      <trkpt lat="43.79856" lon="-1.40528">
        <ele>11.4</ele>
        <time>2021-10-16T07:52:30Z</time>
      </trkpt>
      <trkpt lat="43.79853" lon="-1.40528">
        <ele>11.2</ele>
        <time>2021-10-16T07:52:32Z</time>
      </trkpt>
      <trkpt lat="43.79847" lon="-1.40529">
        <ele>10.6</ele>
        <time>2021-10-16T07:52:36Z</time>
      </trkpt>
      <trkpt lat="43.79843" lon="-1.40528">
        <ele>10.4</ele>
        <time>2021-10-16T07:52:38Z</time>
      </trkpt>
      <trkpt lat="43.79841" lon="-1.40527">
        <ele>10.4</ele>
        <time>2021-10-16T07:52:39Z</time>
      </trkpt>
      <trkpt lat="43.79839" lon="-1.40525">
        <ele>10.4</ele>
        <time>2021-10-16T07:52:40Z</time>
      </trkpt>
      <trkpt lat="43.79837" lon="-1.40522">
        <ele>10.2</ele>
        <time>2021-10-16T07:52:41Z</time>
      </trkpt>
      <trkpt lat="43.79836" lon="-1.40518">
        <ele>10.2</ele>
        <time>2021-10-16T07:52:42Z</time>
      </trkpt>
      <trkpt lat="43.79836" lon="-1.40515">
        <ele>10</ele>
        <time>2021-10-16T07:52:43Z</time>
      </trkpt>
      <trkpt lat="43.79835" lon="-1.40512">
        <ele>9.8</ele>
        <time>2021-10-16T07:52:44Z</time>
      </trkpt>
      <trkpt lat="43.79834" lon="-1.40508">
        <ele>9.8</ele>
        <time>2021-10-16T07:52:45Z</time>
      </trkpt>
      <trkpt lat="43.79833" lon="-1.40504">
        <ele>9.8</ele>
        <time>2021-10-16T07:52:46Z</time>
      </trkpt>
      <trkpt lat="43.79833" lon="-1.40487">
        <ele>9.8</ele>
        <time>2021-10-16T07:52:51Z</time>
      </trkpt>
      <trkpt lat="43.79834" lon="-1.40484">
        <ele>9.8</ele>
        <time>2021-10-16T07:52:52Z</time>
      </trkpt>
      <trkpt lat="43.79834" lon="-1.4048">
        <ele>9.8</ele>
        <time>2021-10-16T07:52:53Z</time>
      </trkpt>
      <trkpt lat="43.79835" lon="-1.40475">
        <ele>9.8</ele>
        <time>2021-10-16T07:52:54Z</time>
      </trkpt>
      <trkpt lat="43.79835" lon="-1.40457">
        <ele>10</ele>
        <time>2021-10-16T07:52:58Z</time>
      </trkpt>
      <trkpt lat="43.79834" lon="-1.40453">
        <ele>10</ele>
        <time>2021-10-16T07:52:59Z</time>
      </trkpt>
      <trkpt lat="43.79833" lon="-1.40449">
        <ele>10</ele>
        <time>2021-10-16T07:53:00Z</time>
      </trkpt>
      <trkpt lat="43.79831" lon="-1.40445">
        <ele>10</ele>
        <time>2021-10-16T07:53:01Z</time>
      </trkpt>
      <trkpt lat="43.79829" lon="-1.4043">
        <ele>9.6</ele>
        <time>2021-10-16T07:53:04Z</time>
      </trkpt>
      <trkpt lat="43.79817" lon="-1.40398">
        <ele>9.6</ele>
        <time>2021-10-16T07:53:11Z</time>
      </trkpt>
      <trkpt lat="43.79814" lon="-1.40379">
        <ele>9.8</ele>
        <time>2021-10-16T07:53:15Z</time>
      </trkpt>
      <trkpt lat="43.79813" lon="-1.40376">
        <ele>9.8</ele>
        <time>2021-10-16T07:53:16Z</time>
      </trkpt>
      <trkpt lat="43.79812" lon="-1.40374">
        <ele>9.8</ele>
        <time>2021-10-16T07:53:17Z</time>
      </trkpt>
      <trkpt lat="43.79812" lon="-1.40371">
        <ele>9.8</ele>
        <time>2021-10-16T07:53:18Z</time>
      </trkpt>
      <trkpt lat="43.79811" lon="-1.40368">
        <ele>10</ele>
        <time>2021-10-16T07:53:19Z</time>
      </trkpt>
      <trkpt lat="43.7981" lon="-1.40366">
        <ele>10</ele>
        <time>2021-10-16T07:53:20Z</time>
      </trkpt>
      <trkpt lat="43.79809" lon="-1.40359">
        <ele>10</ele>
        <time>2021-10-16T07:53:22Z</time>
      </trkpt>
      <trkpt lat="43.79807" lon="-1.40334">
        <ele>10.4</ele>
        <time>2021-10-16T07:53:27Z</time>
      </trkpt>
      <trkpt lat="43.79803" lon="-1.40312">
        <ele>10.4</ele>
        <time>2021-10-16T07:53:31Z</time>
      </trkpt>
      <trkpt lat="43.79801" lon="-1.40308">
        <ele>10.4</ele>
        <time>2021-10-16T07:53:32Z</time>
      </trkpt>
      <trkpt lat="43.798" lon="-1.40304">
        <ele>10.4</ele>
        <time>2021-10-16T07:53:33Z</time>
      </trkpt>
      <trkpt lat="43.79799" lon="-1.40299">
        <ele>10.4</ele>
        <time>2021-10-16T07:53:34Z</time>
      </trkpt>
      <trkpt lat="43.79798" lon="-1.40295">
        <ele>10.4</ele>
        <time>2021-10-16T07:53:35Z</time>
      </trkpt>
      <trkpt lat="43.79796" lon="-1.4029">
        <ele>10.2</ele>
        <time>2021-10-16T07:53:36Z</time>
      </trkpt>
      <trkpt lat="43.79796" lon="-1.40284">
        <ele>10.2</ele>
        <time>2021-10-16T07:53:37Z</time>
      </trkpt>
      <trkpt lat="43.79794" lon="-1.40272">
        <ele>10.2</ele>
        <time>2021-10-16T07:53:39Z</time>
      </trkpt>
      <trkpt lat="43.79794" lon="-1.40262">
        <ele>10</ele>
        <time>2021-10-16T07:53:41Z</time>
      </trkpt>
      <trkpt lat="43.79788" lon="-1.40239">
        <ele>10</ele>
        <time>2021-10-16T07:53:45Z</time>
      </trkpt>
      <trkpt lat="43.79783" lon="-1.40196">
        <ele>9.8</ele>
        <time>2021-10-16T07:53:53Z</time>
      </trkpt>
      <trkpt lat="43.79779" lon="-1.40166">
        <ele>9.6</ele>
        <time>2021-10-16T07:53:59Z</time>
      </trkpt>
      <trkpt lat="43.79775" lon="-1.40142">
        <ele>9.6</ele>
        <time>2021-10-16T07:54:05Z</time>
      </trkpt>
      <trkpt lat="43.79774" lon="-1.40138">
        <ele>9.6</ele>
        <time>2021-10-16T07:54:06Z</time>
      </trkpt>
      <trkpt lat="43.79773" lon="-1.40134">
        <ele>9.6</ele>
        <time>2021-10-16T07:54:07Z</time>
      </trkpt>
      <trkpt lat="43.79772" lon="-1.4013">
        <ele>9.8</ele>
        <time>2021-10-16T07:54:08Z</time>
      </trkpt>
      <trkpt lat="43.79771" lon="-1.40126">
        <ele>9.8</ele>
        <time>2021-10-16T07:54:09Z</time>
      </trkpt>
      <trkpt lat="43.7977" lon="-1.40122">
        <ele>9.8</ele>
        <time>2021-10-16T07:54:10Z</time>
      </trkpt>
      <trkpt lat="43.79769" lon="-1.40118">
        <ele>9.8</ele>
        <time>2021-10-16T07:54:11Z</time>
      </trkpt>
      <trkpt lat="43.79767" lon="-1.4011">
        <ele>9.8</ele>
        <time>2021-10-16T07:54:13Z</time>
      </trkpt>
      <trkpt lat="43.7976" lon="-1.40068">
        <ele>9.8</ele>
        <time>2021-10-16T07:54:22Z</time>
      </trkpt>
      <trkpt lat="43.79759" lon="-1.40062">
        <ele>9.8</ele>
        <time>2021-10-16T07:54:23Z</time>
      </trkpt>
      <trkpt lat="43.79755" lon="-1.40032">
        <ele>9.8</ele>
        <time>2021-10-16T07:54:29Z</time>
      </trkpt>
      <trkpt lat="43.79753" lon="-1.40029">
        <ele>9.8</ele>
        <time>2021-10-16T07:54:30Z</time>
      </trkpt>
      <trkpt lat="43.79749" lon="-1.40027">
        <ele>9.8</ele>
        <time>2021-10-16T07:54:31Z</time>
      </trkpt>
      <trkpt lat="43.79746" lon="-1.40028">
        <ele>9.8</ele>
        <time>2021-10-16T07:54:32Z</time>
      </trkpt>
      <trkpt lat="43.79735" lon="-1.40032">
        <ele>9.8</ele>
        <time>2021-10-16T07:54:35Z</time>
      </trkpt>
      <trkpt lat="43.79732" lon="-1.40033">
        <ele>9.8</ele>
        <time>2021-10-16T07:54:36Z</time>
      </trkpt>
      <trkpt lat="43.79714" lon="-1.40041">
        <ele>9.6</ele>
        <time>2021-10-16T07:54:41Z</time>
      </trkpt>
      <trkpt lat="43.79682" lon="-1.40054">
        <ele>9.6</ele>
        <time>2021-10-16T07:54:49Z</time>
      </trkpt>
      <trkpt lat="43.79647" lon="-1.40069">
        <ele>9.6</ele>
        <time>2021-10-16T07:54:58Z</time>
      </trkpt>
      <trkpt lat="43.79631" lon="-1.40076">
        <ele>9.6</ele>
        <time>2021-10-16T07:55:02Z</time>
      </trkpt>
      <trkpt lat="43.79619" lon="-1.40081">
        <ele>9.6</ele>
        <time>2021-10-16T07:55:05Z</time>
      </trkpt>
      <trkpt lat="43.79604" lon="-1.40087">
        <ele>9.6</ele>
        <time>2021-10-16T07:55:09Z</time>
      </trkpt>
      <trkpt lat="43.796" lon="-1.40089">
        <ele>9.6</ele>
        <time>2021-10-16T07:55:10Z</time>
      </trkpt>
      <trkpt lat="43.79596" lon="-1.4009">
        <ele>9.6</ele>
        <time>2021-10-16T07:55:11Z</time>
      </trkpt>
      <trkpt lat="43.79592" lon="-1.40092">
        <ele>9.6</ele>
        <time>2021-10-16T07:55:12Z</time>
      </trkpt>
      <trkpt lat="43.79585" lon="-1.40095">
        <ele>9.6</ele>
        <time>2021-10-16T07:55:14Z</time>
      </trkpt>
      <trkpt lat="43.79569" lon="-1.40101">
        <ele>9.6</ele>
        <time>2021-10-16T07:55:18Z</time>
      </trkpt>
      <trkpt lat="43.79563" lon="-1.40105">
        <ele>9.8</ele>
        <time>2021-10-16T07:55:20Z</time>
      </trkpt>
      <trkpt lat="43.79561" lon="-1.40109">
        <ele>9.8</ele>
        <time>2021-10-16T07:55:21Z</time>
      </trkpt>
      <trkpt lat="43.7956" lon="-1.40113">
        <ele>9.8</ele>
        <time>2021-10-16T07:55:22Z</time>
      </trkpt>
      <trkpt lat="43.79561" lon="-1.40118">
        <ele>9.8</ele>
        <time>2021-10-16T07:55:23Z</time>
      </trkpt>
      <trkpt lat="43.79563" lon="-1.40122">
        <ele>9.8</ele>
        <time>2021-10-16T07:55:24Z</time>
      </trkpt>
      <trkpt lat="43.79567" lon="-1.40131">
        <ele>9.8</ele>
        <time>2021-10-16T07:55:26Z</time>
      </trkpt>
      <trkpt lat="43.7957" lon="-1.40135">
        <ele>10</ele>
        <time>2021-10-16T07:55:27Z</time>
      </trkpt>
      <trkpt lat="43.79572" lon="-1.40139">
        <ele>10</ele>
        <time>2021-10-16T07:55:28Z</time>
      </trkpt>
      <trkpt lat="43.79575" lon="-1.40144">
        <ele>10</ele>
        <time>2021-10-16T07:55:29Z</time>
      </trkpt>
      <trkpt lat="43.79579" lon="-1.40154">
        <ele>10</ele>
        <time>2021-10-16T07:55:31Z</time>
      </trkpt>
      <trkpt lat="43.79584" lon="-1.40165">
        <ele>10</ele>
        <time>2021-10-16T07:55:33Z</time>
      </trkpt>
      <trkpt lat="43.79585" lon="-1.40171">
        <ele>10</ele>
        <time>2021-10-16T07:55:34Z</time>
      </trkpt>
      <trkpt lat="43.79592" lon="-1.40193">
        <ele>10</ele>
        <time>2021-10-16T07:55:38Z</time>
      </trkpt>
      <trkpt lat="43.79593" lon="-1.40199">
        <ele>10</ele>
        <time>2021-10-16T07:55:39Z</time>
      </trkpt>
      <trkpt lat="43.79593" lon="-1.40223">
        <ele>10</ele>
        <time>2021-10-16T07:55:43Z</time>
      </trkpt>
      <trkpt lat="43.79591" lon="-1.40233">
        <ele>10</ele>
        <time>2021-10-16T07:55:45Z</time>
      </trkpt>
      <trkpt lat="43.79585" lon="-1.40248">
        <ele>10.2</ele>
        <time>2021-10-16T07:55:48Z</time>
      </trkpt>
      <trkpt lat="43.79583" lon="-1.40252">
        <ele>10.2</ele>
        <time>2021-10-16T07:55:49Z</time>
      </trkpt>
      <trkpt lat="43.7958" lon="-1.40256">
        <ele>10.2</ele>
        <time>2021-10-16T07:55:50Z</time>
      </trkpt>
      <trkpt lat="43.79577" lon="-1.4026">
        <ele>10.2</ele>
        <time>2021-10-16T07:55:51Z</time>
      </trkpt>
      <trkpt lat="43.79559" lon="-1.40275">
        <ele>10.2</ele>
        <time>2021-10-16T07:55:56Z</time>
      </trkpt>
      <trkpt lat="43.79532" lon="-1.4031">
        <ele>10.2</ele>
        <time>2021-10-16T07:56:05Z</time>
      </trkpt>
      <trkpt lat="43.79527" lon="-1.4032">
        <ele>10.2</ele>
        <time>2021-10-16T07:56:07Z</time>
      </trkpt>
      <trkpt lat="43.7952" lon="-1.40343">
        <ele>10.2</ele>
        <time>2021-10-16T07:56:11Z</time>
      </trkpt>
      <trkpt lat="43.79518" lon="-1.4035">
        <ele>10.2</ele>
        <time>2021-10-16T07:56:12Z</time>
      </trkpt>
      <trkpt lat="43.79514" lon="-1.4039">
        <ele>10</ele>
        <time>2021-10-16T07:56:18Z</time>
      </trkpt>
      <trkpt lat="43.79514" lon="-1.40402">
        <ele>9.8</ele>
        <time>2021-10-16T07:56:20Z</time>
      </trkpt>
      <trkpt lat="43.79515" lon="-1.40421">
        <ele>9.8</ele>
        <time>2021-10-16T07:56:23Z</time>
      </trkpt>
      <trkpt lat="43.79515" lon="-1.40427">
        <ele>9.8</ele>
        <time>2021-10-16T07:56:24Z</time>
      </trkpt>
      <trkpt lat="43.79515" lon="-1.40433">
        <ele>9.8</ele>
        <time>2021-10-16T07:56:25Z</time>
      </trkpt>
      <trkpt lat="43.79515" lon="-1.40439">
        <ele>9.8</ele>
        <time>2021-10-16T07:56:26Z</time>
      </trkpt>
      <trkpt lat="43.79515" lon="-1.40444">
        <ele>10</ele>
        <time>2021-10-16T07:56:27Z</time>
      </trkpt>
      <trkpt lat="43.79515" lon="-1.4045">
        <ele>10</ele>
        <time>2021-10-16T07:56:28Z</time>
      </trkpt>
      <trkpt lat="43.79515" lon="-1.40455">
        <ele>10</ele>
        <time>2021-10-16T07:56:29Z</time>
      </trkpt>
      <trkpt lat="43.79514" lon="-1.40461">
        <ele>10</ele>
        <time>2021-10-16T07:56:30Z</time>
      </trkpt>
      <trkpt lat="43.79513" lon="-1.40466">
        <ele>10.2</ele>
        <time>2021-10-16T07:56:31Z</time>
      </trkpt>
      <trkpt lat="43.79512" lon="-1.4047">
        <ele>10.2</ele>
        <time>2021-10-16T07:56:32Z</time>
      </trkpt>
      <trkpt lat="43.79511" lon="-1.40476">
        <ele>10.2</ele>
        <time>2021-10-16T07:56:33Z</time>
      </trkpt>
      <trkpt lat="43.79509" lon="-1.4048">
        <ele>10.4</ele>
        <time>2021-10-16T07:56:34Z</time>
      </trkpt>
      <trkpt lat="43.79507" lon="-1.40485">
        <ele>10.4</ele>
        <time>2021-10-16T07:56:35Z</time>
      </trkpt>
      <trkpt lat="43.79505" lon="-1.40489">
        <ele>10.4</ele>
        <time>2021-10-16T07:56:36Z</time>
      </trkpt>
      <trkpt lat="43.79503" lon="-1.40493">
        <ele>10.6</ele>
        <time>2021-10-16T07:56:37Z</time>
      </trkpt>
      <trkpt lat="43.79501" lon="-1.40497">
        <ele>10.8</ele>
        <time>2021-10-16T07:56:38Z</time>
      </trkpt>
      <trkpt lat="43.79499" lon="-1.405">
        <ele>10.8</ele>
        <time>2021-10-16T07:56:39Z</time>
      </trkpt>
      <trkpt lat="43.79497" lon="-1.40503">
        <ele>10.8</ele>
        <time>2021-10-16T07:56:40Z</time>
      </trkpt>
      <trkpt lat="43.79495" lon="-1.40506">
        <ele>11</ele>
        <time>2021-10-16T07:56:41Z</time>
      </trkpt>
      <trkpt lat="43.79493" lon="-1.40509">
        <ele>11</ele>
        <time>2021-10-16T07:56:42Z</time>
      </trkpt>
      <trkpt lat="43.7949" lon="-1.40512">
        <ele>11</ele>
        <time>2021-10-16T07:56:43Z</time>
      </trkpt>
      <trkpt lat="43.79488" lon="-1.40515">
        <ele>11</ele>
        <time>2021-10-16T07:56:44Z</time>
      </trkpt>
      <trkpt lat="43.79486" lon="-1.40518">
        <ele>11</ele>
        <time>2021-10-16T07:56:45Z</time>
      </trkpt>
      <trkpt lat="43.79483" lon="-1.4052">
        <ele>11</ele>
        <time>2021-10-16T07:56:46Z</time>
      </trkpt>
      <trkpt lat="43.7948" lon="-1.40522">
        <ele>11</ele>
        <time>2021-10-16T07:56:47Z</time>
      </trkpt>
      <trkpt lat="43.79477" lon="-1.40524">
        <ele>11</ele>
        <time>2021-10-16T07:56:48Z</time>
      </trkpt>
      <trkpt lat="43.79474" lon="-1.40525">
        <ele>11</ele>
        <time>2021-10-16T07:56:49Z</time>
      </trkpt>
      <trkpt lat="43.79455" lon="-1.40531">
        <ele>10.8</ele>
        <time>2021-10-16T07:56:55Z</time>
      </trkpt>
      <trkpt lat="43.79452" lon="-1.40532">
        <ele>10.8</ele>
        <time>2021-10-16T07:56:56Z</time>
      </trkpt>
      <trkpt lat="43.79448" lon="-1.40532">
        <ele>10.8</ele>
        <time>2021-10-16T07:56:57Z</time>
      </trkpt>
      <trkpt lat="43.79413" lon="-1.40532">
        <ele>10.8</ele>
        <time>2021-10-16T07:57:06Z</time>
      </trkpt>
      <trkpt lat="43.79387" lon="-1.40538">
        <ele>10.4</ele>
        <time>2021-10-16T07:57:12Z</time>
      </trkpt>
      <trkpt lat="43.79382" lon="-1.4054">
        <ele>10.4</ele>
        <time>2021-10-16T07:57:13Z</time>
      </trkpt>
      <trkpt lat="43.79374" lon="-1.40545">
        <ele>10.2</ele>
        <time>2021-10-16T07:57:15Z</time>
      </trkpt>
      <trkpt lat="43.7936" lon="-1.40559">
        <ele>10</ele>
        <time>2021-10-16T07:57:19Z</time>
      </trkpt>
      <trkpt lat="43.79351" lon="-1.4057">
        <ele>9.8</ele>
        <time>2021-10-16T07:57:22Z</time>
      </trkpt>
      <trkpt lat="43.79349" lon="-1.40573">
        <ele>9.8</ele>
        <time>2021-10-16T07:57:23Z</time>
      </trkpt>
      <trkpt lat="43.79346" lon="-1.40576">
        <ele>9.8</ele>
        <time>2021-10-16T07:57:24Z</time>
      </trkpt>
      <trkpt lat="43.79344" lon="-1.40578">
        <ele>9.8</ele>
        <time>2021-10-16T07:57:25Z</time>
      </trkpt>
      <trkpt lat="43.79342" lon="-1.4058">
        <ele>9.8</ele>
        <time>2021-10-16T07:57:26Z</time>
      </trkpt>
      <trkpt lat="43.79339" lon="-1.40583">
        <ele>9.8</ele>
        <time>2021-10-16T07:57:27Z</time>
      </trkpt>
      <trkpt lat="43.79331" lon="-1.40593">
        <ele>9.8</ele>
        <time>2021-10-16T07:57:30Z</time>
      </trkpt>
      <trkpt lat="43.79313" lon="-1.40607">
        <ele>10.2</ele>
        <time>2021-10-16T07:57:36Z</time>
      </trkpt>
      <trkpt lat="43.79305" lon="-1.40612">
        <ele>10.2</ele>
        <time>2021-10-16T07:57:39Z</time>
      </trkpt>
      <trkpt lat="43.79302" lon="-1.40613">
        <ele>10.2</ele>
        <time>2021-10-16T07:57:40Z</time>
      </trkpt>
      <trkpt lat="43.793" lon="-1.40614">
        <ele>10.2</ele>
        <time>2021-10-16T07:57:41Z</time>
      </trkpt>
      <trkpt lat="43.79297" lon="-1.40616">
        <ele>10.2</ele>
        <time>2021-10-16T07:57:42Z</time>
      </trkpt>
      <trkpt lat="43.79295" lon="-1.40617">
        <ele>10.2</ele>
        <time>2021-10-16T07:57:43Z</time>
      </trkpt>
      <trkpt lat="43.79293" lon="-1.40618">
        <ele>10.2</ele>
        <time>2021-10-16T07:57:44Z</time>
      </trkpt>
      <trkpt lat="43.7929" lon="-1.40618">
        <ele>10.2</ele>
        <time>2021-10-16T07:57:45Z</time>
      </trkpt>
      <trkpt lat="43.79288" lon="-1.40618">
        <ele>10.2</ele>
        <time>2021-10-16T07:57:46Z</time>
      </trkpt>
      <trkpt lat="43.79285" lon="-1.40618">
        <ele>10.2</ele>
        <time>2021-10-16T07:57:47Z</time>
      </trkpt>
      <trkpt lat="43.79282" lon="-1.40618">
        <ele>10.4</ele>
        <time>2021-10-16T07:57:48Z</time>
      </trkpt>
      <trkpt lat="43.79279" lon="-1.40619">
        <ele>10.4</ele>
        <time>2021-10-16T07:57:49Z</time>
      </trkpt>
      <trkpt lat="43.79261" lon="-1.4062">
        <ele>10.4</ele>
        <time>2021-10-16T07:57:54Z</time>
      </trkpt>
      <trkpt lat="43.79257" lon="-1.4062">
        <ele>10.4</ele>
        <time>2021-10-16T07:57:55Z</time>
      </trkpt>
      <trkpt lat="43.79232" lon="-1.40612">
        <ele>10.4</ele>
        <time>2021-10-16T07:58:01Z</time>
      </trkpt>
      <trkpt lat="43.79202" lon="-1.40595">
        <ele>10.4</ele>
        <time>2021-10-16T07:58:08Z</time>
      </trkpt>
      <trkpt lat="43.79197" lon="-1.40593">
        <ele>10.4</ele>
        <time>2021-10-16T07:58:09Z</time>
      </trkpt>
      <trkpt lat="43.79172" lon="-1.40579">
        <ele>10.4</ele>
        <time>2021-10-16T07:58:15Z</time>
      </trkpt>
      <trkpt lat="43.79161" lon="-1.40572">
        <ele>10.2</ele>
        <time>2021-10-16T07:58:18Z</time>
      </trkpt>
      <trkpt lat="43.79157" lon="-1.4057">
        <ele>10.2</ele>
        <time>2021-10-16T07:58:19Z</time>
      </trkpt>
      <trkpt lat="43.79153" lon="-1.40568">
        <ele>10.2</ele>
        <time>2021-10-16T07:58:20Z</time>
      </trkpt>
      <trkpt lat="43.79149" lon="-1.40566">
        <ele>10.2</ele>
        <time>2021-10-16T07:58:21Z</time>
      </trkpt>
      <trkpt lat="43.79146" lon="-1.40564">
        <ele>10.2</ele>
        <time>2021-10-16T07:58:22Z</time>
      </trkpt>
      <trkpt lat="43.79143" lon="-1.40561">
        <ele>10.2</ele>
        <time>2021-10-16T07:58:23Z</time>
      </trkpt>
      <trkpt lat="43.7914" lon="-1.40559">
        <ele>10.2</ele>
        <time>2021-10-16T07:58:24Z</time>
      </trkpt>
      <trkpt lat="43.79136" lon="-1.40557">
        <ele>10.2</ele>
        <time>2021-10-16T07:58:25Z</time>
      </trkpt>
      <trkpt lat="43.79132" lon="-1.40555">
        <ele>10.2</ele>
        <time>2021-10-16T07:58:26Z</time>
      </trkpt>
      <trkpt lat="43.79128" lon="-1.40555">
        <ele>10.2</ele>
        <time>2021-10-16T07:58:27Z</time>
      </trkpt>
      <trkpt lat="43.79125" lon="-1.40556">
        <ele>10</ele>
        <time>2021-10-16T07:58:28Z</time>
      </trkpt>
      <trkpt lat="43.79121" lon="-1.40559">
        <ele>10</ele>
        <time>2021-10-16T07:58:29Z</time>
      </trkpt>
      <trkpt lat="43.79119" lon="-1.40563">
        <ele>10</ele>
        <time>2021-10-16T07:58:30Z</time>
      </trkpt>
      <trkpt lat="43.79117" lon="-1.40568">
        <ele>10</ele>
        <time>2021-10-16T07:58:31Z</time>
      </trkpt>
      <trkpt lat="43.79115" lon="-1.40573">
        <ele>10</ele>
        <time>2021-10-16T07:58:32Z</time>
      </trkpt>
      <trkpt lat="43.79115" lon="-1.40579">
        <ele>10</ele>
        <time>2021-10-16T07:58:33Z</time>
      </trkpt>
      <trkpt lat="43.79115" lon="-1.40585">
        <ele>10</ele>
        <time>2021-10-16T07:58:34Z</time>
      </trkpt>
      <trkpt lat="43.79116" lon="-1.40591">
        <ele>10</ele>
        <time>2021-10-16T07:58:35Z</time>
      </trkpt>
      <trkpt lat="43.79117" lon="-1.40597">
        <ele>10</ele>
        <time>2021-10-16T07:58:36Z</time>
      </trkpt>
      <trkpt lat="43.79119" lon="-1.40603">
        <ele>10</ele>
        <time>2021-10-16T07:58:37Z</time>
      </trkpt>
      <trkpt lat="43.7912" lon="-1.40609">
        <ele>10</ele>
        <time>2021-10-16T07:58:38Z</time>
      </trkpt>
      <trkpt lat="43.79132" lon="-1.4064">
        <ele>10</ele>
        <time>2021-10-16T07:58:44Z</time>
      </trkpt>
      <trkpt lat="43.79134" lon="-1.40646">
        <ele>10</ele>
        <time>2021-10-16T07:58:45Z</time>
      </trkpt>
      <trkpt lat="43.79148" lon="-1.40684">
        <ele>10</ele>
        <time>2021-10-16T07:58:52Z</time>
      </trkpt>
      <trkpt lat="43.79158" lon="-1.40718">
        <ele>10.6</ele>
        <time>2021-10-16T07:58:58Z</time>
      </trkpt>
      <trkpt lat="43.7916" lon="-1.40723">
        <ele>10.6</ele>
        <time>2021-10-16T07:58:59Z</time>
      </trkpt>
      <trkpt lat="43.79163" lon="-1.40734">
        <ele>10.6</ele>
        <time>2021-10-16T07:59:01Z</time>
      </trkpt>
      <trkpt lat="43.79167" lon="-1.40744">
        <ele>10.6</ele>
        <time>2021-10-16T07:59:03Z</time>
      </trkpt>
      <trkpt lat="43.79171" lon="-1.40755">
        <ele>10.6</ele>
        <time>2021-10-16T07:59:05Z</time>
      </trkpt>
      <trkpt lat="43.79173" lon="-1.40764">
        <ele>10.6</ele>
        <time>2021-10-16T07:59:07Z</time>
      </trkpt>
      <trkpt lat="43.79174" lon="-1.40769">
        <ele>10.6</ele>
        <time>2021-10-16T07:59:08Z</time>
      </trkpt>
      <trkpt lat="43.79174" lon="-1.40772">
        <ele>10.6</ele>
        <time>2021-10-16T07:59:09Z</time>
      </trkpt>
      <trkpt lat="43.79174" lon="-1.40776">
        <ele>10.4</ele>
        <time>2021-10-16T07:59:10Z</time>
      </trkpt>
      <trkpt lat="43.79173" lon="-1.4078">
        <ele>10.4</ele>
        <time>2021-10-16T07:59:11Z</time>
      </trkpt>
      <trkpt lat="43.79171" lon="-1.40784">
        <ele>10.4</ele>
        <time>2021-10-16T07:59:12Z</time>
      </trkpt>
      <trkpt lat="43.79169" lon="-1.40788">
        <ele>10.6</ele>
        <time>2021-10-16T07:59:13Z</time>
      </trkpt>
      <trkpt lat="43.79167" lon="-1.40792">
        <ele>10.4</ele>
        <time>2021-10-16T07:59:14Z</time>
      </trkpt>
      <trkpt lat="43.79164" lon="-1.40796">
        <ele>10.6</ele>
        <time>2021-10-16T07:59:15Z</time>
      </trkpt>
      <trkpt lat="43.79158" lon="-1.40801">
        <ele>10.6</ele>
        <time>2021-10-16T07:59:17Z</time>
      </trkpt>
      <trkpt lat="43.79154" lon="-1.40804">
        <ele>10.6</ele>
        <time>2021-10-16T07:59:18Z</time>
      </trkpt>
      <trkpt lat="43.79144" lon="-1.4081">
        <ele>10.8</ele>
        <time>2021-10-16T07:59:21Z</time>
      </trkpt>
      <trkpt lat="43.79123" lon="-1.40819">
        <ele>11.8</ele>
        <time>2021-10-16T07:59:27Z</time>
      </trkpt>
      <trkpt lat="43.79119" lon="-1.4082">
        <ele>12</ele>
        <time>2021-10-16T07:59:28Z</time>
      </trkpt>
      <trkpt lat="43.79115" lon="-1.40821">
        <ele>12.2</ele>
        <time>2021-10-16T07:59:29Z</time>
      </trkpt>
      <trkpt lat="43.79095" lon="-1.40826">
        <ele>12.8</ele>
        <time>2021-10-16T07:59:34Z</time>
      </trkpt>
      <trkpt lat="43.79086" lon="-1.40827">
        <ele>13</ele>
        <time>2021-10-16T07:59:36Z</time>
      </trkpt>
      <trkpt lat="43.79057" lon="-1.40823">
        <ele>13.2</ele>
        <time>2021-10-16T07:59:43Z</time>
      </trkpt>
      <trkpt lat="43.79026" lon="-1.4082">
        <ele>13.4</ele>
        <time>2021-10-16T07:59:50Z</time>
      </trkpt>
      <trkpt lat="43.78998" lon="-1.40816">
        <ele>13.4</ele>
        <time>2021-10-16T07:59:56Z</time>
      </trkpt>
      <trkpt lat="43.78987" lon="-1.40816">
        <ele>13.2</ele>
        <time>2021-10-16T07:59:58Z</time>
      </trkpt>
      <trkpt lat="43.78959" lon="-1.40819">
        <ele>13</ele>
        <time>2021-10-16T08:00:03Z</time>
      </trkpt>
      <trkpt lat="43.78952" lon="-1.40821">
        <ele>12.8</ele>
        <time>2021-10-16T08:00:04Z</time>
      </trkpt>
      <trkpt lat="43.78946" lon="-1.40823">
        <ele>12.6</ele>
        <time>2021-10-16T08:00:05Z</time>
      </trkpt>
      <trkpt lat="43.78941" lon="-1.40826">
        <ele>12.4</ele>
        <time>2021-10-16T08:00:06Z</time>
      </trkpt>
      <trkpt lat="43.7893" lon="-1.40833">
        <ele>11.8</ele>
        <time>2021-10-16T08:00:08Z</time>
      </trkpt>
      <trkpt lat="43.78919" lon="-1.40841">
        <ele>11.2</ele>
        <time>2021-10-16T08:00:10Z</time>
      </trkpt>
      <trkpt lat="43.78905" lon="-1.40852">
        <ele>10.6</ele>
        <time>2021-10-16T08:00:13Z</time>
      </trkpt>
      <trkpt lat="43.78896" lon="-1.40861">
        <ele>10.4</ele>
        <time>2021-10-16T08:00:15Z</time>
      </trkpt>
      <trkpt lat="43.78892" lon="-1.40865">
        <ele>10.4</ele>
        <time>2021-10-16T08:00:16Z</time>
      </trkpt>
      <trkpt lat="43.78889" lon="-1.4087">
        <ele>10.4</ele>
        <time>2021-10-16T08:00:17Z</time>
      </trkpt>
      <trkpt lat="43.78885" lon="-1.40875">
        <ele>10.4</ele>
        <time>2021-10-16T08:00:18Z</time>
      </trkpt>
      <trkpt lat="43.78882" lon="-1.4088">
        <ele>10.2</ele>
        <time>2021-10-16T08:00:19Z</time>
      </trkpt>
      <trkpt lat="43.7888" lon="-1.40885">
        <ele>10.2</ele>
        <time>2021-10-16T08:00:20Z</time>
      </trkpt>
      <trkpt lat="43.78878" lon="-1.40891">
        <ele>10.2</ele>
        <time>2021-10-16T08:00:21Z</time>
      </trkpt>
      <trkpt lat="43.78876" lon="-1.40897">
        <ele>10.2</ele>
        <time>2021-10-16T08:00:22Z</time>
      </trkpt>
      <trkpt lat="43.78874" lon="-1.40903">
        <ele>10.2</ele>
        <time>2021-10-16T08:00:23Z</time>
      </trkpt>
      <trkpt lat="43.78872" lon="-1.40909">
        <ele>10.2</ele>
        <time>2021-10-16T08:00:24Z</time>
      </trkpt>
      <trkpt lat="43.7887" lon="-1.40914">
        <ele>10.2</ele>
        <time>2021-10-16T08:00:25Z</time>
      </trkpt>
      <trkpt lat="43.78868" lon="-1.4092">
        <ele>10.2</ele>
        <time>2021-10-16T08:00:26Z</time>
      </trkpt>
      <trkpt lat="43.78866" lon="-1.40926">
        <ele>10.2</ele>
        <time>2021-10-16T08:00:27Z</time>
      </trkpt>
      <trkpt lat="43.78858" lon="-1.40949">
        <ele>10.4</ele>
        <time>2021-10-16T08:00:31Z</time>
      </trkpt>
      <trkpt lat="43.7884" lon="-1.40994">
        <ele>10.6</ele>
        <time>2021-10-16T08:00:39Z</time>
      </trkpt>
      <trkpt lat="43.78838" lon="-1.41">
        <ele>10.6</ele>
        <time>2021-10-16T08:00:40Z</time>
      </trkpt>
      <trkpt lat="43.78835" lon="-1.41016">
        <ele>10.8</ele>
        <time>2021-10-16T08:00:43Z</time>
      </trkpt>
      <trkpt lat="43.78834" lon="-1.41022">
        <ele>10.8</ele>
        <time>2021-10-16T08:00:44Z</time>
      </trkpt>
      <trkpt lat="43.78833" lon="-1.41027">
        <ele>10.8</ele>
        <time>2021-10-16T08:00:45Z</time>
      </trkpt>
      <trkpt lat="43.78832" lon="-1.41032">
        <ele>11</ele>
        <time>2021-10-16T08:00:46Z</time>
      </trkpt>
      <trkpt lat="43.78831" lon="-1.41036">
        <ele>11.2</ele>
        <time>2021-10-16T08:00:47Z</time>
      </trkpt>
      <trkpt lat="43.78829" lon="-1.4104">
        <ele>11.2</ele>
        <time>2021-10-16T08:00:48Z</time>
      </trkpt>
      <trkpt lat="43.78828" lon="-1.41045">
        <ele>11.4</ele>
        <time>2021-10-16T08:00:49Z</time>
      </trkpt>
      <trkpt lat="43.78827" lon="-1.41049">
        <ele>11.6</ele>
        <time>2021-10-16T08:00:50Z</time>
      </trkpt>
      <trkpt lat="43.78826" lon="-1.41053">
        <ele>11.8</ele>
        <time>2021-10-16T08:00:51Z</time>
      </trkpt>
      <trkpt lat="43.78826" lon="-1.41057">
        <ele>11.8</ele>
        <time>2021-10-16T08:00:52Z</time>
      </trkpt>
      <trkpt lat="43.78825" lon="-1.41062">
        <ele>12</ele>
        <time>2021-10-16T08:00:53Z</time>
      </trkpt>
      <trkpt lat="43.78824" lon="-1.41066">
        <ele>12.2</ele>
        <time>2021-10-16T08:00:54Z</time>
      </trkpt>
      <trkpt lat="43.78823" lon="-1.4107">
        <ele>12.2</ele>
        <time>2021-10-16T08:00:55Z</time>
      </trkpt>
      <trkpt lat="43.78822" lon="-1.41075">
        <ele>12.4</ele>
        <time>2021-10-16T08:00:56Z</time>
      </trkpt>
      <trkpt lat="43.78821" lon="-1.41079">
        <ele>12.4</ele>
        <time>2021-10-16T08:00:57Z</time>
      </trkpt>
      <trkpt lat="43.78816" lon="-1.41095">
        <ele>12.6</ele>
        <time>2021-10-16T08:01:01Z</time>
      </trkpt>
      <trkpt lat="43.78811" lon="-1.41101">
        <ele>12.8</ele>
        <time>2021-10-16T08:01:03Z</time>
      </trkpt>
      <trkpt lat="43.78809" lon="-1.41103">
        <ele>12.8</ele>
        <time>2021-10-16T08:01:04Z</time>
      </trkpt>
      <trkpt lat="43.78807" lon="-1.41105">
        <ele>13</ele>
        <time>2021-10-16T08:01:05Z</time>
      </trkpt>
      <trkpt lat="43.78805" lon="-1.41107">
        <ele>13</ele>
        <time>2021-10-16T08:01:06Z</time>
      </trkpt>
      <trkpt lat="43.78804" lon="-1.41109">
        <ele>13</ele>
        <time>2021-10-16T08:01:07Z</time>
      </trkpt>
      <trkpt lat="43.78803" lon="-1.4111">
        <ele>13</ele>
        <time>2021-10-16T08:01:08Z</time>
      </trkpt>
      <trkpt lat="43.78802" lon="-1.41111">
        <ele>13</ele>
        <time>2021-10-16T08:01:09Z</time>
      </trkpt>
      <trkpt lat="43.78801" lon="-1.4111">
        <ele>13.2</ele>
        <time>2021-10-16T08:01:10Z</time>
      </trkpt>
      <trkpt lat="43.78801" lon="-1.41109">
        <ele>13.2</ele>
        <time>2021-10-16T08:01:11Z</time>
      </trkpt>
      <trkpt lat="43.78801" lon="-1.41107">
        <ele>13.2</ele>
        <time>2021-10-16T08:01:12Z</time>
      </trkpt>
      <trkpt lat="43.78802" lon="-1.41106">
        <ele>13.2</ele>
        <time>2021-10-16T08:01:13Z</time>
      </trkpt>
      <trkpt lat="43.78803" lon="-1.41104">
        <ele>13.4</ele>
        <time>2021-10-16T08:01:14Z</time>
      </trkpt>
      <trkpt lat="43.78813" lon="-1.41098">
        <ele>13.4</ele>
        <time>2021-10-16T08:01:19Z</time>
      </trkpt>
      <trkpt lat="43.78814" lon="-1.41099">
        <ele>13.4</ele>
        <time>2021-10-16T08:01:20Z</time>
      </trkpt>
      <trkpt lat="43.78815" lon="-1.41099">
        <ele>13.4</ele>
        <time>2021-10-16T08:01:21Z</time>
      </trkpt>
      <trkpt lat="43.78816" lon="-1.41101">
        <ele>13.4</ele>
        <time>2021-10-16T08:01:22Z</time>
      </trkpt>
      <trkpt lat="43.78817" lon="-1.41103">
        <ele>13.2</ele>
        <time>2021-10-16T08:01:23Z</time>
      </trkpt>
      <trkpt lat="43.78822" lon="-1.41124">
        <ele>13.2</ele>
        <time>2021-10-16T08:01:29Z</time>
      </trkpt>
      <trkpt lat="43.78823" lon="-1.41131">
        <ele>13.2</ele>
        <time>2021-10-16T08:01:31Z</time>
      </trkpt>
      <trkpt lat="43.78823" lon="-1.41134">
        <ele>13.2</ele>
        <time>2021-10-16T08:01:32Z</time>
      </trkpt>
      <trkpt lat="43.78823" lon="-1.41137">
        <ele>13.2</ele>
        <time>2021-10-16T08:01:33Z</time>
      </trkpt>
      <trkpt lat="43.78823" lon="-1.4114">
        <ele>13.2</ele>
        <time>2021-10-16T08:01:34Z</time>
      </trkpt>
      <trkpt lat="43.78822" lon="-1.41141">
        <ele>13.2</ele>
        <time>2021-10-16T08:01:35Z</time>
      </trkpt>
      <trkpt lat="43.78823" lon="-1.41142">
        <ele>13.2</ele>
        <time>2021-10-16T08:01:36Z</time>
      </trkpt>
      <trkpt lat="43.78824" lon="-1.41145">
        <ele>13.2</ele>
        <time>2021-10-16T08:01:37Z</time>
      </trkpt>
      <trkpt lat="43.78824" lon="-1.41147">
        <ele>13.2</ele>
        <time>2021-10-16T08:01:38Z</time>
      </trkpt>
      <trkpt lat="43.78824" lon="-1.4115">
        <ele>13.2</ele>
        <time>2021-10-16T08:01:39Z</time>
      </trkpt>
      <trkpt lat="43.78825" lon="-1.41153">
        <ele>13.2</ele>
        <time>2021-10-16T08:01:40Z</time>
      </trkpt>
      <trkpt lat="43.78825" lon="-1.41159">
        <ele>13.2</ele>
        <time>2021-10-16T08:01:42Z</time>
      </trkpt>
      <trkpt lat="43.78824" lon="-1.41162">
        <ele>13.2</ele>
        <time>2021-10-16T08:01:43Z</time>
      </trkpt>
      <trkpt lat="43.78823" lon="-1.41165">
        <ele>13.2</ele>
        <time>2021-10-16T08:01:44Z</time>
      </trkpt>
      <trkpt lat="43.78822" lon="-1.41166">
        <ele>13.2</ele>
        <time>2021-10-16T08:01:45Z</time>
      </trkpt>
      <trkpt lat="43.78816" lon="-1.41164">
        <ele>13.4</ele>
        <time>2021-10-16T08:01:48Z</time>
      </trkpt>
      <trkpt lat="43.78814" lon="-1.41163">
        <ele>13.4</ele>
        <time>2021-10-16T08:01:49Z</time>
      </trkpt>
      <trkpt lat="43.78812" lon="-1.41162">
        <ele>13.4</ele>
        <time>2021-10-16T08:01:50Z</time>
      </trkpt>
      <trkpt lat="43.78802" lon="-1.41155">
        <ele>13.6</ele>
        <time>2021-10-16T08:01:54Z</time>
      </trkpt>
      <trkpt lat="43.78796" lon="-1.41156">
        <ele>13.6</ele>
        <time>2021-10-16T08:01:56Z</time>
      </trkpt>
      <trkpt lat="43.78792" lon="-1.41157">
        <ele>13.8</ele>
        <time>2021-10-16T08:01:57Z</time>
      </trkpt>
      <trkpt lat="43.78783" lon="-1.41158">
        <ele>13.6</ele>
        <time>2021-10-16T08:02:00Z</time>
      </trkpt>
      <trkpt lat="43.78754" lon="-1.41166">
        <ele>13.8</ele>
        <time>2021-10-16T08:02:08Z</time>
      </trkpt>
      <trkpt lat="43.78732" lon="-1.41174">
        <ele>14</ele>
        <time>2021-10-16T08:02:15Z</time>
      </trkpt>
      <trkpt lat="43.78729" lon="-1.41174">
        <ele>14</ele>
        <time>2021-10-16T08:02:16Z</time>
      </trkpt>
      <trkpt lat="43.78727" lon="-1.41175">
        <ele>14</ele>
        <time>2021-10-16T08:02:17Z</time>
      </trkpt>
      <trkpt lat="43.78724" lon="-1.41176">
        <ele>14.2</ele>
        <time>2021-10-16T08:02:18Z</time>
      </trkpt>
      <trkpt lat="43.78722" lon="-1.41177">
        <ele>14.2</ele>
        <time>2021-10-16T08:02:19Z</time>
      </trkpt>
      <trkpt lat="43.78719" lon="-1.41178">
        <ele>14.4</ele>
        <time>2021-10-16T08:02:20Z</time>
      </trkpt>
      <trkpt lat="43.78696" lon="-1.41188">
        <ele>15</ele>
        <time>2021-10-16T08:02:27Z</time>
      </trkpt>
      <trkpt lat="43.78693" lon="-1.4119">
        <ele>15.2</ele>
        <time>2021-10-16T08:02:28Z</time>
      </trkpt>
      <trkpt lat="43.78688" lon="-1.41198">
        <ele>15.4</ele>
        <time>2021-10-16T08:02:31Z</time>
      </trkpt>
      <trkpt lat="43.78687" lon="-1.41202">
        <ele>15.6</ele>
        <time>2021-10-16T08:02:32Z</time>
      </trkpt>
      <trkpt lat="43.78686" lon="-1.41206">
        <ele>15.8</ele>
        <time>2021-10-16T08:02:33Z</time>
      </trkpt>
      <trkpt lat="43.78685" lon="-1.4121">
        <ele>16</ele>
        <time>2021-10-16T08:02:34Z</time>
      </trkpt>
      <trkpt lat="43.78685" lon="-1.41213">
        <ele>16</ele>
        <time>2021-10-16T08:02:35Z</time>
      </trkpt>
      <trkpt lat="43.78685" lon="-1.41217">
        <ele>16.4</ele>
        <time>2021-10-16T08:02:36Z</time>
      </trkpt>
      <trkpt lat="43.78685" lon="-1.41219">
        <ele>16.4</ele>
        <time>2021-10-16T08:02:37Z</time>
      </trkpt>
      <trkpt lat="43.78685" lon="-1.41222">
        <ele>16.6</ele>
        <time>2021-10-16T08:02:38Z</time>
      </trkpt>
      <trkpt lat="43.78685" lon="-1.41225">
        <ele>16.8</ele>
        <time>2021-10-16T08:02:39Z</time>
      </trkpt>
      <trkpt lat="43.78685" lon="-1.41229">
        <ele>16.8</ele>
        <time>2021-10-16T08:02:40Z</time>
      </trkpt>
      <trkpt lat="43.78684" lon="-1.41233">
        <ele>16.8</ele>
        <time>2021-10-16T08:02:41Z</time>
      </trkpt>
      <trkpt lat="43.78684" lon="-1.41236">
        <ele>17</ele>
        <time>2021-10-16T08:02:42Z</time>
      </trkpt>
      <trkpt lat="43.78684" lon="-1.4124">
        <ele>17</ele>
        <time>2021-10-16T08:02:43Z</time>
      </trkpt>
      <trkpt lat="43.78684" lon="-1.41243">
        <ele>17</ele>
        <time>2021-10-16T08:02:44Z</time>
      </trkpt>
      <trkpt lat="43.78684" lon="-1.41246">
        <ele>17.2</ele>
        <time>2021-10-16T08:02:45Z</time>
      </trkpt>
      <trkpt lat="43.78684" lon="-1.4125">
        <ele>17.2</ele>
        <time>2021-10-16T08:02:46Z</time>
      </trkpt>
      <trkpt lat="43.78683" lon="-1.41253">
        <ele>17.2</ele>
        <time>2021-10-16T08:02:47Z</time>
      </trkpt>
      <trkpt lat="43.78683" lon="-1.41256">
        <ele>17.4</ele>
        <time>2021-10-16T08:02:48Z</time>
      </trkpt>
      <trkpt lat="43.78683" lon="-1.41259">
        <ele>17.4</ele>
        <time>2021-10-16T08:02:49Z</time>
      </trkpt>
      <trkpt lat="43.78683" lon="-1.41261">
        <ele>17.4</ele>
        <time>2021-10-16T08:02:50Z</time>
      </trkpt>
      <trkpt lat="43.78683" lon="-1.41264">
        <ele>17.4</ele>
        <time>2021-10-16T08:02:51Z</time>
      </trkpt>
      <trkpt lat="43.78683" lon="-1.41266">
        <ele>17.4</ele>
        <time>2021-10-16T08:02:52Z</time>
      </trkpt>
      <trkpt lat="43.78681" lon="-1.41268">
        <ele>17.4</ele>
        <time>2021-10-16T08:02:53Z</time>
      </trkpt>
      <trkpt lat="43.7868" lon="-1.41268">
        <ele>17.4</ele>
        <time>2021-10-16T08:02:54Z</time>
      </trkpt>
      <trkpt lat="43.78678" lon="-1.41269">
        <ele>17.4</ele>
        <time>2021-10-16T08:02:55Z</time>
      </trkpt>
      <trkpt lat="43.78677" lon="-1.41269">
        <ele>17.4</ele>
        <time>2021-10-16T08:02:56Z</time>
      </trkpt>
      <trkpt lat="43.78676" lon="-1.41269">
        <ele>17.4</ele>
        <time>2021-10-16T08:02:57Z</time>
      </trkpt>
      <trkpt lat="43.78674" lon="-1.41269">
        <ele>17.2</ele>
        <time>2021-10-16T08:02:58Z</time>
      </trkpt>
      <trkpt lat="43.78672" lon="-1.41269">
        <ele>17.2</ele>
        <time>2021-10-16T08:02:59Z</time>
      </trkpt>
      <trkpt lat="43.78671" lon="-1.41268">
        <ele>17.2</ele>
        <time>2021-10-16T08:03:00Z</time>
      </trkpt>
      <trkpt lat="43.78669" lon="-1.41268">
        <ele>17.2</ele>
        <time>2021-10-16T08:03:01Z</time>
      </trkpt>
      <trkpt lat="43.78668" lon="-1.41267">
        <ele>17.2</ele>
        <time>2021-10-16T08:03:02Z</time>
      </trkpt>
      <trkpt lat="43.78666" lon="-1.41266">
        <ele>17.2</ele>
        <time>2021-10-16T08:03:03Z</time>
      </trkpt>
      <trkpt lat="43.78664" lon="-1.41265">
        <ele>17</ele>
        <time>2021-10-16T08:03:04Z</time>
      </trkpt>
      <trkpt lat="43.78662" lon="-1.41264">
        <ele>17</ele>
        <time>2021-10-16T08:03:05Z</time>
      </trkpt>
      <trkpt lat="43.78658" lon="-1.41264">
        <ele>17</ele>
        <time>2021-10-16T08:03:07Z</time>
      </trkpt>
      <trkpt lat="43.78656" lon="-1.41265">
        <ele>17</ele>
        <time>2021-10-16T08:03:08Z</time>
      </trkpt>
      <trkpt lat="43.78654" lon="-1.41266">
        <ele>17</ele>
        <time>2021-10-16T08:03:09Z</time>
      </trkpt>
      <trkpt lat="43.78653" lon="-1.41266">
        <ele>17.2</ele>
        <time>2021-10-16T08:03:10Z</time>
      </trkpt>
      <trkpt lat="43.78651" lon="-1.41266">
        <ele>17.2</ele>
        <time>2021-10-16T08:03:11Z</time>
      </trkpt>
      <trkpt lat="43.78651" lon="-1.41266">
        <ele>17</ele>
        <time>2021-10-16T08:03:12Z</time>
      </trkpt>
      <trkpt lat="43.78651" lon="-1.41266">
        <ele>17</ele>
        <time>2021-10-16T08:03:13Z</time>
      </trkpt>
      <trkpt lat="43.78651" lon="-1.41266">
        <ele>16.6</ele>
        <time>2021-10-16T08:03:20Z</time>
      </trkpt>
      <trkpt lat="43.78644" lon="-1.41264">
        <ele>16.6</ele>
        <time>2021-10-16T08:03:37Z</time>
      </trkpt>
      <trkpt lat="43.78623" lon="-1.41258">
        <ele>16.4</ele>
        <time>2021-10-16T08:03:44Z</time>
      </trkpt>
      <trkpt lat="43.78619" lon="-1.41258">
        <ele>16.4</ele>
        <time>2021-10-16T08:03:45Z</time>
      </trkpt>
      <trkpt lat="43.78603" lon="-1.41254">
        <ele>16.4</ele>
        <time>2021-10-16T08:03:50Z</time>
      </trkpt>
      <trkpt lat="43.78587" lon="-1.41249">
        <ele>16.2</ele>
        <time>2021-10-16T08:03:55Z</time>
      </trkpt>
      <trkpt lat="43.78576" lon="-1.41239">
        <ele>15.8</ele>
        <time>2021-10-16T08:04:00Z</time>
      </trkpt>
      <trkpt lat="43.78574" lon="-1.41237">
        <ele>15.8</ele>
        <time>2021-10-16T08:04:01Z</time>
      </trkpt>
      <trkpt lat="43.78572" lon="-1.41236">
        <ele>15.8</ele>
        <time>2021-10-16T08:04:02Z</time>
      </trkpt>
      <trkpt lat="43.7857" lon="-1.41234">
        <ele>15.6</ele>
        <time>2021-10-16T08:04:03Z</time>
      </trkpt>
      <trkpt lat="43.78568" lon="-1.41233">
        <ele>15.6</ele>
        <time>2021-10-16T08:04:04Z</time>
      </trkpt>
      <trkpt lat="43.78563" lon="-1.41232">
        <ele>15.4</ele>
        <time>2021-10-16T08:04:06Z</time>
      </trkpt>
      <trkpt lat="43.78561" lon="-1.41233">
        <ele>15.4</ele>
        <time>2021-10-16T08:04:07Z</time>
      </trkpt>
      <trkpt lat="43.78559" lon="-1.41234">
        <ele>15.4</ele>
        <time>2021-10-16T08:04:08Z</time>
      </trkpt>
      <trkpt lat="43.78556" lon="-1.41236">
        <ele>15.4</ele>
        <time>2021-10-16T08:04:09Z</time>
      </trkpt>
      <trkpt lat="43.78553" lon="-1.41237">
        <ele>15.2</ele>
        <time>2021-10-16T08:04:10Z</time>
      </trkpt>
      <trkpt lat="43.7855" lon="-1.41238">
        <ele>15.2</ele>
        <time>2021-10-16T08:04:11Z</time>
      </trkpt>
      <trkpt lat="43.78547" lon="-1.4124">
        <ele>15.2</ele>
        <time>2021-10-16T08:04:12Z</time>
      </trkpt>
      <trkpt lat="43.78539" lon="-1.41243">
        <ele>15</ele>
        <time>2021-10-16T08:04:15Z</time>
      </trkpt>
      <trkpt lat="43.78536" lon="-1.41244">
        <ele>14.8</ele>
        <time>2021-10-16T08:04:16Z</time>
      </trkpt>
      <trkpt lat="43.78534" lon="-1.41244">
        <ele>14.8</ele>
        <time>2021-10-16T08:04:17Z</time>
      </trkpt>
      <trkpt lat="43.78532" lon="-1.41245">
        <ele>14.6</ele>
        <time>2021-10-16T08:04:18Z</time>
      </trkpt>
      <trkpt lat="43.7853" lon="-1.41245">
        <ele>14.4</ele>
        <time>2021-10-16T08:04:19Z</time>
      </trkpt>
      <trkpt lat="43.78527" lon="-1.41244">
        <ele>14.2</ele>
        <time>2021-10-16T08:04:20Z</time>
      </trkpt>
      <trkpt lat="43.78525" lon="-1.41243">
        <ele>14</ele>
        <time>2021-10-16T08:04:21Z</time>
      </trkpt>
      <trkpt lat="43.78524" lon="-1.41241">
        <ele>13.8</ele>
        <time>2021-10-16T08:04:22Z</time>
      </trkpt>
      <trkpt lat="43.78522" lon="-1.41238">
        <ele>13.8</ele>
        <time>2021-10-16T08:04:23Z</time>
      </trkpt>
      <trkpt lat="43.7852" lon="-1.41232">
        <ele>13.6</ele>
        <time>2021-10-16T08:04:25Z</time>
      </trkpt>
      <trkpt lat="43.78519" lon="-1.41228">
        <ele>13.6</ele>
        <time>2021-10-16T08:04:26Z</time>
      </trkpt>
      <trkpt lat="43.78515" lon="-1.41216">
        <ele>13.4</ele>
        <time>2021-10-16T08:04:29Z</time>
      </trkpt>
      <trkpt lat="43.78513" lon="-1.41212">
        <ele>13.2</ele>
        <time>2021-10-16T08:04:30Z</time>
      </trkpt>
      <trkpt lat="43.78512" lon="-1.41209">
        <ele>13.2</ele>
        <time>2021-10-16T08:04:31Z</time>
      </trkpt>
      <trkpt lat="43.78499" lon="-1.41177">
        <ele>12.6</ele>
        <time>2021-10-16T08:04:39Z</time>
      </trkpt>
      <trkpt lat="43.78484" lon="-1.41142">
        <ele>12.4</ele>
        <time>2021-10-16T08:04:48Z</time>
      </trkpt>
      <trkpt lat="43.78469" lon="-1.41118">
        <ele>12.2</ele>
        <time>2021-10-16T08:04:56Z</time>
      </trkpt>
      <trkpt lat="43.78468" lon="-1.41116">
        <ele>12.2</ele>
        <time>2021-10-16T08:04:57Z</time>
      </trkpt>
      <trkpt lat="43.78466" lon="-1.41113">
        <ele>12.2</ele>
        <time>2021-10-16T08:04:58Z</time>
      </trkpt>
      <trkpt lat="43.78464" lon="-1.41111">
        <ele>12.2</ele>
        <time>2021-10-16T08:04:59Z</time>
      </trkpt>
      <trkpt lat="43.78462" lon="-1.41108">
        <ele>12.2</ele>
        <time>2021-10-16T08:05:00Z</time>
      </trkpt>
      <trkpt lat="43.7846" lon="-1.41106">
        <ele>12.2</ele>
        <time>2021-10-16T08:05:01Z</time>
      </trkpt>
      <trkpt lat="43.78459" lon="-1.41105">
        <ele>12.2</ele>
        <time>2021-10-16T08:05:02Z</time>
      </trkpt>
      <trkpt lat="43.78457" lon="-1.41103">
        <ele>12</ele>
        <time>2021-10-16T08:05:03Z</time>
      </trkpt>
      <trkpt lat="43.78456" lon="-1.41101">
        <ele>12</ele>
        <time>2021-10-16T08:05:04Z</time>
      </trkpt>
      <trkpt lat="43.78456" lon="-1.41099">
        <ele>12</ele>
        <time>2021-10-16T08:05:05Z</time>
      </trkpt>
      <trkpt lat="43.78455" lon="-1.41096">
        <ele>12</ele>
        <time>2021-10-16T08:05:06Z</time>
      </trkpt>
      <trkpt lat="43.78455" lon="-1.41094">
        <ele>12</ele>
        <time>2021-10-16T08:05:07Z</time>
      </trkpt>
      <trkpt lat="43.78455" lon="-1.41091">
        <ele>11.8</ele>
        <time>2021-10-16T08:05:08Z</time>
      </trkpt>
      <trkpt lat="43.78455" lon="-1.41089">
        <ele>11.8</ele>
        <time>2021-10-16T08:05:09Z</time>
      </trkpt>
      <trkpt lat="43.78454" lon="-1.41086">
        <ele>11.8</ele>
        <time>2021-10-16T08:05:10Z</time>
      </trkpt>
      <trkpt lat="43.78453" lon="-1.41084">
        <ele>11.8</ele>
        <time>2021-10-16T08:05:11Z</time>
      </trkpt>
      <trkpt lat="43.78451" lon="-1.41082">
        <ele>11.8</ele>
        <time>2021-10-16T08:05:12Z</time>
      </trkpt>
      <trkpt lat="43.78449" lon="-1.4108">
        <ele>11.8</ele>
        <time>2021-10-16T08:05:13Z</time>
      </trkpt>
      <trkpt lat="43.78447" lon="-1.41078">
        <ele>11.6</ele>
        <time>2021-10-16T08:05:14Z</time>
      </trkpt>
      <trkpt lat="43.78445" lon="-1.41076">
        <ele>11.6</ele>
        <time>2021-10-16T08:05:15Z</time>
      </trkpt>
      <trkpt lat="43.78437" lon="-1.41065">
        <ele>11.6</ele>
        <time>2021-10-16T08:05:19Z</time>
      </trkpt>
      <trkpt lat="43.78416" lon="-1.4104">
        <ele>11.6</ele>
        <time>2021-10-16T08:05:28Z</time>
      </trkpt>
      <trkpt lat="43.78406" lon="-1.41028">
        <ele>11.4</ele>
        <time>2021-10-16T08:05:33Z</time>
      </trkpt>
      <trkpt lat="43.78404" lon="-1.41026">
        <ele>11.4</ele>
        <time>2021-10-16T08:05:34Z</time>
      </trkpt>
      <trkpt lat="43.78402" lon="-1.41024">
        <ele>11.4</ele>
        <time>2021-10-16T08:05:35Z</time>
      </trkpt>
      <trkpt lat="43.78401" lon="-1.41022">
        <ele>11.4</ele>
        <time>2021-10-16T08:05:36Z</time>
      </trkpt>
      <trkpt lat="43.78399" lon="-1.4102">
        <ele>11.4</ele>
        <time>2021-10-16T08:05:37Z</time>
      </trkpt>
      <trkpt lat="43.78388" lon="-1.41004">
        <ele>11.4</ele>
        <time>2021-10-16T08:05:43Z</time>
      </trkpt>
      <trkpt lat="43.78381" lon="-1.40995">
        <ele>11.4</ele>
        <time>2021-10-16T08:05:47Z</time>
      </trkpt>
      <trkpt lat="43.78378" lon="-1.40994">
        <ele>11.2</ele>
        <time>2021-10-16T08:05:48Z</time>
      </trkpt>
      <trkpt lat="43.78376" lon="-1.40993">
        <ele>11.2</ele>
        <time>2021-10-16T08:05:49Z</time>
      </trkpt>
      <trkpt lat="43.78374" lon="-1.40991">
        <ele>11.2</ele>
        <time>2021-10-16T08:05:50Z</time>
      </trkpt>
      <trkpt lat="43.78369" lon="-1.40985">
        <ele>11.2</ele>
        <time>2021-10-16T08:05:52Z</time>
      </trkpt>
      <trkpt lat="43.78367" lon="-1.40982">
        <ele>11.2</ele>
        <time>2021-10-16T08:05:53Z</time>
      </trkpt>
      <trkpt lat="43.78364" lon="-1.4098">
        <ele>11.2</ele>
        <time>2021-10-16T08:05:54Z</time>
      </trkpt>
      <trkpt lat="43.78351" lon="-1.40963">
        <ele>11</ele>
        <time>2021-10-16T08:06:00Z</time>
      </trkpt>
      <trkpt lat="43.78343" lon="-1.40931">
        <ele>10.8</ele>
        <time>2021-10-16T08:06:07Z</time>
      </trkpt>
      <trkpt lat="43.78336" lon="-1.40873">
        <ele>10.6</ele>
        <time>2021-10-16T08:06:19Z</time>
      </trkpt>
      <trkpt lat="43.78332" lon="-1.40838">
        <ele>10.6</ele>
        <time>2021-10-16T08:06:26Z</time>
      </trkpt>
      <trkpt lat="43.78322" lon="-1.4081">
        <ele>10.8</ele>
        <time>2021-10-16T08:06:32Z</time>
      </trkpt>
      <trkpt lat="43.78319" lon="-1.40808">
        <ele>10.8</ele>
        <time>2021-10-16T08:06:33Z</time>
      </trkpt>
      <trkpt lat="43.78315" lon="-1.40805">
        <ele>10.8</ele>
        <time>2021-10-16T08:06:34Z</time>
      </trkpt>
      <trkpt lat="43.78312" lon="-1.40802">
        <ele>10.8</ele>
        <time>2021-10-16T08:06:35Z</time>
      </trkpt>
      <trkpt lat="43.78308" lon="-1.408">
        <ele>10.8</ele>
        <time>2021-10-16T08:06:36Z</time>
      </trkpt>
      <trkpt lat="43.78301" lon="-1.40796">
        <ele>11</ele>
        <time>2021-10-16T08:06:38Z</time>
      </trkpt>
      <trkpt lat="43.78298" lon="-1.40794">
        <ele>11</ele>
        <time>2021-10-16T08:06:39Z</time>
      </trkpt>
      <trkpt lat="43.78294" lon="-1.40792">
        <ele>11</ele>
        <time>2021-10-16T08:06:40Z</time>
      </trkpt>
      <trkpt lat="43.78291" lon="-1.40789">
        <ele>11</ele>
        <time>2021-10-16T08:06:41Z</time>
      </trkpt>
      <trkpt lat="43.78288" lon="-1.40786">
        <ele>11</ele>
        <time>2021-10-16T08:06:42Z</time>
      </trkpt>
      <trkpt lat="43.78284" lon="-1.40784">
        <ele>11</ele>
        <time>2021-10-16T08:06:43Z</time>
      </trkpt>
      <trkpt lat="43.78282" lon="-1.40782">
        <ele>11</ele>
        <time>2021-10-16T08:06:44Z</time>
      </trkpt>
      <trkpt lat="43.78279" lon="-1.4078">
        <ele>11</ele>
        <time>2021-10-16T08:06:45Z</time>
      </trkpt>
      <trkpt lat="43.78274" lon="-1.40773">
        <ele>11</ele>
        <time>2021-10-16T08:06:47Z</time>
      </trkpt>
      <trkpt lat="43.78273" lon="-1.40769">
        <ele>11</ele>
        <time>2021-10-16T08:06:48Z</time>
      </trkpt>
      <trkpt lat="43.78272" lon="-1.40765">
        <ele>11</ele>
        <time>2021-10-16T08:06:49Z</time>
      </trkpt>
      <trkpt lat="43.78271" lon="-1.4076">
        <ele>11</ele>
        <time>2021-10-16T08:06:50Z</time>
      </trkpt>
      <trkpt lat="43.7827" lon="-1.40756">
        <ele>11</ele>
        <time>2021-10-16T08:06:51Z</time>
      </trkpt>
      <trkpt lat="43.78269" lon="-1.40751">
        <ele>11</ele>
        <time>2021-10-16T08:06:52Z</time>
      </trkpt>
      <trkpt lat="43.78269" lon="-1.40747">
        <ele>11</ele>
        <time>2021-10-16T08:06:53Z</time>
      </trkpt>
      <trkpt lat="43.7827" lon="-1.40743">
        <ele>11</ele>
        <time>2021-10-16T08:06:54Z</time>
      </trkpt>
      <trkpt lat="43.78271" lon="-1.40739">
        <ele>11</ele>
        <time>2021-10-16T08:06:55Z</time>
      </trkpt>
      <trkpt lat="43.78273" lon="-1.40736">
        <ele>10.8</ele>
        <time>2021-10-16T08:06:56Z</time>
      </trkpt>
      <trkpt lat="43.78282" lon="-1.40729">
        <ele>10.8</ele>
        <time>2021-10-16T08:06:59Z</time>
      </trkpt>
      <trkpt lat="43.78285" lon="-1.40727">
        <ele>10.8</ele>
        <time>2021-10-16T08:07:00Z</time>
      </trkpt>
      <trkpt lat="43.78288" lon="-1.40726">
        <ele>10.8</ele>
        <time>2021-10-16T08:07:01Z</time>
      </trkpt>
      <trkpt lat="43.78291" lon="-1.40724">
        <ele>10.8</ele>
        <time>2021-10-16T08:07:02Z</time>
      </trkpt>
      <trkpt lat="43.78293" lon="-1.40722">
        <ele>10.8</ele>
        <time>2021-10-16T08:07:03Z</time>
      </trkpt>
      <trkpt lat="43.78296" lon="-1.40719">
        <ele>11</ele>
        <time>2021-10-16T08:07:04Z</time>
      </trkpt>
      <trkpt lat="43.78298" lon="-1.40715">
        <ele>11</ele>
        <time>2021-10-16T08:07:05Z</time>
      </trkpt>
      <trkpt lat="43.78299" lon="-1.40711">
        <ele>11</ele>
        <time>2021-10-16T08:07:06Z</time>
      </trkpt>
      <trkpt lat="43.78301" lon="-1.40706">
        <ele>11</ele>
        <time>2021-10-16T08:07:07Z</time>
      </trkpt>
      <trkpt lat="43.78304" lon="-1.40701">
        <ele>11</ele>
        <time>2021-10-16T08:07:08Z</time>
      </trkpt>
      <trkpt lat="43.78308" lon="-1.40692">
        <ele>11</ele>
        <time>2021-10-16T08:07:10Z</time>
      </trkpt>
      <trkpt lat="43.78311" lon="-1.40688">
        <ele>11</ele>
        <time>2021-10-16T08:07:11Z</time>
      </trkpt>
      <trkpt lat="43.78314" lon="-1.40683">
        <ele>11</ele>
        <time>2021-10-16T08:07:12Z</time>
      </trkpt>
      <trkpt lat="43.78321" lon="-1.4067">
        <ele>11</ele>
        <time>2021-10-16T08:07:15Z</time>
      </trkpt>
      <trkpt lat="43.78328" lon="-1.40664">
        <ele>11</ele>
        <time>2021-10-16T08:07:17Z</time>
      </trkpt>
      <trkpt lat="43.78331" lon="-1.40663">
        <ele>11</ele>
        <time>2021-10-16T08:07:18Z</time>
      </trkpt>
      <trkpt lat="43.78335" lon="-1.40661">
        <ele>11</ele>
        <time>2021-10-16T08:07:19Z</time>
      </trkpt>
      <trkpt lat="43.78338" lon="-1.40659">
        <ele>10.8</ele>
        <time>2021-10-16T08:07:20Z</time>
      </trkpt>
      <trkpt lat="43.78341" lon="-1.40656">
        <ele>10.8</ele>
        <time>2021-10-16T08:07:21Z</time>
      </trkpt>
      <trkpt lat="43.78343" lon="-1.40651">
        <ele>10.8</ele>
        <time>2021-10-16T08:07:22Z</time>
      </trkpt>
      <trkpt lat="43.78345" lon="-1.40647">
        <ele>10.8</ele>
        <time>2021-10-16T08:07:23Z</time>
      </trkpt>
      <trkpt lat="43.78347" lon="-1.40642">
        <ele>10.8</ele>
        <time>2021-10-16T08:07:24Z</time>
      </trkpt>
      <trkpt lat="43.7835" lon="-1.40638">
        <ele>10.8</ele>
        <time>2021-10-16T08:07:25Z</time>
      </trkpt>
      <trkpt lat="43.78361" lon="-1.40634">
        <ele>10.8</ele>
        <time>2021-10-16T08:07:28Z</time>
      </trkpt>
      <trkpt lat="43.78372" lon="-1.4064">
        <ele>10.8</ele>
        <time>2021-10-16T08:07:31Z</time>
      </trkpt>
      <trkpt lat="43.78376" lon="-1.4064">
        <ele>10.8</ele>
        <time>2021-10-16T08:07:32Z</time>
      </trkpt>
      <trkpt lat="43.7838" lon="-1.40639">
        <ele>10.8</ele>
        <time>2021-10-16T08:07:33Z</time>
      </trkpt>
      <trkpt lat="43.78384" lon="-1.40638">
        <ele>10.8</ele>
        <time>2021-10-16T08:07:34Z</time>
      </trkpt>
      <trkpt lat="43.78388" lon="-1.40636">
        <ele>10.8</ele>
        <time>2021-10-16T08:07:35Z</time>
      </trkpt>
      <trkpt lat="43.78393" lon="-1.40635">
        <ele>10.8</ele>
        <time>2021-10-16T08:07:36Z</time>
      </trkpt>
      <trkpt lat="43.78419" lon="-1.40629">
        <ele>10.4</ele>
        <time>2021-10-16T08:07:43Z</time>
      </trkpt>
      <trkpt lat="43.78422" lon="-1.40629">
        <ele>10.4</ele>
        <time>2021-10-16T08:07:44Z</time>
      </trkpt>
      <trkpt lat="43.78426" lon="-1.40627">
        <ele>10.4</ele>
        <time>2021-10-16T08:07:45Z</time>
      </trkpt>
      <trkpt lat="43.78429" lon="-1.40625">
        <ele>10.4</ele>
        <time>2021-10-16T08:07:46Z</time>
      </trkpt>
      <trkpt lat="43.78433" lon="-1.40623">
        <ele>10.4</ele>
        <time>2021-10-16T08:07:47Z</time>
      </trkpt>
      <trkpt lat="43.78435" lon="-1.40619">
        <ele>10.4</ele>
        <time>2021-10-16T08:07:48Z</time>
      </trkpt>
      <trkpt lat="43.78438" lon="-1.40615">
        <ele>10.4</ele>
        <time>2021-10-16T08:07:49Z</time>
      </trkpt>
      <trkpt lat="43.7844" lon="-1.40611">
        <ele>10.4</ele>
        <time>2021-10-16T08:07:50Z</time>
      </trkpt>
      <trkpt lat="43.78445" lon="-1.40602">
        <ele>10.6</ele>
        <time>2021-10-16T08:07:52Z</time>
      </trkpt>
      <trkpt lat="43.78462" lon="-1.40565">
        <ele>10.4</ele>
        <time>2021-10-16T08:08:00Z</time>
      </trkpt>
      <trkpt lat="43.78472" lon="-1.40522">
        <ele>10.4</ele>
        <time>2021-10-16T08:08:08Z</time>
      </trkpt>
      <trkpt lat="43.78471" lon="-1.40506">
        <ele>10.4</ele>
        <time>2021-10-16T08:08:11Z</time>
      </trkpt>
      <trkpt lat="43.78468" lon="-1.40496">
        <ele>10.4</ele>
        <time>2021-10-16T08:08:13Z</time>
      </trkpt>
      <trkpt lat="43.78464" lon="-1.40485">
        <ele>10.4</ele>
        <time>2021-10-16T08:08:15Z</time>
      </trkpt>
      <trkpt lat="43.78459" lon="-1.40464">
        <ele>10.4</ele>
        <time>2021-10-16T08:08:19Z</time>
      </trkpt>
      <trkpt lat="43.78459" lon="-1.40458">
        <ele>10.4</ele>
        <time>2021-10-16T08:08:20Z</time>
      </trkpt>
      <trkpt lat="43.78459" lon="-1.40454">
        <ele>10.4</ele>
        <time>2021-10-16T08:08:21Z</time>
      </trkpt>
      <trkpt lat="43.78461" lon="-1.4045">
        <ele>10.4</ele>
        <time>2021-10-16T08:08:22Z</time>
      </trkpt>
      <trkpt lat="43.78462" lon="-1.40446">
        <ele>10.4</ele>
        <time>2021-10-16T08:08:23Z</time>
      </trkpt>
      <trkpt lat="43.78464" lon="-1.40442">
        <ele>10.4</ele>
        <time>2021-10-16T08:08:24Z</time>
      </trkpt>
      <trkpt lat="43.78466" lon="-1.40438">
        <ele>10.4</ele>
        <time>2021-10-16T08:08:25Z</time>
      </trkpt>
      <trkpt lat="43.78468" lon="-1.40435">
        <ele>10.4</ele>
        <time>2021-10-16T08:08:26Z</time>
      </trkpt>
      <trkpt lat="43.78471" lon="-1.40433">
        <ele>10.4</ele>
        <time>2021-10-16T08:08:27Z</time>
      </trkpt>
      <trkpt lat="43.78473" lon="-1.4043">
        <ele>10.4</ele>
        <time>2021-10-16T08:08:28Z</time>
      </trkpt>
      <trkpt lat="43.78475" lon="-1.40427">
        <ele>10.4</ele>
        <time>2021-10-16T08:08:29Z</time>
      </trkpt>
      <trkpt lat="43.78476" lon="-1.40424">
        <ele>10.4</ele>
        <time>2021-10-16T08:08:30Z</time>
      </trkpt>
      <trkpt lat="43.78477" lon="-1.40421">
        <ele>10.4</ele>
        <time>2021-10-16T08:08:31Z</time>
      </trkpt>
      <trkpt lat="43.78478" lon="-1.40417">
        <ele>10.4</ele>
        <time>2021-10-16T08:08:32Z</time>
      </trkpt>
      <trkpt lat="43.78479" lon="-1.40414">
        <ele>10.4</ele>
        <time>2021-10-16T08:08:33Z</time>
      </trkpt>
      <trkpt lat="43.7848" lon="-1.4041">
        <ele>10.4</ele>
        <time>2021-10-16T08:08:34Z</time>
      </trkpt>
      <trkpt lat="43.78481" lon="-1.40405">
        <ele>10.4</ele>
        <time>2021-10-16T08:08:35Z</time>
      </trkpt>
      <trkpt lat="43.78482" lon="-1.40401">
        <ele>10.4</ele>
        <time>2021-10-16T08:08:36Z</time>
      </trkpt>
      <trkpt lat="43.78487" lon="-1.40384">
        <ele>10.4</ele>
        <time>2021-10-16T08:08:40Z</time>
      </trkpt>
      <trkpt lat="43.7849" lon="-1.4038">
        <ele>10.4</ele>
        <time>2021-10-16T08:08:41Z</time>
      </trkpt>
      <trkpt lat="43.78492" lon="-1.40376">
        <ele>10.4</ele>
        <time>2021-10-16T08:08:42Z</time>
      </trkpt>
      <trkpt lat="43.785" lon="-1.40353">
        <ele>10.2</ele>
        <time>2021-10-16T08:08:47Z</time>
      </trkpt>
      <trkpt lat="43.785" lon="-1.40348">
        <ele>10.2</ele>
        <time>2021-10-16T08:08:48Z</time>
      </trkpt>
      <trkpt lat="43.785" lon="-1.40343">
        <ele>10.2</ele>
        <time>2021-10-16T08:08:49Z</time>
      </trkpt>
      <trkpt lat="43.78508" lon="-1.40319">
        <ele>10.4</ele>
        <time>2021-10-16T08:08:54Z</time>
      </trkpt>
      <trkpt lat="43.78523" lon="-1.40295">
        <ele>10.4</ele>
        <time>2021-10-16T08:09:00Z</time>
      </trkpt>
      <trkpt lat="43.78534" lon="-1.40271">
        <ele>10.4</ele>
        <time>2021-10-16T08:09:05Z</time>
      </trkpt>
      <trkpt lat="43.78543" lon="-1.40256">
        <ele>10.4</ele>
        <time>2021-10-16T08:09:09Z</time>
      </trkpt>
      <trkpt lat="43.78546" lon="-1.40254">
        <ele>10.4</ele>
        <time>2021-10-16T08:09:10Z</time>
      </trkpt>
      <trkpt lat="43.78548" lon="-1.4025">
        <ele>10.4</ele>
        <time>2021-10-16T08:09:11Z</time>
      </trkpt>
      <trkpt lat="43.7855" lon="-1.40247">
        <ele>10.4</ele>
        <time>2021-10-16T08:09:12Z</time>
      </trkpt>
      <trkpt lat="43.78552" lon="-1.40244">
        <ele>10.4</ele>
        <time>2021-10-16T08:09:13Z</time>
      </trkpt>
      <trkpt lat="43.78556" lon="-1.40239">
        <ele>10.4</ele>
        <time>2021-10-16T08:09:15Z</time>
      </trkpt>
      <trkpt lat="43.78557" lon="-1.40236">
        <ele>10.4</ele>
        <time>2021-10-16T08:09:16Z</time>
      </trkpt>
      <trkpt lat="43.78559" lon="-1.40233">
        <ele>10.4</ele>
        <time>2021-10-16T08:09:17Z</time>
      </trkpt>
      <trkpt lat="43.78561" lon="-1.40229">
        <ele>10.4</ele>
        <time>2021-10-16T08:09:18Z</time>
      </trkpt>
      <trkpt lat="43.78564" lon="-1.40226">
        <ele>10.4</ele>
        <time>2021-10-16T08:09:19Z</time>
      </trkpt>
      <trkpt lat="43.78579" lon="-1.40193">
        <ele>10.6</ele>
        <time>2021-10-16T08:09:28Z</time>
      </trkpt>
      <trkpt lat="43.78581" lon="-1.4019">
        <ele>10.6</ele>
        <time>2021-10-16T08:09:29Z</time>
      </trkpt>
      <trkpt lat="43.78582" lon="-1.40187">
        <ele>10.6</ele>
        <time>2021-10-16T08:09:30Z</time>
      </trkpt>
      <trkpt lat="43.78584" lon="-1.40184">
        <ele>10.6</ele>
        <time>2021-10-16T08:09:31Z</time>
      </trkpt>
      <trkpt lat="43.78585" lon="-1.4018">
        <ele>10.6</ele>
        <time>2021-10-16T08:09:32Z</time>
      </trkpt>
      <trkpt lat="43.78586" lon="-1.40177">
        <ele>10.6</ele>
        <time>2021-10-16T08:09:33Z</time>
      </trkpt>
      <trkpt lat="43.78588" lon="-1.40174">
        <ele>10.6</ele>
        <time>2021-10-16T08:09:34Z</time>
      </trkpt>
      <trkpt lat="43.7859" lon="-1.40171">
        <ele>10.8</ele>
        <time>2021-10-16T08:09:35Z</time>
      </trkpt>
      <trkpt lat="43.78591" lon="-1.40167">
        <ele>10.8</ele>
        <time>2021-10-16T08:09:36Z</time>
      </trkpt>
      <trkpt lat="43.78593" lon="-1.40164">
        <ele>10.8</ele>
        <time>2021-10-16T08:09:37Z</time>
      </trkpt>
      <trkpt lat="43.78595" lon="-1.40162">
        <ele>10.8</ele>
        <time>2021-10-16T08:09:38Z</time>
      </trkpt>
      <trkpt lat="43.78597" lon="-1.40161">
        <ele>10.8</ele>
        <time>2021-10-16T08:09:39Z</time>
      </trkpt>
      <trkpt lat="43.78599" lon="-1.4016">
        <ele>10.8</ele>
        <time>2021-10-16T08:09:40Z</time>
      </trkpt>
      <trkpt lat="43.78601" lon="-1.40161">
        <ele>10.8</ele>
        <time>2021-10-16T08:09:41Z</time>
      </trkpt>
      <trkpt lat="43.78603" lon="-1.40162">
        <ele>10.8</ele>
        <time>2021-10-16T08:09:42Z</time>
      </trkpt>
      <trkpt lat="43.78604" lon="-1.40164">
        <ele>10.8</ele>
        <time>2021-10-16T08:09:43Z</time>
      </trkpt>
      <trkpt lat="43.78606" lon="-1.40164">
        <ele>10.8</ele>
        <time>2021-10-16T08:09:44Z</time>
      </trkpt>
      <trkpt lat="43.78608" lon="-1.40164">
        <ele>10.8</ele>
        <time>2021-10-16T08:09:45Z</time>
      </trkpt>
      <trkpt lat="43.78609" lon="-1.40162">
        <ele>10.8</ele>
        <time>2021-10-16T08:09:46Z</time>
      </trkpt>
      <trkpt lat="43.78611" lon="-1.4016">
        <ele>10.8</ele>
        <time>2021-10-16T08:09:47Z</time>
      </trkpt>
      <trkpt lat="43.78611" lon="-1.40158">
        <ele>10.8</ele>
        <time>2021-10-16T08:09:48Z</time>
      </trkpt>
      <trkpt lat="43.78613" lon="-1.40156">
        <ele>10.8</ele>
        <time>2021-10-16T08:09:49Z</time>
      </trkpt>
      <trkpt lat="43.78614" lon="-1.40154">
        <ele>10.8</ele>
        <time>2021-10-16T08:09:50Z</time>
      </trkpt>
      <trkpt lat="43.78615" lon="-1.40152">
        <ele>10.8</ele>
        <time>2021-10-16T08:09:51Z</time>
      </trkpt>
      <trkpt lat="43.78616" lon="-1.4015">
        <ele>10.8</ele>
        <time>2021-10-16T08:09:52Z</time>
      </trkpt>
      <trkpt lat="43.78616" lon="-1.40148">
        <ele>10.8</ele>
        <time>2021-10-16T08:09:53Z</time>
      </trkpt>
      <trkpt lat="43.78617" lon="-1.40146">
        <ele>10.8</ele>
        <time>2021-10-16T08:09:54Z</time>
      </trkpt>
      <trkpt lat="43.78617" lon="-1.40144">
        <ele>10.8</ele>
        <time>2021-10-16T08:09:55Z</time>
      </trkpt>
      <trkpt lat="43.78621" lon="-1.4014">
        <ele>10.8</ele>
        <time>2021-10-16T08:09:57Z</time>
      </trkpt>
      <trkpt lat="43.78623" lon="-1.40139">
        <ele>10.8</ele>
        <time>2021-10-16T08:09:58Z</time>
      </trkpt>
      <trkpt lat="43.78626" lon="-1.40138">
        <ele>10.8</ele>
        <time>2021-10-16T08:09:59Z</time>
      </trkpt>
      <trkpt lat="43.7863" lon="-1.40137">
        <ele>10.8</ele>
        <time>2021-10-16T08:10:00Z</time>
      </trkpt>
      <trkpt lat="43.78633" lon="-1.40136">
        <ele>10.6</ele>
        <time>2021-10-16T08:10:01Z</time>
      </trkpt>
      <trkpt lat="43.78644" lon="-1.40134">
        <ele>10.6</ele>
        <time>2021-10-16T08:10:04Z</time>
      </trkpt>
      <trkpt lat="43.78647" lon="-1.40133">
        <ele>10.4</ele>
        <time>2021-10-16T08:10:05Z</time>
      </trkpt>
      <trkpt lat="43.7865" lon="-1.40132">
        <ele>10.4</ele>
        <time>2021-10-16T08:10:06Z</time>
      </trkpt>
      <trkpt lat="43.78653" lon="-1.40131">
        <ele>10.2</ele>
        <time>2021-10-16T08:10:07Z</time>
      </trkpt>
      <trkpt lat="43.78656" lon="-1.40131">
        <ele>10.2</ele>
        <time>2021-10-16T08:10:08Z</time>
      </trkpt>
      <trkpt lat="43.78659" lon="-1.40131">
        <ele>10</ele>
        <time>2021-10-16T08:10:09Z</time>
      </trkpt>
      <trkpt lat="43.78662" lon="-1.40131">
        <ele>10</ele>
        <time>2021-10-16T08:10:10Z</time>
      </trkpt>
      <trkpt lat="43.78664" lon="-1.4013">
        <ele>10</ele>
        <time>2021-10-16T08:10:11Z</time>
      </trkpt>
      <trkpt lat="43.78667" lon="-1.40129">
        <ele>10</ele>
        <time>2021-10-16T08:10:12Z</time>
      </trkpt>
      <trkpt lat="43.78671" lon="-1.40127">
        <ele>10</ele>
        <time>2021-10-16T08:10:13Z</time>
      </trkpt>
      <trkpt lat="43.78674" lon="-1.40126">
        <ele>10</ele>
        <time>2021-10-16T08:10:14Z</time>
      </trkpt>
      <trkpt lat="43.78686" lon="-1.40122">
        <ele>9.8</ele>
        <time>2021-10-16T08:10:17Z</time>
      </trkpt>
      <trkpt lat="43.78693" lon="-1.40119">
        <ele>9.6</ele>
        <time>2021-10-16T08:10:19Z</time>
      </trkpt>
      <trkpt lat="43.78697" lon="-1.40118">
        <ele>9.6</ele>
        <time>2021-10-16T08:10:20Z</time>
      </trkpt>
      <trkpt lat="43.78708" lon="-1.40115">
        <ele>9.6</ele>
        <time>2021-10-16T08:10:23Z</time>
      </trkpt>
      <trkpt lat="43.78738" lon="-1.40101">
        <ele>9.6</ele>
        <time>2021-10-16T08:10:31Z</time>
      </trkpt>
      <trkpt lat="43.78742" lon="-1.401">
        <ele>9.6</ele>
        <time>2021-10-16T08:10:32Z</time>
      </trkpt>
      <trkpt lat="43.78767" lon="-1.4009">
        <ele>9.8</ele>
        <time>2021-10-16T08:10:38Z</time>
      </trkpt>
      <trkpt lat="43.78771" lon="-1.40089">
        <ele>9.6</ele>
        <time>2021-10-16T08:10:39Z</time>
      </trkpt>
      <trkpt lat="43.78775" lon="-1.40087">
        <ele>10</ele>
        <time>2021-10-16T08:10:40Z</time>
      </trkpt>
      <trkpt lat="43.78801" lon="-1.40078">
        <ele>9.6</ele>
        <time>2021-10-16T08:10:46Z</time>
      </trkpt>
      <trkpt lat="43.78814" lon="-1.40074">
        <ele>9.8</ele>
        <time>2021-10-16T08:10:49Z</time>
      </trkpt>
      <trkpt lat="43.78833" lon="-1.40068">
        <ele>10</ele>
        <time>2021-10-16T08:10:53Z</time>
      </trkpt>
      <trkpt lat="43.78837" lon="-1.40066">
        <ele>10</ele>
        <time>2021-10-16T08:10:54Z</time>
      </trkpt>
      <trkpt lat="43.7886" lon="-1.40058">
        <ele>10.2</ele>
        <time>2021-10-16T08:10:59Z</time>
      </trkpt>
      <trkpt lat="43.78878" lon="-1.40052">
        <ele>10.2</ele>
        <time>2021-10-16T08:11:03Z</time>
      </trkpt>
      <trkpt lat="43.78882" lon="-1.40051">
        <ele>10.2</ele>
        <time>2021-10-16T08:11:04Z</time>
      </trkpt>
      <trkpt lat="43.78887" lon="-1.4005">
        <ele>10.2</ele>
        <time>2021-10-16T08:11:05Z</time>
      </trkpt>
      <trkpt lat="43.789" lon="-1.40046">
        <ele>10.4</ele>
        <time>2021-10-16T08:11:08Z</time>
      </trkpt>
      <trkpt lat="43.78908" lon="-1.40044">
        <ele>10.4</ele>
        <time>2021-10-16T08:11:10Z</time>
      </trkpt>
      <trkpt lat="43.78912" lon="-1.40042">
        <ele>10.4</ele>
        <time>2021-10-16T08:11:11Z</time>
      </trkpt>
      <trkpt lat="43.78917" lon="-1.40041">
        <ele>10.4</ele>
        <time>2021-10-16T08:11:12Z</time>
      </trkpt>
      <trkpt lat="43.78921" lon="-1.4004">
        <ele>10.4</ele>
        <time>2021-10-16T08:11:13Z</time>
      </trkpt>
      <trkpt lat="43.78928" lon="-1.40038">
        <ele>10.4</ele>
        <time>2021-10-16T08:11:15Z</time>
      </trkpt>
      <trkpt lat="43.78932" lon="-1.40036">
        <ele>10.4</ele>
        <time>2021-10-16T08:11:16Z</time>
      </trkpt>
      <trkpt lat="43.78934" lon="-1.40033">
        <ele>10.4</ele>
        <time>2021-10-16T08:11:17Z</time>
      </trkpt>
      <trkpt lat="43.78936" lon="-1.40029">
        <ele>10.4</ele>
        <time>2021-10-16T08:11:18Z</time>
      </trkpt>
      <trkpt lat="43.78936" lon="-1.40025">
        <ele>10.4</ele>
        <time>2021-10-16T08:11:19Z</time>
      </trkpt>
      <trkpt lat="43.78932" lon="-1.40007">
        <ele>10.2</ele>
        <time>2021-10-16T08:11:23Z</time>
      </trkpt>
      <trkpt lat="43.78926" lon="-1.3997">
        <ele>10.2</ele>
        <time>2021-10-16T08:11:29Z</time>
      </trkpt>
      <trkpt lat="43.78923" lon="-1.39957">
        <ele>10.2</ele>
        <time>2021-10-16T08:11:31Z</time>
      </trkpt>
      <trkpt lat="43.78912" lon="-1.39908">
        <ele>10.2</ele>
        <time>2021-10-16T08:11:38Z</time>
      </trkpt>
      <trkpt lat="43.78896" lon="-1.39835">
        <ele>10</ele>
        <time>2021-10-16T08:11:48Z</time>
      </trkpt>
      <trkpt lat="43.78893" lon="-1.39821">
        <ele>10</ele>
        <time>2021-10-16T08:11:50Z</time>
      </trkpt>
      <trkpt lat="43.78883" lon="-1.39778">
        <ele>10</ele>
        <time>2021-10-16T08:11:56Z</time>
      </trkpt>
      <trkpt lat="43.78882" lon="-1.39771">
        <ele>10</ele>
        <time>2021-10-16T08:11:57Z</time>
      </trkpt>
      <trkpt lat="43.78882" lon="-1.39764">
        <ele>10</ele>
        <time>2021-10-16T08:11:58Z</time>
      </trkpt>
      <trkpt lat="43.78881" lon="-1.39743">
        <ele>10</ele>
        <time>2021-10-16T08:12:01Z</time>
      </trkpt>
      <trkpt lat="43.7888" lon="-1.39737">
        <ele>10</ele>
        <time>2021-10-16T08:12:02Z</time>
      </trkpt>
      <trkpt lat="43.78879" lon="-1.3973">
        <ele>10</ele>
        <time>2021-10-16T08:12:03Z</time>
      </trkpt>
      <trkpt lat="43.78877" lon="-1.39725">
        <ele>10</ele>
        <time>2021-10-16T08:12:04Z</time>
      </trkpt>
      <trkpt lat="43.78875" lon="-1.39719">
        <ele>10</ele>
        <time>2021-10-16T08:12:05Z</time>
      </trkpt>
      <trkpt lat="43.78873" lon="-1.39713">
        <ele>10</ele>
        <time>2021-10-16T08:12:06Z</time>
      </trkpt>
      <trkpt lat="43.78871" lon="-1.39707">
        <ele>10.2</ele>
        <time>2021-10-16T08:12:07Z</time>
      </trkpt>
      <trkpt lat="43.78869" lon="-1.39702">
        <ele>10.2</ele>
        <time>2021-10-16T08:12:08Z</time>
      </trkpt>
      <trkpt lat="43.78867" lon="-1.39697">
        <ele>10.2</ele>
        <time>2021-10-16T08:12:09Z</time>
      </trkpt>
      <trkpt lat="43.78866" lon="-1.39692">
        <ele>10.2</ele>
        <time>2021-10-16T08:12:10Z</time>
      </trkpt>
      <trkpt lat="43.78864" lon="-1.39687">
        <ele>10.2</ele>
        <time>2021-10-16T08:12:11Z</time>
      </trkpt>
      <trkpt lat="43.78862" lon="-1.39682">
        <ele>10.2</ele>
        <time>2021-10-16T08:12:12Z</time>
      </trkpt>
      <trkpt lat="43.7886" lon="-1.39678">
        <ele>10.2</ele>
        <time>2021-10-16T08:12:13Z</time>
      </trkpt>
      <trkpt lat="43.78859" lon="-1.39673">
        <ele>10.4</ele>
        <time>2021-10-16T08:12:14Z</time>
      </trkpt>
      <trkpt lat="43.78858" lon="-1.39669">
        <ele>10.4</ele>
        <time>2021-10-16T08:12:15Z</time>
      </trkpt>
      <trkpt lat="43.78857" lon="-1.39665">
        <ele>10.4</ele>
        <time>2021-10-16T08:12:16Z</time>
      </trkpt>
      <trkpt lat="43.78857" lon="-1.39661">
        <ele>10.4</ele>
        <time>2021-10-16T08:12:17Z</time>
      </trkpt>
      <trkpt lat="43.78858" lon="-1.39649">
        <ele>10.6</ele>
        <time>2021-10-16T08:12:20Z</time>
      </trkpt>
      <trkpt lat="43.78858" lon="-1.39645">
        <ele>10.6</ele>
        <time>2021-10-16T08:12:21Z</time>
      </trkpt>
      <trkpt lat="43.78858" lon="-1.39642">
        <ele>10.6</ele>
        <time>2021-10-16T08:12:22Z</time>
      </trkpt>
      <trkpt lat="43.78859" lon="-1.39638">
        <ele>10.6</ele>
        <time>2021-10-16T08:12:23Z</time>
      </trkpt>
      <trkpt lat="43.78861" lon="-1.39635">
        <ele>10.6</ele>
        <time>2021-10-16T08:12:24Z</time>
      </trkpt>
      <trkpt lat="43.78862" lon="-1.39632">
        <ele>10.6</ele>
        <time>2021-10-16T08:12:25Z</time>
      </trkpt>
      <trkpt lat="43.78864" lon="-1.39628">
        <ele>10.6</ele>
        <time>2021-10-16T08:12:26Z</time>
      </trkpt>
      <trkpt lat="43.78867" lon="-1.39625">
        <ele>10.6</ele>
        <time>2021-10-16T08:12:27Z</time>
      </trkpt>
      <trkpt lat="43.78869" lon="-1.39622">
        <ele>10.6</ele>
        <time>2021-10-16T08:12:28Z</time>
      </trkpt>
      <trkpt lat="43.78871" lon="-1.39619">
        <ele>10.6</ele>
        <time>2021-10-16T08:12:29Z</time>
      </trkpt>
      <trkpt lat="43.78872" lon="-1.39617">
        <ele>10.6</ele>
        <time>2021-10-16T08:12:30Z</time>
      </trkpt>
      <trkpt lat="43.78874" lon="-1.39615">
        <ele>10.6</ele>
        <time>2021-10-16T08:12:31Z</time>
      </trkpt>
      <trkpt lat="43.78875" lon="-1.39614">
        <ele>10.6</ele>
        <time>2021-10-16T08:12:32Z</time>
      </trkpt>
      <trkpt lat="43.78876" lon="-1.39612">
        <ele>10.6</ele>
        <time>2021-10-16T08:12:33Z</time>
      </trkpt>
      <trkpt lat="43.7888" lon="-1.39607">
        <ele>10.6</ele>
        <time>2021-10-16T08:12:36Z</time>
      </trkpt>
      <trkpt lat="43.78881" lon="-1.39606">
        <ele>10.6</ele>
        <time>2021-10-16T08:12:37Z</time>
      </trkpt>
      <trkpt lat="43.78881" lon="-1.39605">
        <ele>10.6</ele>
        <time>2021-10-16T08:12:38Z</time>
      </trkpt>
      <trkpt lat="43.78882" lon="-1.39605">
        <ele>10.6</ele>
        <time>2021-10-16T08:12:39Z</time>
      </trkpt>
      <trkpt lat="43.78882" lon="-1.39605">
        <ele>10.6</ele>
        <time>2021-10-16T08:12:40Z</time>
      </trkpt>
      <trkpt lat="43.78882" lon="-1.39605">
        <ele>10.6</ele>
        <time>2021-10-16T08:12:45Z</time>
      </trkpt>
      <trkpt lat="43.78881" lon="-1.39603">
        <ele>10.4</ele>
        <time>2021-10-16T08:12:58Z</time>
      </trkpt>
      <trkpt lat="43.7888" lon="-1.39601">
        <ele>10.4</ele>
        <time>2021-10-16T08:12:59Z</time>
      </trkpt>
      <trkpt lat="43.78877" lon="-1.39598">
        <ele>10.4</ele>
        <time>2021-10-16T08:13:01Z</time>
      </trkpt>
      <trkpt lat="43.78875" lon="-1.39595">
        <ele>10.6</ele>
        <time>2021-10-16T08:13:02Z</time>
      </trkpt>
      <trkpt lat="43.78871" lon="-1.39589">
        <ele>10.6</ele>
        <time>2021-10-16T08:13:04Z</time>
      </trkpt>
      <trkpt lat="43.78863" lon="-1.39567">
        <ele>10.8</ele>
        <time>2021-10-16T08:13:09Z</time>
      </trkpt>
      <trkpt lat="43.78854" lon="-1.39549">
        <ele>10.8</ele>
        <time>2021-10-16T08:13:13Z</time>
      </trkpt>
      <trkpt lat="43.78851" lon="-1.39546">
        <ele>10.8</ele>
        <time>2021-10-16T08:13:14Z</time>
      </trkpt>
      <trkpt lat="43.78847" lon="-1.39543">
        <ele>10.8</ele>
        <time>2021-10-16T08:13:15Z</time>
      </trkpt>
      <trkpt lat="43.78843" lon="-1.39541">
        <ele>10.8</ele>
        <time>2021-10-16T08:13:16Z</time>
      </trkpt>
      <trkpt lat="43.7884" lon="-1.3954">
        <ele>10.8</ele>
        <time>2021-10-16T08:13:17Z</time>
      </trkpt>
      <trkpt lat="43.78836" lon="-1.39538">
        <ele>10.8</ele>
        <time>2021-10-16T08:13:18Z</time>
      </trkpt>
      <trkpt lat="43.78829" lon="-1.39534">
        <ele>10.8</ele>
        <time>2021-10-16T08:13:20Z</time>
      </trkpt>
      <trkpt lat="43.78825" lon="-1.39531">
        <ele>10.8</ele>
        <time>2021-10-16T08:13:21Z</time>
      </trkpt>
      <trkpt lat="43.78822" lon="-1.39528">
        <ele>10.8</ele>
        <time>2021-10-16T08:13:22Z</time>
      </trkpt>
      <trkpt lat="43.7882" lon="-1.39524">
        <ele>10.8</ele>
        <time>2021-10-16T08:13:23Z</time>
      </trkpt>
      <trkpt lat="43.78818" lon="-1.39519">
        <ele>10.8</ele>
        <time>2021-10-16T08:13:24Z</time>
      </trkpt>
      <trkpt lat="43.78816" lon="-1.39515">
        <ele>10.8</ele>
        <time>2021-10-16T08:13:25Z</time>
      </trkpt>
      <trkpt lat="43.78804" lon="-1.39476">
        <ele>11.2</ele>
        <time>2021-10-16T08:13:33Z</time>
      </trkpt>
      <trkpt lat="43.78805" lon="-1.39471">
        <ele>11.2</ele>
        <time>2021-10-16T08:13:34Z</time>
      </trkpt>
      <trkpt lat="43.78807" lon="-1.39466">
        <ele>11.2</ele>
        <time>2021-10-16T08:13:35Z</time>
      </trkpt>
      <trkpt lat="43.78808" lon="-1.39462">
        <ele>11.2</ele>
        <time>2021-10-16T08:13:36Z</time>
      </trkpt>
      <trkpt lat="43.78808" lon="-1.39457">
        <ele>11.2</ele>
        <time>2021-10-16T08:13:37Z</time>
      </trkpt>
      <trkpt lat="43.78807" lon="-1.39453">
        <ele>11.2</ele>
        <time>2021-10-16T08:13:38Z</time>
      </trkpt>
      <trkpt lat="43.78805" lon="-1.39449">
        <ele>11.2</ele>
        <time>2021-10-16T08:13:39Z</time>
      </trkpt>
      <trkpt lat="43.78803" lon="-1.39445">
        <ele>11.2</ele>
        <time>2021-10-16T08:13:40Z</time>
      </trkpt>
      <trkpt lat="43.78801" lon="-1.39441">
        <ele>11.2</ele>
        <time>2021-10-16T08:13:41Z</time>
      </trkpt>
      <trkpt lat="43.78799" lon="-1.39437">
        <ele>11</ele>
        <time>2021-10-16T08:13:42Z</time>
      </trkpt>
      <trkpt lat="43.78797" lon="-1.39434">
        <ele>11</ele>
        <time>2021-10-16T08:13:43Z</time>
      </trkpt>
      <trkpt lat="43.78796" lon="-1.3943">
        <ele>11</ele>
        <time>2021-10-16T08:13:44Z</time>
      </trkpt>
      <trkpt lat="43.78794" lon="-1.39427">
        <ele>11</ele>
        <time>2021-10-16T08:13:45Z</time>
      </trkpt>
      <trkpt lat="43.78793" lon="-1.39425">
        <ele>11</ele>
        <time>2021-10-16T08:13:46Z</time>
      </trkpt>
      <trkpt lat="43.78791" lon="-1.39424">
        <ele>11</ele>
        <time>2021-10-16T08:13:47Z</time>
      </trkpt>
      <trkpt lat="43.78789" lon="-1.39425">
        <ele>11</ele>
        <time>2021-10-16T08:13:48Z</time>
      </trkpt>
      <trkpt lat="43.78786" lon="-1.39427">
        <ele>11.2</ele>
        <time>2021-10-16T08:13:49Z</time>
      </trkpt>
      <trkpt lat="43.78769" lon="-1.39443">
        <ele>11.2</ele>
        <time>2021-10-16T08:13:54Z</time>
      </trkpt>
      <trkpt lat="43.78747" lon="-1.39462">
        <ele>11.2</ele>
        <time>2021-10-16T08:13:59Z</time>
      </trkpt>
      <trkpt lat="43.78743" lon="-1.39466">
        <ele>11</ele>
        <time>2021-10-16T08:14:00Z</time>
      </trkpt>
      <trkpt lat="43.78734" lon="-1.39474">
        <ele>11</ele>
        <time>2021-10-16T08:14:02Z</time>
      </trkpt>
      <trkpt lat="43.787" lon="-1.39495">
        <ele>10.8</ele>
        <time>2021-10-16T08:14:09Z</time>
      </trkpt>
      <trkpt lat="43.78648" lon="-1.39522">
        <ele>10.6</ele>
        <time>2021-10-16T08:14:19Z</time>
      </trkpt>
      <trkpt lat="43.78643" lon="-1.39524">
        <ele>10.6</ele>
        <time>2021-10-16T08:14:20Z</time>
      </trkpt>
      <trkpt lat="43.78623" lon="-1.39531">
        <ele>10.4</ele>
        <time>2021-10-16T08:14:24Z</time>
      </trkpt>
      <trkpt lat="43.78619" lon="-1.39533">
        <ele>10.4</ele>
        <time>2021-10-16T08:14:25Z</time>
      </trkpt>
      <trkpt lat="43.78616" lon="-1.39534">
        <ele>10.4</ele>
        <time>2021-10-16T08:14:26Z</time>
      </trkpt>
      <trkpt lat="43.78612" lon="-1.39535">
        <ele>10.4</ele>
        <time>2021-10-16T08:14:27Z</time>
      </trkpt>
      <trkpt lat="43.78608" lon="-1.39537">
        <ele>10.4</ele>
        <time>2021-10-16T08:14:28Z</time>
      </trkpt>
      <trkpt lat="43.78585" lon="-1.39546">
        <ele>10.8</ele>
        <time>2021-10-16T08:14:33Z</time>
      </trkpt>
      <trkpt lat="43.78558" lon="-1.39556">
        <ele>10.8</ele>
        <time>2021-10-16T08:14:38Z</time>
      </trkpt>
      <trkpt lat="43.78515" lon="-1.39573">
        <ele>10.6</ele>
        <time>2021-10-16T08:14:46Z</time>
      </trkpt>
      <trkpt lat="43.7851" lon="-1.39575">
        <ele>10.6</ele>
        <time>2021-10-16T08:14:47Z</time>
      </trkpt>
      <trkpt lat="43.7849" lon="-1.39583">
        <ele>10.6</ele>
        <time>2021-10-16T08:14:51Z</time>
      </trkpt>
      <trkpt lat="43.78486" lon="-1.39584">
        <ele>10.6</ele>
        <time>2021-10-16T08:14:52Z</time>
      </trkpt>
      <trkpt lat="43.78482" lon="-1.39585">
        <ele>10.6</ele>
        <time>2021-10-16T08:14:53Z</time>
      </trkpt>
      <trkpt lat="43.78479" lon="-1.39587">
        <ele>10.4</ele>
        <time>2021-10-16T08:14:54Z</time>
      </trkpt>
      <trkpt lat="43.78451" lon="-1.39598">
        <ele>10.4</ele>
        <time>2021-10-16T08:15:00Z</time>
      </trkpt>
      <trkpt lat="43.78405" lon="-1.39616">
        <ele>10.4</ele>
        <time>2021-10-16T08:15:09Z</time>
      </trkpt>
      <trkpt lat="43.78352" lon="-1.3963">
        <ele>10.2</ele>
        <time>2021-10-16T08:15:19Z</time>
      </trkpt>
      <trkpt lat="43.78313" lon="-1.39632">
        <ele>10.2</ele>
        <time>2021-10-16T08:15:26Z</time>
      </trkpt>
      <trkpt lat="43.78291" lon="-1.39632">
        <ele>10.2</ele>
        <time>2021-10-16T08:15:30Z</time>
      </trkpt>
      <trkpt lat="43.78285" lon="-1.39632">
        <ele>10.2</ele>
        <time>2021-10-16T08:15:31Z</time>
      </trkpt>
      <trkpt lat="43.7828" lon="-1.39633">
        <ele>10.4</ele>
        <time>2021-10-16T08:15:32Z</time>
      </trkpt>
      <trkpt lat="43.78276" lon="-1.39633">
        <ele>10.4</ele>
        <time>2021-10-16T08:15:33Z</time>
      </trkpt>
      <trkpt lat="43.78271" lon="-1.39632">
        <ele>10.4</ele>
        <time>2021-10-16T08:15:34Z</time>
      </trkpt>
      <trkpt lat="43.78266" lon="-1.39633">
        <ele>10.4</ele>
        <time>2021-10-16T08:15:35Z</time>
      </trkpt>
      <trkpt lat="43.78261" lon="-1.39633">
        <ele>10.4</ele>
        <time>2021-10-16T08:15:36Z</time>
      </trkpt>
      <trkpt lat="43.78256" lon="-1.39633">
        <ele>10.4</ele>
        <time>2021-10-16T08:15:37Z</time>
      </trkpt>
      <trkpt lat="43.78251" lon="-1.39633">
        <ele>10.4</ele>
        <time>2021-10-16T08:15:38Z</time>
      </trkpt>
      <trkpt lat="43.78245" lon="-1.39633">
        <ele>10.4</ele>
        <time>2021-10-16T08:15:39Z</time>
      </trkpt>
      <trkpt lat="43.7824" lon="-1.39633">
        <ele>10.4</ele>
        <time>2021-10-16T08:15:40Z</time>
      </trkpt>
      <trkpt lat="43.78235" lon="-1.39633">
        <ele>10.4</ele>
        <time>2021-10-16T08:15:41Z</time>
      </trkpt>
      <trkpt lat="43.78231" lon="-1.39634">
        <ele>10.4</ele>
        <time>2021-10-16T08:15:42Z</time>
      </trkpt>
      <trkpt lat="43.7821" lon="-1.39633">
        <ele>10.4</ele>
        <time>2021-10-16T08:15:46Z</time>
      </trkpt>
      <trkpt lat="43.78173" lon="-1.39632">
        <ele>10.2</ele>
        <time>2021-10-16T08:15:52Z</time>
      </trkpt>
      <trkpt lat="43.78167" lon="-1.39632">
        <ele>10.2</ele>
        <time>2021-10-16T08:15:53Z</time>
      </trkpt>
      <trkpt lat="43.78144" lon="-1.39633">
        <ele>10</ele>
        <time>2021-10-16T08:15:57Z</time>
      </trkpt>
      <trkpt lat="43.78116" lon="-1.39633">
        <ele>10</ele>
        <time>2021-10-16T08:16:02Z</time>
      </trkpt>
      <trkpt lat="43.7811" lon="-1.39633">
        <ele>10</ele>
        <time>2021-10-16T08:16:03Z</time>
      </trkpt>
      <trkpt lat="43.78105" lon="-1.39633">
        <ele>10</ele>
        <time>2021-10-16T08:16:04Z</time>
      </trkpt>
      <trkpt lat="43.78099" lon="-1.39633">
        <ele>10</ele>
        <time>2021-10-16T08:16:05Z</time>
      </trkpt>
      <trkpt lat="43.78094" lon="-1.39633">
        <ele>10</ele>
        <time>2021-10-16T08:16:06Z</time>
      </trkpt>
      <trkpt lat="43.78089" lon="-1.39633">
        <ele>10</ele>
        <time>2021-10-16T08:16:07Z</time>
      </trkpt>
      <trkpt lat="43.78083" lon="-1.39633">
        <ele>10</ele>
        <time>2021-10-16T08:16:08Z</time>
      </trkpt>
      <trkpt lat="43.78078" lon="-1.39633">
        <ele>10</ele>
        <time>2021-10-16T08:16:09Z</time>
      </trkpt>
      <trkpt lat="43.78073" lon="-1.39633">
        <ele>10.2</ele>
        <time>2021-10-16T08:16:10Z</time>
      </trkpt>
      <trkpt lat="43.78067" lon="-1.39633">
        <ele>10.2</ele>
        <time>2021-10-16T08:16:11Z</time>
      </trkpt>
      <trkpt lat="43.78062" lon="-1.39633">
        <ele>10.2</ele>
        <time>2021-10-16T08:16:12Z</time>
      </trkpt>
      <trkpt lat="43.78014" lon="-1.3963">
        <ele>10.6</ele>
        <time>2021-10-16T08:16:21Z</time>
      </trkpt>
      <trkpt lat="43.77991" lon="-1.39629">
        <ele>10.6</ele>
        <time>2021-10-16T08:16:25Z</time>
      </trkpt>
      <trkpt lat="43.7797" lon="-1.39625">
        <ele>10.6</ele>
        <time>2021-10-16T08:16:29Z</time>
      </trkpt>
      <trkpt lat="43.77955" lon="-1.39622">
        <ele>10.8</ele>
        <time>2021-10-16T08:16:32Z</time>
      </trkpt>
      <trkpt lat="43.77951" lon="-1.39621">
        <ele>10.8</ele>
        <time>2021-10-16T08:16:33Z</time>
      </trkpt>
      <trkpt lat="43.77946" lon="-1.39619">
        <ele>10.8</ele>
        <time>2021-10-16T08:16:34Z</time>
      </trkpt>
      <trkpt lat="43.77943" lon="-1.39618">
        <ele>11</ele>
        <time>2021-10-16T08:16:35Z</time>
      </trkpt>
      <trkpt lat="43.7794" lon="-1.39617">
        <ele>11</ele>
        <time>2021-10-16T08:16:36Z</time>
      </trkpt>
      <trkpt lat="43.77938" lon="-1.39616">
        <ele>11.2</ele>
        <time>2021-10-16T08:16:37Z</time>
      </trkpt>
      <trkpt lat="43.77935" lon="-1.39617">
        <ele>11.2</ele>
        <time>2021-10-16T08:16:38Z</time>
      </trkpt>
      <trkpt lat="43.7792" lon="-1.39613">
        <ele>11.4</ele>
        <time>2021-10-16T08:16:42Z</time>
      </trkpt>
      <trkpt lat="43.77895" lon="-1.39603">
        <ele>11.6</ele>
        <time>2021-10-16T08:16:48Z</time>
      </trkpt>
      <trkpt lat="43.77886" lon="-1.39599">
        <ele>11.8</ele>
        <time>2021-10-16T08:16:50Z</time>
      </trkpt>
      <trkpt lat="43.77876" lon="-1.39595">
        <ele>11.8</ele>
        <time>2021-10-16T08:16:52Z</time>
      </trkpt>
      <trkpt lat="43.77871" lon="-1.39592">
        <ele>11.8</ele>
        <time>2021-10-16T08:16:53Z</time>
      </trkpt>
      <trkpt lat="43.77864" lon="-1.39587">
        <ele>11.8</ele>
        <time>2021-10-16T08:16:55Z</time>
      </trkpt>
      <trkpt lat="43.7786" lon="-1.39584">
        <ele>11.8</ele>
        <time>2021-10-16T08:16:56Z</time>
      </trkpt>
      <trkpt lat="43.77856" lon="-1.39583">
        <ele>11.8</ele>
        <time>2021-10-16T08:16:57Z</time>
      </trkpt>
      <trkpt lat="43.77851" lon="-1.39581">
        <ele>11.8</ele>
        <time>2021-10-16T08:16:58Z</time>
      </trkpt>
      <trkpt lat="43.77845" lon="-1.39579">
        <ele>11.8</ele>
        <time>2021-10-16T08:16:59Z</time>
      </trkpt>
      <trkpt lat="43.7784" lon="-1.39577">
        <ele>11.8</ele>
        <time>2021-10-16T08:17:00Z</time>
      </trkpt>
      <trkpt lat="43.7782" lon="-1.39568">
        <ele>12</ele>
        <time>2021-10-16T08:17:04Z</time>
      </trkpt>
      <trkpt lat="43.77816" lon="-1.39566">
        <ele>11.8</ele>
        <time>2021-10-16T08:17:05Z</time>
      </trkpt>
      <trkpt lat="43.77811" lon="-1.39565">
        <ele>11.8</ele>
        <time>2021-10-16T08:17:06Z</time>
      </trkpt>
      <trkpt lat="43.77805" lon="-1.39563">
        <ele>11.8</ele>
        <time>2021-10-16T08:17:07Z</time>
      </trkpt>
      <trkpt lat="43.77791" lon="-1.39552">
        <ele>11.8</ele>
        <time>2021-10-16T08:17:10Z</time>
      </trkpt>
      <trkpt lat="43.77762" lon="-1.39537">
        <ele>12</ele>
        <time>2021-10-16T08:17:15Z</time>
      </trkpt>
      <trkpt lat="43.77757" lon="-1.39535">
        <ele>12</ele>
        <time>2021-10-16T08:17:16Z</time>
      </trkpt>
      <trkpt lat="43.77753" lon="-1.39532">
        <ele>12</ele>
        <time>2021-10-16T08:17:17Z</time>
      </trkpt>
      <trkpt lat="43.77748" lon="-1.39531">
        <ele>12</ele>
        <time>2021-10-16T08:17:18Z</time>
      </trkpt>
      <trkpt lat="43.77718" lon="-1.3951">
        <ele>12</ele>
        <time>2021-10-16T08:17:24Z</time>
      </trkpt>
      <trkpt lat="43.77703" lon="-1.39501">
        <ele>12</ele>
        <time>2021-10-16T08:17:27Z</time>
      </trkpt>
      <trkpt lat="43.77699" lon="-1.39498">
        <ele>12</ele>
        <time>2021-10-16T08:17:28Z</time>
      </trkpt>
      <trkpt lat="43.77694" lon="-1.39497">
        <ele>12</ele>
        <time>2021-10-16T08:17:29Z</time>
      </trkpt>
      <trkpt lat="43.7769" lon="-1.39494">
        <ele>12</ele>
        <time>2021-10-16T08:17:30Z</time>
      </trkpt>
      <trkpt lat="43.77683" lon="-1.39486">
        <ele>11.8</ele>
        <time>2021-10-16T08:17:31Z</time>
      </trkpt>
      <trkpt lat="43.77662" lon="-1.39473">
        <ele>11.6</ele>
        <time>2021-10-16T08:17:35Z</time>
      </trkpt>
      <trkpt lat="43.77658" lon="-1.39471">
        <ele>11.6</ele>
        <time>2021-10-16T08:17:36Z</time>
      </trkpt>
      <trkpt lat="43.77653" lon="-1.39467">
        <ele>11.6</ele>
        <time>2021-10-16T08:17:37Z</time>
      </trkpt>
      <trkpt lat="43.77633" lon="-1.39458">
        <ele>11.6</ele>
        <time>2021-10-16T08:17:41Z</time>
      </trkpt>
      <trkpt lat="43.776" lon="-1.39443">
        <ele>11.4</ele>
        <time>2021-10-16T08:17:47Z</time>
      </trkpt>
      <trkpt lat="43.77555" lon="-1.39417">
        <ele>11</ele>
        <time>2021-10-16T08:17:56Z</time>
      </trkpt>
      <trkpt lat="43.7755" lon="-1.39413">
        <ele>11</ele>
        <time>2021-10-16T08:17:57Z</time>
      </trkpt>
      <trkpt lat="43.77539" lon="-1.39409">
        <ele>11</ele>
        <time>2021-10-16T08:17:59Z</time>
      </trkpt>
      <trkpt lat="43.77534" lon="-1.39406">
        <ele>11</ele>
        <time>2021-10-16T08:18:00Z</time>
      </trkpt>
      <trkpt lat="43.77528" lon="-1.39403">
        <ele>11</ele>
        <time>2021-10-16T08:18:01Z</time>
      </trkpt>
      <trkpt lat="43.77523" lon="-1.394">
        <ele>11</ele>
        <time>2021-10-16T08:18:02Z</time>
      </trkpt>
      <trkpt lat="43.77498" lon="-1.39388">
        <ele>11</ele>
        <time>2021-10-16T08:18:07Z</time>
      </trkpt>
      <trkpt lat="43.77489" lon="-1.39383">
        <ele>11</ele>
        <time>2021-10-16T08:18:09Z</time>
      </trkpt>
      <trkpt lat="43.77475" lon="-1.39375">
        <ele>11</ele>
        <time>2021-10-16T08:18:12Z</time>
      </trkpt>
      <trkpt lat="43.7747" lon="-1.39372">
        <ele>11</ele>
        <time>2021-10-16T08:18:13Z</time>
      </trkpt>
      <trkpt lat="43.77465" lon="-1.39371">
        <ele>11</ele>
        <time>2021-10-16T08:18:14Z</time>
      </trkpt>
      <trkpt lat="43.77454" lon="-1.39372">
        <ele>11</ele>
        <time>2021-10-16T08:18:16Z</time>
      </trkpt>
      <trkpt lat="43.7745" lon="-1.39374">
        <ele>11</ele>
        <time>2021-10-16T08:18:17Z</time>
      </trkpt>
      <trkpt lat="43.77448" lon="-1.39379">
        <ele>11</ele>
        <time>2021-10-16T08:18:18Z</time>
      </trkpt>
      <trkpt lat="43.77447" lon="-1.39384">
        <ele>11</ele>
        <time>2021-10-16T08:18:19Z</time>
      </trkpt>
      <trkpt lat="43.77445" lon="-1.3939">
        <ele>11</ele>
        <time>2021-10-16T08:18:20Z</time>
      </trkpt>
      <trkpt lat="43.77443" lon="-1.39395">
        <ele>11</ele>
        <time>2021-10-16T08:18:21Z</time>
      </trkpt>
      <trkpt lat="43.77442" lon="-1.39401">
        <ele>10.8</ele>
        <time>2021-10-16T08:18:22Z</time>
      </trkpt>
      <trkpt lat="43.7744" lon="-1.39408">
        <ele>10.8</ele>
        <time>2021-10-16T08:18:23Z</time>
      </trkpt>
      <trkpt lat="43.77438" lon="-1.39414">
        <ele>10.8</ele>
        <time>2021-10-16T08:18:24Z</time>
      </trkpt>
      <trkpt lat="43.77437" lon="-1.3942">
        <ele>10.8</ele>
        <time>2021-10-16T08:18:25Z</time>
      </trkpt>
      <trkpt lat="43.77435" lon="-1.39427">
        <ele>10.8</ele>
        <time>2021-10-16T08:18:26Z</time>
      </trkpt>
      <trkpt lat="43.77433" lon="-1.39433">
        <ele>10.6</ele>
        <time>2021-10-16T08:18:27Z</time>
      </trkpt>
      <trkpt lat="43.77427" lon="-1.39445">
        <ele>10.6</ele>
        <time>2021-10-16T08:18:29Z</time>
      </trkpt>
      <trkpt lat="43.77418" lon="-1.39452">
        <ele>10.6</ele>
        <time>2021-10-16T08:18:31Z</time>
      </trkpt>
      <trkpt lat="43.77415" lon="-1.39455">
        <ele>10.6</ele>
        <time>2021-10-16T08:18:32Z</time>
      </trkpt>
      <trkpt lat="43.77414" lon="-1.39459">
        <ele>10.6</ele>
        <time>2021-10-16T08:18:33Z</time>
      </trkpt>
      <trkpt lat="43.77414" lon="-1.39461">
        <ele>10.6</ele>
        <time>2021-10-16T08:18:34Z</time>
      </trkpt>
      <trkpt lat="43.77415" lon="-1.39463">
        <ele>10.6</ele>
        <time>2021-10-16T08:18:35Z</time>
      </trkpt>
      <trkpt lat="43.77415" lon="-1.39465">
        <ele>10.6</ele>
        <time>2021-10-16T08:18:36Z</time>
      </trkpt>
      <trkpt lat="43.77415" lon="-1.39468">
        <ele>10.6</ele>
        <time>2021-10-16T08:18:37Z</time>
      </trkpt>
      <trkpt lat="43.77405" lon="-1.39485">
        <ele>10.8</ele>
        <time>2021-10-16T08:18:41Z</time>
      </trkpt>
      <trkpt lat="43.77402" lon="-1.39489">
        <ele>10.8</ele>
        <time>2021-10-16T08:18:42Z</time>
      </trkpt>
      <trkpt lat="43.77397" lon="-1.39492">
        <ele>10.8</ele>
        <time>2021-10-16T08:18:43Z</time>
      </trkpt>
      <trkpt lat="43.77393" lon="-1.39494">
        <ele>10.8</ele>
        <time>2021-10-16T08:18:44Z</time>
      </trkpt>
      <trkpt lat="43.77388" lon="-1.39495">
        <ele>10.8</ele>
        <time>2021-10-16T08:18:45Z</time>
      </trkpt>
      <trkpt lat="43.77383" lon="-1.39493">
        <ele>10.8</ele>
        <time>2021-10-16T08:18:46Z</time>
      </trkpt>
      <trkpt lat="43.77374" lon="-1.39486">
        <ele>10.8</ele>
        <time>2021-10-16T08:18:48Z</time>
      </trkpt>
      <trkpt lat="43.77371" lon="-1.39482">
        <ele>10.8</ele>
        <time>2021-10-16T08:18:49Z</time>
      </trkpt>
      <trkpt lat="43.77367" lon="-1.39479">
        <ele>10.8</ele>
        <time>2021-10-16T08:18:50Z</time>
      </trkpt>
      <trkpt lat="43.77344" lon="-1.39467">
        <ele>10.6</ele>
        <time>2021-10-16T08:18:55Z</time>
      </trkpt>
      <trkpt lat="43.77339" lon="-1.39464">
        <ele>10.4</ele>
        <time>2021-10-16T08:18:56Z</time>
      </trkpt>
      <trkpt lat="43.77324" lon="-1.39454">
        <ele>10.4</ele>
        <time>2021-10-16T08:18:59Z</time>
      </trkpt>
      <trkpt lat="43.77314" lon="-1.39448">
        <ele>10.4</ele>
        <time>2021-10-16T08:19:01Z</time>
      </trkpt>
      <trkpt lat="43.7728" lon="-1.3943">
        <ele>10.4</ele>
        <time>2021-10-16T08:19:07Z</time>
      </trkpt>
      <trkpt lat="43.77249" lon="-1.39414">
        <ele>10.6</ele>
        <time>2021-10-16T08:19:13Z</time>
      </trkpt>
      <trkpt lat="43.77239" lon="-1.39408">
        <ele>10.6</ele>
        <time>2021-10-16T08:19:15Z</time>
      </trkpt>
      <trkpt lat="43.77225" lon="-1.39397">
        <ele>10.6</ele>
        <time>2021-10-16T08:19:18Z</time>
      </trkpt>
      <trkpt lat="43.7722" lon="-1.39395">
        <ele>10.6</ele>
        <time>2021-10-16T08:19:19Z</time>
      </trkpt>
      <trkpt lat="43.7721" lon="-1.39391">
        <ele>10.6</ele>
        <time>2021-10-16T08:19:21Z</time>
      </trkpt>
      <trkpt lat="43.77207" lon="-1.3939">
        <ele>10.6</ele>
        <time>2021-10-16T08:19:22Z</time>
      </trkpt>
      <trkpt lat="43.77204" lon="-1.39388">
        <ele>10.8</ele>
        <time>2021-10-16T08:19:23Z</time>
      </trkpt>
      <trkpt lat="43.77203" lon="-1.39388">
        <ele>10.8</ele>
        <time>2021-10-16T08:19:24Z</time>
      </trkpt>
      <trkpt lat="43.77203" lon="-1.39387">
        <ele>10.8</ele>
        <time>2021-10-16T08:19:25Z</time>
      </trkpt>
      <trkpt lat="43.77203" lon="-1.39385">
        <ele>10.8</ele>
        <time>2021-10-16T08:19:26Z</time>
      </trkpt>
      <trkpt lat="43.77203" lon="-1.39384">
        <ele>10.8</ele>
        <time>2021-10-16T08:19:27Z</time>
      </trkpt>
      <trkpt lat="43.77204" lon="-1.39384">
        <ele>11</ele>
        <time>2021-10-16T08:19:28Z</time>
      </trkpt>
      <trkpt lat="43.77205" lon="-1.39384">
        <ele>11</ele>
        <time>2021-10-16T08:19:29Z</time>
      </trkpt>
      <trkpt lat="43.77209" lon="-1.39388">
        <ele>11</ele>
        <time>2021-10-16T08:19:32Z</time>
      </trkpt>
      <trkpt lat="43.77211" lon="-1.39389">
        <ele>11</ele>
        <time>2021-10-16T08:19:33Z</time>
      </trkpt>
      <trkpt lat="43.77225" lon="-1.39394">
        <ele>11</ele>
        <time>2021-10-16T08:19:38Z</time>
      </trkpt>
      <trkpt lat="43.7723" lon="-1.39397">
        <ele>11</ele>
        <time>2021-10-16T08:19:40Z</time>
      </trkpt>
      <trkpt lat="43.77232" lon="-1.39399">
        <ele>11</ele>
        <time>2021-10-16T08:19:41Z</time>
      </trkpt>
      <trkpt lat="43.77232" lon="-1.39401">
        <ele>11</ele>
        <time>2021-10-16T08:19:42Z</time>
      </trkpt>
      <trkpt lat="43.77232" lon="-1.39403">
        <ele>10.8</ele>
        <time>2021-10-16T08:19:43Z</time>
      </trkpt>
      <trkpt lat="43.77232" lon="-1.39405">
        <ele>10.8</ele>
        <time>2021-10-16T08:19:44Z</time>
      </trkpt>
      <trkpt lat="43.77232" lon="-1.39406">
        <ele>10.6</ele>
        <time>2021-10-16T08:19:45Z</time>
      </trkpt>
      <trkpt lat="43.77232" lon="-1.39406">
        <ele>10.6</ele>
        <time>2021-10-16T08:19:46Z</time>
      </trkpt>
      <trkpt lat="43.77232" lon="-1.39407">
        <ele>10.6</ele>
        <time>2021-10-16T08:19:47Z</time>
      </trkpt>
      <trkpt lat="43.77232" lon="-1.39409">
        <ele>10.6</ele>
        <time>2021-10-16T08:19:48Z</time>
      </trkpt>
      <trkpt lat="43.77231" lon="-1.3941">
        <ele>10.4</ele>
        <time>2021-10-16T08:19:49Z</time>
      </trkpt>
      <trkpt lat="43.77231" lon="-1.3941">
        <ele>10.4</ele>
        <time>2021-10-16T08:19:50Z</time>
      </trkpt>
      <trkpt lat="43.77231" lon="-1.3941">
        <ele>10.4</ele>
        <time>2021-10-16T08:19:52Z</time>
      </trkpt>
      <trkpt lat="43.77231" lon="-1.39415">
        <ele>10.4</ele>
        <time>2021-10-16T08:19:55Z</time>
      </trkpt>
      <trkpt lat="43.77229" lon="-1.3942">
        <ele>10.4</ele>
        <time>2021-10-16T08:19:57Z</time>
      </trkpt>
      <trkpt lat="43.77225" lon="-1.39437">
        <ele>10.4</ele>
        <time>2021-10-16T08:20:02Z</time>
      </trkpt>
      <trkpt lat="43.77224" lon="-1.39445">
        <ele>10.4</ele>
        <time>2021-10-16T08:20:04Z</time>
      </trkpt>
      <trkpt lat="43.77218" lon="-1.39461">
        <ele>10.4</ele>
        <time>2021-10-16T08:20:09Z</time>
      </trkpt>
      <trkpt lat="43.77217" lon="-1.39464">
        <ele>10.4</ele>
        <time>2021-10-16T08:20:10Z</time>
      </trkpt>
      <trkpt lat="43.77215" lon="-1.39467">
        <ele>10.2</ele>
        <time>2021-10-16T08:20:11Z</time>
      </trkpt>
      <trkpt lat="43.77214" lon="-1.39469">
        <ele>10.2</ele>
        <time>2021-10-16T08:20:12Z</time>
      </trkpt>
      <trkpt lat="43.77213" lon="-1.39471">
        <ele>10.2</ele>
        <time>2021-10-16T08:20:13Z</time>
      </trkpt>
      <trkpt lat="43.77213" lon="-1.39472">
        <ele>10.2</ele>
        <time>2021-10-16T08:20:14Z</time>
      </trkpt>
      <trkpt lat="43.77213" lon="-1.39473">
        <ele>10.2</ele>
        <time>2021-10-16T08:20:15Z</time>
      </trkpt>
      <trkpt lat="43.77213" lon="-1.39475">
        <ele>10.2</ele>
        <time>2021-10-16T08:20:16Z</time>
      </trkpt>
      <trkpt lat="43.77211" lon="-1.39481">
        <ele>10.2</ele>
        <time>2021-10-16T08:20:19Z</time>
      </trkpt>
      <trkpt lat="43.77211" lon="-1.39481">
        <ele>10.2</ele>
        <time>2021-10-16T08:20:20Z</time>
      </trkpt>
      <trkpt lat="43.7721" lon="-1.39482">
        <ele>10.2</ele>
        <time>2021-10-16T08:20:22Z</time>
      </trkpt>
      <trkpt lat="43.77208" lon="-1.3948">
        <ele>10</ele>
        <time>2021-10-16T08:20:29Z</time>
      </trkpt>
      <trkpt lat="43.77208" lon="-1.39479">
        <ele>10.2</ele>
        <time>2021-10-16T08:20:30Z</time>
      </trkpt>
      <trkpt lat="43.77208" lon="-1.39474">
        <ele>10.2</ele>
        <time>2021-10-16T08:20:32Z</time>
      </trkpt>
      <trkpt lat="43.7721" lon="-1.39465">
        <ele>10.2</ele>
        <time>2021-10-16T08:20:35Z</time>
      </trkpt>
      <trkpt lat="43.77211" lon="-1.39462">
        <ele>10.2</ele>
        <time>2021-10-16T08:20:36Z</time>
      </trkpt>
      <trkpt lat="43.77212" lon="-1.39459">
        <ele>10.2</ele>
        <time>2021-10-16T08:20:37Z</time>
      </trkpt>
      <trkpt lat="43.77215" lon="-1.39446">
        <ele>10.2</ele>
        <time>2021-10-16T08:20:40Z</time>
      </trkpt>
      <trkpt lat="43.77217" lon="-1.39442">
        <ele>10.2</ele>
        <time>2021-10-16T08:20:41Z</time>
      </trkpt>
      <trkpt lat="43.77224" lon="-1.39415">
        <ele>10.2</ele>
        <time>2021-10-16T08:20:47Z</time>
      </trkpt>
      <trkpt lat="43.77225" lon="-1.39406">
        <ele>10.2</ele>
        <time>2021-10-16T08:20:49Z</time>
      </trkpt>
      <trkpt lat="43.77224" lon="-1.39403">
        <ele>10.2</ele>
        <time>2021-10-16T08:20:50Z</time>
      </trkpt>
      <trkpt lat="43.77221" lon="-1.39401">
        <ele>10.4</ele>
        <time>2021-10-16T08:20:51Z</time>
      </trkpt>
      <trkpt lat="43.77213" lon="-1.39397">
        <ele>10.6</ele>
        <time>2021-10-16T08:20:54Z</time>
      </trkpt>
      <trkpt lat="43.77211" lon="-1.39396">
        <ele>10.6</ele>
        <time>2021-10-16T08:20:55Z</time>
      </trkpt>
      <trkpt lat="43.77197" lon="-1.39388">
        <ele>10.8</ele>
        <time>2021-10-16T08:21:00Z</time>
      </trkpt>
      <trkpt lat="43.77194" lon="-1.39385">
        <ele>10.8</ele>
        <time>2021-10-16T08:21:01Z</time>
      </trkpt>
      <trkpt lat="43.77192" lon="-1.39384">
        <ele>10.8</ele>
        <time>2021-10-16T08:21:02Z</time>
      </trkpt>
      <trkpt lat="43.77181" lon="-1.39376">
        <ele>11</ele>
        <time>2021-10-16T08:21:05Z</time>
      </trkpt>
      <trkpt lat="43.77176" lon="-1.39374">
        <ele>11</ele>
        <time>2021-10-16T08:21:06Z</time>
      </trkpt>
      <trkpt lat="43.77161" lon="-1.39366">
        <ele>11.2</ele>
        <time>2021-10-16T08:21:09Z</time>
      </trkpt>
      <trkpt lat="43.77156" lon="-1.39365">
        <ele>11.2</ele>
        <time>2021-10-16T08:21:10Z</time>
      </trkpt>
      <trkpt lat="43.77152" lon="-1.39363">
        <ele>11.2</ele>
        <time>2021-10-16T08:21:11Z</time>
      </trkpt>
      <trkpt lat="43.77149" lon="-1.39361">
        <ele>11.2</ele>
        <time>2021-10-16T08:21:12Z</time>
      </trkpt>
      <trkpt lat="43.77145" lon="-1.39359">
        <ele>11.2</ele>
        <time>2021-10-16T08:21:13Z</time>
      </trkpt>
      <trkpt lat="43.77133" lon="-1.39349">
        <ele>11</ele>
        <time>2021-10-16T08:21:16Z</time>
      </trkpt>
      <trkpt lat="43.77123" lon="-1.39346">
        <ele>11</ele>
        <time>2021-10-16T08:21:18Z</time>
      </trkpt>
      <trkpt lat="43.77118" lon="-1.39344">
        <ele>11</ele>
        <time>2021-10-16T08:21:19Z</time>
      </trkpt>
      <trkpt lat="43.77112" lon="-1.39343">
        <ele>11</ele>
        <time>2021-10-16T08:21:20Z</time>
      </trkpt>
      <trkpt lat="43.77099" lon="-1.39336">
        <ele>11</ele>
        <time>2021-10-16T08:21:23Z</time>
      </trkpt>
      <trkpt lat="43.77095" lon="-1.39331">
        <ele>11</ele>
        <time>2021-10-16T08:21:24Z</time>
      </trkpt>
      <trkpt lat="43.77091" lon="-1.39329">
        <ele>11</ele>
        <time>2021-10-16T08:21:25Z</time>
      </trkpt>
      <trkpt lat="43.77086" lon="-1.39326">
        <ele>11</ele>
        <time>2021-10-16T08:21:26Z</time>
      </trkpt>
      <trkpt lat="43.77081" lon="-1.39323">
        <ele>11</ele>
        <time>2021-10-16T08:21:27Z</time>
      </trkpt>
      <trkpt lat="43.77075" lon="-1.3932">
        <ele>11</ele>
        <time>2021-10-16T08:21:28Z</time>
      </trkpt>
      <trkpt lat="43.7707" lon="-1.39318">
        <ele>10.8</ele>
        <time>2021-10-16T08:21:29Z</time>
      </trkpt>
      <trkpt lat="43.77053" lon="-1.39305">
        <ele>10.8</ele>
        <time>2021-10-16T08:21:32Z</time>
      </trkpt>
      <trkpt lat="43.77046" lon="-1.39302">
        <ele>10.8</ele>
        <time>2021-10-16T08:21:33Z</time>
      </trkpt>
      <trkpt lat="43.77039" lon="-1.39297">
        <ele>10.8</ele>
        <time>2021-10-16T08:21:34Z</time>
      </trkpt>
      <trkpt lat="43.77028" lon="-1.39293">
        <ele>10.8</ele>
        <time>2021-10-16T08:21:36Z</time>
      </trkpt>
      <trkpt lat="43.77021" lon="-1.39293">
        <ele>10.8</ele>
        <time>2021-10-16T08:21:37Z</time>
      </trkpt>
      <trkpt lat="43.77015" lon="-1.39294">
        <ele>10.8</ele>
        <time>2021-10-16T08:21:38Z</time>
      </trkpt>
      <trkpt lat="43.77011" lon="-1.39296">
        <ele>10.8</ele>
        <time>2021-10-16T08:21:39Z</time>
      </trkpt>
      <trkpt lat="43.77006" lon="-1.39299">
        <ele>10.8</ele>
        <time>2021-10-16T08:21:40Z</time>
      </trkpt>
      <trkpt lat="43.77" lon="-1.39302">
        <ele>10.8</ele>
        <time>2021-10-16T08:21:41Z</time>
      </trkpt>
      <trkpt lat="43.76989" lon="-1.39307">
        <ele>10.8</ele>
        <time>2021-10-16T08:21:43Z</time>
      </trkpt>
      <trkpt lat="43.76951" lon="-1.39327">
        <ele>11</ele>
        <time>2021-10-16T08:21:51Z</time>
      </trkpt>
      <trkpt lat="43.7694" lon="-1.39332">
        <ele>11</ele>
        <time>2021-10-16T08:21:53Z</time>
      </trkpt>
      <trkpt lat="43.76936" lon="-1.39334">
        <ele>11</ele>
        <time>2021-10-16T08:21:54Z</time>
      </trkpt>
      <trkpt lat="43.7693" lon="-1.39337">
        <ele>11</ele>
        <time>2021-10-16T08:21:55Z</time>
      </trkpt>
      <trkpt lat="43.76925" lon="-1.3934">
        <ele>11</ele>
        <time>2021-10-16T08:21:56Z</time>
      </trkpt>
      <trkpt lat="43.76921" lon="-1.39341">
        <ele>11.2</ele>
        <time>2021-10-16T08:21:57Z</time>
      </trkpt>
      <trkpt lat="43.76917" lon="-1.39343">
        <ele>11.2</ele>
        <time>2021-10-16T08:21:58Z</time>
      </trkpt>
      <trkpt lat="43.76912" lon="-1.39344">
        <ele>11.2</ele>
        <time>2021-10-16T08:21:59Z</time>
      </trkpt>
      <trkpt lat="43.76899" lon="-1.39348">
        <ele>11.2</ele>
        <time>2021-10-16T08:22:02Z</time>
      </trkpt>
      <trkpt lat="43.76895" lon="-1.39351">
        <ele>11.2</ele>
        <time>2021-10-16T08:22:03Z</time>
      </trkpt>
      <trkpt lat="43.76888" lon="-1.39353">
        <ele>11.4</ele>
        <time>2021-10-16T08:22:04Z</time>
      </trkpt>
      <trkpt lat="43.76879" lon="-1.39355">
        <ele>11.4</ele>
        <time>2021-10-16T08:22:07Z</time>
      </trkpt>
      <trkpt lat="43.76854" lon="-1.39361">
        <ele>11.4</ele>
        <time>2021-10-16T08:22:12Z</time>
      </trkpt>
      <trkpt lat="43.76838" lon="-1.39363">
        <ele>11.6</ele>
        <time>2021-10-16T08:22:15Z</time>
      </trkpt>
      <trkpt lat="43.76832" lon="-1.39363">
        <ele>11.6</ele>
        <time>2021-10-16T08:22:16Z</time>
      </trkpt>
      <trkpt lat="43.76821" lon="-1.39363">
        <ele>11.6</ele>
        <time>2021-10-16T08:22:18Z</time>
      </trkpt>
      <trkpt lat="43.76798" lon="-1.39363">
        <ele>11.6</ele>
        <time>2021-10-16T08:22:22Z</time>
      </trkpt>
      <trkpt lat="43.76792" lon="-1.39364">
        <ele>11.6</ele>
        <time>2021-10-16T08:22:23Z</time>
      </trkpt>
      <trkpt lat="43.76787" lon="-1.39364">
        <ele>11.6</ele>
        <time>2021-10-16T08:22:24Z</time>
      </trkpt>
      <trkpt lat="43.76752" lon="-1.3936">
        <ele>11.2</ele>
        <time>2021-10-16T08:22:30Z</time>
      </trkpt>
      <trkpt lat="43.76748" lon="-1.39359">
        <ele>11.2</ele>
        <time>2021-10-16T08:22:31Z</time>
      </trkpt>
      <trkpt lat="43.76743" lon="-1.39357">
        <ele>11.2</ele>
        <time>2021-10-16T08:22:32Z</time>
      </trkpt>
      <trkpt lat="43.76737" lon="-1.39355">
        <ele>11.2</ele>
        <time>2021-10-16T08:22:33Z</time>
      </trkpt>
      <trkpt lat="43.76732" lon="-1.39354">
        <ele>11</ele>
        <time>2021-10-16T08:22:34Z</time>
      </trkpt>
      <trkpt lat="43.76725" lon="-1.39353">
        <ele>11</ele>
        <time>2021-10-16T08:22:35Z</time>
      </trkpt>
      <trkpt lat="43.76719" lon="-1.3935">
        <ele>11</ele>
        <time>2021-10-16T08:22:36Z</time>
      </trkpt>
      <trkpt lat="43.76704" lon="-1.39344">
        <ele>11</ele>
        <time>2021-10-16T08:22:39Z</time>
      </trkpt>
      <trkpt lat="43.76697" lon="-1.39341">
        <ele>10.8</ele>
        <time>2021-10-16T08:22:40Z</time>
      </trkpt>
      <trkpt lat="43.76678" lon="-1.39335">
        <ele>10.8</ele>
        <time>2021-10-16T08:22:43Z</time>
      </trkpt>
      <trkpt lat="43.76673" lon="-1.39333">
        <ele>10.8</ele>
        <time>2021-10-16T08:22:44Z</time>
      </trkpt>
      <trkpt lat="43.76657" lon="-1.3932">
        <ele>10.6</ele>
        <time>2021-10-16T08:22:47Z</time>
      </trkpt>
      <trkpt lat="43.76653" lon="-1.39317">
        <ele>10.6</ele>
        <time>2021-10-16T08:22:48Z</time>
      </trkpt>
      <trkpt lat="43.76645" lon="-1.39314">
        <ele>10.6</ele>
        <time>2021-10-16T08:22:49Z</time>
      </trkpt>
      <trkpt lat="43.76615" lon="-1.39303">
        <ele>10.4</ele>
        <time>2021-10-16T08:22:54Z</time>
      </trkpt>
      <trkpt lat="43.76583" lon="-1.39288">
        <ele>10.4</ele>
        <time>2021-10-16T08:23:01Z</time>
      </trkpt>
      <trkpt lat="43.7657" lon="-1.39279">
        <ele>10.4</ele>
        <time>2021-10-16T08:23:04Z</time>
      </trkpt>
      <trkpt lat="43.76561" lon="-1.39274">
        <ele>10.4</ele>
        <time>2021-10-16T08:23:06Z</time>
      </trkpt>
      <trkpt lat="43.76555" lon="-1.39272">
        <ele>10.4</ele>
        <time>2021-10-16T08:23:07Z</time>
      </trkpt>
      <trkpt lat="43.76551" lon="-1.39271">
        <ele>10.4</ele>
        <time>2021-10-16T08:23:08Z</time>
      </trkpt>
      <trkpt lat="43.76546" lon="-1.3927">
        <ele>10.6</ele>
        <time>2021-10-16T08:23:09Z</time>
      </trkpt>
      <trkpt lat="43.76542" lon="-1.39269">
        <ele>10.6</ele>
        <time>2021-10-16T08:23:10Z</time>
      </trkpt>
      <trkpt lat="43.76537" lon="-1.39266">
        <ele>10.6</ele>
        <time>2021-10-16T08:23:11Z</time>
      </trkpt>
      <trkpt lat="43.76532" lon="-1.39264">
        <ele>10.6</ele>
        <time>2021-10-16T08:23:12Z</time>
      </trkpt>
      <trkpt lat="43.76522" lon="-1.3926">
        <ele>10.6</ele>
        <time>2021-10-16T08:23:14Z</time>
      </trkpt>
      <trkpt lat="43.76512" lon="-1.39255">
        <ele>10.6</ele>
        <time>2021-10-16T08:23:16Z</time>
      </trkpt>
      <trkpt lat="43.76501" lon="-1.39251">
        <ele>10.6</ele>
        <time>2021-10-16T08:23:18Z</time>
      </trkpt>
      <trkpt lat="43.76498" lon="-1.3925">
        <ele>10.6</ele>
        <time>2021-10-16T08:23:19Z</time>
      </trkpt>
      <trkpt lat="43.76494" lon="-1.39245">
        <ele>10.8</ele>
        <time>2021-10-16T08:23:20Z</time>
      </trkpt>
      <trkpt lat="43.76489" lon="-1.39241">
        <ele>10.8</ele>
        <time>2021-10-16T08:23:21Z</time>
      </trkpt>
      <trkpt lat="43.76482" lon="-1.39236">
        <ele>11</ele>
        <time>2021-10-16T08:23:23Z</time>
      </trkpt>
      <trkpt lat="43.76471" lon="-1.3923">
        <ele>11.2</ele>
        <time>2021-10-16T08:23:25Z</time>
      </trkpt>
      <trkpt lat="43.76466" lon="-1.39229">
        <ele>11.2</ele>
        <time>2021-10-16T08:23:26Z</time>
      </trkpt>
      <trkpt lat="43.7646" lon="-1.39228">
        <ele>11.4</ele>
        <time>2021-10-16T08:23:27Z</time>
      </trkpt>
      <trkpt lat="43.76456" lon="-1.39225">
        <ele>11.4</ele>
        <time>2021-10-16T08:23:28Z</time>
      </trkpt>
      <trkpt lat="43.7645" lon="-1.39221">
        <ele>11.4</ele>
        <time>2021-10-16T08:23:29Z</time>
      </trkpt>
      <trkpt lat="43.7644" lon="-1.39215">
        <ele>11.4</ele>
        <time>2021-10-16T08:23:31Z</time>
      </trkpt>
      <trkpt lat="43.76409" lon="-1.39201">
        <ele>11.6</ele>
        <time>2021-10-16T08:23:36Z</time>
      </trkpt>
      <trkpt lat="43.76383" lon="-1.39184">
        <ele>11.8</ele>
        <time>2021-10-16T08:23:41Z</time>
      </trkpt>
      <trkpt lat="43.76347" lon="-1.39163">
        <ele>11.8</ele>
        <time>2021-10-16T08:23:48Z</time>
      </trkpt>
      <trkpt lat="43.76318" lon="-1.39147">
        <ele>11.8</ele>
        <time>2021-10-16T08:23:54Z</time>
      </trkpt>
      <trkpt lat="43.76314" lon="-1.39145">
        <ele>12</ele>
        <time>2021-10-16T08:23:55Z</time>
      </trkpt>
      <trkpt lat="43.76309" lon="-1.39142">
        <ele>12</ele>
        <time>2021-10-16T08:23:56Z</time>
      </trkpt>
      <trkpt lat="43.76305" lon="-1.3914">
        <ele>12</ele>
        <time>2021-10-16T08:23:57Z</time>
      </trkpt>
      <trkpt lat="43.76301" lon="-1.39138">
        <ele>12</ele>
        <time>2021-10-16T08:23:58Z</time>
      </trkpt>
      <trkpt lat="43.76298" lon="-1.39137">
        <ele>12</ele>
        <time>2021-10-16T08:23:59Z</time>
      </trkpt>
      <trkpt lat="43.76294" lon="-1.39133">
        <ele>12</ele>
        <time>2021-10-16T08:24:00Z</time>
      </trkpt>
      <trkpt lat="43.7629" lon="-1.39131">
        <ele>12</ele>
        <time>2021-10-16T08:24:01Z</time>
      </trkpt>
      <trkpt lat="43.76288" lon="-1.39128">
        <ele>12</ele>
        <time>2021-10-16T08:24:02Z</time>
      </trkpt>
      <trkpt lat="43.76285" lon="-1.39124">
        <ele>12.2</ele>
        <time>2021-10-16T08:24:03Z</time>
      </trkpt>
      <trkpt lat="43.76279" lon="-1.39117">
        <ele>12.2</ele>
        <time>2021-10-16T08:24:05Z</time>
      </trkpt>
      <trkpt lat="43.76275" lon="-1.39113">
        <ele>12.2</ele>
        <time>2021-10-16T08:24:06Z</time>
      </trkpt>
      <trkpt lat="43.76267" lon="-1.39111">
        <ele>12.2</ele>
        <time>2021-10-16T08:24:08Z</time>
      </trkpt>
      <trkpt lat="43.76261" lon="-1.39111">
        <ele>12.2</ele>
        <time>2021-10-16T08:24:09Z</time>
      </trkpt>
      <trkpt lat="43.76256" lon="-1.3911">
        <ele>12.2</ele>
        <time>2021-10-16T08:24:10Z</time>
      </trkpt>
      <trkpt lat="43.7625" lon="-1.39109">
        <ele>12.2</ele>
        <time>2021-10-16T08:24:11Z</time>
      </trkpt>
      <trkpt lat="43.76241" lon="-1.39107">
        <ele>12.2</ele>
        <time>2021-10-16T08:24:13Z</time>
      </trkpt>
      <trkpt lat="43.76236" lon="-1.39104">
        <ele>12.2</ele>
        <time>2021-10-16T08:24:14Z</time>
      </trkpt>
      <trkpt lat="43.76226" lon="-1.391">
        <ele>12.2</ele>
        <time>2021-10-16T08:24:16Z</time>
      </trkpt>
      <trkpt lat="43.76216" lon="-1.39095">
        <ele>12.2</ele>
        <time>2021-10-16T08:24:18Z</time>
      </trkpt>
      <trkpt lat="43.76212" lon="-1.39093">
        <ele>12.2</ele>
        <time>2021-10-16T08:24:19Z</time>
      </trkpt>
      <trkpt lat="43.76183" lon="-1.39078">
        <ele>12.2</ele>
        <time>2021-10-16T08:24:25Z</time>
      </trkpt>
      <trkpt lat="43.76179" lon="-1.39075">
        <ele>12.4</ele>
        <time>2021-10-16T08:24:26Z</time>
      </trkpt>
      <trkpt lat="43.76169" lon="-1.39071">
        <ele>12.4</ele>
        <time>2021-10-16T08:24:28Z</time>
      </trkpt>
      <trkpt lat="43.76165" lon="-1.39069">
        <ele>12.4</ele>
        <time>2021-10-16T08:24:29Z</time>
      </trkpt>
      <trkpt lat="43.76162" lon="-1.39067">
        <ele>12.4</ele>
        <time>2021-10-16T08:24:30Z</time>
      </trkpt>
      <trkpt lat="43.76159" lon="-1.39066">
        <ele>12.4</ele>
        <time>2021-10-16T08:24:31Z</time>
      </trkpt>
      <trkpt lat="43.76155" lon="-1.39063">
        <ele>12.2</ele>
        <time>2021-10-16T08:24:32Z</time>
      </trkpt>
      <trkpt lat="43.76135" lon="-1.39052">
        <ele>12.4</ele>
        <time>2021-10-16T08:24:36Z</time>
      </trkpt>
      <trkpt lat="43.7613" lon="-1.3905">
        <ele>12.4</ele>
        <time>2021-10-16T08:24:37Z</time>
      </trkpt>
      <trkpt lat="43.76125" lon="-1.39047">
        <ele>12.4</ele>
        <time>2021-10-16T08:24:38Z</time>
      </trkpt>
      <trkpt lat="43.76119" lon="-1.39045">
        <ele>12.4</ele>
        <time>2021-10-16T08:24:39Z</time>
      </trkpt>
      <trkpt lat="43.76109" lon="-1.39038">
        <ele>12.4</ele>
        <time>2021-10-16T08:24:41Z</time>
      </trkpt>
      <trkpt lat="43.76088" lon="-1.39031">
        <ele>12.4</ele>
        <time>2021-10-16T08:24:44Z</time>
      </trkpt>
      <trkpt lat="43.76076" lon="-1.39025">
        <ele>12.4</ele>
        <time>2021-10-16T08:24:46Z</time>
      </trkpt>
      <trkpt lat="43.76037" lon="-1.39006">
        <ele>12.6</ele>
        <time>2021-10-16T08:24:53Z</time>
      </trkpt>
      <trkpt lat="43.76022" lon="-1.38999">
        <ele>12.6</ele>
        <time>2021-10-16T08:24:56Z</time>
      </trkpt>
      <trkpt lat="43.76005" lon="-1.38992">
        <ele>12.6</ele>
        <time>2021-10-16T08:24:59Z</time>
      </trkpt>
      <trkpt lat="43.75991" lon="-1.38985">
        <ele>12.6</ele>
        <time>2021-10-16T08:25:02Z</time>
      </trkpt>
      <trkpt lat="43.75987" lon="-1.38982">
        <ele>12.6</ele>
        <time>2021-10-16T08:25:03Z</time>
      </trkpt>
      <trkpt lat="43.75982" lon="-1.38978">
        <ele>12.6</ele>
        <time>2021-10-16T08:25:04Z</time>
      </trkpt>
      <trkpt lat="43.75978" lon="-1.38974">
        <ele>12.6</ele>
        <time>2021-10-16T08:25:05Z</time>
      </trkpt>
      <trkpt lat="43.75973" lon="-1.38971">
        <ele>12.6</ele>
        <time>2021-10-16T08:25:06Z</time>
      </trkpt>
      <trkpt lat="43.75963" lon="-1.38965">
        <ele>12.6</ele>
        <time>2021-10-16T08:25:08Z</time>
      </trkpt>
      <trkpt lat="43.75958" lon="-1.38962">
        <ele>12.6</ele>
        <time>2021-10-16T08:25:09Z</time>
      </trkpt>
      <trkpt lat="43.75953" lon="-1.38956">
        <ele>12.6</ele>
        <time>2021-10-16T08:25:10Z</time>
      </trkpt>
      <trkpt lat="43.75931" lon="-1.38936">
        <ele>12.4</ele>
        <time>2021-10-16T08:25:14Z</time>
      </trkpt>
      <trkpt lat="43.75926" lon="-1.3893">
        <ele>12.4</ele>
        <time>2021-10-16T08:25:15Z</time>
      </trkpt>
      <trkpt lat="43.75922" lon="-1.38926">
        <ele>12.4</ele>
        <time>2021-10-16T08:25:16Z</time>
      </trkpt>
      <trkpt lat="43.75893" lon="-1.38896">
        <ele>12.2</ele>
        <time>2021-10-16T08:25:22Z</time>
      </trkpt>
      <trkpt lat="43.75869" lon="-1.38874">
        <ele>12.2</ele>
        <time>2021-10-16T08:25:27Z</time>
      </trkpt>
      <trkpt lat="43.75856" lon="-1.3886">
        <ele>12.4</ele>
        <time>2021-10-16T08:25:30Z</time>
      </trkpt>
      <trkpt lat="43.75851" lon="-1.38855">
        <ele>12.4</ele>
        <time>2021-10-16T08:25:31Z</time>
      </trkpt>
      <trkpt lat="43.75803" lon="-1.38812">
        <ele>12.2</ele>
        <time>2021-10-16T08:25:41Z</time>
      </trkpt>
      <trkpt lat="43.75771" lon="-1.3878">
        <ele>12.4</ele>
        <time>2021-10-16T08:25:48Z</time>
      </trkpt>
      <trkpt lat="43.75757" lon="-1.38766">
        <ele>12.4</ele>
        <time>2021-10-16T08:25:51Z</time>
      </trkpt>
      <trkpt lat="43.75727" lon="-1.38731">
        <ele>12.4</ele>
        <time>2021-10-16T08:25:58Z</time>
      </trkpt>
      <trkpt lat="43.75718" lon="-1.38721">
        <ele>12.4</ele>
        <time>2021-10-16T08:26:00Z</time>
      </trkpt>
      <trkpt lat="43.75714" lon="-1.38716">
        <ele>12.2</ele>
        <time>2021-10-16T08:26:01Z</time>
      </trkpt>
      <trkpt lat="43.75711" lon="-1.38712">
        <ele>12.4</ele>
        <time>2021-10-16T08:26:02Z</time>
      </trkpt>
      <trkpt lat="43.75707" lon="-1.38708">
        <ele>12.4</ele>
        <time>2021-10-16T08:26:03Z</time>
      </trkpt>
      <trkpt lat="43.75703" lon="-1.38704">
        <ele>12.4</ele>
        <time>2021-10-16T08:26:04Z</time>
      </trkpt>
      <trkpt lat="43.75699" lon="-1.38699">
        <ele>12.6</ele>
        <time>2021-10-16T08:26:05Z</time>
      </trkpt>
      <trkpt lat="43.75695" lon="-1.38694">
        <ele>12.6</ele>
        <time>2021-10-16T08:26:06Z</time>
      </trkpt>
      <trkpt lat="43.75691" lon="-1.3869">
        <ele>12.6</ele>
        <time>2021-10-16T08:26:07Z</time>
      </trkpt>
      <trkpt lat="43.75687" lon="-1.38684">
        <ele>12.6</ele>
        <time>2021-10-16T08:26:08Z</time>
      </trkpt>
      <trkpt lat="43.75683" lon="-1.38679">
        <ele>12.6</ele>
        <time>2021-10-16T08:26:09Z</time>
      </trkpt>
      <trkpt lat="43.75679" lon="-1.38674">
        <ele>12.6</ele>
        <time>2021-10-16T08:26:10Z</time>
      </trkpt>
      <trkpt lat="43.75675" lon="-1.38669">
        <ele>12.6</ele>
        <time>2021-10-16T08:26:11Z</time>
      </trkpt>
      <trkpt lat="43.75671" lon="-1.38664">
        <ele>12.6</ele>
        <time>2021-10-16T08:26:12Z</time>
      </trkpt>
      <trkpt lat="43.75664" lon="-1.38653">
        <ele>12.6</ele>
        <time>2021-10-16T08:26:14Z</time>
      </trkpt>
      <trkpt lat="43.7566" lon="-1.38648">
        <ele>12.6</ele>
        <time>2021-10-16T08:26:15Z</time>
      </trkpt>
      <trkpt lat="43.75656" lon="-1.38643">
        <ele>12.6</ele>
        <time>2021-10-16T08:26:16Z</time>
      </trkpt>
      <trkpt lat="43.75653" lon="-1.38637">
        <ele>12.6</ele>
        <time>2021-10-16T08:26:17Z</time>
      </trkpt>
      <trkpt lat="43.75641" lon="-1.3862">
        <ele>12.6</ele>
        <time>2021-10-16T08:26:20Z</time>
      </trkpt>
      <trkpt lat="43.75625" lon="-1.38594">
        <ele>12.8</ele>
        <time>2021-10-16T08:26:24Z</time>
      </trkpt>
      <trkpt lat="43.75613" lon="-1.38576">
        <ele>12.8</ele>
        <time>2021-10-16T08:26:27Z</time>
      </trkpt>
      <trkpt lat="43.75575" lon="-1.38528">
        <ele>13</ele>
        <time>2021-10-16T08:26:36Z</time>
      </trkpt>
      <trkpt lat="43.75571" lon="-1.38523">
        <ele>13</ele>
        <time>2021-10-16T08:26:37Z</time>
      </trkpt>
      <trkpt lat="43.75567" lon="-1.38518">
        <ele>13</ele>
        <time>2021-10-16T08:26:38Z</time>
      </trkpt>
      <trkpt lat="43.75551" lon="-1.38499">
        <ele>13.2</ele>
        <time>2021-10-16T08:26:42Z</time>
      </trkpt>
      <trkpt lat="43.75547" lon="-1.38494">
        <ele>13.2</ele>
        <time>2021-10-16T08:26:43Z</time>
      </trkpt>
      <trkpt lat="43.75543" lon="-1.3849">
        <ele>13.2</ele>
        <time>2021-10-16T08:26:44Z</time>
      </trkpt>
      <trkpt lat="43.75534" lon="-1.3848">
        <ele>13.4</ele>
        <time>2021-10-16T08:26:46Z</time>
      </trkpt>
      <trkpt lat="43.75514" lon="-1.38455">
        <ele>13.6</ele>
        <time>2021-10-16T08:26:51Z</time>
      </trkpt>
      <trkpt lat="43.75497" lon="-1.38436">
        <ele>13.8</ele>
        <time>2021-10-16T08:26:55Z</time>
      </trkpt>
      <trkpt lat="43.75478" lon="-1.38413">
        <ele>14</ele>
        <time>2021-10-16T08:27:00Z</time>
      </trkpt>
      <trkpt lat="43.75474" lon="-1.38408">
        <ele>14.2</ele>
        <time>2021-10-16T08:27:01Z</time>
      </trkpt>
      <trkpt lat="43.7547" lon="-1.38404">
        <ele>14.2</ele>
        <time>2021-10-16T08:27:02Z</time>
      </trkpt>
      <trkpt lat="43.75467" lon="-1.384">
        <ele>14.2</ele>
        <time>2021-10-16T08:27:03Z</time>
      </trkpt>
      <trkpt lat="43.75463" lon="-1.38395">
        <ele>14.4</ele>
        <time>2021-10-16T08:27:04Z</time>
      </trkpt>
      <trkpt lat="43.75459" lon="-1.38391">
        <ele>14.4</ele>
        <time>2021-10-16T08:27:05Z</time>
      </trkpt>
      <trkpt lat="43.75455" lon="-1.38386">
        <ele>14.6</ele>
        <time>2021-10-16T08:27:06Z</time>
      </trkpt>
      <trkpt lat="43.75452" lon="-1.38382">
        <ele>14.6</ele>
        <time>2021-10-16T08:27:07Z</time>
      </trkpt>
      <trkpt lat="43.75448" lon="-1.38378">
        <ele>14.6</ele>
        <time>2021-10-16T08:27:08Z</time>
      </trkpt>
      <trkpt lat="43.75445" lon="-1.38374">
        <ele>14.8</ele>
        <time>2021-10-16T08:27:09Z</time>
      </trkpt>
      <trkpt lat="43.75442" lon="-1.3837">
        <ele>14.8</ele>
        <time>2021-10-16T08:27:10Z</time>
      </trkpt>
      <trkpt lat="43.75438" lon="-1.38366">
        <ele>14.8</ele>
        <time>2021-10-16T08:27:11Z</time>
      </trkpt>
      <trkpt lat="43.75407" lon="-1.38332">
        <ele>15.2</ele>
        <time>2021-10-16T08:27:19Z</time>
      </trkpt>
      <trkpt lat="43.754" lon="-1.38323">
        <ele>15.4</ele>
        <time>2021-10-16T08:27:21Z</time>
      </trkpt>
      <trkpt lat="43.75393" lon="-1.38314">
        <ele>15.6</ele>
        <time>2021-10-16T08:27:23Z</time>
      </trkpt>
      <trkpt lat="43.75385" lon="-1.38305">
        <ele>15.6</ele>
        <time>2021-10-16T08:27:25Z</time>
      </trkpt>
      <trkpt lat="43.75382" lon="-1.383">
        <ele>15.6</ele>
        <time>2021-10-16T08:27:26Z</time>
      </trkpt>
      <trkpt lat="43.75378" lon="-1.38295">
        <ele>15.8</ele>
        <time>2021-10-16T08:27:27Z</time>
      </trkpt>
      <trkpt lat="43.75371" lon="-1.38285">
        <ele>15.8</ele>
        <time>2021-10-16T08:27:29Z</time>
      </trkpt>
      <trkpt lat="43.75343" lon="-1.38236">
        <ele>16.4</ele>
        <time>2021-10-16T08:27:38Z</time>
      </trkpt>
      <trkpt lat="43.75336" lon="-1.38219">
        <ele>16.6</ele>
        <time>2021-10-16T08:27:41Z</time>
      </trkpt>
      <trkpt lat="43.75321" lon="-1.38181">
        <ele>16.8</ele>
        <time>2021-10-16T08:27:47Z</time>
      </trkpt>
      <trkpt lat="43.75308" lon="-1.38136">
        <ele>17.4</ele>
        <time>2021-10-16T08:27:54Z</time>
      </trkpt>
      <trkpt lat="43.75303" lon="-1.38115">
        <ele>17.6</ele>
        <time>2021-10-16T08:27:57Z</time>
      </trkpt>
      <trkpt lat="43.75295" lon="-1.38056">
        <ele>17.8</ele>
        <time>2021-10-16T08:28:05Z</time>
      </trkpt>
      <trkpt lat="43.75288" lon="-1.37974">
        <ele>17.4</ele>
        <time>2021-10-16T08:28:15Z</time>
      </trkpt>
      <trkpt lat="43.75281" lon="-1.37899">
        <ele>16.8</ele>
        <time>2021-10-16T08:28:24Z</time>
      </trkpt>
      <trkpt lat="43.75274" lon="-1.37825">
        <ele>16.2</ele>
        <time>2021-10-16T08:28:33Z</time>
      </trkpt>
      <trkpt lat="43.75272" lon="-1.3781">
        <ele>16</ele>
        <time>2021-10-16T08:28:35Z</time>
      </trkpt>
      <trkpt lat="43.75271" lon="-1.37802">
        <ele>16</ele>
        <time>2021-10-16T08:28:36Z</time>
      </trkpt>
      <trkpt lat="43.7527" lon="-1.37793">
        <ele>16</ele>
        <time>2021-10-16T08:28:37Z</time>
      </trkpt>
      <trkpt lat="43.7527" lon="-1.37785">
        <ele>16</ele>
        <time>2021-10-16T08:28:38Z</time>
      </trkpt>
      <trkpt lat="43.75269" lon="-1.37775">
        <ele>15.8</ele>
        <time>2021-10-16T08:28:39Z</time>
      </trkpt>
      <trkpt lat="43.75267" lon="-1.37752">
        <ele>15.6</ele>
        <time>2021-10-16T08:28:42Z</time>
      </trkpt>
      <trkpt lat="43.75265" lon="-1.3773">
        <ele>15.4</ele>
        <time>2021-10-16T08:28:45Z</time>
      </trkpt>
      <trkpt lat="43.75263" lon="-1.37712">
        <ele>15.2</ele>
        <time>2021-10-16T08:28:47Z</time>
      </trkpt>
      <trkpt lat="43.75263" lon="-1.37705">
        <ele>15.2</ele>
        <time>2021-10-16T08:28:48Z</time>
      </trkpt>
      <trkpt lat="43.75262" lon="-1.37699">
        <ele>15.2</ele>
        <time>2021-10-16T08:28:49Z</time>
      </trkpt>
      <trkpt lat="43.75261" lon="-1.37689">
        <ele>15.2</ele>
        <time>2021-10-16T08:28:50Z</time>
      </trkpt>
      <trkpt lat="43.75261" lon="-1.37682">
        <ele>15.2</ele>
        <time>2021-10-16T08:28:51Z</time>
      </trkpt>
      <trkpt lat="43.7526" lon="-1.37674">
        <ele>15.2</ele>
        <time>2021-10-16T08:28:52Z</time>
      </trkpt>
      <trkpt lat="43.7526" lon="-1.37667">
        <ele>15.2</ele>
        <time>2021-10-16T08:28:53Z</time>
      </trkpt>
      <trkpt lat="43.7526" lon="-1.37631">
        <ele>15.4</ele>
        <time>2021-10-16T08:28:58Z</time>
      </trkpt>
      <trkpt lat="43.75261" lon="-1.37621">
        <ele>15.4</ele>
        <time>2021-10-16T08:28:59Z</time>
      </trkpt>
      <trkpt lat="43.75261" lon="-1.37614">
        <ele>15.4</ele>
        <time>2021-10-16T08:29:00Z</time>
      </trkpt>
      <trkpt lat="43.75262" lon="-1.37606">
        <ele>15.4</ele>
        <time>2021-10-16T08:29:01Z</time>
      </trkpt>
      <trkpt lat="43.75263" lon="-1.37599">
        <ele>15.4</ele>
        <time>2021-10-16T08:29:02Z</time>
      </trkpt>
      <trkpt lat="43.75264" lon="-1.37584">
        <ele>15.4</ele>
        <time>2021-10-16T08:29:04Z</time>
      </trkpt>
      <trkpt lat="43.75266" lon="-1.37568">
        <ele>15.4</ele>
        <time>2021-10-16T08:29:06Z</time>
      </trkpt>
      <trkpt lat="43.75271" lon="-1.37537">
        <ele>15.4</ele>
        <time>2021-10-16T08:29:10Z</time>
      </trkpt>
      <trkpt lat="43.7528" lon="-1.37493">
        <ele>15.6</ele>
        <time>2021-10-16T08:29:16Z</time>
      </trkpt>
      <trkpt lat="43.75283" lon="-1.37487">
        <ele>15.6</ele>
        <time>2021-10-16T08:29:17Z</time>
      </trkpt>
      <trkpt lat="43.75289" lon="-1.37468">
        <ele>15.6</ele>
        <time>2021-10-16T08:29:20Z</time>
      </trkpt>
      <trkpt lat="43.75293" lon="-1.37455">
        <ele>15.6</ele>
        <time>2021-10-16T08:29:22Z</time>
      </trkpt>
      <trkpt lat="43.75295" lon="-1.37449">
        <ele>15.6</ele>
        <time>2021-10-16T08:29:23Z</time>
      </trkpt>
      <trkpt lat="43.753" lon="-1.37436">
        <ele>15.6</ele>
        <time>2021-10-16T08:29:25Z</time>
      </trkpt>
      <trkpt lat="43.75303" lon="-1.37429">
        <ele>15.6</ele>
        <time>2021-10-16T08:29:26Z</time>
      </trkpt>
      <trkpt lat="43.75305" lon="-1.37424">
        <ele>15.6</ele>
        <time>2021-10-16T08:29:27Z</time>
      </trkpt>
      <trkpt lat="43.75308" lon="-1.37418">
        <ele>15.6</ele>
        <time>2021-10-16T08:29:28Z</time>
      </trkpt>
      <trkpt lat="43.75319" lon="-1.37392">
        <ele>15.8</ele>
        <time>2021-10-16T08:29:32Z</time>
      </trkpt>
      <trkpt lat="43.75324" lon="-1.37381">
        <ele>15.8</ele>
        <time>2021-10-16T08:29:34Z</time>
      </trkpt>
      <trkpt lat="43.75336" lon="-1.37357">
        <ele>15.8</ele>
        <time>2021-10-16T08:29:38Z</time>
      </trkpt>
      <trkpt lat="43.75339" lon="-1.3735">
        <ele>15.8</ele>
        <time>2021-10-16T08:29:39Z</time>
      </trkpt>
      <trkpt lat="43.75342" lon="-1.37343">
        <ele>15.8</ele>
        <time>2021-10-16T08:29:40Z</time>
      </trkpt>
      <trkpt lat="43.75345" lon="-1.37337">
        <ele>15.8</ele>
        <time>2021-10-16T08:29:41Z</time>
      </trkpt>
      <trkpt lat="43.75348" lon="-1.37331">
        <ele>15.8</ele>
        <time>2021-10-16T08:29:42Z</time>
      </trkpt>
      <trkpt lat="43.7535" lon="-1.37326">
        <ele>15.8</ele>
        <time>2021-10-16T08:29:43Z</time>
      </trkpt>
      <trkpt lat="43.75353" lon="-1.37319">
        <ele>15.6</ele>
        <time>2021-10-16T08:29:44Z</time>
      </trkpt>
      <trkpt lat="43.75355" lon="-1.37312">
        <ele>15.6</ele>
        <time>2021-10-16T08:29:45Z</time>
      </trkpt>
      <trkpt lat="43.75365" lon="-1.37274">
        <ele>15.6</ele>
        <time>2021-10-16T08:29:50Z</time>
      </trkpt>
      <trkpt lat="43.75376" lon="-1.37228">
        <ele>15.6</ele>
        <time>2021-10-16T08:29:56Z</time>
      </trkpt>
      <trkpt lat="43.75383" lon="-1.37187">
        <ele>15.4</ele>
        <time>2021-10-16T08:30:01Z</time>
      </trkpt>
      <trkpt lat="43.75384" lon="-1.37179">
        <ele>15.4</ele>
        <time>2021-10-16T08:30:02Z</time>
      </trkpt>
      <trkpt lat="43.75384" lon="-1.37172">
        <ele>15.4</ele>
        <time>2021-10-16T08:30:03Z</time>
      </trkpt>
      <trkpt lat="43.75386" lon="-1.37126">
        <ele>15.4</ele>
        <time>2021-10-16T08:30:09Z</time>
      </trkpt>
      <trkpt lat="43.75385" lon="-1.37111">
        <ele>15.4</ele>
        <time>2021-10-16T08:30:11Z</time>
      </trkpt>
      <trkpt lat="43.75384" lon="-1.37103">
        <ele>15.4</ele>
        <time>2021-10-16T08:30:12Z</time>
      </trkpt>
      <trkpt lat="43.75383" lon="-1.37097">
        <ele>15.4</ele>
        <time>2021-10-16T08:30:13Z</time>
      </trkpt>
      <trkpt lat="43.75383" lon="-1.3709">
        <ele>15.4</ele>
        <time>2021-10-16T08:30:14Z</time>
      </trkpt>
      <trkpt lat="43.75383" lon="-1.37082">
        <ele>15.4</ele>
        <time>2021-10-16T08:30:15Z</time>
      </trkpt>
      <trkpt lat="43.75382" lon="-1.37076">
        <ele>15.4</ele>
        <time>2021-10-16T08:30:16Z</time>
      </trkpt>
      <trkpt lat="43.75382" lon="-1.37068">
        <ele>15.4</ele>
        <time>2021-10-16T08:30:17Z</time>
      </trkpt>
      <trkpt lat="43.75382" lon="-1.3706">
        <ele>15.4</ele>
        <time>2021-10-16T08:30:18Z</time>
      </trkpt>
      <trkpt lat="43.75382" lon="-1.37052">
        <ele>15.4</ele>
        <time>2021-10-16T08:30:19Z</time>
      </trkpt>
      <trkpt lat="43.75382" lon="-1.37036">
        <ele>15.4</ele>
        <time>2021-10-16T08:30:21Z</time>
      </trkpt>
      <trkpt lat="43.75381" lon="-1.37029">
        <ele>15.4</ele>
        <time>2021-10-16T08:30:22Z</time>
      </trkpt>
      <trkpt lat="43.75381" lon="-1.37021">
        <ele>15.4</ele>
        <time>2021-10-16T08:30:23Z</time>
      </trkpt>
      <trkpt lat="43.75381" lon="-1.37013">
        <ele>15.4</ele>
        <time>2021-10-16T08:30:24Z</time>
      </trkpt>
      <trkpt lat="43.7538" lon="-1.3699">
        <ele>15.2</ele>
        <time>2021-10-16T08:30:27Z</time>
      </trkpt>
      <trkpt lat="43.7538" lon="-1.36981">
        <ele>15.2</ele>
        <time>2021-10-16T08:30:28Z</time>
      </trkpt>
      <trkpt lat="43.75381" lon="-1.36972">
        <ele>15.2</ele>
        <time>2021-10-16T08:30:29Z</time>
      </trkpt>
      <trkpt lat="43.75382" lon="-1.36926">
        <ele>15.4</ele>
        <time>2021-10-16T08:30:34Z</time>
      </trkpt>
      <trkpt lat="43.75382" lon="-1.36918">
        <ele>15.4</ele>
        <time>2021-10-16T08:30:35Z</time>
      </trkpt>
      <trkpt lat="43.75382" lon="-1.36911">
        <ele>15.6</ele>
        <time>2021-10-16T08:30:36Z</time>
      </trkpt>
      <trkpt lat="43.75384" lon="-1.36885">
        <ele>15.8</ele>
        <time>2021-10-16T08:30:39Z</time>
      </trkpt>
      <trkpt lat="43.75383" lon="-1.36868">
        <ele>16</ele>
        <time>2021-10-16T08:30:41Z</time>
      </trkpt>
      <trkpt lat="43.75383" lon="-1.36852">
        <ele>16</ele>
        <time>2021-10-16T08:30:43Z</time>
      </trkpt>
      <trkpt lat="43.75381" lon="-1.36823">
        <ele>16.2</ele>
        <time>2021-10-16T08:30:47Z</time>
      </trkpt>
      <trkpt lat="43.7538" lon="-1.36816">
        <ele>16.2</ele>
        <time>2021-10-16T08:30:48Z</time>
      </trkpt>
      <trkpt lat="43.75379" lon="-1.36811">
        <ele>16.4</ele>
        <time>2021-10-16T08:30:49Z</time>
      </trkpt>
      <trkpt lat="43.75378" lon="-1.36802">
        <ele>16.4</ele>
        <time>2021-10-16T08:30:50Z</time>
      </trkpt>
      <trkpt lat="43.75377" lon="-1.36795">
        <ele>16.6</ele>
        <time>2021-10-16T08:30:51Z</time>
      </trkpt>
      <trkpt lat="43.75377" lon="-1.36787">
        <ele>16.8</ele>
        <time>2021-10-16T08:30:52Z</time>
      </trkpt>
      <trkpt lat="43.75375" lon="-1.36775">
        <ele>16.8</ele>
        <time>2021-10-16T08:30:54Z</time>
      </trkpt>
      <trkpt lat="43.75373" lon="-1.36748">
        <ele>17</ele>
        <time>2021-10-16T08:30:57Z</time>
      </trkpt>
      <trkpt lat="43.75372" lon="-1.36741">
        <ele>17</ele>
        <time>2021-10-16T08:30:58Z</time>
      </trkpt>
      <trkpt lat="43.75371" lon="-1.36733">
        <ele>17</ele>
        <time>2021-10-16T08:30:59Z</time>
      </trkpt>
      <trkpt lat="43.75369" lon="-1.36726">
        <ele>17.2</ele>
        <time>2021-10-16T08:31:00Z</time>
      </trkpt>
      <trkpt lat="43.75366" lon="-1.36712">
        <ele>17.2</ele>
        <time>2021-10-16T08:31:02Z</time>
      </trkpt>
      <trkpt lat="43.75354" lon="-1.36671">
        <ele>17.6</ele>
        <time>2021-10-16T08:31:07Z</time>
      </trkpt>
      <trkpt lat="43.7535" lon="-1.36661">
        <ele>17.6</ele>
        <time>2021-10-16T08:31:09Z</time>
      </trkpt>
      <trkpt lat="43.75348" lon="-1.36656">
        <ele>17.8</ele>
        <time>2021-10-16T08:31:10Z</time>
      </trkpt>
      <trkpt lat="43.75344" lon="-1.36643">
        <ele>17.8</ele>
        <time>2021-10-16T08:31:12Z</time>
      </trkpt>
      <trkpt lat="43.75342" lon="-1.36627">
        <ele>17.8</ele>
        <time>2021-10-16T08:31:15Z</time>
      </trkpt>
      <trkpt lat="43.75342" lon="-1.36624">
        <ele>17.8</ele>
        <time>2021-10-16T08:31:16Z</time>
      </trkpt>
      <trkpt lat="43.75341" lon="-1.36617">
        <ele>18</ele>
        <time>2021-10-16T08:31:17Z</time>
      </trkpt>
      <trkpt lat="43.7534" lon="-1.36613">
        <ele>18</ele>
        <time>2021-10-16T08:31:18Z</time>
      </trkpt>
      <trkpt lat="43.7534" lon="-1.36608">
        <ele>18</ele>
        <time>2021-10-16T08:31:19Z</time>
      </trkpt>
      <trkpt lat="43.75339" lon="-1.36599">
        <ele>18</ele>
        <time>2021-10-16T08:31:21Z</time>
      </trkpt>
      <trkpt lat="43.75339" lon="-1.36594">
        <ele>18</ele>
        <time>2021-10-16T08:31:22Z</time>
      </trkpt>
      <trkpt lat="43.7534" lon="-1.36588">
        <ele>18</ele>
        <time>2021-10-16T08:31:23Z</time>
      </trkpt>
      <trkpt lat="43.7534" lon="-1.36583">
        <ele>18</ele>
        <time>2021-10-16T08:31:24Z</time>
      </trkpt>
      <trkpt lat="43.7534" lon="-1.36579">
        <ele>18</ele>
        <time>2021-10-16T08:31:25Z</time>
      </trkpt>
      <trkpt lat="43.7534" lon="-1.36575">
        <ele>18</ele>
        <time>2021-10-16T08:31:26Z</time>
      </trkpt>
      <trkpt lat="43.7534" lon="-1.3657">
        <ele>18</ele>
        <time>2021-10-16T08:31:27Z</time>
      </trkpt>
      <trkpt lat="43.7534" lon="-1.36565">
        <ele>18</ele>
        <time>2021-10-16T08:31:28Z</time>
      </trkpt>
      <trkpt lat="43.75341" lon="-1.36557">
        <ele>18</ele>
        <time>2021-10-16T08:31:30Z</time>
      </trkpt>
      <trkpt lat="43.75341" lon="-1.36552">
        <ele>18</ele>
        <time>2021-10-16T08:31:31Z</time>
      </trkpt>
      <trkpt lat="43.75342" lon="-1.36548">
        <ele>18</ele>
        <time>2021-10-16T08:31:32Z</time>
      </trkpt>
      <trkpt lat="43.75342" lon="-1.36545">
        <ele>18.2</ele>
        <time>2021-10-16T08:31:33Z</time>
      </trkpt>
      <trkpt lat="43.75342" lon="-1.36541">
        <ele>18.4</ele>
        <time>2021-10-16T08:31:34Z</time>
      </trkpt>
      <trkpt lat="43.75343" lon="-1.36537">
        <ele>18.4</ele>
        <time>2021-10-16T08:31:35Z</time>
      </trkpt>
      <trkpt lat="43.75343" lon="-1.36534">
        <ele>18.6</ele>
        <time>2021-10-16T08:31:36Z</time>
      </trkpt>
      <trkpt lat="43.75344" lon="-1.36523">
        <ele>18.6</ele>
        <time>2021-10-16T08:31:39Z</time>
      </trkpt>
      <trkpt lat="43.75344" lon="-1.36519">
        <ele>18.8</ele>
        <time>2021-10-16T08:31:40Z</time>
      </trkpt>
      <trkpt lat="43.75344" lon="-1.36516">
        <ele>18.8</ele>
        <time>2021-10-16T08:31:41Z</time>
      </trkpt>
      <trkpt lat="43.75344" lon="-1.36513">
        <ele>18.8</ele>
        <time>2021-10-16T08:31:42Z</time>
      </trkpt>
      <trkpt lat="43.75344" lon="-1.3651">
        <ele>19</ele>
        <time>2021-10-16T08:31:43Z</time>
      </trkpt>
      <trkpt lat="43.75343" lon="-1.36506">
        <ele>19</ele>
        <time>2021-10-16T08:31:44Z</time>
      </trkpt>
      <trkpt lat="43.75343" lon="-1.36503">
        <ele>19.2</ele>
        <time>2021-10-16T08:31:45Z</time>
      </trkpt>
      <trkpt lat="43.75343" lon="-1.365">
        <ele>19.2</ele>
        <time>2021-10-16T08:31:46Z</time>
      </trkpt>
      <trkpt lat="43.75343" lon="-1.36497">
        <ele>19.4</ele>
        <time>2021-10-16T08:31:47Z</time>
      </trkpt>
      <trkpt lat="43.75342" lon="-1.3649">
        <ele>19.6</ele>
        <time>2021-10-16T08:31:49Z</time>
      </trkpt>
      <trkpt lat="43.75341" lon="-1.36484">
        <ele>19.8</ele>
        <time>2021-10-16T08:31:51Z</time>
      </trkpt>
      <trkpt lat="43.75341" lon="-1.3648">
        <ele>20</ele>
        <time>2021-10-16T08:31:52Z</time>
      </trkpt>
      <trkpt lat="43.75341" lon="-1.3647">
        <ele>20.6</ele>
        <time>2021-10-16T08:31:55Z</time>
      </trkpt>
      <trkpt lat="43.75341" lon="-1.36468">
        <ele>20.8</ele>
        <time>2021-10-16T08:31:56Z</time>
      </trkpt>
      <trkpt lat="43.75341" lon="-1.36466">
        <ele>21</ele>
        <time>2021-10-16T08:31:57Z</time>
      </trkpt>
      <trkpt lat="43.7534" lon="-1.36462">
        <ele>21</ele>
        <time>2021-10-16T08:31:58Z</time>
      </trkpt>
      <trkpt lat="43.7534" lon="-1.36459">
        <ele>21.4</ele>
        <time>2021-10-16T08:31:59Z</time>
      </trkpt>
      <trkpt lat="43.7534" lon="-1.36456">
        <ele>21.4</ele>
        <time>2021-10-16T08:32:00Z</time>
      </trkpt>
      <trkpt lat="43.75339" lon="-1.36453">
        <ele>21.6</ele>
        <time>2021-10-16T08:32:01Z</time>
      </trkpt>
      <trkpt lat="43.75339" lon="-1.36451">
        <ele>21.6</ele>
        <time>2021-10-16T08:32:02Z</time>
      </trkpt>
      <trkpt lat="43.75339" lon="-1.36448">
        <ele>22</ele>
        <time>2021-10-16T08:32:03Z</time>
      </trkpt>
      <trkpt lat="43.75339" lon="-1.36445">
        <ele>22.2</ele>
        <time>2021-10-16T08:32:04Z</time>
      </trkpt>
      <trkpt lat="43.75338" lon="-1.36443">
        <ele>22.4</ele>
        <time>2021-10-16T08:32:05Z</time>
      </trkpt>
      <trkpt lat="43.75338" lon="-1.3644">
        <ele>22.4</ele>
        <time>2021-10-16T08:32:06Z</time>
      </trkpt>
      <trkpt lat="43.75338" lon="-1.36437">
        <ele>22.8</ele>
        <time>2021-10-16T08:32:07Z</time>
      </trkpt>
      <trkpt lat="43.75339" lon="-1.36434">
        <ele>22.8</ele>
        <time>2021-10-16T08:32:08Z</time>
      </trkpt>
      <trkpt lat="43.75339" lon="-1.36431">
        <ele>23.2</ele>
        <time>2021-10-16T08:32:09Z</time>
      </trkpt>
      <trkpt lat="43.75339" lon="-1.36428">
        <ele>23.2</ele>
        <time>2021-10-16T08:32:10Z</time>
      </trkpt>
      <trkpt lat="43.75339" lon="-1.36425">
        <ele>23.4</ele>
        <time>2021-10-16T08:32:11Z</time>
      </trkpt>
      <trkpt lat="43.75339" lon="-1.36422">
        <ele>23.4</ele>
        <time>2021-10-16T08:32:12Z</time>
      </trkpt>
      <trkpt lat="43.75339" lon="-1.3642">
        <ele>23.6</ele>
        <time>2021-10-16T08:32:13Z</time>
      </trkpt>
      <trkpt lat="43.7534" lon="-1.36417">
        <ele>23.8</ele>
        <time>2021-10-16T08:32:14Z</time>
      </trkpt>
      <trkpt lat="43.7534" lon="-1.36414">
        <ele>23.8</ele>
        <time>2021-10-16T08:32:15Z</time>
      </trkpt>
      <trkpt lat="43.7534" lon="-1.36411">
        <ele>24</ele>
        <time>2021-10-16T08:32:16Z</time>
      </trkpt>
      <trkpt lat="43.75341" lon="-1.36408">
        <ele>24</ele>
        <time>2021-10-16T08:32:17Z</time>
      </trkpt>
      <trkpt lat="43.75341" lon="-1.36406">
        <ele>24.2</ele>
        <time>2021-10-16T08:32:18Z</time>
      </trkpt>
      <trkpt lat="43.75342" lon="-1.36404">
        <ele>24.4</ele>
        <time>2021-10-16T08:32:19Z</time>
      </trkpt>
      <trkpt lat="43.75343" lon="-1.36401">
        <ele>24.4</ele>
        <time>2021-10-16T08:32:20Z</time>
      </trkpt>
      <trkpt lat="43.75344" lon="-1.36398">
        <ele>24.6</ele>
        <time>2021-10-16T08:32:21Z</time>
      </trkpt>
      <trkpt lat="43.75346" lon="-1.36396">
        <ele>24.8</ele>
        <time>2021-10-16T08:32:22Z</time>
      </trkpt>
      <trkpt lat="43.75347" lon="-1.36394">
        <ele>24.8</ele>
        <time>2021-10-16T08:32:23Z</time>
      </trkpt>
      <trkpt lat="43.75348" lon="-1.3639">
        <ele>24.8</ele>
        <time>2021-10-16T08:32:24Z</time>
      </trkpt>
      <trkpt lat="43.75349" lon="-1.36387">
        <ele>24.8</ele>
        <time>2021-10-16T08:32:25Z</time>
      </trkpt>
      <trkpt lat="43.75351" lon="-1.36384">
        <ele>25</ele>
        <time>2021-10-16T08:32:26Z</time>
      </trkpt>
      <trkpt lat="43.75352" lon="-1.36382">
        <ele>25.2</ele>
        <time>2021-10-16T08:32:27Z</time>
      </trkpt>
      <trkpt lat="43.75353" lon="-1.36379">
        <ele>25.2</ele>
        <time>2021-10-16T08:32:28Z</time>
      </trkpt>
      <trkpt lat="43.75354" lon="-1.36377">
        <ele>25.2</ele>
        <time>2021-10-16T08:32:29Z</time>
      </trkpt>
      <trkpt lat="43.75354" lon="-1.36374">
        <ele>25.2</ele>
        <time>2021-10-16T08:32:30Z</time>
      </trkpt>
      <trkpt lat="43.75355" lon="-1.36371">
        <ele>25.4</ele>
        <time>2021-10-16T08:32:31Z</time>
      </trkpt>
      <trkpt lat="43.75356" lon="-1.36368">
        <ele>25.4</ele>
        <time>2021-10-16T08:32:32Z</time>
      </trkpt>
      <trkpt lat="43.75356" lon="-1.36366">
        <ele>25.4</ele>
        <time>2021-10-16T08:32:33Z</time>
      </trkpt>
      <trkpt lat="43.75357" lon="-1.36363">
        <ele>25.6</ele>
        <time>2021-10-16T08:32:34Z</time>
      </trkpt>
      <trkpt lat="43.75357" lon="-1.3636">
        <ele>25.8</ele>
        <time>2021-10-16T08:32:35Z</time>
      </trkpt>
      <trkpt lat="43.75358" lon="-1.36357">
        <ele>25.8</ele>
        <time>2021-10-16T08:32:36Z</time>
      </trkpt>
      <trkpt lat="43.75359" lon="-1.36355">
        <ele>26</ele>
        <time>2021-10-16T08:32:37Z</time>
      </trkpt>
      <trkpt lat="43.75359" lon="-1.36353">
        <ele>26.2</ele>
        <time>2021-10-16T08:32:38Z</time>
      </trkpt>
      <trkpt lat="43.75359" lon="-1.36351">
        <ele>26.2</ele>
        <time>2021-10-16T08:32:39Z</time>
      </trkpt>
      <trkpt lat="43.7536" lon="-1.36348">
        <ele>26.2</ele>
        <time>2021-10-16T08:32:40Z</time>
      </trkpt>
      <trkpt lat="43.7536" lon="-1.36346">
        <ele>26.4</ele>
        <time>2021-10-16T08:32:41Z</time>
      </trkpt>
      <trkpt lat="43.7536" lon="-1.36343">
        <ele>26.4</ele>
        <time>2021-10-16T08:32:42Z</time>
      </trkpt>
      <trkpt lat="43.75361" lon="-1.3634">
        <ele>26.6</ele>
        <time>2021-10-16T08:32:43Z</time>
      </trkpt>
      <trkpt lat="43.75361" lon="-1.36337">
        <ele>26.8</ele>
        <time>2021-10-16T08:32:44Z</time>
      </trkpt>
      <trkpt lat="43.75361" lon="-1.36334">
        <ele>26.8</ele>
        <time>2021-10-16T08:32:45Z</time>
      </trkpt>
      <trkpt lat="43.75361" lon="-1.36331">
        <ele>26.8</ele>
        <time>2021-10-16T08:32:46Z</time>
      </trkpt>
      <trkpt lat="43.75362" lon="-1.36328">
        <ele>27</ele>
        <time>2021-10-16T08:32:47Z</time>
      </trkpt>
      <trkpt lat="43.75362" lon="-1.36325">
        <ele>27</ele>
        <time>2021-10-16T08:32:48Z</time>
      </trkpt>
      <trkpt lat="43.75362" lon="-1.36322">
        <ele>27.2</ele>
        <time>2021-10-16T08:32:49Z</time>
      </trkpt>
      <trkpt lat="43.75362" lon="-1.36319">
        <ele>27.2</ele>
        <time>2021-10-16T08:32:50Z</time>
      </trkpt>
      <trkpt lat="43.75362" lon="-1.36316">
        <ele>27.2</ele>
        <time>2021-10-16T08:32:51Z</time>
      </trkpt>
      <trkpt lat="43.75363" lon="-1.36313">
        <ele>27.4</ele>
        <time>2021-10-16T08:32:52Z</time>
      </trkpt>
      <trkpt lat="43.75363" lon="-1.3631">
        <ele>27.4</ele>
        <time>2021-10-16T08:32:53Z</time>
      </trkpt>
      <trkpt lat="43.75364" lon="-1.36308">
        <ele>27.6</ele>
        <time>2021-10-16T08:32:54Z</time>
      </trkpt>
      <trkpt lat="43.75364" lon="-1.36305">
        <ele>27.6</ele>
        <time>2021-10-16T08:32:55Z</time>
      </trkpt>
      <trkpt lat="43.75364" lon="-1.36304">
        <ele>27.6</ele>
        <time>2021-10-16T08:32:56Z</time>
      </trkpt>
      <trkpt lat="43.75364" lon="-1.36302">
        <ele>27.6</ele>
        <time>2021-10-16T08:32:57Z</time>
      </trkpt>
      <trkpt lat="43.75363" lon="-1.363">
        <ele>27.6</ele>
        <time>2021-10-16T08:32:58Z</time>
      </trkpt>
      <trkpt lat="43.75364" lon="-1.36298">
        <ele>27.6</ele>
        <time>2021-10-16T08:32:59Z</time>
      </trkpt>
      <trkpt lat="43.75364" lon="-1.36296">
        <ele>27.8</ele>
        <time>2021-10-16T08:33:00Z</time>
      </trkpt>
      <trkpt lat="43.75364" lon="-1.36294">
        <ele>27.8</ele>
        <time>2021-10-16T08:33:01Z</time>
      </trkpt>
      <trkpt lat="43.75364" lon="-1.36292">
        <ele>27.8</ele>
        <time>2021-10-16T08:33:02Z</time>
      </trkpt>
      <trkpt lat="43.75364" lon="-1.36291">
        <ele>27.8</ele>
        <time>2021-10-16T08:33:03Z</time>
      </trkpt>
      <trkpt lat="43.75364" lon="-1.36291">
        <ele>27.8</ele>
        <time>2021-10-16T08:33:07Z</time>
      </trkpt>
      <trkpt lat="43.75364" lon="-1.36291">
        <ele>27.6</ele>
        <time>2021-10-16T08:33:08Z</time>
      </trkpt>
      <trkpt lat="43.75364" lon="-1.36282">
        <ele>28.2</ele>
        <time>2021-10-16T08:33:42Z</time>
      </trkpt>
      <trkpt lat="43.75363" lon="-1.36273">
        <ele>28.2</ele>
        <time>2021-10-16T08:33:45Z</time>
      </trkpt>
      <trkpt lat="43.75364" lon="-1.36264">
        <ele>28</ele>
        <time>2021-10-16T08:33:48Z</time>
      </trkpt>
      <trkpt lat="43.75365" lon="-1.36236">
        <ele>27.8</ele>
        <time>2021-10-16T08:33:57Z</time>
      </trkpt>
      <trkpt lat="43.7537" lon="-1.36202">
        <ele>27.4</ele>
        <time>2021-10-16T08:34:06Z</time>
      </trkpt>
      <trkpt lat="43.75373" lon="-1.36181">
        <ele>27</ele>
        <time>2021-10-16T08:34:10Z</time>
      </trkpt>
      <trkpt lat="43.75374" lon="-1.36171">
        <ele>26.8</ele>
        <time>2021-10-16T08:34:12Z</time>
      </trkpt>
      <trkpt lat="43.75374" lon="-1.36161">
        <ele>26.4</ele>
        <time>2021-10-16T08:34:14Z</time>
      </trkpt>
      <trkpt lat="43.75375" lon="-1.36157">
        <ele>26.4</ele>
        <time>2021-10-16T08:34:15Z</time>
      </trkpt>
      <trkpt lat="43.75375" lon="-1.36153">
        <ele>26</ele>
        <time>2021-10-16T08:34:16Z</time>
      </trkpt>
      <trkpt lat="43.75375" lon="-1.36149">
        <ele>25.8</ele>
        <time>2021-10-16T08:34:17Z</time>
      </trkpt>
      <trkpt lat="43.75375" lon="-1.36146">
        <ele>25.6</ele>
        <time>2021-10-16T08:34:18Z</time>
      </trkpt>
      <trkpt lat="43.75375" lon="-1.36144">
        <ele>25.6</ele>
        <time>2021-10-16T08:34:19Z</time>
      </trkpt>
      <trkpt lat="43.75374" lon="-1.36141">
        <ele>25.6</ele>
        <time>2021-10-16T08:34:20Z</time>
      </trkpt>
      <trkpt lat="43.75375" lon="-1.36139">
        <ele>25.4</ele>
        <time>2021-10-16T08:34:21Z</time>
      </trkpt>
      <trkpt lat="43.75375" lon="-1.36137">
        <ele>25.4</ele>
        <time>2021-10-16T08:34:22Z</time>
      </trkpt>
      <trkpt lat="43.75376" lon="-1.36135">
        <ele>25.2</ele>
        <time>2021-10-16T08:34:23Z</time>
      </trkpt>
      <trkpt lat="43.75376" lon="-1.36132">
        <ele>25.2</ele>
        <time>2021-10-16T08:34:24Z</time>
      </trkpt>
      <trkpt lat="43.75381" lon="-1.36119">
        <ele>24.6</ele>
        <time>2021-10-16T08:34:29Z</time>
      </trkpt>
      <trkpt lat="43.75382" lon="-1.36114">
        <ele>24.4</ele>
        <time>2021-10-16T08:34:31Z</time>
      </trkpt>
      <trkpt lat="43.75384" lon="-1.36111">
        <ele>24.2</ele>
        <time>2021-10-16T08:34:33Z</time>
      </trkpt>
      <trkpt lat="43.75384" lon="-1.3611">
        <ele>24</ele>
        <time>2021-10-16T08:34:34Z</time>
      </trkpt>
      <trkpt lat="43.75385" lon="-1.36109">
        <ele>23.8</ele>
        <time>2021-10-16T08:34:35Z</time>
      </trkpt>
      <trkpt lat="43.75385" lon="-1.36109">
        <ele>23.8</ele>
        <time>2021-10-16T08:34:36Z</time>
      </trkpt>
      <trkpt lat="43.75385" lon="-1.36109">
        <ele>23.6</ele>
        <time>2021-10-16T08:34:37Z</time>
      </trkpt>
      <trkpt lat="43.75385" lon="-1.36106">
        <ele>23.4</ele>
        <time>2021-10-16T08:34:39Z</time>
      </trkpt>
      <trkpt lat="43.75385" lon="-1.36105">
        <ele>23.4</ele>
        <time>2021-10-16T08:34:40Z</time>
      </trkpt>
      <trkpt lat="43.75385" lon="-1.36103">
        <ele>23.2</ele>
        <time>2021-10-16T08:34:41Z</time>
      </trkpt>
      <trkpt lat="43.75386" lon="-1.36099">
        <ele>23.2</ele>
        <time>2021-10-16T08:34:43Z</time>
      </trkpt>
      <trkpt lat="43.75389" lon="-1.36077">
        <ele>22.8</ele>
        <time>2021-10-16T08:34:49Z</time>
      </trkpt>
      <trkpt lat="43.7539" lon="-1.36068">
        <ele>22.4</ele>
        <time>2021-10-16T08:34:51Z</time>
      </trkpt>
      <trkpt lat="43.75391" lon="-1.36053">
        <ele>22.2</ele>
        <time>2021-10-16T08:34:54Z</time>
      </trkpt>
      <trkpt lat="43.7539" lon="-1.36043">
        <ele>21.6</ele>
        <time>2021-10-16T08:34:56Z</time>
      </trkpt>
      <trkpt lat="43.75389" lon="-1.36032">
        <ele>20.6</ele>
        <time>2021-10-16T08:34:58Z</time>
      </trkpt>
      <trkpt lat="43.75385" lon="-1.36007">
        <ele>19.6</ele>
        <time>2021-10-16T08:35:03Z</time>
      </trkpt>
      <trkpt lat="43.75384" lon="-1.36004">
        <ele>19.4</ele>
        <time>2021-10-16T08:35:04Z</time>
      </trkpt>
      <trkpt lat="43.75384" lon="-1.36001">
        <ele>19</ele>
        <time>2021-10-16T08:35:05Z</time>
      </trkpt>
      <trkpt lat="43.75383" lon="-1.35999">
        <ele>19</ele>
        <time>2021-10-16T08:35:06Z</time>
      </trkpt>
      <trkpt lat="43.75383" lon="-1.35998">
        <ele>18.8</ele>
        <time>2021-10-16T08:35:07Z</time>
      </trkpt>
      <trkpt lat="43.75382" lon="-1.35996">
        <ele>18.8</ele>
        <time>2021-10-16T08:35:08Z</time>
      </trkpt>
      <trkpt lat="43.75382" lon="-1.35995">
        <ele>18.6</ele>
        <time>2021-10-16T08:35:09Z</time>
      </trkpt>
      <trkpt lat="43.75382" lon="-1.35993">
        <ele>18.4</ele>
        <time>2021-10-16T08:35:10Z</time>
      </trkpt>
      <trkpt lat="43.75382" lon="-1.35991">
        <ele>18.4</ele>
        <time>2021-10-16T08:35:11Z</time>
      </trkpt>
      <trkpt lat="43.75383" lon="-1.35991">
        <ele>18.2</ele>
        <time>2021-10-16T08:35:12Z</time>
      </trkpt>
      <trkpt lat="43.75383" lon="-1.35991">
        <ele>18</ele>
        <time>2021-10-16T08:35:15Z</time>
      </trkpt>
      <trkpt lat="43.75381" lon="-1.35988">
        <ele>17.8</ele>
        <time>2021-10-16T08:35:27Z</time>
      </trkpt>
      <trkpt lat="43.7538" lon="-1.35986">
        <ele>17.8</ele>
        <time>2021-10-16T08:35:28Z</time>
      </trkpt>
      <trkpt lat="43.75379" lon="-1.35984">
        <ele>17.8</ele>
        <time>2021-10-16T08:35:29Z</time>
      </trkpt>
      <trkpt lat="43.75377" lon="-1.35983">
        <ele>17.8</ele>
        <time>2021-10-16T08:35:30Z</time>
      </trkpt>
      <trkpt lat="43.75375" lon="-1.35983">
        <ele>17.8</ele>
        <time>2021-10-16T08:35:31Z</time>
      </trkpt>
      <trkpt lat="43.75374" lon="-1.35982">
        <ele>17.8</ele>
        <time>2021-10-16T08:35:32Z</time>
      </trkpt>
      <trkpt lat="43.75372" lon="-1.35982">
        <ele>17.8</ele>
        <time>2021-10-16T08:35:33Z</time>
      </trkpt>
      <trkpt lat="43.75371" lon="-1.35982">
        <ele>17.8</ele>
        <time>2021-10-16T08:35:34Z</time>
      </trkpt>
      <trkpt lat="43.75369" lon="-1.35982">
        <ele>17.8</ele>
        <time>2021-10-16T08:35:35Z</time>
      </trkpt>
      <trkpt lat="43.75369" lon="-1.35982">
        <ele>17.8</ele>
        <time>2021-10-16T08:35:36Z</time>
      </trkpt>
      <trkpt lat="43.75368" lon="-1.35982">
        <ele>17.8</ele>
        <time>2021-10-16T08:35:37Z</time>
      </trkpt>
      <trkpt lat="43.75368" lon="-1.35982">
        <ele>18</ele>
        <time>2021-10-16T08:35:39Z</time>
      </trkpt>
      <trkpt lat="43.75367" lon="-1.35982">
        <ele>18.4</ele>
        <time>2021-10-16T08:35:48Z</time>
      </trkpt>
      <trkpt lat="43.75364" lon="-1.35984">
        <ele>18.8</ele>
        <time>2021-10-16T08:35:56Z</time>
      </trkpt>
      <trkpt lat="43.75363" lon="-1.35984">
        <ele>19.4</ele>
        <time>2021-10-16T08:36:01Z</time>
      </trkpt>
      <trkpt lat="43.75363" lon="-1.35984">
        <ele>20.2</ele>
        <time>2021-10-16T08:36:04Z</time>
      </trkpt>
      <trkpt lat="43.75363" lon="-1.35984">
        <ele>20.4</ele>
        <time>2021-10-16T08:36:06Z</time>
      </trkpt>
      <trkpt lat="43.75358" lon="-1.35986">
        <ele>21</ele>
        <time>2021-10-16T08:36:11Z</time>
      </trkpt>
      <trkpt lat="43.75356" lon="-1.35986">
        <ele>21.2</ele>
        <time>2021-10-16T08:36:12Z</time>
      </trkpt>
      <trkpt lat="43.75354" lon="-1.35987">
        <ele>21.6</ele>
        <time>2021-10-16T08:36:14Z</time>
      </trkpt>
      <trkpt lat="43.75353" lon="-1.35988">
        <ele>21.6</ele>
        <time>2021-10-16T08:36:15Z</time>
      </trkpt>
      <trkpt lat="43.75352" lon="-1.35988">
        <ele>21.8</ele>
        <time>2021-10-16T08:36:16Z</time>
      </trkpt>
      <trkpt lat="43.75351" lon="-1.35989">
        <ele>22</ele>
        <time>2021-10-16T08:36:17Z</time>
      </trkpt>
      <trkpt lat="43.75351" lon="-1.35989">
        <ele>22.2</ele>
        <time>2021-10-16T08:36:18Z</time>
      </trkpt>
      <trkpt lat="43.7535" lon="-1.35989">
        <ele>22.4</ele>
        <time>2021-10-16T08:36:19Z</time>
      </trkpt>
      <trkpt lat="43.75349" lon="-1.3599">
        <ele>22.6</ele>
        <time>2021-10-16T08:36:20Z</time>
      </trkpt>
      <trkpt lat="43.75348" lon="-1.3599">
        <ele>22.8</ele>
        <time>2021-10-16T08:36:21Z</time>
      </trkpt>
      <trkpt lat="43.75348" lon="-1.3599">
        <ele>22.8</ele>
        <time>2021-10-16T08:36:22Z</time>
      </trkpt>
      <trkpt lat="43.75348" lon="-1.3599">
        <ele>23.2</ele>
        <time>2021-10-16T08:36:24Z</time>
      </trkpt>
      <trkpt lat="43.75347" lon="-1.35991">
        <ele>23.4</ele>
        <time>2021-10-16T08:36:25Z</time>
      </trkpt>
      <trkpt lat="43.75346" lon="-1.35991">
        <ele>23.4</ele>
        <time>2021-10-16T08:36:26Z</time>
      </trkpt>
      <trkpt lat="43.75346" lon="-1.35992">
        <ele>23.6</ele>
        <time>2021-10-16T08:36:27Z</time>
      </trkpt>
      <trkpt lat="43.75345" lon="-1.35992">
        <ele>23.8</ele>
        <time>2021-10-16T08:36:28Z</time>
      </trkpt>
      <trkpt lat="43.75344" lon="-1.35993">
        <ele>24</ele>
        <time>2021-10-16T08:36:29Z</time>
      </trkpt>
      <trkpt lat="43.75344" lon="-1.35993">
        <ele>24</ele>
        <time>2021-10-16T08:36:30Z</time>
      </trkpt>
      <trkpt lat="43.75343" lon="-1.35993">
        <ele>24.2</ele>
        <time>2021-10-16T08:36:31Z</time>
      </trkpt>
      <trkpt lat="43.75342" lon="-1.35993">
        <ele>24.4</ele>
        <time>2021-10-16T08:36:32Z</time>
      </trkpt>
      <trkpt lat="43.75341" lon="-1.35993">
        <ele>24.6</ele>
        <time>2021-10-16T08:36:33Z</time>
      </trkpt>
      <trkpt lat="43.75341" lon="-1.35993">
        <ele>24.8</ele>
        <time>2021-10-16T08:36:34Z</time>
      </trkpt>
      <trkpt lat="43.75341" lon="-1.35993">
        <ele>25.2</ele>
        <time>2021-10-16T08:36:35Z</time>
      </trkpt>
      <trkpt lat="43.7534" lon="-1.35993">
        <ele>25.2</ele>
        <time>2021-10-16T08:36:36Z</time>
      </trkpt>
      <trkpt lat="43.75339" lon="-1.35993">
        <ele>25.6</ele>
        <time>2021-10-16T08:36:37Z</time>
      </trkpt>
      <trkpt lat="43.75338" lon="-1.35992">
        <ele>25.6</ele>
        <time>2021-10-16T08:36:38Z</time>
      </trkpt>
      <trkpt lat="43.75338" lon="-1.35992">
        <ele>26</ele>
        <time>2021-10-16T08:36:39Z</time>
      </trkpt>
      <trkpt lat="43.75337" lon="-1.35991">
        <ele>26</ele>
        <time>2021-10-16T08:36:40Z</time>
      </trkpt>
      <trkpt lat="43.75337" lon="-1.3599">
        <ele>26.2</ele>
        <time>2021-10-16T08:36:41Z</time>
      </trkpt>
      <trkpt lat="43.75336" lon="-1.3599">
        <ele>26.2</ele>
        <time>2021-10-16T08:36:42Z</time>
      </trkpt>
      <trkpt lat="43.75336" lon="-1.35989">
        <ele>26.2</ele>
        <time>2021-10-16T08:36:43Z</time>
      </trkpt>
      <trkpt lat="43.75336" lon="-1.35989">
        <ele>26.4</ele>
        <time>2021-10-16T08:36:44Z</time>
      </trkpt>
      <trkpt lat="43.75336" lon="-1.35989">
        <ele>26.6</ele>
        <time>2021-10-16T08:36:47Z</time>
      </trkpt>
      <trkpt lat="43.75335" lon="-1.3599">
        <ele>26.6</ele>
        <time>2021-10-16T08:36:49Z</time>
      </trkpt>
      <trkpt lat="43.75335" lon="-1.35991">
        <ele>26.8</ele>
        <time>2021-10-16T08:36:50Z</time>
      </trkpt>
      <trkpt lat="43.75334" lon="-1.35992">
        <ele>26.8</ele>
        <time>2021-10-16T08:36:51Z</time>
      </trkpt>
      <trkpt lat="43.75334" lon="-1.35992">
        <ele>26.8</ele>
        <time>2021-10-16T08:36:52Z</time>
      </trkpt>
      <trkpt lat="43.75333" lon="-1.35993">
        <ele>26.8</ele>
        <time>2021-10-16T08:36:53Z</time>
      </trkpt>
      <trkpt lat="43.75333" lon="-1.35993">
        <ele>26.8</ele>
        <time>2021-10-16T08:36:54Z</time>
      </trkpt>
      <trkpt lat="43.75333" lon="-1.35993">
        <ele>26.8</ele>
        <time>2021-10-16T08:36:58Z</time>
      </trkpt>
      <trkpt lat="43.75332" lon="-1.35993">
        <ele>26.6</ele>
        <time>2021-10-16T08:36:59Z</time>
      </trkpt>
      <trkpt lat="43.75331" lon="-1.35992">
        <ele>26.4</ele>
        <time>2021-10-16T08:37:01Z</time>
      </trkpt>
      <trkpt lat="43.75325" lon="-1.35997">
        <ele>25.4</ele>
        <time>2021-10-16T08:37:11Z</time>
      </trkpt>
      <trkpt lat="43.75323" lon="-1.35998">
        <ele>25.4</ele>
        <time>2021-10-16T08:37:12Z</time>
      </trkpt>
      <trkpt lat="43.75318" lon="-1.35999">
        <ele>25.2</ele>
        <time>2021-10-16T08:37:14Z</time>
      </trkpt>
      <trkpt lat="43.75316" lon="-1.35999">
        <ele>25</ele>
        <time>2021-10-16T08:37:15Z</time>
      </trkpt>
      <trkpt lat="43.75313" lon="-1.35999">
        <ele>24.8</ele>
        <time>2021-10-16T08:37:16Z</time>
      </trkpt>
      <trkpt lat="43.75311" lon="-1.36">
        <ele>24.6</ele>
        <time>2021-10-16T08:37:17Z</time>
      </trkpt>
      <trkpt lat="43.75309" lon="-1.36">
        <ele>24.2</ele>
        <time>2021-10-16T08:37:18Z</time>
      </trkpt>
      <trkpt lat="43.75307" lon="-1.36001">
        <ele>24</ele>
        <time>2021-10-16T08:37:19Z</time>
      </trkpt>
      <trkpt lat="43.753" lon="-1.36004">
        <ele>23</ele>
        <time>2021-10-16T08:37:22Z</time>
      </trkpt>
      <trkpt lat="43.7529" lon="-1.36012">
        <ele>21.8</ele>
        <time>2021-10-16T08:37:27Z</time>
      </trkpt>
      <trkpt lat="43.75284" lon="-1.36015">
        <ele>21.2</ele>
        <time>2021-10-16T08:37:30Z</time>
      </trkpt>
      <trkpt lat="43.75282" lon="-1.36015">
        <ele>21</ele>
        <time>2021-10-16T08:37:31Z</time>
      </trkpt>
      <trkpt lat="43.75281" lon="-1.36016">
        <ele>20.8</ele>
        <time>2021-10-16T08:37:32Z</time>
      </trkpt>
      <trkpt lat="43.75281" lon="-1.36016">
        <ele>20.4</ele>
        <time>2021-10-16T08:37:34Z</time>
      </trkpt>
      <trkpt lat="43.75275" lon="-1.36018">
        <ele>20</ele>
        <time>2021-10-16T08:37:42Z</time>
      </trkpt>
      <trkpt lat="43.75263" lon="-1.36019">
        <ele>19.8</ele>
        <time>2021-10-16T08:37:47Z</time>
      </trkpt>
      <trkpt lat="43.75261" lon="-1.3602">
        <ele>19.8</ele>
        <time>2021-10-16T08:37:48Z</time>
      </trkpt>
      <trkpt lat="43.75256" lon="-1.36019">
        <ele>19.2</ele>
        <time>2021-10-16T08:37:51Z</time>
      </trkpt>
      <trkpt lat="43.75255" lon="-1.3602">
        <ele>19.2</ele>
        <time>2021-10-16T08:37:52Z</time>
      </trkpt>
      <trkpt lat="43.75253" lon="-1.3602">
        <ele>19</ele>
        <time>2021-10-16T08:37:53Z</time>
      </trkpt>
      <trkpt lat="43.7525" lon="-1.36022">
        <ele>18.6</ele>
        <time>2021-10-16T08:37:55Z</time>
      </trkpt>
      <trkpt lat="43.75246" lon="-1.36022">
        <ele>18.6</ele>
        <time>2021-10-16T08:37:57Z</time>
      </trkpt>
      <trkpt lat="43.75244" lon="-1.36021">
        <ele>18.4</ele>
        <time>2021-10-16T08:37:58Z</time>
      </trkpt>
      <trkpt lat="43.75243" lon="-1.36022">
        <ele>18.2</ele>
        <time>2021-10-16T08:37:59Z</time>
      </trkpt>
      <trkpt lat="43.75242" lon="-1.36021">
        <ele>18</ele>
        <time>2021-10-16T08:38:00Z</time>
      </trkpt>
      <trkpt lat="43.7524" lon="-1.36022">
        <ele>18</ele>
        <time>2021-10-16T08:38:01Z</time>
      </trkpt>
      <trkpt lat="43.75229" lon="-1.36022">
        <ele>17.4</ele>
        <time>2021-10-16T08:38:06Z</time>
      </trkpt>
      <trkpt lat="43.75227" lon="-1.36023">
        <ele>17.4</ele>
        <time>2021-10-16T08:38:07Z</time>
      </trkpt>
      <trkpt lat="43.75225" lon="-1.36023">
        <ele>17.2</ele>
        <time>2021-10-16T08:38:08Z</time>
      </trkpt>
      <trkpt lat="43.75217" lon="-1.36021">
        <ele>16.6</ele>
        <time>2021-10-16T08:38:12Z</time>
      </trkpt>
      <trkpt lat="43.75216" lon="-1.36021">
        <ele>16.4</ele>
        <time>2021-10-16T08:38:13Z</time>
      </trkpt>
      <trkpt lat="43.75215" lon="-1.36021">
        <ele>16.4</ele>
        <time>2021-10-16T08:38:14Z</time>
      </trkpt>
      <trkpt lat="43.75214" lon="-1.36022">
        <ele>16.2</ele>
        <time>2021-10-16T08:38:15Z</time>
      </trkpt>
      <trkpt lat="43.75208" lon="-1.36024">
        <ele>15.8</ele>
        <time>2021-10-16T08:38:19Z</time>
      </trkpt>
      <trkpt lat="43.75206" lon="-1.36024">
        <ele>15.8</ele>
        <time>2021-10-16T08:38:20Z</time>
      </trkpt>
      <trkpt lat="43.75204" lon="-1.36025">
        <ele>15.8</ele>
        <time>2021-10-16T08:38:21Z</time>
      </trkpt>
      <trkpt lat="43.75194" lon="-1.36028">
        <ele>15.2</ele>
        <time>2021-10-16T08:38:27Z</time>
      </trkpt>
      <trkpt lat="43.75187" lon="-1.36029">
        <ele>15.2</ele>
        <time>2021-10-16T08:38:31Z</time>
      </trkpt>
      <trkpt lat="43.75181" lon="-1.36031">
        <ele>15.2</ele>
        <time>2021-10-16T08:38:35Z</time>
      </trkpt>
      <trkpt lat="43.7518" lon="-1.36032">
        <ele>15.2</ele>
        <time>2021-10-16T08:38:36Z</time>
      </trkpt>
      <trkpt lat="43.75178" lon="-1.36032">
        <ele>15.2</ele>
        <time>2021-10-16T08:38:37Z</time>
      </trkpt>
      <trkpt lat="43.75177" lon="-1.36033">
        <ele>15.4</ele>
        <time>2021-10-16T08:38:38Z</time>
      </trkpt>
      <trkpt lat="43.75175" lon="-1.36033">
        <ele>15.4</ele>
        <time>2021-10-16T08:38:39Z</time>
      </trkpt>
      <trkpt lat="43.75174" lon="-1.36034">
        <ele>15.6</ele>
        <time>2021-10-16T08:38:40Z</time>
      </trkpt>
      <trkpt lat="43.75172" lon="-1.36034">
        <ele>15.6</ele>
        <time>2021-10-16T08:38:41Z</time>
      </trkpt>
      <trkpt lat="43.75171" lon="-1.36033">
        <ele>15.6</ele>
        <time>2021-10-16T08:38:42Z</time>
      </trkpt>
      <trkpt lat="43.7517" lon="-1.36033">
        <ele>15.6</ele>
        <time>2021-10-16T08:38:43Z</time>
      </trkpt>
      <trkpt lat="43.75168" lon="-1.36032">
        <ele>15.6</ele>
        <time>2021-10-16T08:38:44Z</time>
      </trkpt>
      <trkpt lat="43.75168" lon="-1.3603">
        <ele>15.6</ele>
        <time>2021-10-16T08:38:45Z</time>
      </trkpt>
      <trkpt lat="43.75167" lon="-1.36029">
        <ele>15.6</ele>
        <time>2021-10-16T08:38:46Z</time>
      </trkpt>
      <trkpt lat="43.75167" lon="-1.36024">
        <ele>15.6</ele>
        <time>2021-10-16T08:38:48Z</time>
      </trkpt>
      <trkpt lat="43.75167" lon="-1.36022">
        <ele>15.6</ele>
        <time>2021-10-16T08:38:49Z</time>
      </trkpt>
      <trkpt lat="43.75167" lon="-1.36019">
        <ele>15.6</ele>
        <time>2021-10-16T08:38:50Z</time>
      </trkpt>
      <trkpt lat="43.75166" lon="-1.36004">
        <ele>15.6</ele>
        <time>2021-10-16T08:38:54Z</time>
      </trkpt>
      <trkpt lat="43.75166" lon="-1.35986">
        <ele>15.6</ele>
        <time>2021-10-16T08:38:58Z</time>
      </trkpt>
      <trkpt lat="43.75166" lon="-1.35982">
        <ele>15.6</ele>
        <time>2021-10-16T08:38:59Z</time>
      </trkpt>
      <trkpt lat="43.75166" lon="-1.35951">
        <ele>15.6</ele>
        <time>2021-10-16T08:39:06Z</time>
      </trkpt>
      <trkpt lat="43.75169" lon="-1.35917">
        <ele>15.2</ele>
        <time>2021-10-16T08:39:12Z</time>
      </trkpt>
      <trkpt lat="43.7517" lon="-1.35911">
        <ele>15.2</ele>
        <time>2021-10-16T08:39:13Z</time>
      </trkpt>
      <trkpt lat="43.75171" lon="-1.35892">
        <ele>15</ele>
        <time>2021-10-16T08:39:16Z</time>
      </trkpt>
      <trkpt lat="43.75172" lon="-1.35879">
        <ele>15</ele>
        <time>2021-10-16T08:39:18Z</time>
      </trkpt>
      <trkpt lat="43.75173" lon="-1.35823">
        <ele>14.8</ele>
        <time>2021-10-16T08:39:26Z</time>
      </trkpt>
      <trkpt lat="43.75173" lon="-1.35803">
        <ele>14.6</ele>
        <time>2021-10-16T08:39:29Z</time>
      </trkpt>
      <trkpt lat="43.75173" lon="-1.35796">
        <ele>14.6</ele>
        <time>2021-10-16T08:39:30Z</time>
      </trkpt>
      <trkpt lat="43.75173" lon="-1.35789">
        <ele>14.4</ele>
        <time>2021-10-16T08:39:31Z</time>
      </trkpt>
      <trkpt lat="43.75172" lon="-1.35782">
        <ele>14.4</ele>
        <time>2021-10-16T08:39:32Z</time>
      </trkpt>
      <trkpt lat="43.75172" lon="-1.35775">
        <ele>14.4</ele>
        <time>2021-10-16T08:39:33Z</time>
      </trkpt>
      <trkpt lat="43.75172" lon="-1.35769">
        <ele>14.4</ele>
        <time>2021-10-16T08:39:34Z</time>
      </trkpt>
      <trkpt lat="43.75171" lon="-1.35763">
        <ele>14.2</ele>
        <time>2021-10-16T08:39:35Z</time>
      </trkpt>
      <trkpt lat="43.7517" lon="-1.35756">
        <ele>14.2</ele>
        <time>2021-10-16T08:39:36Z</time>
      </trkpt>
      <trkpt lat="43.75169" lon="-1.3575">
        <ele>14.2</ele>
        <time>2021-10-16T08:39:37Z</time>
      </trkpt>
      <trkpt lat="43.75167" lon="-1.35743">
        <ele>14.2</ele>
        <time>2021-10-16T08:39:38Z</time>
      </trkpt>
      <trkpt lat="43.75163" lon="-1.35709">
        <ele>14.2</ele>
        <time>2021-10-16T08:39:43Z</time>
      </trkpt>
      <trkpt lat="43.75162" lon="-1.35693">
        <ele>14.2</ele>
        <time>2021-10-16T08:39:45Z</time>
      </trkpt>
      <trkpt lat="43.75158" lon="-1.3565">
        <ele>14</ele>
        <time>2021-10-16T08:39:51Z</time>
      </trkpt>
      <trkpt lat="43.75158" lon="-1.35642">
        <ele>14</ele>
        <time>2021-10-16T08:39:52Z</time>
      </trkpt>
      <trkpt lat="43.75158" lon="-1.35634">
        <ele>14</ele>
        <time>2021-10-16T08:39:53Z</time>
      </trkpt>
      <trkpt lat="43.75157" lon="-1.35627">
        <ele>14</ele>
        <time>2021-10-16T08:39:54Z</time>
      </trkpt>
      <trkpt lat="43.75157" lon="-1.35621">
        <ele>14</ele>
        <time>2021-10-16T08:39:55Z</time>
      </trkpt>
      <trkpt lat="43.75156" lon="-1.35614">
        <ele>14</ele>
        <time>2021-10-16T08:39:56Z</time>
      </trkpt>
      <trkpt lat="43.75155" lon="-1.35607">
        <ele>14</ele>
        <time>2021-10-16T08:39:57Z</time>
      </trkpt>
      <trkpt lat="43.75154" lon="-1.35599">
        <ele>14</ele>
        <time>2021-10-16T08:39:58Z</time>
      </trkpt>
      <trkpt lat="43.75145" lon="-1.35542">
        <ele>14</ele>
        <time>2021-10-16T08:40:06Z</time>
      </trkpt>
      <trkpt lat="43.75144" lon="-1.35537">
        <ele>14</ele>
        <time>2021-10-16T08:40:07Z</time>
      </trkpt>
      <trkpt lat="43.75144" lon="-1.35529">
        <ele>14</ele>
        <time>2021-10-16T08:40:08Z</time>
      </trkpt>
      <trkpt lat="43.75143" lon="-1.35521">
        <ele>13.8</ele>
        <time>2021-10-16T08:40:09Z</time>
      </trkpt>
      <trkpt lat="43.75142" lon="-1.35518">
        <ele>13.8</ele>
        <time>2021-10-16T08:40:10Z</time>
      </trkpt>
      <trkpt lat="43.75142" lon="-1.35514">
        <ele>13.8</ele>
        <time>2021-10-16T08:40:11Z</time>
      </trkpt>
      <trkpt lat="43.75141" lon="-1.35508">
        <ele>13.8</ele>
        <time>2021-10-16T08:40:12Z</time>
      </trkpt>
      <trkpt lat="43.75139" lon="-1.35503">
        <ele>13.8</ele>
        <time>2021-10-16T08:40:13Z</time>
      </trkpt>
      <trkpt lat="43.75138" lon="-1.35498">
        <ele>13.8</ele>
        <time>2021-10-16T08:40:14Z</time>
      </trkpt>
      <trkpt lat="43.75138" lon="-1.35496">
        <ele>13.8</ele>
        <time>2021-10-16T08:40:15Z</time>
      </trkpt>
      <trkpt lat="43.7514" lon="-1.35494">
        <ele>13.8</ele>
        <time>2021-10-16T08:40:16Z</time>
      </trkpt>
      <trkpt lat="43.75141" lon="-1.35493">
        <ele>13.8</ele>
        <time>2021-10-16T08:40:17Z</time>
      </trkpt>
      <trkpt lat="43.75141" lon="-1.35493">
        <ele>13.8</ele>
        <time>2021-10-16T08:40:18Z</time>
      </trkpt>
      <trkpt lat="43.75141" lon="-1.35493">
        <ele>13.8</ele>
        <time>2021-10-16T08:40:19Z</time>
      </trkpt>
      <trkpt lat="43.75141" lon="-1.35493">
        <ele>13.8</ele>
        <time>2021-10-16T08:40:21Z</time>
      </trkpt>
      <trkpt lat="43.75144" lon="-1.3549">
        <ele>13.8</ele>
        <time>2021-10-16T08:40:31Z</time>
      </trkpt>
      <trkpt lat="43.7515" lon="-1.3549">
        <ele>13.2</ele>
        <time>2021-10-16T08:40:46Z</time>
      </trkpt>
      <trkpt lat="43.75152" lon="-1.35489">
        <ele>13.2</ele>
        <time>2021-10-16T08:40:47Z</time>
      </trkpt>
      <trkpt lat="43.75154" lon="-1.35489">
        <ele>13.2</ele>
        <time>2021-10-16T08:40:48Z</time>
      </trkpt>
      <trkpt lat="43.75164" lon="-1.35488">
        <ele>13.4</ele>
        <time>2021-10-16T08:40:53Z</time>
      </trkpt>
      <trkpt lat="43.75173" lon="-1.35484">
        <ele>13</ele>
        <time>2021-10-16T08:40:57Z</time>
      </trkpt>
      <trkpt lat="43.75175" lon="-1.35484">
        <ele>13</ele>
        <time>2021-10-16T08:40:58Z</time>
      </trkpt>
      <trkpt lat="43.75177" lon="-1.35483">
        <ele>13</ele>
        <time>2021-10-16T08:40:59Z</time>
      </trkpt>
      <trkpt lat="43.75179" lon="-1.35484">
        <ele>13</ele>
        <time>2021-10-16T08:41:00Z</time>
      </trkpt>
      <trkpt lat="43.75181" lon="-1.35485">
        <ele>13</ele>
        <time>2021-10-16T08:41:01Z</time>
      </trkpt>
      <trkpt lat="43.75182" lon="-1.35488">
        <ele>13</ele>
        <time>2021-10-16T08:41:02Z</time>
      </trkpt>
      <trkpt lat="43.75183" lon="-1.3549">
        <ele>13</ele>
        <time>2021-10-16T08:41:03Z</time>
      </trkpt>
      <trkpt lat="43.75183" lon="-1.35492">
        <ele>13</ele>
        <time>2021-10-16T08:41:04Z</time>
      </trkpt>
      <trkpt lat="43.75184" lon="-1.35495">
        <ele>13</ele>
        <time>2021-10-16T08:41:05Z</time>
      </trkpt>
      <trkpt lat="43.75185" lon="-1.35498">
        <ele>13.2</ele>
        <time>2021-10-16T08:41:06Z</time>
      </trkpt>
      <trkpt lat="43.75186" lon="-1.35515">
        <ele>13.2</ele>
        <time>2021-10-16T08:41:10Z</time>
      </trkpt>
      <trkpt lat="43.75187" lon="-1.35527">
        <ele>13.2</ele>
        <time>2021-10-16T08:41:13Z</time>
      </trkpt>
      <trkpt lat="43.75188" lon="-1.35532">
        <ele>13.2</ele>
        <time>2021-10-16T08:41:14Z</time>
      </trkpt>
      <trkpt lat="43.75191" lon="-1.35545">
        <ele>13.2</ele>
        <time>2021-10-16T08:41:17Z</time>
      </trkpt>
      <trkpt lat="43.75193" lon="-1.35555">
        <ele>13.2</ele>
        <time>2021-10-16T08:41:20Z</time>
      </trkpt>
      <trkpt lat="43.75193" lon="-1.35559">
        <ele>13.2</ele>
        <time>2021-10-16T08:41:21Z</time>
      </trkpt>
      <trkpt lat="43.75193" lon="-1.35562">
        <ele>13.2</ele>
        <time>2021-10-16T08:41:22Z</time>
      </trkpt>
      <trkpt lat="43.75194" lon="-1.35566">
        <ele>13.2</ele>
        <time>2021-10-16T08:41:23Z</time>
      </trkpt>
      <trkpt lat="43.75194" lon="-1.35569">
        <ele>13.2</ele>
        <time>2021-10-16T08:41:24Z</time>
      </trkpt>
      <trkpt lat="43.75194" lon="-1.35572">
        <ele>13.2</ele>
        <time>2021-10-16T08:41:25Z</time>
      </trkpt>
      <trkpt lat="43.75195" lon="-1.35575">
        <ele>13.2</ele>
        <time>2021-10-16T08:41:26Z</time>
      </trkpt>
      <trkpt lat="43.75195" lon="-1.35577">
        <ele>13.2</ele>
        <time>2021-10-16T08:41:27Z</time>
      </trkpt>
      <trkpt lat="43.75195" lon="-1.35579">
        <ele>13.2</ele>
        <time>2021-10-16T08:41:28Z</time>
      </trkpt>
      <trkpt lat="43.75196" lon="-1.3558">
        <ele>13.4</ele>
        <time>2021-10-16T08:41:29Z</time>
      </trkpt>
      <trkpt lat="43.75195" lon="-1.35581">
        <ele>13.4</ele>
        <time>2021-10-16T08:41:30Z</time>
      </trkpt>
      <trkpt lat="43.75194" lon="-1.35581">
        <ele>13.4</ele>
        <time>2021-10-16T08:41:31Z</time>
      </trkpt>
      <trkpt lat="43.75193" lon="-1.3558">
        <ele>13.4</ele>
        <time>2021-10-16T08:41:32Z</time>
      </trkpt>
      <trkpt lat="43.75194" lon="-1.35576">
        <ele>13.2</ele>
        <time>2021-10-16T08:41:34Z</time>
      </trkpt>
      <trkpt lat="43.75192" lon="-1.35561">
        <ele>13.2</ele>
        <time>2021-10-16T08:41:39Z</time>
      </trkpt>
      <trkpt lat="43.75191" lon="-1.35549">
        <ele>13.2</ele>
        <time>2021-10-16T08:41:42Z</time>
      </trkpt>
      <trkpt lat="43.75189" lon="-1.35541">
        <ele>13.2</ele>
        <time>2021-10-16T08:41:44Z</time>
      </trkpt>
      <trkpt lat="43.75185" lon="-1.35506">
        <ele>13</ele>
        <time>2021-10-16T08:41:51Z</time>
      </trkpt>
      <trkpt lat="43.75185" lon="-1.35477">
        <ele>13.2</ele>
        <time>2021-10-16T08:41:57Z</time>
      </trkpt>
      <trkpt lat="43.75183" lon="-1.35451">
        <ele>13.2</ele>
        <time>2021-10-16T08:42:02Z</time>
      </trkpt>
      <trkpt lat="43.75181" lon="-1.35436">
        <ele>13.2</ele>
        <time>2021-10-16T08:42:05Z</time>
      </trkpt>
      <trkpt lat="43.7518" lon="-1.35427">
        <ele>13.2</ele>
        <time>2021-10-16T08:42:07Z</time>
      </trkpt>
      <trkpt lat="43.75179" lon="-1.35423">
        <ele>13.2</ele>
        <time>2021-10-16T08:42:08Z</time>
      </trkpt>
      <trkpt lat="43.75179" lon="-1.3542">
        <ele>13.2</ele>
        <time>2021-10-16T08:42:09Z</time>
      </trkpt>
      <trkpt lat="43.75178" lon="-1.35417">
        <ele>13.4</ele>
        <time>2021-10-16T08:42:10Z</time>
      </trkpt>
      <trkpt lat="43.75178" lon="-1.35414">
        <ele>13.4</ele>
        <time>2021-10-16T08:42:11Z</time>
      </trkpt>
      <trkpt lat="43.75177" lon="-1.35411">
        <ele>13.4</ele>
        <time>2021-10-16T08:42:12Z</time>
      </trkpt>
      <trkpt lat="43.75177" lon="-1.35409">
        <ele>13.4</ele>
        <time>2021-10-16T08:42:13Z</time>
      </trkpt>
      <trkpt lat="43.75178" lon="-1.35406">
        <ele>13.6</ele>
        <time>2021-10-16T08:42:14Z</time>
      </trkpt>
      <trkpt lat="43.75179" lon="-1.35404">
        <ele>13.6</ele>
        <time>2021-10-16T08:42:15Z</time>
      </trkpt>
      <trkpt lat="43.75179" lon="-1.35401">
        <ele>13.8</ele>
        <time>2021-10-16T08:42:16Z</time>
      </trkpt>
      <trkpt lat="43.75179" lon="-1.35399">
        <ele>13.8</ele>
        <time>2021-10-16T08:42:17Z</time>
      </trkpt>
      <trkpt lat="43.75178" lon="-1.35396">
        <ele>14</ele>
        <time>2021-10-16T08:42:18Z</time>
      </trkpt>
      <trkpt lat="43.75177" lon="-1.35392">
        <ele>14.2</ele>
        <time>2021-10-16T08:42:19Z</time>
      </trkpt>
      <trkpt lat="43.75176" lon="-1.35389">
        <ele>14.4</ele>
        <time>2021-10-16T08:42:20Z</time>
      </trkpt>
      <trkpt lat="43.75175" lon="-1.35386">
        <ele>14.4</ele>
        <time>2021-10-16T08:42:21Z</time>
      </trkpt>
      <trkpt lat="43.75175" lon="-1.35382">
        <ele>14.6</ele>
        <time>2021-10-16T08:42:22Z</time>
      </trkpt>
      <trkpt lat="43.75173" lon="-1.35371">
        <ele>14.8</ele>
        <time>2021-10-16T08:42:25Z</time>
      </trkpt>
      <trkpt lat="43.75168" lon="-1.35353">
        <ele>15.4</ele>
        <time>2021-10-16T08:42:30Z</time>
      </trkpt>
      <trkpt lat="43.75169" lon="-1.35349">
        <ele>15.4</ele>
        <time>2021-10-16T08:42:31Z</time>
      </trkpt>
      <trkpt lat="43.7517" lon="-1.35347">
        <ele>15.4</ele>
        <time>2021-10-16T08:42:32Z</time>
      </trkpt>
      <trkpt lat="43.75172" lon="-1.35343">
        <ele>15.4</ele>
        <time>2021-10-16T08:42:33Z</time>
      </trkpt>
      <trkpt lat="43.75174" lon="-1.3534">
        <ele>15.6</ele>
        <time>2021-10-16T08:42:34Z</time>
      </trkpt>
      <trkpt lat="43.75177" lon="-1.35338">
        <ele>15.6</ele>
        <time>2021-10-16T08:42:35Z</time>
      </trkpt>
      <trkpt lat="43.75179" lon="-1.35335">
        <ele>15.6</ele>
        <time>2021-10-16T08:42:36Z</time>
      </trkpt>
      <trkpt lat="43.75191" lon="-1.35326">
        <ele>15.2</ele>
        <time>2021-10-16T08:42:41Z</time>
      </trkpt>
      <trkpt lat="43.75192" lon="-1.35326">
        <ele>15</ele>
        <time>2021-10-16T08:42:42Z</time>
      </trkpt>
      <trkpt lat="43.75194" lon="-1.35326">
        <ele>14.8</ele>
        <time>2021-10-16T08:42:43Z</time>
      </trkpt>
      <trkpt lat="43.75195" lon="-1.35327">
        <ele>14.8</ele>
        <time>2021-10-16T08:42:44Z</time>
      </trkpt>
      <trkpt lat="43.75196" lon="-1.35328">
        <ele>14.6</ele>
        <time>2021-10-16T08:42:45Z</time>
      </trkpt>
      <trkpt lat="43.75196" lon="-1.35329">
        <ele>14.6</ele>
        <time>2021-10-16T08:42:46Z</time>
      </trkpt>
      <trkpt lat="43.75196" lon="-1.35329">
        <ele>14.2</ele>
        <time>2021-10-16T08:42:50Z</time>
      </trkpt>
      <trkpt lat="43.75197" lon="-1.3533">
        <ele>14</ele>
        <time>2021-10-16T08:42:57Z</time>
      </trkpt>
      <trkpt lat="43.75197" lon="-1.3533">
        <ele>14.2</ele>
        <time>2021-10-16T08:43:02Z</time>
      </trkpt>
    </trkseg>
  </trk>
</gpx>